<?xml version="1.0" encoding="UTF-8"?>
<gpx version="1.1" creator="https://www.youtrack.es" xsi:schemaLocation="http://www.topografix.com/GPX/1/1 http://www.topografix.com/GPX/1/1/gpx.xsd http://www.garmin.com/xmlschemas/GpxExtensions/v3 http://www.garmin.com/xmlschemas/GpxExtensionsv3.xsd http://www.garmin.com/xmlschemas/TrackPointExtension/v1 http://www.garmin.com/xmlschemas/TrackPointExtensionv1.xsd" xmlns:gpxtpx="http://www.garmin.com/xmlschemas/TrackPointExtension/v1" xmlns:gpxx="http://www.garmin.com/xmlschemas/GpxExtensions/v3" xmlns:xsi="http://www.w3.org/2001/XMLSchema-instance">
  <metadata>
    <link href="https://www.youtrack.es">
      <text>YouTrack.es</text>
    </link>
    <time>2026-05-08T20:40:47Z</time>
  </metadata>
  <trk>
    <src>https://www.youtrack.es</src>
    <link href="https://www.youtrack.es/ruta/2370-t-lbr-d10">
      <text>YouTrack.es</text>
    </link>
    <trkseg>
      <trkpt lat="42.0318490" lon="-8.7424350">
        <ele>82.0</ele>
        <time>2018-09-29T06:44:49Z</time>
      </trkpt>
      <trkpt lat="42.0318460" lon="-8.7424450">
        <ele>82.0</ele>
        <time>2018-09-29T06:44:50Z</time>
      </trkpt>
      <trkpt lat="42.0317840" lon="-8.7424170">
        <ele>81.6</ele>
        <time>2018-09-29T06:44:54Z</time>
      </trkpt>
      <trkpt lat="42.0316610" lon="-8.7423660">
        <ele>81.0</ele>
        <time>2018-09-29T06:44:58Z</time>
      </trkpt>
      <trkpt lat="42.0314910" lon="-8.7423470">
        <ele>80.0</ele>
        <time>2018-09-29T06:45:02Z</time>
      </trkpt>
      <trkpt lat="42.0313990" lon="-8.7423290">
        <ele>79.4</ele>
        <time>2018-09-29T06:45:04Z</time>
      </trkpt>
      <trkpt lat="42.0313600" lon="-8.7422230">
        <ele>79.0</ele>
        <time>2018-09-29T06:45:06Z</time>
      </trkpt>
      <trkpt lat="42.0313770" lon="-8.7418470">
        <ele>79.8</ele>
        <time>2018-09-29T06:45:11Z</time>
      </trkpt>
      <trkpt lat="42.0313850" lon="-8.7417100">
        <ele>79.4</ele>
        <time>2018-09-29T06:45:13Z</time>
      </trkpt>
      <trkpt lat="42.0314470" lon="-8.7415880">
        <ele>78.6</ele>
        <time>2018-09-29T06:45:15Z</time>
      </trkpt>
      <trkpt lat="42.0314790" lon="-8.7415150">
        <ele>78.0</ele>
        <time>2018-09-29T06:45:16Z</time>
      </trkpt>
      <trkpt lat="42.0314860" lon="-8.7414310">
        <ele>77.6</ele>
        <time>2018-09-29T06:45:17Z</time>
      </trkpt>
      <trkpt lat="42.0314750" lon="-8.7412560">
        <ele>76.2</ele>
        <time>2018-09-29T06:45:19Z</time>
      </trkpt>
      <trkpt lat="42.0314600" lon="-8.7410750">
        <ele>75.2</ele>
        <time>2018-09-29T06:45:21Z</time>
      </trkpt>
      <trkpt lat="42.0314470" lon="-8.7407830">
        <ele>74.2</ele>
        <time>2018-09-29T06:45:24Z</time>
      </trkpt>
      <trkpt lat="42.0314500" lon="-8.7406750">
        <ele>73.6</ele>
        <time>2018-09-29T06:45:25Z</time>
      </trkpt>
      <trkpt lat="42.0314940" lon="-8.7404470">
        <ele>73.0</ele>
        <time>2018-09-29T06:45:27Z</time>
      </trkpt>
      <trkpt lat="42.0316310" lon="-8.7399470">
        <ele>72.0</ele>
        <time>2018-09-29T06:45:31Z</time>
      </trkpt>
      <trkpt lat="42.0316950" lon="-8.7396860">
        <ele>70.8</ele>
        <time>2018-09-29T06:45:33Z</time>
      </trkpt>
      <trkpt lat="42.0317350" lon="-8.7395690">
        <ele>70.2</ele>
        <time>2018-09-29T06:45:34Z</time>
      </trkpt>
      <trkpt lat="42.0317930" lon="-8.7394830">
        <ele>69.4</ele>
        <time>2018-09-29T06:45:35Z</time>
      </trkpt>
      <trkpt lat="42.0319410" lon="-8.7394270">
        <ele>68.0</ele>
        <time>2018-09-29T06:45:37Z</time>
      </trkpt>
      <trkpt lat="42.0320130" lon="-8.7394150">
        <ele>66.8</ele>
        <time>2018-09-29T06:45:38Z</time>
      </trkpt>
      <trkpt lat="42.0320840" lon="-8.7394040">
        <ele>65.8</ele>
        <time>2018-09-29T06:45:39Z</time>
      </trkpt>
      <trkpt lat="42.0322130" lon="-8.7393790">
        <ele>64.0</ele>
        <time>2018-09-29T06:45:41Z</time>
      </trkpt>
      <trkpt lat="42.0323160" lon="-8.7392790">
        <ele>62.8</ele>
        <time>2018-09-29T06:45:43Z</time>
      </trkpt>
      <trkpt lat="42.0324270" lon="-8.7390520">
        <ele>62.0</ele>
        <time>2018-09-29T06:45:46Z</time>
      </trkpt>
      <trkpt lat="42.0325620" lon="-8.7389120">
        <ele>61.8</ele>
        <time>2018-09-29T06:45:49Z</time>
      </trkpt>
      <trkpt lat="42.0326230" lon="-8.7389040">
        <ele>61.6</ele>
        <time>2018-09-29T06:45:50Z</time>
      </trkpt>
      <trkpt lat="42.0326840" lon="-8.7388950">
        <ele>61.4</ele>
        <time>2018-09-29T06:45:51Z</time>
      </trkpt>
      <trkpt lat="42.0327450" lon="-8.7388820">
        <ele>61.0</ele>
        <time>2018-09-29T06:45:52Z</time>
      </trkpt>
      <trkpt lat="42.0328050" lon="-8.7388560">
        <ele>60.4</ele>
        <time>2018-09-29T06:45:53Z</time>
      </trkpt>
      <trkpt lat="42.0329090" lon="-8.7387780">
        <ele>59.2</ele>
        <time>2018-09-29T06:45:55Z</time>
      </trkpt>
      <trkpt lat="42.0329560" lon="-8.7387330">
        <ele>58.6</ele>
        <time>2018-09-29T06:45:56Z</time>
      </trkpt>
      <trkpt lat="42.0330550" lon="-8.7386600">
        <ele>58.0</ele>
        <time>2018-09-29T06:45:58Z</time>
      </trkpt>
      <trkpt lat="42.0333730" lon="-8.7387400">
        <ele>57.0</ele>
        <time>2018-09-29T06:46:04Z</time>
      </trkpt>
      <trkpt lat="42.0334230" lon="-8.7387710">
        <ele>57.0</ele>
        <time>2018-09-29T06:46:05Z</time>
      </trkpt>
      <trkpt lat="42.0334800" lon="-8.7387830">
        <ele>56.8</ele>
        <time>2018-09-29T06:46:06Z</time>
      </trkpt>
      <trkpt lat="42.0337330" lon="-8.7384910">
        <ele>56.2</ele>
        <time>2018-09-29T06:46:11Z</time>
      </trkpt>
      <trkpt lat="42.0338510" lon="-8.7382660">
        <ele>56.0</ele>
        <time>2018-09-29T06:46:14Z</time>
      </trkpt>
      <trkpt lat="42.0338720" lon="-8.7381910">
        <ele>55.6</ele>
        <time>2018-09-29T06:46:15Z</time>
      </trkpt>
      <trkpt lat="42.0338710" lon="-8.7381130">
        <ele>55.2</ele>
        <time>2018-09-29T06:46:16Z</time>
      </trkpt>
      <trkpt lat="42.0338160" lon="-8.7379750">
        <ele>54.4</ele>
        <time>2018-09-29T06:46:18Z</time>
      </trkpt>
      <trkpt lat="42.0336950" lon="-8.7378180">
        <ele>53.4</ele>
        <time>2018-09-29T06:46:21Z</time>
      </trkpt>
      <trkpt lat="42.0335990" lon="-8.7377450">
        <ele>52.2</ele>
        <time>2018-09-29T06:46:23Z</time>
      </trkpt>
      <trkpt lat="42.0335070" lon="-8.7376710">
        <ele>51.6</ele>
        <time>2018-09-29T06:46:25Z</time>
      </trkpt>
      <trkpt lat="42.0334010" lon="-8.7375290">
        <ele>51.2</ele>
        <time>2018-09-29T06:46:28Z</time>
      </trkpt>
      <trkpt lat="42.0333540" lon="-8.7372730">
        <ele>50.6</ele>
        <time>2018-09-29T06:46:32Z</time>
      </trkpt>
      <trkpt lat="42.0333330" lon="-8.7370590">
        <ele>50.2</ele>
        <time>2018-09-29T06:46:35Z</time>
      </trkpt>
      <trkpt lat="42.0332890" lon="-8.7369140">
        <ele>50.0</ele>
        <time>2018-09-29T06:46:37Z</time>
      </trkpt>
      <trkpt lat="42.0332150" lon="-8.7367270">
        <ele>49.4</ele>
        <time>2018-09-29T06:46:40Z</time>
      </trkpt>
      <trkpt lat="42.0331500" lon="-8.7365570">
        <ele>49.0</ele>
        <time>2018-09-29T06:46:43Z</time>
      </trkpt>
      <trkpt lat="42.0331050" lon="-8.7363540">
        <ele>48.6</ele>
        <time>2018-09-29T06:46:46Z</time>
      </trkpt>
      <trkpt lat="42.0330770" lon="-8.7359570">
        <ele>48.0</ele>
        <time>2018-09-29T06:46:51Z</time>
      </trkpt>
      <trkpt lat="42.0330500" lon="-8.7357840">
        <ele>47.8</ele>
        <time>2018-09-29T06:46:53Z</time>
      </trkpt>
      <trkpt lat="42.0328980" lon="-8.7355020">
        <ele>47.0</ele>
        <time>2018-09-29T06:46:57Z</time>
      </trkpt>
      <trkpt lat="42.0328710" lon="-8.7354210">
        <ele>46.6</ele>
        <time>2018-09-29T06:46:58Z</time>
      </trkpt>
      <trkpt lat="42.0328530" lon="-8.7351050">
        <ele>45.8</ele>
        <time>2018-09-29T06:47:02Z</time>
      </trkpt>
      <trkpt lat="42.0328540" lon="-8.7350200">
        <ele>45.2</ele>
        <time>2018-09-29T06:47:03Z</time>
      </trkpt>
      <trkpt lat="42.0329700" lon="-8.7346990">
        <ele>44.6</ele>
        <time>2018-09-29T06:47:07Z</time>
      </trkpt>
      <trkpt lat="42.0330610" lon="-8.7345210">
        <ele>44.0</ele>
        <time>2018-09-29T06:47:09Z</time>
      </trkpt>
      <trkpt lat="42.0331400" lon="-8.7343370">
        <ele>42.8</ele>
        <time>2018-09-29T06:47:11Z</time>
      </trkpt>
      <trkpt lat="42.0332040" lon="-8.7341610">
        <ele>41.8</ele>
        <time>2018-09-29T06:47:13Z</time>
      </trkpt>
      <trkpt lat="42.0332760" lon="-8.7339970">
        <ele>40.8</ele>
        <time>2018-09-29T06:47:15Z</time>
      </trkpt>
      <trkpt lat="42.0333330" lon="-8.7338250">
        <ele>39.8</ele>
        <time>2018-09-29T06:47:17Z</time>
      </trkpt>
      <trkpt lat="42.0333780" lon="-8.7336760">
        <ele>38.4</ele>
        <time>2018-09-29T06:47:19Z</time>
      </trkpt>
      <trkpt lat="42.0333610" lon="-8.7334700">
        <ele>37.4</ele>
        <time>2018-09-29T06:47:22Z</time>
      </trkpt>
      <trkpt lat="42.0333220" lon="-8.7333580">
        <ele>36.4</ele>
        <time>2018-09-29T06:47:24Z</time>
      </trkpt>
      <trkpt lat="42.0332780" lon="-8.7332680">
        <ele>35.2</ele>
        <time>2018-09-29T06:47:26Z</time>
      </trkpt>
      <trkpt lat="42.0332350" lon="-8.7331710">
        <ele>34.4</ele>
        <time>2018-09-29T06:47:29Z</time>
      </trkpt>
      <trkpt lat="42.0331600" lon="-8.7329980">
        <ele>34.2</ele>
        <time>2018-09-29T06:47:35Z</time>
      </trkpt>
      <trkpt lat="42.0332030" lon="-8.7328880">
        <ele>34.2</ele>
        <time>2018-09-29T06:47:39Z</time>
      </trkpt>
      <trkpt lat="42.0332180" lon="-8.7328610">
        <ele>33.8</ele>
        <time>2018-09-29T06:47:40Z</time>
      </trkpt>
      <trkpt lat="42.0332320" lon="-8.7328310">
        <ele>33.8</ele>
        <time>2018-09-29T06:47:41Z</time>
      </trkpt>
      <trkpt lat="42.0332680" lon="-8.7327300">
        <ele>33.8</ele>
        <time>2018-09-29T06:47:45Z</time>
      </trkpt>
      <trkpt lat="42.0332880" lon="-8.7327020">
        <ele>33.8</ele>
        <time>2018-09-29T06:47:47Z</time>
      </trkpt>
      <trkpt lat="42.0333600" lon="-8.7326540">
        <ele>33.8</ele>
        <time>2018-09-29T06:47:52Z</time>
      </trkpt>
      <trkpt lat="42.0333520" lon="-8.7325050">
        <ele>33.8</ele>
        <time>2018-09-29T06:47:57Z</time>
      </trkpt>
      <trkpt lat="42.0331970" lon="-8.7321150">
        <ele>33.6</ele>
        <time>2018-09-29T06:48:11Z</time>
      </trkpt>
      <trkpt lat="42.0329390" lon="-8.7314740">
        <ele>33.2</ele>
        <time>2018-09-29T06:48:28Z</time>
      </trkpt>
      <trkpt lat="42.0328630" lon="-8.7313360">
        <ele>33.2</ele>
        <time>2018-09-29T06:48:32Z</time>
      </trkpt>
      <trkpt lat="42.0328130" lon="-8.7312170">
        <ele>33.2</ele>
        <time>2018-09-29T06:48:38Z</time>
      </trkpt>
      <trkpt lat="42.0328030" lon="-8.7311440">
        <ele>33.4</ele>
        <time>2018-09-29T06:48:42Z</time>
      </trkpt>
      <trkpt lat="42.0327830" lon="-8.7309670">
        <ele>33.4</ele>
        <time>2018-09-29T06:48:47Z</time>
      </trkpt>
      <trkpt lat="42.0327620" lon="-8.7308270">
        <ele>33.4</ele>
        <time>2018-09-29T06:48:51Z</time>
      </trkpt>
      <trkpt lat="42.0327450" lon="-8.7307290">
        <ele>33.8</ele>
        <time>2018-09-29T06:48:54Z</time>
      </trkpt>
      <trkpt lat="42.0327190" lon="-8.7306440">
        <ele>34.4</ele>
        <time>2018-09-29T06:48:57Z</time>
      </trkpt>
      <trkpt lat="42.0326890" lon="-8.7305590">
        <ele>34.6</ele>
        <time>2018-09-29T06:49:00Z</time>
      </trkpt>
      <trkpt lat="42.0326360" lon="-8.7304900">
        <ele>35.2</ele>
        <time>2018-09-29T06:49:03Z</time>
      </trkpt>
      <trkpt lat="42.0326080" lon="-8.7304460">
        <ele>35.8</ele>
        <time>2018-09-29T06:49:05Z</time>
      </trkpt>
      <trkpt lat="42.0325530" lon="-8.7303400">
        <ele>36.8</ele>
        <time>2018-09-29T06:49:10Z</time>
      </trkpt>
      <trkpt lat="42.0324750" lon="-8.7302190">
        <ele>38.0</ele>
        <time>2018-09-29T06:49:15Z</time>
      </trkpt>
      <trkpt lat="42.0323440" lon="-8.7302160">
        <ele>39.2</ele>
        <time>2018-09-29T06:49:20Z</time>
      </trkpt>
      <trkpt lat="42.0320560" lon="-8.7301490">
        <ele>40.2</ele>
        <time>2018-09-29T06:49:30Z</time>
      </trkpt>
      <trkpt lat="42.0318940" lon="-8.7300180">
        <ele>40.2</ele>
        <time>2018-09-29T06:49:36Z</time>
      </trkpt>
      <trkpt lat="42.0316460" lon="-8.7295800">
        <ele>40.4</ele>
        <time>2018-09-29T06:49:47Z</time>
      </trkpt>
      <trkpt lat="42.0315830" lon="-8.7294990">
        <ele>40.2</ele>
        <time>2018-09-29T06:49:49Z</time>
      </trkpt>
      <trkpt lat="42.0315000" lon="-8.7294350">
        <ele>40.2</ele>
        <time>2018-09-29T06:49:51Z</time>
      </trkpt>
      <trkpt lat="42.0314040" lon="-8.7293870">
        <ele>40.2</ele>
        <time>2018-09-29T06:49:53Z</time>
      </trkpt>
      <trkpt lat="42.0313040" lon="-8.7293350">
        <ele>39.8</ele>
        <time>2018-09-29T06:49:55Z</time>
      </trkpt>
      <trkpt lat="42.0312290" lon="-8.7292420">
        <ele>39.6</ele>
        <time>2018-09-29T06:49:57Z</time>
      </trkpt>
      <trkpt lat="42.0312180" lon="-8.7291360">
        <ele>39.0</ele>
        <time>2018-09-29T06:49:59Z</time>
      </trkpt>
      <trkpt lat="42.0312190" lon="-8.7290900">
        <ele>38.8</ele>
        <time>2018-09-29T06:50:00Z</time>
      </trkpt>
      <trkpt lat="42.0311410" lon="-8.7284590">
        <ele>39.2</ele>
        <time>2018-09-29T06:50:16Z</time>
      </trkpt>
      <trkpt lat="42.0311470" lon="-8.7283290">
        <ele>40.0</ele>
        <time>2018-09-29T06:50:20Z</time>
      </trkpt>
      <trkpt lat="42.0311490" lon="-8.7282990">
        <ele>40.2</ele>
        <time>2018-09-29T06:50:21Z</time>
      </trkpt>
      <trkpt lat="42.0311600" lon="-8.7281620">
        <ele>40.8</ele>
        <time>2018-09-29T06:50:25Z</time>
      </trkpt>
      <trkpt lat="42.0311720" lon="-8.7280910">
        <ele>41.4</ele>
        <time>2018-09-29T06:50:27Z</time>
      </trkpt>
      <trkpt lat="42.0312070" lon="-8.7279550">
        <ele>42.0</ele>
        <time>2018-09-29T06:50:31Z</time>
      </trkpt>
      <trkpt lat="42.0312260" lon="-8.7278870">
        <ele>42.4</ele>
        <time>2018-09-29T06:50:33Z</time>
      </trkpt>
      <trkpt lat="42.0312880" lon="-8.7277240">
        <ele>43.0</ele>
        <time>2018-09-29T06:50:38Z</time>
      </trkpt>
      <trkpt lat="42.0313100" lon="-8.7276650">
        <ele>43.4</ele>
        <time>2018-09-29T06:50:40Z</time>
      </trkpt>
      <trkpt lat="42.0313360" lon="-8.7276110">
        <ele>43.8</ele>
        <time>2018-09-29T06:50:42Z</time>
      </trkpt>
      <trkpt lat="42.0313710" lon="-8.7274720">
        <ele>44.4</ele>
        <time>2018-09-29T06:50:47Z</time>
      </trkpt>
      <trkpt lat="42.0313680" lon="-8.7273570">
        <ele>45.6</ele>
        <time>2018-09-29T06:50:51Z</time>
      </trkpt>
      <trkpt lat="42.0313610" lon="-8.7272430">
        <ele>46.8</ele>
        <time>2018-09-29T06:50:55Z</time>
      </trkpt>
      <trkpt lat="42.0313520" lon="-8.7271240">
        <ele>47.8</ele>
        <time>2018-09-29T06:50:59Z</time>
      </trkpt>
      <trkpt lat="42.0313530" lon="-8.7270200">
        <ele>49.0</ele>
        <time>2018-09-29T06:51:03Z</time>
      </trkpt>
      <trkpt lat="42.0314190" lon="-8.7269340">
        <ele>50.2</ele>
        <time>2018-09-29T06:51:08Z</time>
      </trkpt>
      <trkpt lat="42.0314830" lon="-8.7268970">
        <ele>51.2</ele>
        <time>2018-09-29T06:51:12Z</time>
      </trkpt>
      <trkpt lat="42.0315010" lon="-8.7268870">
        <ele>51.4</ele>
        <time>2018-09-29T06:51:13Z</time>
      </trkpt>
      <trkpt lat="42.0315550" lon="-8.7268670">
        <ele>52.4</ele>
        <time>2018-09-29T06:51:16Z</time>
      </trkpt>
      <trkpt lat="42.0316120" lon="-8.7268450">
        <ele>53.6</ele>
        <time>2018-09-29T06:51:19Z</time>
      </trkpt>
      <trkpt lat="42.0317080" lon="-8.7267930">
        <ele>54.8</ele>
        <time>2018-09-29T06:51:24Z</time>
      </trkpt>
      <trkpt lat="42.0317880" lon="-8.7267550">
        <ele>56.0</ele>
        <time>2018-09-29T06:51:28Z</time>
      </trkpt>
      <trkpt lat="42.0319140" lon="-8.7266680">
        <ele>57.2</ele>
        <time>2018-09-29T06:51:34Z</time>
      </trkpt>
      <trkpt lat="42.0320060" lon="-8.7265960">
        <ele>58.0</ele>
        <time>2018-09-29T06:51:39Z</time>
      </trkpt>
      <trkpt lat="42.0320730" lon="-8.7265150">
        <ele>58.8</ele>
        <time>2018-09-29T06:51:45Z</time>
      </trkpt>
      <trkpt lat="42.0320430" lon="-8.7264880">
        <ele>59.2</ele>
        <time>2018-09-29T06:51:47Z</time>
      </trkpt>
      <trkpt lat="42.0319380" lon="-8.7264950">
        <ele>60.4</ele>
        <time>2018-09-29T06:51:51Z</time>
      </trkpt>
      <trkpt lat="42.0317450" lon="-8.7265180">
        <ele>61.4</ele>
        <time>2018-09-29T06:51:57Z</time>
      </trkpt>
      <trkpt lat="42.0314880" lon="-8.7265120">
        <ele>62.4</ele>
        <time>2018-09-29T06:52:05Z</time>
      </trkpt>
      <trkpt lat="42.0314560" lon="-8.7265060">
        <ele>62.4</ele>
        <time>2018-09-29T06:52:06Z</time>
      </trkpt>
      <trkpt lat="42.0312220" lon="-8.7263900">
        <ele>63.6</ele>
        <time>2018-09-29T06:52:14Z</time>
      </trkpt>
      <trkpt lat="42.0309790" lon="-8.7262190">
        <ele>64.6</ele>
        <time>2018-09-29T06:52:23Z</time>
      </trkpt>
      <trkpt lat="42.0308130" lon="-8.7261510">
        <ele>65.4</ele>
        <time>2018-09-29T06:52:29Z</time>
      </trkpt>
      <trkpt lat="42.0307580" lon="-8.7261440">
        <ele>65.6</ele>
        <time>2018-09-29T06:52:31Z</time>
      </trkpt>
      <trkpt lat="42.0305670" lon="-8.7261230">
        <ele>66.8</ele>
        <time>2018-09-29T06:52:38Z</time>
      </trkpt>
      <trkpt lat="42.0304060" lon="-8.7260790">
        <ele>67.8</ele>
        <time>2018-09-29T06:52:44Z</time>
      </trkpt>
      <trkpt lat="42.0302960" lon="-8.7260040">
        <ele>69.0</ele>
        <time>2018-09-29T06:52:49Z</time>
      </trkpt>
      <trkpt lat="42.0301680" lon="-8.7259150">
        <ele>70.4</ele>
        <time>2018-09-29T06:52:55Z</time>
      </trkpt>
      <trkpt lat="42.0300140" lon="-8.7258090">
        <ele>71.4</ele>
        <time>2018-09-29T06:53:02Z</time>
      </trkpt>
      <trkpt lat="42.0298710" lon="-8.7257520">
        <ele>72.6</ele>
        <time>2018-09-29T06:53:08Z</time>
      </trkpt>
      <trkpt lat="42.0297300" lon="-8.7258040">
        <ele>73.6</ele>
        <time>2018-09-29T06:53:14Z</time>
      </trkpt>
      <trkpt lat="42.0295980" lon="-8.7259100">
        <ele>74.6</ele>
        <time>2018-09-29T06:53:20Z</time>
      </trkpt>
      <trkpt lat="42.0294700" lon="-8.7259670">
        <ele>75.8</ele>
        <time>2018-09-29T06:53:25Z</time>
      </trkpt>
      <trkpt lat="42.0293040" lon="-8.7259410">
        <ele>76.8</ele>
        <time>2018-09-29T06:53:32Z</time>
      </trkpt>
      <trkpt lat="42.0292100" lon="-8.7257950">
        <ele>78.0</ele>
        <time>2018-09-29T06:53:38Z</time>
      </trkpt>
      <trkpt lat="42.0291890" lon="-8.7256690">
        <ele>79.0</ele>
        <time>2018-09-29T06:53:42Z</time>
      </trkpt>
      <trkpt lat="42.0292050" lon="-8.7255050">
        <ele>80.2</ele>
        <time>2018-09-29T06:53:47Z</time>
      </trkpt>
      <trkpt lat="42.0292990" lon="-8.7253440">
        <ele>81.2</ele>
        <time>2018-09-29T06:53:53Z</time>
      </trkpt>
      <trkpt lat="42.0294090" lon="-8.7252450">
        <ele>82.4</ele>
        <time>2018-09-29T06:53:58Z</time>
      </trkpt>
      <trkpt lat="42.0295750" lon="-8.7251280">
        <ele>83.4</ele>
        <time>2018-09-29T06:54:04Z</time>
      </trkpt>
      <trkpt lat="42.0297840" lon="-8.7250360">
        <ele>84.4</ele>
        <time>2018-09-29T06:54:11Z</time>
      </trkpt>
      <trkpt lat="42.0299910" lon="-8.7250260">
        <ele>85.4</ele>
        <time>2018-09-29T06:54:18Z</time>
      </trkpt>
      <trkpt lat="42.0301780" lon="-8.7250410">
        <ele>86.6</ele>
        <time>2018-09-29T06:54:25Z</time>
      </trkpt>
      <trkpt lat="42.0303370" lon="-8.7250710">
        <ele>87.8</ele>
        <time>2018-09-29T06:54:31Z</time>
      </trkpt>
      <trkpt lat="42.0305090" lon="-8.7250450">
        <ele>89.0</ele>
        <time>2018-09-29T06:54:37Z</time>
      </trkpt>
      <trkpt lat="42.0307490" lon="-8.7249130">
        <ele>90.0</ele>
        <time>2018-09-29T06:54:46Z</time>
      </trkpt>
      <trkpt lat="42.0308650" lon="-8.7247630">
        <ele>91.2</ele>
        <time>2018-09-29T06:54:53Z</time>
      </trkpt>
      <trkpt lat="42.0309420" lon="-8.7246000">
        <ele>92.2</ele>
        <time>2018-09-29T06:54:59Z</time>
      </trkpt>
      <trkpt lat="42.0310150" lon="-8.7244660">
        <ele>93.4</ele>
        <time>2018-09-29T06:55:05Z</time>
      </trkpt>
      <trkpt lat="42.0310290" lon="-8.7244570">
        <ele>93.8</ele>
        <time>2018-09-29T06:55:06Z</time>
      </trkpt>
      <trkpt lat="42.0310810" lon="-8.7243860">
        <ele>94.6</ele>
        <time>2018-09-29T06:55:10Z</time>
      </trkpt>
      <trkpt lat="42.0310930" lon="-8.7243610">
        <ele>94.8</ele>
        <time>2018-09-29T06:55:11Z</time>
      </trkpt>
      <trkpt lat="42.0312230" lon="-8.7241710">
        <ele>95.8</ele>
        <time>2018-09-29T06:55:19Z</time>
      </trkpt>
      <trkpt lat="42.0313390" lon="-8.7240760">
        <ele>97.0</ele>
        <time>2018-09-29T06:55:25Z</time>
      </trkpt>
      <trkpt lat="42.0314500" lon="-8.7240470">
        <ele>98.0</ele>
        <time>2018-09-29T06:55:30Z</time>
      </trkpt>
      <trkpt lat="42.0315580" lon="-8.7240110">
        <ele>99.2</ele>
        <time>2018-09-29T06:55:35Z</time>
      </trkpt>
      <trkpt lat="42.0316450" lon="-8.7239920">
        <ele>100.4</ele>
        <time>2018-09-29T06:55:39Z</time>
      </trkpt>
      <trkpt lat="42.0317150" lon="-8.7239760">
        <ele>101.4</ele>
        <time>2018-09-29T06:55:44Z</time>
      </trkpt>
      <trkpt lat="42.0318280" lon="-8.7239990">
        <ele>102.2</ele>
        <time>2018-09-29T07:01:11Z</time>
      </trkpt>
      <trkpt lat="42.0318460" lon="-8.7240010">
        <ele>102.4</ele>
        <time>2018-09-29T07:01:12Z</time>
      </trkpt>
      <trkpt lat="42.0319500" lon="-8.7240250">
        <ele>102.4</ele>
        <time>2018-09-29T07:01:17Z</time>
      </trkpt>
      <trkpt lat="42.0320430" lon="-8.7240470">
        <ele>102.6</ele>
        <time>2018-09-29T07:01:21Z</time>
      </trkpt>
      <trkpt lat="42.0321850" lon="-8.7240990">
        <ele>103.0</ele>
        <time>2018-09-29T07:01:26Z</time>
      </trkpt>
      <trkpt lat="42.0322760" lon="-8.7241250">
        <ele>103.4</ele>
        <time>2018-09-29T07:01:29Z</time>
      </trkpt>
      <trkpt lat="42.0324000" lon="-8.7241350">
        <ele>103.8</ele>
        <time>2018-09-29T07:01:33Z</time>
      </trkpt>
      <trkpt lat="42.0325480" lon="-8.7240520">
        <ele>104.4</ele>
        <time>2018-09-29T07:01:39Z</time>
      </trkpt>
      <trkpt lat="42.0326600" lon="-8.7239520">
        <ele>105.2</ele>
        <time>2018-09-29T07:01:44Z</time>
      </trkpt>
      <trkpt lat="42.0327020" lon="-8.7239090">
        <ele>105.6</ele>
        <time>2018-09-29T07:01:46Z</time>
      </trkpt>
      <trkpt lat="42.0328230" lon="-8.7237750">
        <ele>106.4</ele>
        <time>2018-09-29T07:01:52Z</time>
      </trkpt>
      <trkpt lat="42.0328380" lon="-8.7237490">
        <ele>106.8</ele>
        <time>2018-09-29T07:01:53Z</time>
      </trkpt>
      <trkpt lat="42.0329090" lon="-8.7236140">
        <ele>108.0</ele>
        <time>2018-09-29T07:01:58Z</time>
      </trkpt>
      <trkpt lat="42.0329640" lon="-8.7235010">
        <ele>109.0</ele>
        <time>2018-09-29T07:02:02Z</time>
      </trkpt>
      <trkpt lat="42.0330570" lon="-8.7233830">
        <ele>110.2</ele>
        <time>2018-09-29T07:02:07Z</time>
      </trkpt>
      <trkpt lat="42.0331350" lon="-8.7232970">
        <ele>111.0</ele>
        <time>2018-09-29T07:02:11Z</time>
      </trkpt>
      <trkpt lat="42.0331530" lon="-8.7232750">
        <ele>111.4</ele>
        <time>2018-09-29T07:02:12Z</time>
      </trkpt>
      <trkpt lat="42.0332430" lon="-8.7231880">
        <ele>112.4</ele>
        <time>2018-09-29T07:02:17Z</time>
      </trkpt>
      <trkpt lat="42.0333550" lon="-8.7231170">
        <ele>113.6</ele>
        <time>2018-09-29T07:02:23Z</time>
      </trkpt>
      <trkpt lat="42.0334840" lon="-8.7230880">
        <ele>114.6</ele>
        <time>2018-09-29T07:02:29Z</time>
      </trkpt>
      <trkpt lat="42.0335890" lon="-8.7230720">
        <ele>116.2</ele>
        <time>2018-09-29T07:02:34Z</time>
      </trkpt>
      <trkpt lat="42.0337000" lon="-8.7231020">
        <ele>117.2</ele>
        <time>2018-09-29T07:02:39Z</time>
      </trkpt>
      <trkpt lat="42.0338570" lon="-8.7231810">
        <ele>118.4</ele>
        <time>2018-09-29T07:02:45Z</time>
      </trkpt>
      <trkpt lat="42.0339760" lon="-8.7232500">
        <ele>119.4</ele>
        <time>2018-09-29T07:02:51Z</time>
      </trkpt>
      <trkpt lat="42.0340930" lon="-8.7232910">
        <ele>120.4</ele>
        <time>2018-09-29T07:02:56Z</time>
      </trkpt>
      <trkpt lat="42.0342120" lon="-8.7232940">
        <ele>121.6</ele>
        <time>2018-09-29T07:03:02Z</time>
      </trkpt>
      <trkpt lat="42.0343230" lon="-8.7232870">
        <ele>122.8</ele>
        <time>2018-09-29T07:03:07Z</time>
      </trkpt>
      <trkpt lat="42.0344260" lon="-8.7232960">
        <ele>124.0</ele>
        <time>2018-09-29T07:03:12Z</time>
      </trkpt>
      <trkpt lat="42.0345440" lon="-8.7233170">
        <ele>125.0</ele>
        <time>2018-09-29T07:03:17Z</time>
      </trkpt>
      <trkpt lat="42.0347080" lon="-8.7233210">
        <ele>126.4</ele>
        <time>2018-09-29T07:03:23Z</time>
      </trkpt>
      <trkpt lat="42.0348280" lon="-8.7233220">
        <ele>127.2</ele>
        <time>2018-09-29T07:03:28Z</time>
      </trkpt>
      <trkpt lat="42.0349720" lon="-8.7232860">
        <ele>128.2</ele>
        <time>2018-09-29T07:03:33Z</time>
      </trkpt>
      <trkpt lat="42.0350890" lon="-8.7232350">
        <ele>129.4</ele>
        <time>2018-09-29T07:03:38Z</time>
      </trkpt>
      <trkpt lat="42.0351730" lon="-8.7231870">
        <ele>130.6</ele>
        <time>2018-09-29T07:03:43Z</time>
      </trkpt>
      <trkpt lat="42.0352770" lon="-8.7231100">
        <ele>131.6</ele>
        <time>2018-09-29T07:03:49Z</time>
      </trkpt>
      <trkpt lat="42.0354400" lon="-8.7230250">
        <ele>132.6</ele>
        <time>2018-09-29T07:03:57Z</time>
      </trkpt>
      <trkpt lat="42.0354790" lon="-8.7230280">
        <ele>133.2</ele>
        <time>2018-09-29T07:04:00Z</time>
      </trkpt>
      <trkpt lat="42.0355370" lon="-8.7230300">
        <ele>134.6</ele>
        <time>2018-09-29T07:05:14Z</time>
      </trkpt>
      <trkpt lat="42.0355580" lon="-8.7230370">
        <ele>134.6</ele>
        <time>2018-09-29T07:05:15Z</time>
      </trkpt>
      <trkpt lat="42.0357990" lon="-8.7230920">
        <ele>135.6</ele>
        <time>2018-09-29T07:05:25Z</time>
      </trkpt>
      <trkpt lat="42.0358480" lon="-8.7230680">
        <ele>136.0</ele>
        <time>2018-09-29T07:05:27Z</time>
      </trkpt>
      <trkpt lat="42.0359080" lon="-8.7229990">
        <ele>136.8</ele>
        <time>2018-09-29T07:05:30Z</time>
      </trkpt>
      <trkpt lat="42.0359570" lon="-8.7229190">
        <ele>137.2</ele>
        <time>2018-09-29T07:05:33Z</time>
      </trkpt>
      <trkpt lat="42.0359880" lon="-8.7228630">
        <ele>137.6</ele>
        <time>2018-09-29T07:05:35Z</time>
      </trkpt>
      <trkpt lat="42.0360170" lon="-8.7228070">
        <ele>138.0</ele>
        <time>2018-09-29T07:05:37Z</time>
      </trkpt>
      <trkpt lat="42.0360980" lon="-8.7226810">
        <ele>139.2</ele>
        <time>2018-09-29T07:05:42Z</time>
      </trkpt>
      <trkpt lat="42.0362000" lon="-8.7226020">
        <ele>140.4</ele>
        <time>2018-09-29T07:05:47Z</time>
      </trkpt>
      <trkpt lat="42.0363120" lon="-8.7226070">
        <ele>141.4</ele>
        <time>2018-09-29T07:05:52Z</time>
      </trkpt>
      <trkpt lat="42.0364200" lon="-8.7227050">
        <ele>142.8</ele>
        <time>2018-09-29T07:05:57Z</time>
      </trkpt>
      <trkpt lat="42.0365240" lon="-8.7228030">
        <ele>144.0</ele>
        <time>2018-09-29T07:06:02Z</time>
      </trkpt>
      <trkpt lat="42.0366300" lon="-8.7228880">
        <ele>145.0</ele>
        <time>2018-09-29T07:06:07Z</time>
      </trkpt>
      <trkpt lat="42.0367580" lon="-8.7229110">
        <ele>146.0</ele>
        <time>2018-09-29T07:06:12Z</time>
      </trkpt>
      <trkpt lat="42.0368750" lon="-8.7228550">
        <ele>147.2</ele>
        <time>2018-09-29T07:06:17Z</time>
      </trkpt>
      <trkpt lat="42.0369740" lon="-8.7227660">
        <ele>148.2</ele>
        <time>2018-09-29T07:06:22Z</time>
      </trkpt>
      <trkpt lat="42.0371300" lon="-8.7227100">
        <ele>149.4</ele>
        <time>2018-09-29T07:06:28Z</time>
      </trkpt>
      <trkpt lat="42.0372400" lon="-8.7227330">
        <ele>150.4</ele>
        <time>2018-09-29T07:06:33Z</time>
      </trkpt>
      <trkpt lat="42.0373790" lon="-8.7228110">
        <ele>151.6</ele>
        <time>2018-09-29T07:06:39Z</time>
      </trkpt>
      <trkpt lat="42.0375040" lon="-8.7228260">
        <ele>152.8</ele>
        <time>2018-09-29T07:06:44Z</time>
      </trkpt>
      <trkpt lat="42.0377050" lon="-8.7227630">
        <ele>153.8</ele>
        <time>2018-09-29T07:06:52Z</time>
      </trkpt>
      <trkpt lat="42.0378930" lon="-8.7227630">
        <ele>155.0</ele>
        <time>2018-09-29T07:06:59Z</time>
      </trkpt>
      <trkpt lat="42.0380810" lon="-8.7227270">
        <ele>156.0</ele>
        <time>2018-09-29T07:07:06Z</time>
      </trkpt>
      <trkpt lat="42.0382430" lon="-8.7226710">
        <ele>157.0</ele>
        <time>2018-09-29T07:07:13Z</time>
      </trkpt>
      <trkpt lat="42.0383680" lon="-8.7226460">
        <ele>158.0</ele>
        <time>2018-09-29T07:07:19Z</time>
      </trkpt>
      <trkpt lat="42.0384930" lon="-8.7226370">
        <ele>159.2</ele>
        <time>2018-09-29T07:07:25Z</time>
      </trkpt>
      <trkpt lat="42.0385800" lon="-8.7226400">
        <ele>160.2</ele>
        <time>2018-09-29T07:07:29Z</time>
      </trkpt>
      <trkpt lat="42.0386700" lon="-8.7226330">
        <ele>161.6</ele>
        <time>2018-09-29T07:07:33Z</time>
      </trkpt>
      <trkpt lat="42.0387180" lon="-8.7225640">
        <ele>162.6</ele>
        <time>2018-09-29T07:07:36Z</time>
      </trkpt>
      <trkpt lat="42.0386600" lon="-8.7224840">
        <ele>163.8</ele>
        <time>2018-09-29T07:07:40Z</time>
      </trkpt>
      <trkpt lat="42.0385130" lon="-8.7224380">
        <ele>165.0</ele>
        <time>2018-09-29T07:07:45Z</time>
      </trkpt>
      <trkpt lat="42.0381370" lon="-8.7224650">
        <ele>166.0</ele>
        <time>2018-09-29T07:07:58Z</time>
      </trkpt>
      <trkpt lat="42.0381110" lon="-8.7224680">
        <ele>166.0</ele>
        <time>2018-09-29T07:07:59Z</time>
      </trkpt>
      <trkpt lat="42.0379520" lon="-8.7224570">
        <ele>167.0</ele>
        <time>2018-09-29T07:08:05Z</time>
      </trkpt>
      <trkpt lat="42.0378160" lon="-8.7224260">
        <ele>168.2</ele>
        <time>2018-09-29T07:08:10Z</time>
      </trkpt>
      <trkpt lat="42.0376900" lon="-8.7223390">
        <ele>169.2</ele>
        <time>2018-09-29T07:08:15Z</time>
      </trkpt>
      <trkpt lat="42.0375950" lon="-8.7221970">
        <ele>170.2</ele>
        <time>2018-09-29T07:08:20Z</time>
      </trkpt>
      <trkpt lat="42.0375480" lon="-8.7220610">
        <ele>171.2</ele>
        <time>2018-09-29T07:08:24Z</time>
      </trkpt>
      <trkpt lat="42.0374720" lon="-8.7218010">
        <ele>172.4</ele>
        <time>2018-09-29T07:08:31Z</time>
      </trkpt>
      <trkpt lat="42.0373860" lon="-8.7215600">
        <ele>173.4</ele>
        <time>2018-09-29T07:08:38Z</time>
      </trkpt>
      <trkpt lat="42.0373230" lon="-8.7213380">
        <ele>174.6</ele>
        <time>2018-09-29T07:08:45Z</time>
      </trkpt>
      <trkpt lat="42.0372940" lon="-8.7211810">
        <ele>175.6</ele>
        <time>2018-09-29T07:08:50Z</time>
      </trkpt>
      <trkpt lat="42.0372860" lon="-8.7210460">
        <ele>176.8</ele>
        <time>2018-09-29T07:08:54Z</time>
      </trkpt>
      <trkpt lat="42.0372770" lon="-8.7209490">
        <ele>178.2</ele>
        <time>2018-09-29T07:08:57Z</time>
      </trkpt>
      <trkpt lat="42.0372680" lon="-8.7208030">
        <ele>179.4</ele>
        <time>2018-09-29T07:09:01Z</time>
      </trkpt>
      <trkpt lat="42.0372650" lon="-8.7206520">
        <ele>180.4</ele>
        <time>2018-09-29T07:09:05Z</time>
      </trkpt>
      <trkpt lat="42.0372720" lon="-8.7204580">
        <ele>181.6</ele>
        <time>2018-09-29T07:09:10Z</time>
      </trkpt>
      <trkpt lat="42.0372820" lon="-8.7201820">
        <ele>182.8</ele>
        <time>2018-09-29T07:09:17Z</time>
      </trkpt>
      <trkpt lat="42.0372980" lon="-8.7199090">
        <ele>183.8</ele>
        <time>2018-09-29T07:09:24Z</time>
      </trkpt>
      <trkpt lat="42.0373090" lon="-8.7196750">
        <ele>185.2</ele>
        <time>2018-09-29T07:09:30Z</time>
      </trkpt>
      <trkpt lat="42.0373150" lon="-8.7194830">
        <ele>186.2</ele>
        <time>2018-09-29T07:09:35Z</time>
      </trkpt>
      <trkpt lat="42.0373260" lon="-8.7193090">
        <ele>187.2</ele>
        <time>2018-09-29T07:09:40Z</time>
      </trkpt>
      <trkpt lat="42.0373370" lon="-8.7191580">
        <ele>188.4</ele>
        <time>2018-09-29T07:09:45Z</time>
      </trkpt>
      <trkpt lat="42.0373420" lon="-8.7190250">
        <ele>189.4</ele>
        <time>2018-09-29T07:09:49Z</time>
      </trkpt>
      <trkpt lat="42.0373530" lon="-8.7188030">
        <ele>190.6</ele>
        <time>2018-09-29T07:09:56Z</time>
      </trkpt>
      <trkpt lat="42.0373780" lon="-8.7186800">
        <ele>191.8</ele>
        <time>2018-09-29T07:10:00Z</time>
      </trkpt>
      <trkpt lat="42.0373860" lon="-8.7185520">
        <ele>192.8</ele>
        <time>2018-09-29T07:10:04Z</time>
      </trkpt>
      <trkpt lat="42.0373890" lon="-8.7184560">
        <ele>194.0</ele>
        <time>2018-09-29T07:10:07Z</time>
      </trkpt>
      <trkpt lat="42.0373990" lon="-8.7183310">
        <ele>195.4</ele>
        <time>2018-09-29T07:10:11Z</time>
      </trkpt>
      <trkpt lat="42.0374020" lon="-8.7182030">
        <ele>196.6</ele>
        <time>2018-09-29T07:10:15Z</time>
      </trkpt>
      <trkpt lat="42.0374080" lon="-8.7180650">
        <ele>197.8</ele>
        <time>2018-09-29T07:10:19Z</time>
      </trkpt>
      <trkpt lat="42.0374210" lon="-8.7179240">
        <ele>199.2</ele>
        <time>2018-09-29T07:10:23Z</time>
      </trkpt>
      <trkpt lat="42.0374430" lon="-8.7177890">
        <ele>200.2</ele>
        <time>2018-09-29T07:10:27Z</time>
      </trkpt>
      <trkpt lat="42.0374860" lon="-8.7176240">
        <ele>201.4</ele>
        <time>2018-09-29T07:10:32Z</time>
      </trkpt>
      <trkpt lat="42.0375190" lon="-8.7174920">
        <ele>202.6</ele>
        <time>2018-09-29T07:10:36Z</time>
      </trkpt>
      <trkpt lat="42.0375590" lon="-8.7173530">
        <ele>204.0</ele>
        <time>2018-09-29T07:10:40Z</time>
      </trkpt>
      <trkpt lat="42.0375920" lon="-8.7172230">
        <ele>205.0</ele>
        <time>2018-09-29T07:10:44Z</time>
      </trkpt>
      <trkpt lat="42.0376340" lon="-8.7170950">
        <ele>206.2</ele>
        <time>2018-09-29T07:10:48Z</time>
      </trkpt>
      <trkpt lat="42.0377130" lon="-8.7169870">
        <ele>207.2</ele>
        <time>2018-09-29T07:10:53Z</time>
      </trkpt>
      <trkpt lat="42.0378630" lon="-8.7169570">
        <ele>207.8</ele>
        <time>2018-09-29T07:10:59Z</time>
      </trkpt>
      <trkpt lat="42.0379910" lon="-8.7169430">
        <ele>208.0</ele>
        <time>2018-09-29T07:11:06Z</time>
      </trkpt>
      <trkpt lat="42.0380990" lon="-8.7169350">
        <ele>209.2</ele>
        <time>2018-09-29T07:11:11Z</time>
      </trkpt>
      <trkpt lat="42.0381920" lon="-8.7169370">
        <ele>210.4</ele>
        <time>2018-09-29T07:11:15Z</time>
      </trkpt>
      <trkpt lat="42.0383310" lon="-8.7169570">
        <ele>211.2</ele>
        <time>2018-09-29T07:11:21Z</time>
      </trkpt>
      <trkpt lat="42.0383940" lon="-8.7169840">
        <ele>211.6</ele>
        <time>2018-09-29T07:11:24Z</time>
      </trkpt>
      <trkpt lat="42.0385340" lon="-8.7170480">
        <ele>212.4</ele>
        <time>2018-09-29T07:11:30Z</time>
      </trkpt>
      <trkpt lat="42.0385890" lon="-8.7170680">
        <ele>212.6</ele>
        <time>2018-09-29T07:11:32Z</time>
      </trkpt>
      <trkpt lat="42.0388620" lon="-8.7171370">
        <ele>213.8</ele>
        <time>2018-09-29T07:11:41Z</time>
      </trkpt>
      <trkpt lat="42.0390340" lon="-8.7171760">
        <ele>215.2</ele>
        <time>2018-09-29T07:11:48Z</time>
      </trkpt>
      <trkpt lat="42.0391700" lon="-8.7171910">
        <ele>216.2</ele>
        <time>2018-09-29T07:11:53Z</time>
      </trkpt>
      <trkpt lat="42.0392640" lon="-8.7172000">
        <ele>217.4</ele>
        <time>2018-09-29T07:11:57Z</time>
      </trkpt>
      <trkpt lat="42.0393560" lon="-8.7172070">
        <ele>218.4</ele>
        <time>2018-09-29T07:12:01Z</time>
      </trkpt>
      <trkpt lat="42.0394610" lon="-8.7172280">
        <ele>219.6</ele>
        <time>2018-09-29T07:12:05Z</time>
      </trkpt>
      <trkpt lat="42.0395400" lon="-8.7172520">
        <ele>220.6</ele>
        <time>2018-09-29T07:12:08Z</time>
      </trkpt>
      <trkpt lat="42.0396430" lon="-8.7172990">
        <ele>221.8</ele>
        <time>2018-09-29T07:12:12Z</time>
      </trkpt>
      <trkpt lat="42.0397770" lon="-8.7173090">
        <ele>222.8</ele>
        <time>2018-09-29T07:12:17Z</time>
      </trkpt>
      <trkpt lat="42.0399380" lon="-8.7172760">
        <ele>224.2</ele>
        <time>2018-09-29T07:12:23Z</time>
      </trkpt>
      <trkpt lat="42.0400590" lon="-8.7172300">
        <ele>225.2</ele>
        <time>2018-09-29T07:12:28Z</time>
      </trkpt>
      <trkpt lat="42.0401610" lon="-8.7171920">
        <ele>226.4</ele>
        <time>2018-09-29T07:12:32Z</time>
      </trkpt>
      <trkpt lat="42.0402650" lon="-8.7171620">
        <ele>227.4</ele>
        <time>2018-09-29T07:12:36Z</time>
      </trkpt>
      <trkpt lat="42.0403580" lon="-8.7171230">
        <ele>228.6</ele>
        <time>2018-09-29T07:12:40Z</time>
      </trkpt>
      <trkpt lat="42.0404860" lon="-8.7170740">
        <ele>229.8</ele>
        <time>2018-09-29T07:12:45Z</time>
      </trkpt>
      <trkpt lat="42.0406460" lon="-8.7170110">
        <ele>231.0</ele>
        <time>2018-09-29T07:12:51Z</time>
      </trkpt>
      <trkpt lat="42.0407850" lon="-8.7169530">
        <ele>232.2</ele>
        <time>2018-09-29T07:12:56Z</time>
      </trkpt>
      <trkpt lat="42.0409450" lon="-8.7169080">
        <ele>233.2</ele>
        <time>2018-09-29T07:13:02Z</time>
      </trkpt>
      <trkpt lat="42.0411260" lon="-8.7168110">
        <ele>234.2</ele>
        <time>2018-09-29T07:13:08Z</time>
      </trkpt>
      <trkpt lat="42.0413190" lon="-8.7166800">
        <ele>235.2</ele>
        <time>2018-09-29T07:13:14Z</time>
      </trkpt>
      <trkpt lat="42.0414630" lon="-8.7165930">
        <ele>235.4</ele>
        <time>2018-09-29T07:13:18Z</time>
      </trkpt>
      <trkpt lat="42.0415760" lon="-8.7165410">
        <ele>235.4</ele>
        <time>2018-09-29T07:13:21Z</time>
      </trkpt>
      <trkpt lat="42.0416480" lon="-8.7165250">
        <ele>235.4</ele>
        <time>2018-09-29T07:13:23Z</time>
      </trkpt>
      <trkpt lat="42.0417920" lon="-8.7165310">
        <ele>235.6</ele>
        <time>2018-09-29T07:13:27Z</time>
      </trkpt>
      <trkpt lat="42.0420250" lon="-8.7167020">
        <ele>235.6</ele>
        <time>2018-09-29T07:13:34Z</time>
      </trkpt>
      <trkpt lat="42.0421760" lon="-8.7168670">
        <ele>235.8</ele>
        <time>2018-09-29T07:13:39Z</time>
      </trkpt>
      <trkpt lat="42.0423830" lon="-8.7171460">
        <ele>236.4</ele>
        <time>2018-09-29T07:13:47Z</time>
      </trkpt>
      <trkpt lat="42.0426160" lon="-8.7174460">
        <ele>237.4</ele>
        <time>2018-09-29T07:13:57Z</time>
      </trkpt>
      <trkpt lat="42.0427280" lon="-8.7175310">
        <ele>238.4</ele>
        <time>2018-09-29T07:14:01Z</time>
      </trkpt>
      <trkpt lat="42.0428550" lon="-8.7176040">
        <ele>239.6</ele>
        <time>2018-09-29T07:14:05Z</time>
      </trkpt>
      <trkpt lat="42.0429600" lon="-8.7176470">
        <ele>240.8</ele>
        <time>2018-09-29T07:14:08Z</time>
      </trkpt>
      <trkpt lat="42.0432810" lon="-8.7176240">
        <ele>241.6</ele>
        <time>2018-09-29T07:14:16Z</time>
      </trkpt>
      <trkpt lat="42.0434350" lon="-8.7175020">
        <ele>241.6</ele>
        <time>2018-09-29T07:14:20Z</time>
      </trkpt>
      <trkpt lat="42.0435010" lon="-8.7174350">
        <ele>241.6</ele>
        <time>2018-09-29T07:14:22Z</time>
      </trkpt>
      <trkpt lat="42.0435870" lon="-8.7173120">
        <ele>241.6</ele>
        <time>2018-09-29T07:14:25Z</time>
      </trkpt>
      <trkpt lat="42.0436820" lon="-8.7170870">
        <ele>241.6</ele>
        <time>2018-09-29T07:14:29Z</time>
      </trkpt>
      <trkpt lat="42.0438410" lon="-8.7168200">
        <ele>241.4</ele>
        <time>2018-09-29T07:14:34Z</time>
      </trkpt>
      <trkpt lat="42.0440690" lon="-8.7167480">
        <ele>241.0</ele>
        <time>2018-09-29T07:14:39Z</time>
      </trkpt>
      <trkpt lat="42.0442750" lon="-8.7167790">
        <ele>240.6</ele>
        <time>2018-09-29T07:14:43Z</time>
      </trkpt>
      <trkpt lat="42.0445200" lon="-8.7168030">
        <ele>240.6</ele>
        <time>2018-09-29T07:14:48Z</time>
      </trkpt>
      <trkpt lat="42.0448820" lon="-8.7167060">
        <ele>242.2</ele>
        <time>2018-09-29T07:14:56Z</time>
      </trkpt>
      <trkpt lat="42.0449940" lon="-8.7166380">
        <ele>240.6</ele>
        <time>2018-09-29T07:14:59Z</time>
      </trkpt>
      <trkpt lat="42.0451230" lon="-8.7165820">
        <ele>240.8</ele>
        <time>2018-09-29T07:15:02Z</time>
      </trkpt>
      <trkpt lat="42.0452420" lon="-8.7165470">
        <ele>240.8</ele>
        <time>2018-09-29T07:15:05Z</time>
      </trkpt>
      <trkpt lat="42.0453580" lon="-8.7165150">
        <ele>241.4</ele>
        <time>2018-09-29T07:15:08Z</time>
      </trkpt>
      <trkpt lat="42.0454340" lon="-8.7164910">
        <ele>241.8</ele>
        <time>2018-09-29T07:15:10Z</time>
      </trkpt>
      <trkpt lat="42.0456470" lon="-8.7163930">
        <ele>242.8</ele>
        <time>2018-09-29T07:15:16Z</time>
      </trkpt>
      <trkpt lat="42.0458250" lon="-8.7162920">
        <ele>243.8</ele>
        <time>2018-09-29T07:15:21Z</time>
      </trkpt>
      <trkpt lat="42.0461160" lon="-8.7162020">
        <ele>245.0</ele>
        <time>2018-09-29T07:15:29Z</time>
      </trkpt>
      <trkpt lat="42.0463410" lon="-8.7161740">
        <ele>245.4</ele>
        <time>2018-09-29T07:15:35Z</time>
      </trkpt>
      <trkpt lat="42.0464430" lon="-8.7161680">
        <ele>246.0</ele>
        <time>2018-09-29T07:15:38Z</time>
      </trkpt>
      <trkpt lat="42.0465940" lon="-8.7161270">
        <ele>247.2</ele>
        <time>2018-09-29T07:15:43Z</time>
      </trkpt>
      <trkpt lat="42.0467380" lon="-8.7161260">
        <ele>248.4</ele>
        <time>2018-09-29T07:15:47Z</time>
      </trkpt>
      <trkpt lat="42.0469270" lon="-8.7162910">
        <ele>249.4</ele>
        <time>2018-09-29T07:15:53Z</time>
      </trkpt>
      <trkpt lat="42.0472200" lon="-8.7166440">
        <ele>250.2</ele>
        <time>2018-09-29T07:16:03Z</time>
      </trkpt>
      <trkpt lat="42.0474350" lon="-8.7168930">
        <ele>251.2</ele>
        <time>2018-09-29T07:16:10Z</time>
      </trkpt>
      <trkpt lat="42.0477820" lon="-8.7172210">
        <ele>252.2</ele>
        <time>2018-09-29T07:16:22Z</time>
      </trkpt>
      <trkpt lat="42.0479190" lon="-8.7173470">
        <ele>253.2</ele>
        <time>2018-09-29T07:16:27Z</time>
      </trkpt>
      <trkpt lat="42.0480540" lon="-8.7174810">
        <ele>254.4</ele>
        <time>2018-09-29T07:16:32Z</time>
      </trkpt>
      <trkpt lat="42.0482170" lon="-8.7176940">
        <ele>255.4</ele>
        <time>2018-09-29T07:16:38Z</time>
      </trkpt>
      <trkpt lat="42.0484190" lon="-8.7179270">
        <ele>256.4</ele>
        <time>2018-09-29T07:16:45Z</time>
      </trkpt>
      <trkpt lat="42.0487490" lon="-8.7181690">
        <ele>257.4</ele>
        <time>2018-09-29T07:16:55Z</time>
      </trkpt>
      <trkpt lat="42.0490570" lon="-8.7182870">
        <ele>258.4</ele>
        <time>2018-09-29T07:17:04Z</time>
      </trkpt>
      <trkpt lat="42.0492050" lon="-8.7182950">
        <ele>259.4</ele>
        <time>2018-09-29T07:17:10Z</time>
      </trkpt>
      <trkpt lat="42.0493360" lon="-8.7183190">
        <ele>260.6</ele>
        <time>2018-09-29T07:17:15Z</time>
      </trkpt>
      <trkpt lat="42.0494550" lon="-8.7183700">
        <ele>261.8</ele>
        <time>2018-09-29T07:17:20Z</time>
      </trkpt>
      <trkpt lat="42.0495620" lon="-8.7184030">
        <ele>263.2</ele>
        <time>2018-09-29T07:17:24Z</time>
      </trkpt>
      <trkpt lat="42.0496690" lon="-8.7184010">
        <ele>264.4</ele>
        <time>2018-09-29T07:17:28Z</time>
      </trkpt>
      <trkpt lat="42.0497820" lon="-8.7183400">
        <ele>265.4</ele>
        <time>2018-09-29T07:17:32Z</time>
      </trkpt>
      <trkpt lat="42.0498550" lon="-8.7182720">
        <ele>266.4</ele>
        <time>2018-09-29T07:17:35Z</time>
      </trkpt>
      <trkpt lat="42.0499710" lon="-8.7181370">
        <ele>267.4</ele>
        <time>2018-09-29T07:17:40Z</time>
      </trkpt>
      <trkpt lat="42.0501190" lon="-8.7179140">
        <ele>268.4</ele>
        <time>2018-09-29T07:17:47Z</time>
      </trkpt>
      <trkpt lat="42.0502840" lon="-8.7176840">
        <ele>269.6</ele>
        <time>2018-09-29T07:17:54Z</time>
      </trkpt>
      <trkpt lat="42.0504790" lon="-8.7173540">
        <ele>270.4</ele>
        <time>2018-09-29T07:18:03Z</time>
      </trkpt>
      <trkpt lat="42.0505020" lon="-8.7172730">
        <ele>270.6</ele>
        <time>2018-09-29T07:18:05Z</time>
      </trkpt>
      <trkpt lat="42.0505710" lon="-8.7169970">
        <ele>271.6</ele>
        <time>2018-09-29T07:18:12Z</time>
      </trkpt>
      <trkpt lat="42.0506630" lon="-8.7168770">
        <ele>272.6</ele>
        <time>2018-09-29T07:18:16Z</time>
      </trkpt>
      <trkpt lat="42.0508680" lon="-8.7169540">
        <ele>273.6</ele>
        <time>2018-09-29T07:18:23Z</time>
      </trkpt>
      <trkpt lat="42.0509490" lon="-8.7171940">
        <ele>274.2</ele>
        <time>2018-09-29T07:18:31Z</time>
      </trkpt>
      <trkpt lat="42.0509420" lon="-8.7172960">
        <ele>274.8</ele>
        <time>2018-09-29T07:18:34Z</time>
      </trkpt>
      <trkpt lat="42.0509350" lon="-8.7174200">
        <ele>275.8</ele>
        <time>2018-09-29T07:18:38Z</time>
      </trkpt>
      <trkpt lat="42.0509260" lon="-8.7175520">
        <ele>277.0</ele>
        <time>2018-09-29T07:18:42Z</time>
      </trkpt>
      <trkpt lat="42.0509310" lon="-8.7176820">
        <ele>278.0</ele>
        <time>2018-09-29T07:18:46Z</time>
      </trkpt>
      <trkpt lat="42.0509420" lon="-8.7178520">
        <ele>279.4</ele>
        <time>2018-09-29T07:18:51Z</time>
      </trkpt>
      <trkpt lat="42.0509470" lon="-8.7179780">
        <ele>280.4</ele>
        <time>2018-09-29T07:18:55Z</time>
      </trkpt>
      <trkpt lat="42.0509240" lon="-8.7181440">
        <ele>281.4</ele>
        <time>2018-09-29T07:19:00Z</time>
      </trkpt>
      <trkpt lat="42.0508510" lon="-8.7182770">
        <ele>282.6</ele>
        <time>2018-09-29T07:19:05Z</time>
      </trkpt>
      <trkpt lat="42.0507040" lon="-8.7184150">
        <ele>283.6</ele>
        <time>2018-09-29T07:19:12Z</time>
      </trkpt>
      <trkpt lat="42.0506430" lon="-8.7185740">
        <ele>284.6</ele>
        <time>2018-09-29T07:19:17Z</time>
      </trkpt>
      <trkpt lat="42.0506360" lon="-8.7187560">
        <ele>285.6</ele>
        <time>2018-09-29T07:19:22Z</time>
      </trkpt>
      <trkpt lat="42.0506550" lon="-8.7189060">
        <ele>286.8</ele>
        <time>2018-09-29T07:19:26Z</time>
      </trkpt>
      <trkpt lat="42.0507100" lon="-8.7191960">
        <ele>288.0</ele>
        <time>2018-09-29T07:19:34Z</time>
      </trkpt>
      <trkpt lat="42.0507790" lon="-8.7193480">
        <ele>289.0</ele>
        <time>2018-09-29T07:19:39Z</time>
      </trkpt>
      <trkpt lat="42.0508720" lon="-8.7194890">
        <ele>290.2</ele>
        <time>2018-09-29T07:19:44Z</time>
      </trkpt>
      <trkpt lat="42.0509590" lon="-8.7196380">
        <ele>291.2</ele>
        <time>2018-09-29T07:19:49Z</time>
      </trkpt>
      <trkpt lat="42.0510090" lon="-8.7198560">
        <ele>292.4</ele>
        <time>2018-09-29T07:19:55Z</time>
      </trkpt>
      <trkpt lat="42.0510200" lon="-8.7200810">
        <ele>293.6</ele>
        <time>2018-09-29T07:20:01Z</time>
      </trkpt>
      <trkpt lat="42.0510340" lon="-8.7202940">
        <ele>294.6</ele>
        <time>2018-09-29T07:20:07Z</time>
      </trkpt>
      <trkpt lat="42.0510730" lon="-8.7204710">
        <ele>295.6</ele>
        <time>2018-09-29T07:20:12Z</time>
      </trkpt>
      <trkpt lat="42.0511400" lon="-8.7206330">
        <ele>296.6</ele>
        <time>2018-09-29T07:20:17Z</time>
      </trkpt>
      <trkpt lat="42.0512960" lon="-8.7207780">
        <ele>297.8</ele>
        <time>2018-09-29T07:20:24Z</time>
      </trkpt>
      <trkpt lat="42.0514260" lon="-8.7208460">
        <ele>299.2</ele>
        <time>2018-09-29T07:20:29Z</time>
      </trkpt>
      <trkpt lat="42.0515640" lon="-8.7209250">
        <ele>300.4</ele>
        <time>2018-09-29T07:20:35Z</time>
      </trkpt>
      <trkpt lat="42.0516900" lon="-8.7209900">
        <ele>301.6</ele>
        <time>2018-09-29T07:20:41Z</time>
      </trkpt>
      <trkpt lat="42.0518420" lon="-8.7210690">
        <ele>302.8</ele>
        <time>2018-09-29T07:20:48Z</time>
      </trkpt>
      <trkpt lat="42.0520010" lon="-8.7211840">
        <ele>303.8</ele>
        <time>2018-09-29T07:20:56Z</time>
      </trkpt>
      <trkpt lat="42.0521230" lon="-8.7212470">
        <ele>305.0</ele>
        <time>2018-09-29T07:21:02Z</time>
      </trkpt>
      <trkpt lat="42.0522040" lon="-8.7212630">
        <ele>306.2</ele>
        <time>2018-09-29T07:21:05Z</time>
      </trkpt>
      <trkpt lat="42.0523630" lon="-8.7212740">
        <ele>307.4</ele>
        <time>2018-09-29T07:21:10Z</time>
      </trkpt>
      <trkpt lat="42.0525290" lon="-8.7212280">
        <ele>308.4</ele>
        <time>2018-09-29T07:21:15Z</time>
      </trkpt>
      <trkpt lat="42.0527340" lon="-8.7211880">
        <ele>309.2</ele>
        <time>2018-09-29T07:21:21Z</time>
      </trkpt>
      <trkpt lat="42.0529420" lon="-8.7212120">
        <ele>310.4</ele>
        <time>2018-09-29T07:21:27Z</time>
      </trkpt>
      <trkpt lat="42.0531460" lon="-8.7211820">
        <ele>311.6</ele>
        <time>2018-09-29T07:21:34Z</time>
      </trkpt>
      <trkpt lat="42.0532340" lon="-8.7210200">
        <ele>312.8</ele>
        <time>2018-09-29T07:21:39Z</time>
      </trkpt>
      <trkpt lat="42.0532550" lon="-8.7207730">
        <ele>314.2</ele>
        <time>2018-09-29T07:21:45Z</time>
      </trkpt>
      <trkpt lat="42.0532870" lon="-8.7204830">
        <ele>314.8</ele>
        <time>2018-09-29T07:21:52Z</time>
      </trkpt>
      <trkpt lat="42.0533500" lon="-8.7203620">
        <ele>315.2</ele>
        <time>2018-09-29T07:21:56Z</time>
      </trkpt>
      <trkpt lat="42.0535370" lon="-8.7202370">
        <ele>316.0</ele>
        <time>2018-09-29T07:22:03Z</time>
      </trkpt>
      <trkpt lat="42.0538040" lon="-8.7201260">
        <ele>317.2</ele>
        <time>2018-09-29T07:22:12Z</time>
      </trkpt>
      <trkpt lat="42.0540210" lon="-8.7200840">
        <ele>318.2</ele>
        <time>2018-09-29T07:22:19Z</time>
      </trkpt>
      <trkpt lat="42.0542490" lon="-8.7201240">
        <ele>319.2</ele>
        <time>2018-09-29T07:22:26Z</time>
      </trkpt>
      <trkpt lat="42.0545350" lon="-8.7203680">
        <ele>320.2</ele>
        <time>2018-09-29T07:22:36Z</time>
      </trkpt>
      <trkpt lat="42.0547700" lon="-8.7204670">
        <ele>321.0</ele>
        <time>2018-09-29T07:22:44Z</time>
      </trkpt>
      <trkpt lat="42.0548510" lon="-8.7204250">
        <ele>321.0</ele>
        <time>2018-09-29T07:22:47Z</time>
      </trkpt>
      <trkpt lat="42.0549820" lon="-8.7203600">
        <ele>322.0</ele>
        <time>2018-09-29T07:22:52Z</time>
      </trkpt>
      <trkpt lat="42.0550920" lon="-8.7203530">
        <ele>323.2</ele>
        <time>2018-09-29T07:22:56Z</time>
      </trkpt>
      <trkpt lat="42.0551760" lon="-8.7203750">
        <ele>324.0</ele>
        <time>2018-09-29T07:22:59Z</time>
      </trkpt>
      <trkpt lat="42.0552040" lon="-8.7203810">
        <ele>324.4</ele>
        <time>2018-09-29T07:23:00Z</time>
      </trkpt>
      <trkpt lat="42.0553320" lon="-8.7203950">
        <ele>325.6</ele>
        <time>2018-09-29T07:23:04Z</time>
      </trkpt>
      <trkpt lat="42.0557190" lon="-8.7203950">
        <ele>326.6</ele>
        <time>2018-09-29T07:23:14Z</time>
      </trkpt>
      <trkpt lat="42.0559690" lon="-8.7203830">
        <ele>326.6</ele>
        <time>2018-09-29T07:23:20Z</time>
      </trkpt>
      <trkpt lat="42.0561830" lon="-8.7203860">
        <ele>326.4</ele>
        <time>2018-09-29T07:23:25Z</time>
      </trkpt>
      <trkpt lat="42.0562250" lon="-8.7203900">
        <ele>326.2</ele>
        <time>2018-09-29T07:23:26Z</time>
      </trkpt>
      <trkpt lat="42.0564010" lon="-8.7204140">
        <ele>325.8</ele>
        <time>2018-09-29T07:23:30Z</time>
      </trkpt>
      <trkpt lat="42.0565760" lon="-8.7204440">
        <ele>325.6</ele>
        <time>2018-09-29T07:23:34Z</time>
      </trkpt>
      <trkpt lat="42.0567090" lon="-8.7204490">
        <ele>325.4</ele>
        <time>2018-09-29T07:23:37Z</time>
      </trkpt>
      <trkpt lat="42.0571080" lon="-8.7203750">
        <ele>325.6</ele>
        <time>2018-09-29T07:23:51Z</time>
      </trkpt>
      <trkpt lat="42.0571700" lon="-8.7203780">
        <ele>326.0</ele>
        <time>2018-09-29T07:23:54Z</time>
      </trkpt>
      <trkpt lat="42.0571920" lon="-8.7203800">
        <ele>326.6</ele>
        <time>2018-09-29T07:23:55Z</time>
      </trkpt>
      <trkpt lat="42.0572590" lon="-8.7203740">
        <ele>327.6</ele>
        <time>2018-09-29T07:23:58Z</time>
      </trkpt>
      <trkpt lat="42.0572830" lon="-8.7203730">
        <ele>327.8</ele>
        <time>2018-09-29T07:23:59Z</time>
      </trkpt>
      <trkpt lat="42.0573600" lon="-8.7203800">
        <ele>329.0</ele>
        <time>2018-09-29T07:24:02Z</time>
      </trkpt>
      <trkpt lat="42.0574380" lon="-8.7203990">
        <ele>330.0</ele>
        <time>2018-09-29T07:24:05Z</time>
      </trkpt>
      <trkpt lat="42.0575390" lon="-8.7204130">
        <ele>331.2</ele>
        <time>2018-09-29T07:24:09Z</time>
      </trkpt>
      <trkpt lat="42.0576490" lon="-8.7204560">
        <ele>332.4</ele>
        <time>2018-09-29T07:24:13Z</time>
      </trkpt>
      <trkpt lat="42.0577660" lon="-8.7205560">
        <ele>333.4</ele>
        <time>2018-09-29T07:24:17Z</time>
      </trkpt>
      <trkpt lat="42.0578630" lon="-8.7206560">
        <ele>333.8</ele>
        <time>2018-09-29T07:24:20Z</time>
      </trkpt>
      <trkpt lat="42.0582150" lon="-8.7212190">
        <ele>333.4</ele>
        <time>2018-09-29T07:24:32Z</time>
      </trkpt>
      <trkpt lat="42.0583710" lon="-8.7213830">
        <ele>333.2</ele>
        <time>2018-09-29T07:24:36Z</time>
      </trkpt>
      <trkpt lat="42.0584400" lon="-8.7214630">
        <ele>333.2</ele>
        <time>2018-09-29T07:24:38Z</time>
      </trkpt>
      <trkpt lat="42.0587940" lon="-8.7219150">
        <ele>333.8</ele>
        <time>2018-09-29T07:24:49Z</time>
      </trkpt>
      <trkpt lat="42.0588320" lon="-8.7219500">
        <ele>333.8</ele>
        <time>2018-09-29T07:24:50Z</time>
      </trkpt>
      <trkpt lat="42.0589950" lon="-8.7220550">
        <ele>334.0</ele>
        <time>2018-09-29T07:24:54Z</time>
      </trkpt>
      <trkpt lat="42.0591350" lon="-8.7220670">
        <ele>334.2</ele>
        <time>2018-09-29T07:24:57Z</time>
      </trkpt>
      <trkpt lat="42.0592270" lon="-8.7220330">
        <ele>334.4</ele>
        <time>2018-09-29T07:24:59Z</time>
      </trkpt>
      <trkpt lat="42.0593200" lon="-8.7220130">
        <ele>334.4</ele>
        <time>2018-09-29T07:25:01Z</time>
      </trkpt>
      <trkpt lat="42.0594960" lon="-8.7220820">
        <ele>334.8</ele>
        <time>2018-09-29T07:25:05Z</time>
      </trkpt>
      <trkpt lat="42.0595320" lon="-8.7221140">
        <ele>334.8</ele>
        <time>2018-09-29T07:25:06Z</time>
      </trkpt>
      <trkpt lat="42.0597290" lon="-8.7222970">
        <ele>335.4</ele>
        <time>2018-09-29T07:25:12Z</time>
      </trkpt>
      <trkpt lat="42.0599080" lon="-8.7224260">
        <ele>336.4</ele>
        <time>2018-09-29T07:25:17Z</time>
      </trkpt>
      <trkpt lat="42.0600280" lon="-8.7224830">
        <ele>337.4</ele>
        <time>2018-09-29T07:25:20Z</time>
      </trkpt>
      <trkpt lat="42.0600670" lon="-8.7225060">
        <ele>337.4</ele>
        <time>2018-09-29T07:25:21Z</time>
      </trkpt>
      <trkpt lat="42.0601400" lon="-8.7225620">
        <ele>338.0</ele>
        <time>2018-09-29T07:25:23Z</time>
      </trkpt>
      <trkpt lat="42.0602780" lon="-8.7226800">
        <ele>338.4</ele>
        <time>2018-09-29T07:25:27Z</time>
      </trkpt>
      <trkpt lat="42.0603120" lon="-8.7227130">
        <ele>338.6</ele>
        <time>2018-09-29T07:25:28Z</time>
      </trkpt>
      <trkpt lat="42.0604680" lon="-8.7228170">
        <ele>339.0</ele>
        <time>2018-09-29T07:25:32Z</time>
      </trkpt>
      <trkpt lat="42.0607740" lon="-8.7228680">
        <ele>339.6</ele>
        <time>2018-09-29T07:25:39Z</time>
      </trkpt>
      <trkpt lat="42.0609290" lon="-8.7228850">
        <ele>340.0</ele>
        <time>2018-09-29T07:25:43Z</time>
      </trkpt>
      <trkpt lat="42.0609630" lon="-8.7229070">
        <ele>340.0</ele>
        <time>2018-09-29T07:25:44Z</time>
      </trkpt>
      <trkpt lat="42.0611050" lon="-8.7230860">
        <ele>340.8</ele>
        <time>2018-09-29T07:25:49Z</time>
      </trkpt>
      <trkpt lat="42.0612510" lon="-8.7230970">
        <ele>341.0</ele>
        <time>2018-09-29T07:25:53Z</time>
      </trkpt>
      <trkpt lat="42.0613540" lon="-8.7229450">
        <ele>341.8</ele>
        <time>2018-09-29T07:25:57Z</time>
      </trkpt>
      <trkpt lat="42.0614140" lon="-8.7226940">
        <ele>342.2</ele>
        <time>2018-09-29T07:26:02Z</time>
      </trkpt>
      <trkpt lat="42.0613780" lon="-8.7223570">
        <ele>342.8</ele>
        <time>2018-09-29T07:26:08Z</time>
      </trkpt>
      <trkpt lat="42.0613740" lon="-8.7223000">
        <ele>342.8</ele>
        <time>2018-09-29T07:26:09Z</time>
      </trkpt>
      <trkpt lat="42.0613780" lon="-8.7222450">
        <ele>342.8</ele>
        <time>2018-09-29T07:26:10Z</time>
      </trkpt>
      <trkpt lat="42.0616570" lon="-8.7220400">
        <ele>343.4</ele>
        <time>2018-09-29T07:26:19Z</time>
      </trkpt>
      <trkpt lat="42.0617810" lon="-8.7219920">
        <ele>343.8</ele>
        <time>2018-09-29T07:26:23Z</time>
      </trkpt>
      <trkpt lat="42.0618400" lon="-8.7218520">
        <ele>345.0</ele>
        <time>2018-09-29T07:26:27Z</time>
      </trkpt>
      <trkpt lat="42.0618330" lon="-8.7216380">
        <ele>346.0</ele>
        <time>2018-09-29T07:26:32Z</time>
      </trkpt>
      <trkpt lat="42.0618570" lon="-8.7214730">
        <ele>347.0</ele>
        <time>2018-09-29T07:26:36Z</time>
      </trkpt>
      <trkpt lat="42.0619400" lon="-8.7213400">
        <ele>348.2</ele>
        <time>2018-09-29T07:26:40Z</time>
      </trkpt>
      <trkpt lat="42.0620930" lon="-8.7212760">
        <ele>349.2</ele>
        <time>2018-09-29T07:26:45Z</time>
      </trkpt>
      <trkpt lat="42.0622580" lon="-8.7212870">
        <ele>350.2</ele>
        <time>2018-09-29T07:26:50Z</time>
      </trkpt>
      <trkpt lat="42.0624470" lon="-8.7214060">
        <ele>351.2</ele>
        <time>2018-09-29T07:26:56Z</time>
      </trkpt>
      <trkpt lat="42.0626810" lon="-8.7215140">
        <ele>352.2</ele>
        <time>2018-09-29T07:27:03Z</time>
      </trkpt>
      <trkpt lat="42.0629410" lon="-8.7215890">
        <ele>353.2</ele>
        <time>2018-09-29T07:27:10Z</time>
      </trkpt>
      <trkpt lat="42.0632920" lon="-8.7215860">
        <ele>354.2</ele>
        <time>2018-09-29T07:27:19Z</time>
      </trkpt>
      <trkpt lat="42.0633460" lon="-8.7215000">
        <ele>354.2</ele>
        <time>2018-09-29T07:27:21Z</time>
      </trkpt>
      <trkpt lat="42.0633680" lon="-8.7213870">
        <ele>354.4</ele>
        <time>2018-09-29T07:27:23Z</time>
      </trkpt>
      <trkpt lat="42.0633810" lon="-8.7213300">
        <ele>354.4</ele>
        <time>2018-09-29T07:27:24Z</time>
      </trkpt>
      <trkpt lat="42.0634540" lon="-8.7211790">
        <ele>354.4</ele>
        <time>2018-09-29T07:27:27Z</time>
      </trkpt>
      <trkpt lat="42.0635860" lon="-8.7211110">
        <ele>354.4</ele>
        <time>2018-09-29T07:27:30Z</time>
      </trkpt>
      <trkpt lat="42.0636850" lon="-8.7211320">
        <ele>354.4</ele>
        <time>2018-09-29T07:27:32Z</time>
      </trkpt>
      <trkpt lat="42.0639370" lon="-8.7212280">
        <ele>353.8</ele>
        <time>2018-09-29T07:27:37Z</time>
      </trkpt>
      <trkpt lat="42.0640430" lon="-8.7212460">
        <ele>353.6</ele>
        <time>2018-09-29T07:27:39Z</time>
      </trkpt>
      <trkpt lat="42.0642460" lon="-8.7211510">
        <ele>353.0</ele>
        <time>2018-09-29T07:27:43Z</time>
      </trkpt>
      <trkpt lat="42.0643420" lon="-8.7210730">
        <ele>352.8</ele>
        <time>2018-09-29T07:27:45Z</time>
      </trkpt>
      <trkpt lat="42.0643910" lon="-8.7210420">
        <ele>352.8</ele>
        <time>2018-09-29T07:27:46Z</time>
      </trkpt>
      <trkpt lat="42.0645690" lon="-8.7210060">
        <ele>352.2</ele>
        <time>2018-09-29T07:27:50Z</time>
      </trkpt>
      <trkpt lat="42.0646860" lon="-8.7210170">
        <ele>352.0</ele>
        <time>2018-09-29T07:27:53Z</time>
      </trkpt>
      <trkpt lat="42.0649870" lon="-8.7213700">
        <ele>352.8</ele>
        <time>2018-09-29T07:28:04Z</time>
      </trkpt>
      <trkpt lat="42.0650220" lon="-8.7213880">
        <ele>353.0</ele>
        <time>2018-09-29T07:28:05Z</time>
      </trkpt>
      <trkpt lat="42.0651730" lon="-8.7214220">
        <ele>353.8</ele>
        <time>2018-09-29T07:28:10Z</time>
      </trkpt>
      <trkpt lat="42.0652610" lon="-8.7214400">
        <ele>354.4</ele>
        <time>2018-09-29T07:28:13Z</time>
      </trkpt>
      <trkpt lat="42.0654500" lon="-8.7215100">
        <ele>355.4</ele>
        <time>2018-09-29T07:28:19Z</time>
      </trkpt>
      <trkpt lat="42.0655650" lon="-8.7215910">
        <ele>356.2</ele>
        <time>2018-09-29T07:28:23Z</time>
      </trkpt>
      <trkpt lat="42.0656510" lon="-8.7217210">
        <ele>357.6</ele>
        <time>2018-09-29T07:28:27Z</time>
      </trkpt>
      <trkpt lat="42.0657580" lon="-8.7218860">
        <ele>358.6</ele>
        <time>2018-09-29T07:28:32Z</time>
      </trkpt>
      <trkpt lat="42.0659590" lon="-8.7221040">
        <ele>359.6</ele>
        <time>2018-09-29T07:28:40Z</time>
      </trkpt>
      <trkpt lat="42.0660620" lon="-8.7222460">
        <ele>360.6</ele>
        <time>2018-09-29T07:28:45Z</time>
      </trkpt>
      <trkpt lat="42.0661450" lon="-8.7223950">
        <ele>361.6</ele>
        <time>2018-09-29T07:28:50Z</time>
      </trkpt>
      <trkpt lat="42.0662420" lon="-8.7225750">
        <ele>362.6</ele>
        <time>2018-09-29T07:28:56Z</time>
      </trkpt>
      <trkpt lat="42.0662990" lon="-8.7227380">
        <ele>363.8</ele>
        <time>2018-09-29T07:29:01Z</time>
      </trkpt>
      <trkpt lat="42.0663430" lon="-8.7229170">
        <ele>365.0</ele>
        <time>2018-09-29T07:29:06Z</time>
      </trkpt>
      <trkpt lat="42.0663700" lon="-8.7230630">
        <ele>366.4</ele>
        <time>2018-09-29T07:29:10Z</time>
      </trkpt>
      <trkpt lat="42.0664240" lon="-8.7232850">
        <ele>367.4</ele>
        <time>2018-09-29T07:29:16Z</time>
      </trkpt>
      <trkpt lat="42.0664880" lon="-8.7234160">
        <ele>368.6</ele>
        <time>2018-09-29T07:29:20Z</time>
      </trkpt>
      <trkpt lat="42.0665880" lon="-8.7235670">
        <ele>369.6</ele>
        <time>2018-09-29T07:29:25Z</time>
      </trkpt>
      <trkpt lat="42.0666240" lon="-8.7236240">
        <ele>370.0</ele>
        <time>2018-09-29T07:29:27Z</time>
      </trkpt>
      <trkpt lat="42.0667160" lon="-8.7237870">
        <ele>370.8</ele>
        <time>2018-09-29T07:29:32Z</time>
      </trkpt>
      <trkpt lat="42.0668100" lon="-8.7240580">
        <ele>371.8</ele>
        <time>2018-09-29T07:29:39Z</time>
      </trkpt>
      <trkpt lat="42.0668860" lon="-8.7243850">
        <ele>372.8</ele>
        <time>2018-09-29T07:29:46Z</time>
      </trkpt>
      <trkpt lat="42.0670390" lon="-8.7247240">
        <ele>374.2</ele>
        <time>2018-09-29T07:29:54Z</time>
      </trkpt>
      <trkpt lat="42.0672060" lon="-8.7249290">
        <ele>375.2</ele>
        <time>2018-09-29T07:30:00Z</time>
      </trkpt>
      <trkpt lat="42.0673760" lon="-8.7251600">
        <ele>376.4</ele>
        <time>2018-09-29T07:30:07Z</time>
      </trkpt>
      <trkpt lat="42.0675000" lon="-8.7253820">
        <ele>377.6</ele>
        <time>2018-09-29T07:30:13Z</time>
      </trkpt>
      <trkpt lat="42.0676190" lon="-8.7256120">
        <ele>378.8</ele>
        <time>2018-09-29T07:30:19Z</time>
      </trkpt>
      <trkpt lat="42.0678380" lon="-8.7255610">
        <ele>379.4</ele>
        <time>2018-09-29T07:30:26Z</time>
      </trkpt>
      <trkpt lat="42.0679170" lon="-8.7252820">
        <ele>379.4</ele>
        <time>2018-09-29T07:30:31Z</time>
      </trkpt>
      <trkpt lat="42.0679360" lon="-8.7252310">
        <ele>379.4</ele>
        <time>2018-09-29T07:30:32Z</time>
      </trkpt>
      <trkpt lat="42.0680090" lon="-8.7250710">
        <ele>379.4</ele>
        <time>2018-09-29T07:30:35Z</time>
      </trkpt>
      <trkpt lat="42.0679250" lon="-8.7247630">
        <ele>378.6</ele>
        <time>2018-09-29T07:30:40Z</time>
      </trkpt>
      <trkpt lat="42.0678930" lon="-8.7247090">
        <ele>378.6</ele>
        <time>2018-09-29T07:30:41Z</time>
      </trkpt>
      <trkpt lat="42.0677740" lon="-8.7245610">
        <ele>378.2</ele>
        <time>2018-09-29T07:30:44Z</time>
      </trkpt>
      <trkpt lat="42.0676600" lon="-8.7244130">
        <ele>378.0</ele>
        <time>2018-09-29T07:30:47Z</time>
      </trkpt>
      <trkpt lat="42.0676060" lon="-8.7242990">
        <ele>377.6</ele>
        <time>2018-09-29T07:30:49Z</time>
      </trkpt>
      <trkpt lat="42.0675880" lon="-8.7242310">
        <ele>377.6</ele>
        <time>2018-09-29T07:30:50Z</time>
      </trkpt>
      <trkpt lat="42.0674950" lon="-8.7238610">
        <ele>376.8</ele>
        <time>2018-09-29T07:30:55Z</time>
      </trkpt>
      <trkpt lat="42.0674570" lon="-8.7237100">
        <ele>376.4</ele>
        <time>2018-09-29T07:30:57Z</time>
      </trkpt>
      <trkpt lat="42.0673680" lon="-8.7232020">
        <ele>375.4</ele>
        <time>2018-09-29T07:31:03Z</time>
      </trkpt>
      <trkpt lat="42.0673440" lon="-8.7231210">
        <ele>375.2</ele>
        <time>2018-09-29T07:31:04Z</time>
      </trkpt>
      <trkpt lat="42.0672190" lon="-8.7228240">
        <ele>374.2</ele>
        <time>2018-09-29T07:31:08Z</time>
      </trkpt>
      <trkpt lat="42.0671600" lon="-8.7226850">
        <ele>373.4</ele>
        <time>2018-09-29T07:31:10Z</time>
      </trkpt>
      <trkpt lat="42.0671390" lon="-8.7225400">
        <ele>372.8</ele>
        <time>2018-09-29T07:31:12Z</time>
      </trkpt>
      <trkpt lat="42.0672090" lon="-8.7221600">
        <ele>371.8</ele>
        <time>2018-09-29T07:31:18Z</time>
      </trkpt>
      <trkpt lat="42.0672360" lon="-8.7220470">
        <ele>371.8</ele>
        <time>2018-09-29T07:31:20Z</time>
      </trkpt>
      <trkpt lat="42.0675320" lon="-8.7216770">
        <ele>372.6</ele>
        <time>2018-09-29T07:31:28Z</time>
      </trkpt>
      <trkpt lat="42.0675720" lon="-8.7216400">
        <ele>372.8</ele>
        <time>2018-09-29T07:31:29Z</time>
      </trkpt>
      <trkpt lat="42.0680050" lon="-8.7213920">
        <ele>373.8</ele>
        <time>2018-09-29T07:31:40Z</time>
      </trkpt>
      <trkpt lat="42.0682030" lon="-8.7213650">
        <ele>374.8</ele>
        <time>2018-09-29T07:31:45Z</time>
      </trkpt>
      <trkpt lat="42.0682830" lon="-8.7213310">
        <ele>374.8</ele>
        <time>2018-09-29T07:31:47Z</time>
      </trkpt>
      <trkpt lat="42.0684300" lon="-8.7211460">
        <ele>376.0</ele>
        <time>2018-09-29T07:31:52Z</time>
      </trkpt>
      <trkpt lat="42.0684460" lon="-8.7210990">
        <ele>376.0</ele>
        <time>2018-09-29T07:31:53Z</time>
      </trkpt>
      <trkpt lat="42.0685190" lon="-8.7209250">
        <ele>376.4</ele>
        <time>2018-09-29T07:31:57Z</time>
      </trkpt>
      <trkpt lat="42.0686340" lon="-8.7207910">
        <ele>377.0</ele>
        <time>2018-09-29T07:32:01Z</time>
      </trkpt>
      <trkpt lat="42.0687820" lon="-8.7207200">
        <ele>378.4</ele>
        <time>2018-09-29T07:32:05Z</time>
      </trkpt>
      <trkpt lat="42.0690270" lon="-8.7207090">
        <ele>379.6</ele>
        <time>2018-09-29T07:32:11Z</time>
      </trkpt>
      <trkpt lat="42.0692620" lon="-8.7207220">
        <ele>380.8</ele>
        <time>2018-09-29T07:32:17Z</time>
      </trkpt>
      <trkpt lat="42.0695300" lon="-8.7207950">
        <ele>382.0</ele>
        <time>2018-09-29T07:32:24Z</time>
      </trkpt>
      <trkpt lat="42.0695710" lon="-8.7207990">
        <ele>382.0</ele>
        <time>2018-09-29T07:32:25Z</time>
      </trkpt>
      <trkpt lat="42.0697250" lon="-8.7207290">
        <ele>382.6</ele>
        <time>2018-09-29T07:32:29Z</time>
      </trkpt>
      <trkpt lat="42.0699240" lon="-8.7205860">
        <ele>383.0</ele>
        <time>2018-09-29T07:32:35Z</time>
      </trkpt>
      <trkpt lat="42.0701040" lon="-8.7205960">
        <ele>384.0</ele>
        <time>2018-09-29T07:32:40Z</time>
      </trkpt>
      <trkpt lat="42.0702940" lon="-8.7206800">
        <ele>385.0</ele>
        <time>2018-09-29T07:32:46Z</time>
      </trkpt>
      <trkpt lat="42.0704770" lon="-8.7207540">
        <ele>386.2</ele>
        <time>2018-09-29T07:32:51Z</time>
      </trkpt>
      <trkpt lat="42.0708050" lon="-8.7208440">
        <ele>387.2</ele>
        <time>2018-09-29T07:32:59Z</time>
      </trkpt>
      <trkpt lat="42.0708500" lon="-8.7208580">
        <ele>387.2</ele>
        <time>2018-09-29T07:33:00Z</time>
      </trkpt>
      <trkpt lat="42.0712030" lon="-8.7210190">
        <ele>387.4</ele>
        <time>2018-09-29T07:33:08Z</time>
      </trkpt>
      <trkpt lat="42.0713020" lon="-8.7210420">
        <ele>387.4</ele>
        <time>2018-09-29T07:33:10Z</time>
      </trkpt>
      <trkpt lat="42.0714620" lon="-8.7210530">
        <ele>387.2</ele>
        <time>2018-09-29T07:33:13Z</time>
      </trkpt>
      <trkpt lat="42.0715150" lon="-8.7210720">
        <ele>387.0</ele>
        <time>2018-09-29T07:33:14Z</time>
      </trkpt>
      <trkpt lat="42.0716260" lon="-8.7211320">
        <ele>386.8</ele>
        <time>2018-09-29T07:33:16Z</time>
      </trkpt>
      <trkpt lat="42.0717840" lon="-8.7212460">
        <ele>386.6</ele>
        <time>2018-09-29T07:33:19Z</time>
      </trkpt>
      <trkpt lat="42.0719340" lon="-8.7215190">
        <ele>386.0</ele>
        <time>2018-09-29T07:33:23Z</time>
      </trkpt>
      <trkpt lat="42.0719660" lon="-8.7215900">
        <ele>385.8</ele>
        <time>2018-09-29T07:33:24Z</time>
      </trkpt>
      <trkpt lat="42.0720870" lon="-8.7217460">
        <ele>385.4</ele>
        <time>2018-09-29T07:33:27Z</time>
      </trkpt>
      <trkpt lat="42.0722440" lon="-8.7217590">
        <ele>384.8</ele>
        <time>2018-09-29T07:33:30Z</time>
      </trkpt>
      <trkpt lat="42.0723780" lon="-8.7216350">
        <ele>384.0</ele>
        <time>2018-09-29T07:33:33Z</time>
      </trkpt>
      <trkpt lat="42.0725120" lon="-8.7215440">
        <ele>383.6</ele>
        <time>2018-09-29T07:33:36Z</time>
      </trkpt>
      <trkpt lat="42.0726290" lon="-8.7215100">
        <ele>383.6</ele>
        <time>2018-09-29T07:33:38Z</time>
      </trkpt>
      <trkpt lat="42.0729270" lon="-8.7216560">
        <ele>383.2</ele>
        <time>2018-09-29T07:33:44Z</time>
      </trkpt>
      <trkpt lat="42.0730770" lon="-8.7217610">
        <ele>382.8</ele>
        <time>2018-09-29T07:33:47Z</time>
      </trkpt>
      <trkpt lat="42.0732520" lon="-8.7217180">
        <ele>382.6</ele>
        <time>2018-09-29T07:33:51Z</time>
      </trkpt>
      <trkpt lat="42.0735650" lon="-8.7216540">
        <ele>383.0</ele>
        <time>2018-09-29T07:33:59Z</time>
      </trkpt>
      <trkpt lat="42.0736370" lon="-8.7216650">
        <ele>383.4</ele>
        <time>2018-09-29T07:34:01Z</time>
      </trkpt>
      <trkpt lat="42.0737560" lon="-8.7216890">
        <ele>384.4</ele>
        <time>2018-09-29T07:34:04Z</time>
      </trkpt>
      <trkpt lat="42.0737900" lon="-8.7217080">
        <ele>384.8</ele>
        <time>2018-09-29T07:34:05Z</time>
      </trkpt>
      <trkpt lat="42.0739330" lon="-8.7218050">
        <ele>386.0</ele>
        <time>2018-09-29T07:34:09Z</time>
      </trkpt>
      <trkpt lat="42.0740430" lon="-8.7219400">
        <ele>386.8</ele>
        <time>2018-09-29T07:34:13Z</time>
      </trkpt>
      <trkpt lat="42.0741410" lon="-8.7220960">
        <ele>388.0</ele>
        <time>2018-09-29T07:34:17Z</time>
      </trkpt>
      <trkpt lat="42.0742220" lon="-8.7222530">
        <ele>389.2</ele>
        <time>2018-09-29T07:34:21Z</time>
      </trkpt>
      <trkpt lat="42.0743040" lon="-8.7224180">
        <ele>390.2</ele>
        <time>2018-09-29T07:34:25Z</time>
      </trkpt>
      <trkpt lat="42.0744450" lon="-8.7226580">
        <ele>391.2</ele>
        <time>2018-09-29T07:34:31Z</time>
      </trkpt>
      <trkpt lat="42.0744750" lon="-8.7226930">
        <ele>391.4</ele>
        <time>2018-09-29T07:34:32Z</time>
      </trkpt>
      <trkpt lat="42.0746410" lon="-8.7228170">
        <ele>392.4</ele>
        <time>2018-09-29T07:34:37Z</time>
      </trkpt>
      <trkpt lat="42.0748350" lon="-8.7227950">
        <ele>393.6</ele>
        <time>2018-09-29T07:34:42Z</time>
      </trkpt>
      <trkpt lat="42.0751280" lon="-8.7227330">
        <ele>394.8</ele>
        <time>2018-09-29T07:34:49Z</time>
      </trkpt>
      <trkpt lat="42.0752900" lon="-8.7227680">
        <ele>396.0</ele>
        <time>2018-09-29T07:34:53Z</time>
      </trkpt>
      <trkpt lat="42.0753370" lon="-8.7227760">
        <ele>396.2</ele>
        <time>2018-09-29T07:34:54Z</time>
      </trkpt>
      <trkpt lat="42.0754310" lon="-8.7227820">
        <ele>396.6</ele>
        <time>2018-09-29T07:34:56Z</time>
      </trkpt>
      <trkpt lat="42.0755200" lon="-8.7227750">
        <ele>397.2</ele>
        <time>2018-09-29T07:34:58Z</time>
      </trkpt>
      <trkpt lat="42.0756530" lon="-8.7227480">
        <ele>398.4</ele>
        <time>2018-09-29T07:35:03Z</time>
      </trkpt>
      <trkpt lat="42.0757520" lon="-8.7228000">
        <ele>399.6</ele>
        <time>2018-09-29T07:35:07Z</time>
      </trkpt>
      <trkpt lat="42.0758870" lon="-8.7229690">
        <ele>400.6</ele>
        <time>2018-09-29T07:35:12Z</time>
      </trkpt>
      <trkpt lat="42.0759070" lon="-8.7230170">
        <ele>400.6</ele>
        <time>2018-09-29T07:35:13Z</time>
      </trkpt>
      <trkpt lat="42.0760870" lon="-8.7234820">
        <ele>400.8</ele>
        <time>2018-09-29T07:35:22Z</time>
      </trkpt>
      <trkpt lat="42.0761760" lon="-8.7237270">
        <ele>400.8</ele>
        <time>2018-09-29T07:35:27Z</time>
      </trkpt>
      <trkpt lat="42.0762080" lon="-8.7238270">
        <ele>401.0</ele>
        <time>2018-09-29T07:35:29Z</time>
      </trkpt>
      <trkpt lat="42.0762390" lon="-8.7239260">
        <ele>401.0</ele>
        <time>2018-09-29T07:35:31Z</time>
      </trkpt>
      <trkpt lat="42.0762710" lon="-8.7240230">
        <ele>401.0</ele>
        <time>2018-09-29T07:35:33Z</time>
      </trkpt>
      <trkpt lat="42.0763270" lon="-8.7241640">
        <ele>401.0</ele>
        <time>2018-09-29T07:35:36Z</time>
      </trkpt>
      <trkpt lat="42.0763750" lon="-8.7242230">
        <ele>401.0</ele>
        <time>2018-09-29T07:35:38Z</time>
      </trkpt>
      <trkpt lat="42.0764400" lon="-8.7242100">
        <ele>401.0</ele>
        <time>2018-09-29T07:35:42Z</time>
      </trkpt>
      <trkpt lat="42.0764420" lon="-8.7242000">
        <ele>405.6</ele>
        <time>2018-09-29T07:37:57Z</time>
      </trkpt>
      <trkpt lat="42.0764420" lon="-8.7242000">
        <ele>405.6</ele>
        <time>2018-09-29T07:37:58Z</time>
      </trkpt>
      <trkpt lat="42.0764420" lon="-8.7242000">
        <ele>405.6</ele>
        <time>2018-09-29T07:38:07Z</time>
      </trkpt>
      <trkpt lat="42.0764420" lon="-8.7242000">
        <ele>405.6</ele>
        <time>2018-09-29T07:38:08Z</time>
      </trkpt>
      <trkpt lat="42.0764920" lon="-8.7241760">
        <ele>405.6</ele>
        <time>2018-09-29T07:38:14Z</time>
      </trkpt>
      <trkpt lat="42.0765420" lon="-8.7241080">
        <ele>405.6</ele>
        <time>2018-09-29T07:38:17Z</time>
      </trkpt>
      <trkpt lat="42.0765820" lon="-8.7239900">
        <ele>405.8</ele>
        <time>2018-09-29T07:38:21Z</time>
      </trkpt>
      <trkpt lat="42.0766030" lon="-8.7238020">
        <ele>406.4</ele>
        <time>2018-09-29T07:38:28Z</time>
      </trkpt>
      <trkpt lat="42.0766040" lon="-8.7237580">
        <ele>406.6</ele>
        <time>2018-09-29T07:38:30Z</time>
      </trkpt>
      <trkpt lat="42.0766030" lon="-8.7236530">
        <ele>407.4</ele>
        <time>2018-09-29T07:38:35Z</time>
      </trkpt>
      <trkpt lat="42.0766030" lon="-8.7236120">
        <ele>407.8</ele>
        <time>2018-09-29T07:38:37Z</time>
      </trkpt>
      <trkpt lat="42.0766000" lon="-8.7234400">
        <ele>408.4</ele>
        <time>2018-09-29T07:38:43Z</time>
      </trkpt>
      <trkpt lat="42.0766070" lon="-8.7233340">
        <ele>409.0</ele>
        <time>2018-09-29T07:38:46Z</time>
      </trkpt>
      <trkpt lat="42.0766040" lon="-8.7232320">
        <ele>409.2</ele>
        <time>2018-09-29T07:38:49Z</time>
      </trkpt>
      <trkpt lat="42.0766050" lon="-8.7231660">
        <ele>409.4</ele>
        <time>2018-09-29T07:38:51Z</time>
      </trkpt>
      <trkpt lat="42.0766010" lon="-8.7230670">
        <ele>410.0</ele>
        <time>2018-09-29T07:38:54Z</time>
      </trkpt>
      <trkpt lat="42.0766120" lon="-8.7229650">
        <ele>410.8</ele>
        <time>2018-09-29T07:38:57Z</time>
      </trkpt>
      <trkpt lat="42.0766210" lon="-8.7229330">
        <ele>411.0</ele>
        <time>2018-09-29T07:38:58Z</time>
      </trkpt>
      <trkpt lat="42.0766610" lon="-8.7228370">
        <ele>411.8</ele>
        <time>2018-09-29T07:39:01Z</time>
      </trkpt>
      <trkpt lat="42.0766830" lon="-8.7228090">
        <ele>412.2</ele>
        <time>2018-09-29T07:39:02Z</time>
      </trkpt>
      <trkpt lat="42.0767820" lon="-8.7227240">
        <ele>413.4</ele>
        <time>2018-09-29T07:39:06Z</time>
      </trkpt>
      <trkpt lat="42.0768720" lon="-8.7226560">
        <ele>414.6</ele>
        <time>2018-09-29T07:39:10Z</time>
      </trkpt>
      <trkpt lat="42.0770040" lon="-8.7226120">
        <ele>415.6</ele>
        <time>2018-09-29T07:39:16Z</time>
      </trkpt>
      <trkpt lat="42.0771410" lon="-8.7225400">
        <ele>416.8</ele>
        <time>2018-09-29T07:39:22Z</time>
      </trkpt>
      <trkpt lat="42.0772020" lon="-8.7224340">
        <ele>418.0</ele>
        <time>2018-09-29T07:39:26Z</time>
      </trkpt>
      <trkpt lat="42.0772050" lon="-8.7223040">
        <ele>419.0</ele>
        <time>2018-09-29T07:39:30Z</time>
      </trkpt>
      <trkpt lat="42.0771290" lon="-8.7221600">
        <ele>420.2</ele>
        <time>2018-09-29T07:39:35Z</time>
      </trkpt>
      <trkpt lat="42.0770480" lon="-8.7220760">
        <ele>421.4</ele>
        <time>2018-09-29T07:39:39Z</time>
      </trkpt>
      <trkpt lat="42.0769740" lon="-8.7219960">
        <ele>422.4</ele>
        <time>2018-09-29T07:39:43Z</time>
      </trkpt>
      <trkpt lat="42.0768470" lon="-8.7218600">
        <ele>423.6</ele>
        <time>2018-09-29T07:39:49Z</time>
      </trkpt>
      <trkpt lat="42.0767270" lon="-8.7217750">
        <ele>424.8</ele>
        <time>2018-09-29T07:39:54Z</time>
      </trkpt>
      <trkpt lat="42.0765650" lon="-8.7216690">
        <ele>425.8</ele>
        <time>2018-09-29T07:40:01Z</time>
      </trkpt>
      <trkpt lat="42.0764540" lon="-8.7215780">
        <ele>427.0</ele>
        <time>2018-09-29T07:40:06Z</time>
      </trkpt>
      <trkpt lat="42.0763640" lon="-8.7214560">
        <ele>428.0</ele>
        <time>2018-09-29T07:40:11Z</time>
      </trkpt>
      <trkpt lat="42.0762700" lon="-8.7213070">
        <ele>429.2</ele>
        <time>2018-09-29T07:40:17Z</time>
      </trkpt>
      <trkpt lat="42.0762240" lon="-8.7211500">
        <ele>430.2</ele>
        <time>2018-09-29T07:40:22Z</time>
      </trkpt>
      <trkpt lat="42.0762230" lon="-8.7210180">
        <ele>431.2</ele>
        <time>2018-09-29T07:40:26Z</time>
      </trkpt>
      <trkpt lat="42.0762520" lon="-8.7208940">
        <ele>432.6</ele>
        <time>2018-09-29T07:40:30Z</time>
      </trkpt>
      <trkpt lat="42.0762950" lon="-8.7207310">
        <ele>433.6</ele>
        <time>2018-09-29T07:40:35Z</time>
      </trkpt>
      <trkpt lat="42.0763650" lon="-8.7205860">
        <ele>435.0</ele>
        <time>2018-09-29T07:40:40Z</time>
      </trkpt>
      <trkpt lat="42.0764800" lon="-8.7205080">
        <ele>436.0</ele>
        <time>2018-09-29T07:40:45Z</time>
      </trkpt>
      <trkpt lat="42.0766390" lon="-8.7204800">
        <ele>437.0</ele>
        <time>2018-09-29T07:40:52Z</time>
      </trkpt>
      <trkpt lat="42.0768130" lon="-8.7204130">
        <ele>438.0</ele>
        <time>2018-09-29T07:40:59Z</time>
      </trkpt>
      <trkpt lat="42.0769340" lon="-8.7203210">
        <ele>438.8</ele>
        <time>2018-09-29T07:41:05Z</time>
      </trkpt>
      <trkpt lat="42.0769920" lon="-8.7202720">
        <ele>439.0</ele>
        <time>2018-09-29T07:41:08Z</time>
      </trkpt>
      <trkpt lat="42.0771420" lon="-8.7201720">
        <ele>440.0</ele>
        <time>2018-09-29T07:41:16Z</time>
      </trkpt>
      <trkpt lat="42.0771590" lon="-8.7201640">
        <ele>440.0</ele>
        <time>2018-09-29T07:41:17Z</time>
      </trkpt>
      <trkpt lat="42.0772680" lon="-8.7201070">
        <ele>441.2</ele>
        <time>2018-09-29T07:41:24Z</time>
      </trkpt>
      <trkpt lat="42.0773980" lon="-8.7200000">
        <ele>442.4</ele>
        <time>2018-09-29T07:41:31Z</time>
      </trkpt>
      <trkpt lat="42.0774660" lon="-8.7199220">
        <ele>443.4</ele>
        <time>2018-09-29T07:41:36Z</time>
      </trkpt>
      <trkpt lat="42.0775170" lon="-8.7198220">
        <ele>444.6</ele>
        <time>2018-09-29T07:41:41Z</time>
      </trkpt>
      <trkpt lat="42.0775830" lon="-8.7196910">
        <ele>445.6</ele>
        <time>2018-09-29T07:41:47Z</time>
      </trkpt>
      <trkpt lat="42.0776320" lon="-8.7195780">
        <ele>446.6</ele>
        <time>2018-09-29T07:41:52Z</time>
      </trkpt>
      <trkpt lat="42.0776960" lon="-8.7194300">
        <ele>447.8</ele>
        <time>2018-09-29T07:41:58Z</time>
      </trkpt>
      <trkpt lat="42.0777670" lon="-8.7193130">
        <ele>448.8</ele>
        <time>2018-09-29T07:42:03Z</time>
      </trkpt>
      <trkpt lat="42.0778610" lon="-8.7192160">
        <ele>450.0</ele>
        <time>2018-09-29T07:42:08Z</time>
      </trkpt>
      <trkpt lat="42.0779900" lon="-8.7191260">
        <ele>451.0</ele>
        <time>2018-09-29T07:42:14Z</time>
      </trkpt>
      <trkpt lat="42.0780770" lon="-8.7190690">
        <ele>452.2</ele>
        <time>2018-09-29T07:42:18Z</time>
      </trkpt>
      <trkpt lat="42.0782110" lon="-8.7189600">
        <ele>453.2</ele>
        <time>2018-09-29T07:42:24Z</time>
      </trkpt>
      <trkpt lat="42.0783410" lon="-8.7187640">
        <ele>454.2</ele>
        <time>2018-09-29T07:42:31Z</time>
      </trkpt>
      <trkpt lat="42.0784440" lon="-8.7185460">
        <ele>455.2</ele>
        <time>2018-09-29T07:42:38Z</time>
      </trkpt>
      <trkpt lat="42.0786050" lon="-8.7183910">
        <ele>456.4</ele>
        <time>2018-09-29T07:42:45Z</time>
      </trkpt>
      <trkpt lat="42.0787870" lon="-8.7182960">
        <ele>457.4</ele>
        <time>2018-09-29T07:42:52Z</time>
      </trkpt>
      <trkpt lat="42.0789270" lon="-8.7182190">
        <ele>458.4</ele>
        <time>2018-09-29T07:42:57Z</time>
      </trkpt>
      <trkpt lat="42.0791730" lon="-8.7180920">
        <ele>459.6</ele>
        <time>2018-09-29T07:43:06Z</time>
      </trkpt>
      <trkpt lat="42.0793380" lon="-8.7179510">
        <ele>460.6</ele>
        <time>2018-09-29T07:43:13Z</time>
      </trkpt>
      <trkpt lat="42.0794100" lon="-8.7178500">
        <ele>461.6</ele>
        <time>2018-09-29T07:43:18Z</time>
      </trkpt>
      <trkpt lat="42.0794620" lon="-8.7177290">
        <ele>462.4</ele>
        <time>2018-09-29T07:43:24Z</time>
      </trkpt>
      <trkpt lat="42.0794800" lon="-8.7176300">
        <ele>462.8</ele>
        <time>2018-09-29T07:43:28Z</time>
      </trkpt>
      <trkpt lat="42.0794930" lon="-8.7175270">
        <ele>462.8</ele>
        <time>2018-09-29T07:43:32Z</time>
      </trkpt>
      <trkpt lat="42.0795080" lon="-8.7174470">
        <ele>462.8</ele>
        <time>2018-09-29T07:43:35Z</time>
      </trkpt>
      <trkpt lat="42.0795250" lon="-8.7173350">
        <ele>462.8</ele>
        <time>2018-09-29T07:43:40Z</time>
      </trkpt>
      <trkpt lat="42.0795350" lon="-8.7172520">
        <ele>462.8</ele>
        <time>2018-09-29T07:43:44Z</time>
      </trkpt>
      <trkpt lat="42.0795470" lon="-8.7171610">
        <ele>462.6</ele>
        <time>2018-09-29T07:43:48Z</time>
      </trkpt>
      <trkpt lat="42.0795940" lon="-8.7169280">
        <ele>462.6</ele>
        <time>2018-09-29T07:43:57Z</time>
      </trkpt>
      <trkpt lat="42.0797010" lon="-8.7164610">
        <ele>463.6</ele>
        <time>2018-09-29T07:44:16Z</time>
      </trkpt>
      <trkpt lat="42.0797090" lon="-8.7164120">
        <ele>464.0</ele>
        <time>2018-09-29T07:44:18Z</time>
      </trkpt>
      <trkpt lat="42.0797490" lon="-8.7163150">
        <ele>464.4</ele>
        <time>2018-09-29T07:44:22Z</time>
      </trkpt>
      <trkpt lat="42.0797870" lon="-8.7162390">
        <ele>465.0</ele>
        <time>2018-09-29T07:44:25Z</time>
      </trkpt>
      <trkpt lat="42.0798180" lon="-8.7161560">
        <ele>465.6</ele>
        <time>2018-09-29T07:44:28Z</time>
      </trkpt>
      <trkpt lat="42.0798660" lon="-8.7160330">
        <ele>466.2</ele>
        <time>2018-09-29T07:44:32Z</time>
      </trkpt>
      <trkpt lat="42.0799180" lon="-8.7159050">
        <ele>467.6</ele>
        <time>2018-09-29T07:44:36Z</time>
      </trkpt>
      <trkpt lat="42.0799750" lon="-8.7157530">
        <ele>468.6</ele>
        <time>2018-09-29T07:44:40Z</time>
      </trkpt>
      <trkpt lat="42.0802960" lon="-8.7151760">
        <ele>469.0</ele>
        <time>2018-09-29T07:44:55Z</time>
      </trkpt>
      <trkpt lat="42.0804220" lon="-8.7149930">
        <ele>469.0</ele>
        <time>2018-09-29T07:44:59Z</time>
      </trkpt>
      <trkpt lat="42.0805250" lon="-8.7148390">
        <ele>468.4</ele>
        <time>2018-09-29T07:45:02Z</time>
      </trkpt>
      <trkpt lat="42.0806700" lon="-8.7146280">
        <ele>467.8</ele>
        <time>2018-09-29T07:45:06Z</time>
      </trkpt>
      <trkpt lat="42.0807860" lon="-8.7144490">
        <ele>467.6</ele>
        <time>2018-09-29T07:45:09Z</time>
      </trkpt>
      <trkpt lat="42.0809010" lon="-8.7142610">
        <ele>466.6</ele>
        <time>2018-09-29T07:45:12Z</time>
      </trkpt>
      <trkpt lat="42.0809310" lon="-8.7141960">
        <ele>466.6</ele>
        <time>2018-09-29T07:45:13Z</time>
      </trkpt>
      <trkpt lat="42.0809600" lon="-8.7141290">
        <ele>466.4</ele>
        <time>2018-09-29T07:45:14Z</time>
      </trkpt>
      <trkpt lat="42.0810630" lon="-8.7138100">
        <ele>465.4</ele>
        <time>2018-09-29T07:45:19Z</time>
      </trkpt>
      <trkpt lat="42.0811240" lon="-8.7136500">
        <ele>465.2</ele>
        <time>2018-09-29T07:45:22Z</time>
      </trkpt>
      <trkpt lat="42.0812440" lon="-8.7134870">
        <ele>465.2</ele>
        <time>2018-09-29T07:45:26Z</time>
      </trkpt>
      <trkpt lat="42.0817150" lon="-8.7130820">
        <ele>464.8</ele>
        <time>2018-09-29T07:45:35Z</time>
      </trkpt>
      <trkpt lat="42.0818590" lon="-8.7129620">
        <ele>464.2</ele>
        <time>2018-09-29T07:45:38Z</time>
      </trkpt>
      <trkpt lat="42.0820420" lon="-8.7127980">
        <ele>463.2</ele>
        <time>2018-09-29T07:45:42Z</time>
      </trkpt>
      <trkpt lat="42.0822150" lon="-8.7126520">
        <ele>463.0</ele>
        <time>2018-09-29T07:45:46Z</time>
      </trkpt>
      <trkpt lat="42.0826610" lon="-8.7126100">
        <ele>463.0</ele>
        <time>2018-09-29T07:45:55Z</time>
      </trkpt>
      <trkpt lat="42.0827980" lon="-8.7125360">
        <ele>462.8</ele>
        <time>2018-09-29T07:45:58Z</time>
      </trkpt>
      <trkpt lat="42.0830360" lon="-8.7124510">
        <ele>462.8</ele>
        <time>2018-09-29T07:46:03Z</time>
      </trkpt>
      <trkpt lat="42.0832370" lon="-8.7121350">
        <ele>463.0</ele>
        <time>2018-09-29T07:46:10Z</time>
      </trkpt>
      <trkpt lat="42.0832700" lon="-8.7119600">
        <ele>463.2</ele>
        <time>2018-09-29T07:46:13Z</time>
      </trkpt>
      <trkpt lat="42.0833400" lon="-8.7116610">
        <ele>463.0</ele>
        <time>2018-09-29T07:46:18Z</time>
      </trkpt>
      <trkpt lat="42.0834940" lon="-8.7113180">
        <ele>463.0</ele>
        <time>2018-09-29T07:46:24Z</time>
      </trkpt>
      <trkpt lat="42.0836040" lon="-8.7112040">
        <ele>463.0</ele>
        <time>2018-09-29T07:46:27Z</time>
      </trkpt>
      <trkpt lat="42.0840970" lon="-8.7108840">
        <ele>462.8</ele>
        <time>2018-09-29T07:46:39Z</time>
      </trkpt>
      <trkpt lat="42.0842330" lon="-8.7105690">
        <ele>463.4</ele>
        <time>2018-09-29T07:46:46Z</time>
      </trkpt>
      <trkpt lat="42.0842960" lon="-8.7103390">
        <ele>464.0</ele>
        <time>2018-09-29T07:46:51Z</time>
      </trkpt>
      <trkpt lat="42.0843980" lon="-8.7102020">
        <ele>464.6</ele>
        <time>2018-09-29T07:46:55Z</time>
      </trkpt>
      <trkpt lat="42.0844430" lon="-8.7101300">
        <ele>465.0</ele>
        <time>2018-09-29T07:46:57Z</time>
      </trkpt>
      <trkpt lat="42.0845060" lon="-8.7099510">
        <ele>465.6</ele>
        <time>2018-09-29T07:47:01Z</time>
      </trkpt>
      <trkpt lat="42.0845170" lon="-8.7098520">
        <ele>466.0</ele>
        <time>2018-09-29T07:47:03Z</time>
      </trkpt>
      <trkpt lat="42.0845320" lon="-8.7097040">
        <ele>467.2</ele>
        <time>2018-09-29T07:47:06Z</time>
      </trkpt>
      <trkpt lat="42.0845900" lon="-8.7093560">
        <ele>468.4</ele>
        <time>2018-09-29T07:47:13Z</time>
      </trkpt>
      <trkpt lat="42.0846970" lon="-8.7091350">
        <ele>469.2</ele>
        <time>2018-09-29T07:47:18Z</time>
      </trkpt>
      <trkpt lat="42.0847480" lon="-8.7090540">
        <ele>469.4</ele>
        <time>2018-09-29T07:47:20Z</time>
      </trkpt>
      <trkpt lat="42.0849200" lon="-8.7086400">
        <ele>470.6</ele>
        <time>2018-09-29T07:47:30Z</time>
      </trkpt>
      <trkpt lat="42.0849960" lon="-8.7083940">
        <ele>471.8</ele>
        <time>2018-09-29T07:47:37Z</time>
      </trkpt>
      <trkpt lat="42.0850380" lon="-8.7082690">
        <ele>472.8</ele>
        <time>2018-09-29T07:47:41Z</time>
      </trkpt>
      <trkpt lat="42.0850900" lon="-8.7081490">
        <ele>474.0</ele>
        <time>2018-09-29T07:47:45Z</time>
      </trkpt>
      <trkpt lat="42.0851370" lon="-8.7080620">
        <ele>475.0</ele>
        <time>2018-09-29T07:47:48Z</time>
      </trkpt>
      <trkpt lat="42.0852060" lon="-8.7079570">
        <ele>476.2</ele>
        <time>2018-09-29T07:47:52Z</time>
      </trkpt>
      <trkpt lat="42.0853020" lon="-8.7078310">
        <ele>477.4</ele>
        <time>2018-09-29T07:47:57Z</time>
      </trkpt>
      <trkpt lat="42.0853810" lon="-8.7077280">
        <ele>478.6</ele>
        <time>2018-09-29T07:48:01Z</time>
      </trkpt>
      <trkpt lat="42.0854690" lon="-8.7075870">
        <ele>479.8</ele>
        <time>2018-09-29T07:48:06Z</time>
      </trkpt>
      <trkpt lat="42.0855540" lon="-8.7074540">
        <ele>480.8</ele>
        <time>2018-09-29T07:48:11Z</time>
      </trkpt>
      <trkpt lat="42.0856350" lon="-8.7073160">
        <ele>481.6</ele>
        <time>2018-09-29T07:48:16Z</time>
      </trkpt>
      <trkpt lat="42.0857310" lon="-8.7071560">
        <ele>482.6</ele>
        <time>2018-09-29T07:48:22Z</time>
      </trkpt>
      <trkpt lat="42.0857970" lon="-8.7070450">
        <ele>484.0</ele>
        <time>2018-09-29T07:48:26Z</time>
      </trkpt>
      <trkpt lat="42.0858430" lon="-8.7069590">
        <ele>485.0</ele>
        <time>2018-09-29T07:48:29Z</time>
      </trkpt>
      <trkpt lat="42.0859060" lon="-8.7068490">
        <ele>486.2</ele>
        <time>2018-09-29T07:48:33Z</time>
      </trkpt>
      <trkpt lat="42.0859940" lon="-8.7067100">
        <ele>487.4</ele>
        <time>2018-09-29T07:48:38Z</time>
      </trkpt>
      <trkpt lat="42.0861070" lon="-8.7065650">
        <ele>488.4</ele>
        <time>2018-09-29T07:48:44Z</time>
      </trkpt>
      <trkpt lat="42.0861900" lon="-8.7064730">
        <ele>489.6</ele>
        <time>2018-09-29T07:48:48Z</time>
      </trkpt>
      <trkpt lat="42.0863210" lon="-8.7063300">
        <ele>490.8</ele>
        <time>2018-09-29T07:48:54Z</time>
      </trkpt>
      <trkpt lat="42.0864410" lon="-8.7061800">
        <ele>491.8</ele>
        <time>2018-09-29T07:49:00Z</time>
      </trkpt>
      <trkpt lat="42.0865320" lon="-8.7059980">
        <ele>492.8</ele>
        <time>2018-09-29T07:49:06Z</time>
      </trkpt>
      <trkpt lat="42.0865670" lon="-8.7058660">
        <ele>494.0</ele>
        <time>2018-09-29T07:49:10Z</time>
      </trkpt>
      <trkpt lat="42.0865760" lon="-8.7058070">
        <ele>494.6</ele>
        <time>2018-09-29T07:49:15Z</time>
      </trkpt>
      <trkpt lat="42.0865710" lon="-8.7057500">
        <ele>495.0</ele>
        <time>2018-09-29T07:51:07Z</time>
      </trkpt>
      <trkpt lat="42.0865650" lon="-8.7057170">
        <ele>495.2</ele>
        <time>2018-09-29T07:51:08Z</time>
      </trkpt>
      <trkpt lat="42.0864860" lon="-8.7054780">
        <ele>495.2</ele>
        <time>2018-09-29T07:51:15Z</time>
      </trkpt>
      <trkpt lat="42.0864390" lon="-8.7053910">
        <ele>495.6</ele>
        <time>2018-09-29T07:51:18Z</time>
      </trkpt>
      <trkpt lat="42.0864060" lon="-8.7053380">
        <ele>495.6</ele>
        <time>2018-09-29T07:51:20Z</time>
      </trkpt>
      <trkpt lat="42.0863240" lon="-8.7052320">
        <ele>496.2</ele>
        <time>2018-09-29T07:51:24Z</time>
      </trkpt>
      <trkpt lat="42.0861630" lon="-8.7051660">
        <ele>497.2</ele>
        <time>2018-09-29T07:51:30Z</time>
      </trkpt>
      <trkpt lat="42.0860630" lon="-8.7051980">
        <ele>498.0</ele>
        <time>2018-09-29T07:51:34Z</time>
      </trkpt>
      <trkpt lat="42.0860090" lon="-8.7052130">
        <ele>498.4</ele>
        <time>2018-09-29T07:51:36Z</time>
      </trkpt>
      <trkpt lat="42.0859200" lon="-8.7052120">
        <ele>499.0</ele>
        <time>2018-09-29T07:51:39Z</time>
      </trkpt>
      <trkpt lat="42.0858560" lon="-8.7051960">
        <ele>499.6</ele>
        <time>2018-09-29T07:51:41Z</time>
      </trkpt>
      <trkpt lat="42.0857650" lon="-8.7051560">
        <ele>500.4</ele>
        <time>2018-09-29T07:51:44Z</time>
      </trkpt>
      <trkpt lat="42.0857120" lon="-8.7051150">
        <ele>500.8</ele>
        <time>2018-09-29T07:51:46Z</time>
      </trkpt>
      <trkpt lat="42.0856000" lon="-8.7049770">
        <ele>501.4</ele>
        <time>2018-09-29T07:51:51Z</time>
      </trkpt>
      <trkpt lat="42.0855490" lon="-8.7048330">
        <ele>501.8</ele>
        <time>2018-09-29T07:51:55Z</time>
      </trkpt>
      <trkpt lat="42.0855610" lon="-8.7045700">
        <ele>502.6</ele>
        <time>2018-09-29T07:52:01Z</time>
      </trkpt>
      <trkpt lat="42.0855700" lon="-8.7038330">
        <ele>503.6</ele>
        <time>2018-09-29T07:52:14Z</time>
      </trkpt>
      <trkpt lat="42.0855630" lon="-8.7037310">
        <ele>503.6</ele>
        <time>2018-09-29T07:52:16Z</time>
      </trkpt>
      <trkpt lat="42.0855340" lon="-8.7035290">
        <ele>503.8</ele>
        <time>2018-09-29T07:52:20Z</time>
      </trkpt>
      <trkpt lat="42.0855170" lon="-8.7034790">
        <ele>503.8</ele>
        <time>2018-09-29T07:52:21Z</time>
      </trkpt>
      <trkpt lat="42.0854220" lon="-8.7033440">
        <ele>504.0</ele>
        <time>2018-09-29T07:52:24Z</time>
      </trkpt>
      <trkpt lat="42.0853270" lon="-8.7032030">
        <ele>504.0</ele>
        <time>2018-09-29T07:52:27Z</time>
      </trkpt>
      <trkpt lat="42.0852810" lon="-8.7030400">
        <ele>504.0</ele>
        <time>2018-09-29T07:52:30Z</time>
      </trkpt>
      <trkpt lat="42.0851710" lon="-8.7026920">
        <ele>504.0</ele>
        <time>2018-09-29T07:52:37Z</time>
      </trkpt>
      <trkpt lat="42.0850360" lon="-8.7025460">
        <ele>504.2</ele>
        <time>2018-09-29T07:52:41Z</time>
      </trkpt>
      <trkpt lat="42.0847530" lon="-8.7023460">
        <ele>504.4</ele>
        <time>2018-09-29T07:52:48Z</time>
      </trkpt>
      <trkpt lat="42.0846640" lon="-8.7021370">
        <ele>504.4</ele>
        <time>2018-09-29T07:52:52Z</time>
      </trkpt>
      <trkpt lat="42.0845940" lon="-8.7018830">
        <ele>504.2</ele>
        <time>2018-09-29T07:52:56Z</time>
      </trkpt>
      <trkpt lat="42.0845340" lon="-8.7016860">
        <ele>503.8</ele>
        <time>2018-09-29T07:52:59Z</time>
      </trkpt>
      <trkpt lat="42.0844320" lon="-8.7013560">
        <ele>503.0</ele>
        <time>2018-09-29T07:53:04Z</time>
      </trkpt>
      <trkpt lat="42.0843900" lon="-8.7012270">
        <ele>502.6</ele>
        <time>2018-09-29T07:53:06Z</time>
      </trkpt>
      <trkpt lat="42.0842910" lon="-8.7009850">
        <ele>501.8</ele>
        <time>2018-09-29T07:53:10Z</time>
      </trkpt>
      <trkpt lat="42.0842290" lon="-8.7008740">
        <ele>501.6</ele>
        <time>2018-09-29T07:53:12Z</time>
      </trkpt>
      <trkpt lat="42.0841940" lon="-8.7008230">
        <ele>501.6</ele>
        <time>2018-09-29T07:53:13Z</time>
      </trkpt>
      <trkpt lat="42.0840400" lon="-8.7006410">
        <ele>501.4</ele>
        <time>2018-09-29T07:53:17Z</time>
      </trkpt>
      <trkpt lat="42.0839670" lon="-8.7005510">
        <ele>501.2</ele>
        <time>2018-09-29T07:53:19Z</time>
      </trkpt>
      <trkpt lat="42.0838570" lon="-8.7004290">
        <ele>501.2</ele>
        <time>2018-09-29T07:53:22Z</time>
      </trkpt>
      <trkpt lat="42.0836740" lon="-8.7003650">
        <ele>501.0</ele>
        <time>2018-09-29T07:53:26Z</time>
      </trkpt>
      <trkpt lat="42.0834680" lon="-8.7003650">
        <ele>501.0</ele>
        <time>2018-09-29T07:53:30Z</time>
      </trkpt>
      <trkpt lat="42.0834160" lon="-8.7003670">
        <ele>501.0</ele>
        <time>2018-09-29T07:53:31Z</time>
      </trkpt>
      <trkpt lat="42.0829400" lon="-8.7004500">
        <ele>500.8</ele>
        <time>2018-09-29T07:53:40Z</time>
      </trkpt>
      <trkpt lat="42.0828890" lon="-8.7004500">
        <ele>500.6</ele>
        <time>2018-09-29T07:53:41Z</time>
      </trkpt>
      <trkpt lat="42.0828400" lon="-8.7004450">
        <ele>500.4</ele>
        <time>2018-09-29T07:53:42Z</time>
      </trkpt>
      <trkpt lat="42.0823350" lon="-8.7001040">
        <ele>500.2</ele>
        <time>2018-09-29T07:53:55Z</time>
      </trkpt>
      <trkpt lat="42.0822450" lon="-8.6998980">
        <ele>500.4</ele>
        <time>2018-09-29T07:54:00Z</time>
      </trkpt>
      <trkpt lat="42.0822180" lon="-8.6997050">
        <ele>501.2</ele>
        <time>2018-09-29T07:54:04Z</time>
      </trkpt>
      <trkpt lat="42.0822210" lon="-8.6995510">
        <ele>501.8</ele>
        <time>2018-09-29T07:54:07Z</time>
      </trkpt>
      <trkpt lat="42.0822190" lon="-8.6993340">
        <ele>502.6</ele>
        <time>2018-09-29T07:54:11Z</time>
      </trkpt>
      <trkpt lat="42.0821770" lon="-8.6989030">
        <ele>502.8</ele>
        <time>2018-09-29T07:54:19Z</time>
      </trkpt>
      <trkpt lat="42.0818710" lon="-8.6983710">
        <ele>503.2</ele>
        <time>2018-09-29T07:54:33Z</time>
      </trkpt>
      <trkpt lat="42.0818250" lon="-8.6982890">
        <ele>503.4</ele>
        <time>2018-09-29T07:54:39Z</time>
      </trkpt>
      <trkpt lat="42.0815940" lon="-8.6979190">
        <ele>503.8</ele>
        <time>2018-09-29T07:54:52Z</time>
      </trkpt>
      <trkpt lat="42.0815030" lon="-8.6977820">
        <ele>504.4</ele>
        <time>2018-09-29T07:54:56Z</time>
      </trkpt>
      <trkpt lat="42.0813810" lon="-8.6976240">
        <ele>505.0</ele>
        <time>2018-09-29T07:55:01Z</time>
      </trkpt>
      <trkpt lat="42.0812540" lon="-8.6974240">
        <ele>506.0</ele>
        <time>2018-09-29T07:55:07Z</time>
      </trkpt>
      <trkpt lat="42.0809720" lon="-8.6970030">
        <ele>507.0</ele>
        <time>2018-09-29T07:55:20Z</time>
      </trkpt>
      <trkpt lat="42.0808810" lon="-8.6967310">
        <ele>508.2</ele>
        <time>2018-09-29T07:55:26Z</time>
      </trkpt>
      <trkpt lat="42.0808740" lon="-8.6966770">
        <ele>508.4</ele>
        <time>2018-09-29T07:55:27Z</time>
      </trkpt>
      <trkpt lat="42.0808290" lon="-8.6961900">
        <ele>508.6</ele>
        <time>2018-09-29T07:55:35Z</time>
      </trkpt>
      <trkpt lat="42.0806950" lon="-8.6959440">
        <ele>508.0</ele>
        <time>2018-09-29T07:55:40Z</time>
      </trkpt>
      <trkpt lat="42.0803560" lon="-8.6954680">
        <ele>508.8</ele>
        <time>2018-09-29T07:55:53Z</time>
      </trkpt>
      <trkpt lat="42.0803340" lon="-8.6953640">
        <ele>509.2</ele>
        <time>2018-09-29T07:55:55Z</time>
      </trkpt>
      <trkpt lat="42.0803060" lon="-8.6951410">
        <ele>509.6</ele>
        <time>2018-09-29T07:55:59Z</time>
      </trkpt>
      <trkpt lat="42.0802880" lon="-8.6950230">
        <ele>509.6</ele>
        <time>2018-09-29T07:56:01Z</time>
      </trkpt>
      <trkpt lat="42.0802280" lon="-8.6948090">
        <ele>509.8</ele>
        <time>2018-09-29T07:56:05Z</time>
      </trkpt>
      <trkpt lat="42.0799860" lon="-8.6943930">
        <ele>510.4</ele>
        <time>2018-09-29T07:56:16Z</time>
      </trkpt>
      <trkpt lat="42.0798920" lon="-8.6942610">
        <ele>511.6</ele>
        <time>2018-09-29T07:56:20Z</time>
      </trkpt>
      <trkpt lat="42.0797560" lon="-8.6940420">
        <ele>512.2</ele>
        <time>2018-09-29T07:56:27Z</time>
      </trkpt>
      <trkpt lat="42.0797180" lon="-8.6939760">
        <ele>512.8</ele>
        <time>2018-09-29T07:56:29Z</time>
      </trkpt>
      <trkpt lat="42.0796310" lon="-8.6938370">
        <ele>513.8</ele>
        <time>2018-09-29T07:56:33Z</time>
      </trkpt>
      <trkpt lat="42.0794030" lon="-8.6937060">
        <ele>514.8</ele>
        <time>2018-09-29T07:56:41Z</time>
      </trkpt>
      <trkpt lat="42.0792750" lon="-8.6936180">
        <ele>515.8</ele>
        <time>2018-09-29T07:56:46Z</time>
      </trkpt>
      <trkpt lat="42.0791910" lon="-8.6935470">
        <ele>517.0</ele>
        <time>2018-09-29T07:56:49Z</time>
      </trkpt>
      <trkpt lat="42.0789660" lon="-8.6932960">
        <ele>517.8</ele>
        <time>2018-09-29T07:57:00Z</time>
      </trkpt>
      <trkpt lat="42.0789520" lon="-8.6932370">
        <ele>517.8</ele>
        <time>2018-09-29T07:57:03Z</time>
      </trkpt>
      <trkpt lat="42.0790060" lon="-8.6932070">
        <ele>517.4</ele>
        <time>2018-09-29T07:57:07Z</time>
      </trkpt>
      <trkpt lat="42.0790170" lon="-8.6932170">
        <ele>517.4</ele>
        <time>2018-09-29T07:57:08Z</time>
      </trkpt>
      <trkpt lat="42.0790870" lon="-8.6932060">
        <ele>517.4</ele>
        <time>2018-09-29T07:57:13Z</time>
      </trkpt>
      <trkpt lat="42.0790930" lon="-8.6930870">
        <ele>517.4</ele>
        <time>2018-09-29T07:57:17Z</time>
      </trkpt>
      <trkpt lat="42.0791060" lon="-8.6929250">
        <ele>518.0</ele>
        <time>2018-09-29T07:57:22Z</time>
      </trkpt>
      <trkpt lat="42.0791410" lon="-8.6926850">
        <ele>519.4</ele>
        <time>2018-09-29T07:57:29Z</time>
      </trkpt>
      <trkpt lat="42.0791520" lon="-8.6925610">
        <ele>520.6</ele>
        <time>2018-09-29T07:57:34Z</time>
      </trkpt>
      <trkpt lat="42.0791850" lon="-8.6922700">
        <ele>521.8</ele>
        <time>2018-09-29T07:57:44Z</time>
      </trkpt>
      <trkpt lat="42.0792080" lon="-8.6921480">
        <ele>522.8</ele>
        <time>2018-09-29T07:57:48Z</time>
      </trkpt>
      <trkpt lat="42.0792140" lon="-8.6921180">
        <ele>523.0</ele>
        <time>2018-09-29T07:57:49Z</time>
      </trkpt>
      <trkpt lat="42.0792720" lon="-8.6919850">
        <ele>524.0</ele>
        <time>2018-09-29T07:57:54Z</time>
      </trkpt>
      <trkpt lat="42.0793650" lon="-8.6919390">
        <ele>525.2</ele>
        <time>2018-09-29T07:57:58Z</time>
      </trkpt>
      <trkpt lat="42.0795050" lon="-8.6919680">
        <ele>526.4</ele>
        <time>2018-09-29T07:58:04Z</time>
      </trkpt>
      <trkpt lat="42.0796450" lon="-8.6921680">
        <ele>527.6</ele>
        <time>2018-09-29T07:58:12Z</time>
      </trkpt>
      <trkpt lat="42.0797210" lon="-8.6923070">
        <ele>528.6</ele>
        <time>2018-09-29T07:58:17Z</time>
      </trkpt>
      <trkpt lat="42.0798010" lon="-8.6924400">
        <ele>529.8</ele>
        <time>2018-09-29T07:58:22Z</time>
      </trkpt>
      <trkpt lat="42.0798930" lon="-8.6925800">
        <ele>531.0</ele>
        <time>2018-09-29T07:58:27Z</time>
      </trkpt>
      <trkpt lat="42.0800280" lon="-8.6927400">
        <ele>532.0</ele>
        <time>2018-09-29T07:58:33Z</time>
      </trkpt>
      <trkpt lat="42.0802470" lon="-8.6930250">
        <ele>533.2</ele>
        <time>2018-09-29T07:58:43Z</time>
      </trkpt>
      <trkpt lat="42.0803980" lon="-8.6932320">
        <ele>534.2</ele>
        <time>2018-09-29T07:58:51Z</time>
      </trkpt>
      <trkpt lat="42.0804720" lon="-8.6933240">
        <ele>535.4</ele>
        <time>2018-09-29T07:58:55Z</time>
      </trkpt>
      <trkpt lat="42.0805780" lon="-8.6934310">
        <ele>536.6</ele>
        <time>2018-09-29T07:59:00Z</time>
      </trkpt>
      <trkpt lat="42.0806930" lon="-8.6935260">
        <ele>537.4</ele>
        <time>2018-09-29T07:59:05Z</time>
      </trkpt>
      <trkpt lat="42.0808110" lon="-8.6936060">
        <ele>538.8</ele>
        <time>2018-09-29T07:59:10Z</time>
      </trkpt>
      <trkpt lat="42.0809510" lon="-8.6937130">
        <ele>540.0</ele>
        <time>2018-09-29T07:59:16Z</time>
      </trkpt>
      <trkpt lat="42.0810470" lon="-8.6937840">
        <ele>541.0</ele>
        <time>2018-09-29T07:59:20Z</time>
      </trkpt>
      <trkpt lat="42.0811530" lon="-8.6938350">
        <ele>542.0</ele>
        <time>2018-09-29T07:59:24Z</time>
      </trkpt>
      <trkpt lat="42.0814090" lon="-8.6938690">
        <ele>543.4</ele>
        <time>2018-09-29T07:59:33Z</time>
      </trkpt>
      <trkpt lat="42.0815560" lon="-8.6940280">
        <ele>544.4</ele>
        <time>2018-09-29T07:59:40Z</time>
      </trkpt>
      <trkpt lat="42.0816050" lon="-8.6942880">
        <ele>545.4</ele>
        <time>2018-09-29T07:59:47Z</time>
      </trkpt>
      <trkpt lat="42.0816670" lon="-8.6945320">
        <ele>546.6</ele>
        <time>2018-09-29T07:59:54Z</time>
      </trkpt>
      <trkpt lat="42.0817340" lon="-8.6947010">
        <ele>547.8</ele>
        <time>2018-09-29T07:59:59Z</time>
      </trkpt>
      <trkpt lat="42.0818150" lon="-8.6948620">
        <ele>549.0</ele>
        <time>2018-09-29T08:00:04Z</time>
      </trkpt>
      <trkpt lat="42.0818940" lon="-8.6950180">
        <ele>550.2</ele>
        <time>2018-09-29T08:00:09Z</time>
      </trkpt>
      <trkpt lat="42.0820120" lon="-8.6951600">
        <ele>551.2</ele>
        <time>2018-09-29T08:00:15Z</time>
      </trkpt>
      <trkpt lat="42.0821260" lon="-8.6952360">
        <ele>552.4</ele>
        <time>2018-09-29T08:00:20Z</time>
      </trkpt>
      <trkpt lat="42.0822140" lon="-8.6952540">
        <ele>553.4</ele>
        <time>2018-09-29T08:00:24Z</time>
      </trkpt>
      <trkpt lat="42.0823590" lon="-8.6953160">
        <ele>554.6</ele>
        <time>2018-09-29T08:00:31Z</time>
      </trkpt>
      <trkpt lat="42.0825370" lon="-8.6953700">
        <ele>555.6</ele>
        <time>2018-09-29T08:00:38Z</time>
      </trkpt>
      <trkpt lat="42.0826690" lon="-8.6953780">
        <ele>556.8</ele>
        <time>2018-09-29T08:00:43Z</time>
      </trkpt>
      <trkpt lat="42.0828240" lon="-8.6953910">
        <ele>557.8</ele>
        <time>2018-09-29T08:00:49Z</time>
      </trkpt>
      <trkpt lat="42.0829810" lon="-8.6954200">
        <ele>559.0</ele>
        <time>2018-09-29T08:00:55Z</time>
      </trkpt>
      <trkpt lat="42.0831050" lon="-8.6954800">
        <ele>560.0</ele>
        <time>2018-09-29T08:01:00Z</time>
      </trkpt>
      <trkpt lat="42.0832550" lon="-8.6955760">
        <ele>561.2</ele>
        <time>2018-09-29T08:01:06Z</time>
      </trkpt>
      <trkpt lat="42.0834300" lon="-8.6957190">
        <ele>562.4</ele>
        <time>2018-09-29T08:01:13Z</time>
      </trkpt>
      <trkpt lat="42.0836160" lon="-8.6957560">
        <ele>563.2</ele>
        <time>2018-09-29T08:01:19Z</time>
      </trkpt>
      <trkpt lat="42.0837640" lon="-8.6955900">
        <ele>563.4</ele>
        <time>2018-09-29T08:01:25Z</time>
      </trkpt>
      <trkpt lat="42.0838950" lon="-8.6954590">
        <ele>563.4</ele>
        <time>2018-09-29T08:01:30Z</time>
      </trkpt>
      <trkpt lat="42.0841980" lon="-8.6956180">
        <ele>563.4</ele>
        <time>2018-09-29T08:01:39Z</time>
      </trkpt>
      <trkpt lat="42.0844830" lon="-8.6957830">
        <ele>564.4</ele>
        <time>2018-09-29T08:01:49Z</time>
      </trkpt>
      <trkpt lat="42.0846490" lon="-8.6957800">
        <ele>565.4</ele>
        <time>2018-09-29T08:01:54Z</time>
      </trkpt>
      <trkpt lat="42.0849480" lon="-8.6957240">
        <ele>566.4</ele>
        <time>2018-09-29T08:02:03Z</time>
      </trkpt>
      <trkpt lat="42.0852370" lon="-8.6955960">
        <ele>567.6</ele>
        <time>2018-09-29T08:02:13Z</time>
      </trkpt>
      <trkpt lat="42.0853420" lon="-8.6955150">
        <ele>568.6</ele>
        <time>2018-09-29T08:02:17Z</time>
      </trkpt>
      <trkpt lat="42.0854140" lon="-8.6954090">
        <ele>569.8</ele>
        <time>2018-09-29T08:02:21Z</time>
      </trkpt>
      <trkpt lat="42.0854190" lon="-8.6952090">
        <ele>570.8</ele>
        <time>2018-09-29T08:02:27Z</time>
      </trkpt>
      <trkpt lat="42.0854090" lon="-8.6951760">
        <ele>570.8</ele>
        <time>2018-09-29T08:02:28Z</time>
      </trkpt>
      <trkpt lat="42.0853560" lon="-8.6950690">
        <ele>572.0</ele>
        <time>2018-09-29T08:02:32Z</time>
      </trkpt>
      <trkpt lat="42.0852910" lon="-8.6949710">
        <ele>573.2</ele>
        <time>2018-09-29T08:02:36Z</time>
      </trkpt>
      <trkpt lat="42.0852930" lon="-8.6949430">
        <ele>573.6</ele>
        <time>2018-09-29T08:02:37Z</time>
      </trkpt>
      <trkpt lat="42.0853260" lon="-8.6948860">
        <ele>574.0</ele>
        <time>2018-09-29T08:02:39Z</time>
      </trkpt>
      <trkpt lat="42.0854080" lon="-8.6948500">
        <ele>575.2</ele>
        <time>2018-09-29T08:02:42Z</time>
      </trkpt>
      <trkpt lat="42.0855330" lon="-8.6949340">
        <ele>575.8</ele>
        <time>2018-09-29T08:02:46Z</time>
      </trkpt>
      <trkpt lat="42.0857050" lon="-8.6950910">
        <ele>575.8</ele>
        <time>2018-09-29T08:02:51Z</time>
      </trkpt>
      <trkpt lat="42.0858760" lon="-8.6952170">
        <ele>575.6</ele>
        <time>2018-09-29T08:02:55Z</time>
      </trkpt>
      <trkpt lat="42.0859280" lon="-8.6952320">
        <ele>575.4</ele>
        <time>2018-09-29T08:02:56Z</time>
      </trkpt>
      <trkpt lat="42.0861700" lon="-8.6952310">
        <ele>574.6</ele>
        <time>2018-09-29T08:03:01Z</time>
      </trkpt>
      <trkpt lat="42.0862650" lon="-8.6952050">
        <ele>574.0</ele>
        <time>2018-09-29T08:03:03Z</time>
      </trkpt>
      <trkpt lat="42.0864120" lon="-8.6951540">
        <ele>573.4</ele>
        <time>2018-09-29T08:03:06Z</time>
      </trkpt>
      <trkpt lat="42.0864630" lon="-8.6951450">
        <ele>573.4</ele>
        <time>2018-09-29T08:03:07Z</time>
      </trkpt>
      <trkpt lat="42.0865620" lon="-8.6951360">
        <ele>573.2</ele>
        <time>2018-09-29T08:03:09Z</time>
      </trkpt>
      <trkpt lat="42.0866530" lon="-8.6950830">
        <ele>573.0</ele>
        <time>2018-09-29T08:03:11Z</time>
      </trkpt>
      <trkpt lat="42.0866980" lon="-8.6949910">
        <ele>572.0</ele>
        <time>2018-09-29T08:03:13Z</time>
      </trkpt>
      <trkpt lat="42.0867100" lon="-8.6949010">
        <ele>570.8</ele>
        <time>2018-09-29T08:03:15Z</time>
      </trkpt>
      <trkpt lat="42.0867220" lon="-8.6948400">
        <ele>569.6</ele>
        <time>2018-09-29T08:03:17Z</time>
      </trkpt>
      <trkpt lat="42.0867370" lon="-8.6946770">
        <ele>568.2</ele>
        <time>2018-09-29T08:03:21Z</time>
      </trkpt>
      <trkpt lat="42.0867470" lon="-8.6945430">
        <ele>567.2</ele>
        <time>2018-09-29T08:03:24Z</time>
      </trkpt>
      <trkpt lat="42.0867500" lon="-8.6944210">
        <ele>566.0</ele>
        <time>2018-09-29T08:03:27Z</time>
      </trkpt>
      <trkpt lat="42.0867380" lon="-8.6943290">
        <ele>564.6</ele>
        <time>2018-09-29T08:03:29Z</time>
      </trkpt>
      <trkpt lat="42.0867280" lon="-8.6942910">
        <ele>564.2</ele>
        <time>2018-09-29T08:03:30Z</time>
      </trkpt>
      <trkpt lat="42.0867140" lon="-8.6942590">
        <ele>563.6</ele>
        <time>2018-09-29T08:03:31Z</time>
      </trkpt>
      <trkpt lat="42.0866640" lon="-8.6941370">
        <ele>562.6</ele>
        <time>2018-09-29T08:03:35Z</time>
      </trkpt>
      <trkpt lat="42.0866210" lon="-8.6940050">
        <ele>561.4</ele>
        <time>2018-09-29T08:03:40Z</time>
      </trkpt>
      <trkpt lat="42.0865470" lon="-8.6937610">
        <ele>560.2</ele>
        <time>2018-09-29T08:03:47Z</time>
      </trkpt>
      <trkpt lat="42.0865710" lon="-8.6935330">
        <ele>559.2</ele>
        <time>2018-09-29T08:03:52Z</time>
      </trkpt>
      <trkpt lat="42.0867420" lon="-8.6932580">
        <ele>558.6</ele>
        <time>2018-09-29T08:04:00Z</time>
      </trkpt>
      <trkpt lat="42.0868010" lon="-8.6931880">
        <ele>558.4</ele>
        <time>2018-09-29T08:04:03Z</time>
      </trkpt>
      <trkpt lat="42.0868750" lon="-8.6931320">
        <ele>558.2</ele>
        <time>2018-09-29T08:04:06Z</time>
      </trkpt>
      <trkpt lat="42.0870620" lon="-8.6929590">
        <ele>557.6</ele>
        <time>2018-09-29T08:04:13Z</time>
      </trkpt>
      <trkpt lat="42.0871090" lon="-8.6928920">
        <ele>557.0</ele>
        <time>2018-09-29T08:04:15Z</time>
      </trkpt>
      <trkpt lat="42.0872030" lon="-8.6927400">
        <ele>556.0</ele>
        <time>2018-09-29T08:04:19Z</time>
      </trkpt>
      <trkpt lat="42.0873510" lon="-8.6924880">
        <ele>555.8</ele>
        <time>2018-09-29T08:04:25Z</time>
      </trkpt>
      <trkpt lat="42.0873870" lon="-8.6920520">
        <ele>555.0</ele>
        <time>2018-09-29T08:04:36Z</time>
      </trkpt>
      <trkpt lat="42.0875620" lon="-8.6919430">
        <ele>555.0</ele>
        <time>2018-09-29T08:04:43Z</time>
      </trkpt>
      <trkpt lat="42.0877380" lon="-8.6918740">
        <ele>555.4</ele>
        <time>2018-09-29T08:04:48Z</time>
      </trkpt>
      <trkpt lat="42.0879300" lon="-8.6917860">
        <ele>555.8</ele>
        <time>2018-09-29T08:04:54Z</time>
      </trkpt>
      <trkpt lat="42.0879770" lon="-8.6916800">
        <ele>556.0</ele>
        <time>2018-09-29T08:04:57Z</time>
      </trkpt>
      <trkpt lat="42.0879890" lon="-8.6915980">
        <ele>556.6</ele>
        <time>2018-09-29T08:04:59Z</time>
      </trkpt>
      <trkpt lat="42.0879790" lon="-8.6914770">
        <ele>557.2</ele>
        <time>2018-09-29T08:05:02Z</time>
      </trkpt>
      <trkpt lat="42.0879500" lon="-8.6912820">
        <ele>558.0</ele>
        <time>2018-09-29T08:05:07Z</time>
      </trkpt>
      <trkpt lat="42.0879480" lon="-8.6912030">
        <ele>558.4</ele>
        <time>2018-09-29T08:05:09Z</time>
      </trkpt>
      <trkpt lat="42.0879880" lon="-8.6910370">
        <ele>559.0</ele>
        <time>2018-09-29T08:05:14Z</time>
      </trkpt>
      <trkpt lat="42.0880220" lon="-8.6909640">
        <ele>559.6</ele>
        <time>2018-09-29T08:05:16Z</time>
      </trkpt>
      <trkpt lat="42.0881240" lon="-8.6906700">
        <ele>560.8</ele>
        <time>2018-09-29T08:05:23Z</time>
      </trkpt>
      <trkpt lat="42.0882110" lon="-8.6904220">
        <ele>561.0</ele>
        <time>2018-09-29T08:05:31Z</time>
      </trkpt>
      <trkpt lat="42.0882660" lon="-8.6903370">
        <ele>561.0</ele>
        <time>2018-09-29T08:05:37Z</time>
      </trkpt>
      <trkpt lat="42.0882850" lon="-8.6903070">
        <ele>561.0</ele>
        <time>2018-09-29T08:05:39Z</time>
      </trkpt>
      <trkpt lat="42.0883080" lon="-8.6902400">
        <ele>561.0</ele>
        <time>2018-09-29T08:05:43Z</time>
      </trkpt>
      <trkpt lat="42.0883160" lon="-8.6902040">
        <ele>561.0</ele>
        <time>2018-09-29T08:05:45Z</time>
      </trkpt>
      <trkpt lat="42.0883240" lon="-8.6901680">
        <ele>561.0</ele>
        <time>2018-09-29T08:05:47Z</time>
      </trkpt>
      <trkpt lat="42.0883320" lon="-8.6901300">
        <ele>561.0</ele>
        <time>2018-09-29T08:05:49Z</time>
      </trkpt>
      <trkpt lat="42.0882950" lon="-8.6899740">
        <ele>561.0</ele>
        <time>2018-09-29T08:05:54Z</time>
      </trkpt>
      <trkpt lat="42.0882670" lon="-8.6898290">
        <ele>561.0</ele>
        <time>2018-09-29T08:05:57Z</time>
      </trkpt>
      <trkpt lat="42.0882360" lon="-8.6896040">
        <ele>560.8</ele>
        <time>2018-09-29T08:06:01Z</time>
      </trkpt>
      <trkpt lat="42.0882180" lon="-8.6894330">
        <ele>560.8</ele>
        <time>2018-09-29T08:06:04Z</time>
      </trkpt>
      <trkpt lat="42.0881680" lon="-8.6892700">
        <ele>560.8</ele>
        <time>2018-09-29T08:06:07Z</time>
      </trkpt>
      <trkpt lat="42.0881370" lon="-8.6890310">
        <ele>560.8</ele>
        <time>2018-09-29T08:06:11Z</time>
      </trkpt>
      <trkpt lat="42.0881370" lon="-8.6889730">
        <ele>560.8</ele>
        <time>2018-09-29T08:06:12Z</time>
      </trkpt>
      <trkpt lat="42.0881700" lon="-8.6887520">
        <ele>560.8</ele>
        <time>2018-09-29T08:06:16Z</time>
      </trkpt>
      <trkpt lat="42.0881230" lon="-8.6883100">
        <ele>561.2</ele>
        <time>2018-09-29T08:06:26Z</time>
      </trkpt>
      <trkpt lat="42.0882030" lon="-8.6881630">
        <ele>561.0</ele>
        <time>2018-09-29T08:06:30Z</time>
      </trkpt>
      <trkpt lat="42.0883290" lon="-8.6880530">
        <ele>560.8</ele>
        <time>2018-09-29T08:06:33Z</time>
      </trkpt>
      <trkpt lat="42.0885640" lon="-8.6879690">
        <ele>559.6</ele>
        <time>2018-09-29T08:06:38Z</time>
      </trkpt>
      <trkpt lat="42.0886140" lon="-8.6879540">
        <ele>559.2</ele>
        <time>2018-09-29T08:06:39Z</time>
      </trkpt>
      <trkpt lat="42.0886700" lon="-8.6879240">
        <ele>558.4</ele>
        <time>2018-09-29T08:06:40Z</time>
      </trkpt>
      <trkpt lat="42.0887850" lon="-8.6878390">
        <ele>556.8</ele>
        <time>2018-09-29T08:06:42Z</time>
      </trkpt>
      <trkpt lat="42.0890090" lon="-8.6876630">
        <ele>555.4</ele>
        <time>2018-09-29T08:06:46Z</time>
      </trkpt>
      <trkpt lat="42.0890730" lon="-8.6875540">
        <ele>554.4</ele>
        <time>2018-09-29T08:06:48Z</time>
      </trkpt>
      <trkpt lat="42.0891180" lon="-8.6874100">
        <ele>553.2</ele>
        <time>2018-09-29T08:06:51Z</time>
      </trkpt>
      <trkpt lat="42.0891490" lon="-8.6871280">
        <ele>552.4</ele>
        <time>2018-09-29T08:06:55Z</time>
      </trkpt>
      <trkpt lat="42.0891670" lon="-8.6870440">
        <ele>552.2</ele>
        <time>2018-09-29T08:06:56Z</time>
      </trkpt>
      <trkpt lat="42.0892600" lon="-8.6867950">
        <ele>551.6</ele>
        <time>2018-09-29T08:06:59Z</time>
      </trkpt>
      <trkpt lat="42.0893060" lon="-8.6867300">
        <ele>551.0</ele>
        <time>2018-09-29T08:07:00Z</time>
      </trkpt>
      <trkpt lat="42.0894000" lon="-8.6866260">
        <ele>550.2</ele>
        <time>2018-09-29T08:07:02Z</time>
      </trkpt>
      <trkpt lat="42.0894410" lon="-8.6865940">
        <ele>549.6</ele>
        <time>2018-09-29T08:07:03Z</time>
      </trkpt>
      <trkpt lat="42.0895290" lon="-8.6865700">
        <ele>548.0</ele>
        <time>2018-09-29T08:07:05Z</time>
      </trkpt>
      <trkpt lat="42.0896280" lon="-8.6865820">
        <ele>546.2</ele>
        <time>2018-09-29T08:07:07Z</time>
      </trkpt>
      <trkpt lat="42.0896760" lon="-8.6865870">
        <ele>545.6</ele>
        <time>2018-09-29T08:07:08Z</time>
      </trkpt>
      <trkpt lat="42.0897190" lon="-8.6865860">
        <ele>545.0</ele>
        <time>2018-09-29T08:07:09Z</time>
      </trkpt>
      <trkpt lat="42.0898420" lon="-8.6864970">
        <ele>543.6</ele>
        <time>2018-09-29T08:07:12Z</time>
      </trkpt>
      <trkpt lat="42.0898390" lon="-8.6861870">
        <ele>542.4</ele>
        <time>2018-09-29T08:07:17Z</time>
      </trkpt>
      <trkpt lat="42.0897760" lon="-8.6860170">
        <ele>541.4</ele>
        <time>2018-09-29T08:07:19Z</time>
      </trkpt>
      <trkpt lat="42.0897400" lon="-8.6859180">
        <ele>541.2</ele>
        <time>2018-09-29T08:07:20Z</time>
      </trkpt>
      <trkpt lat="42.0897150" lon="-8.6858270">
        <ele>541.0</ele>
        <time>2018-09-29T08:07:21Z</time>
      </trkpt>
      <trkpt lat="42.0897180" lon="-8.6856750">
        <ele>539.8</ele>
        <time>2018-09-29T08:07:23Z</time>
      </trkpt>
      <trkpt lat="42.0897670" lon="-8.6855340">
        <ele>538.4</ele>
        <time>2018-09-29T08:07:25Z</time>
      </trkpt>
      <trkpt lat="42.0898490" lon="-8.6854330">
        <ele>536.8</ele>
        <time>2018-09-29T08:07:27Z</time>
      </trkpt>
      <trkpt lat="42.0899970" lon="-8.6853610">
        <ele>535.8</ele>
        <time>2018-09-29T08:07:30Z</time>
      </trkpt>
      <trkpt lat="42.0901140" lon="-8.6853760">
        <ele>534.8</ele>
        <time>2018-09-29T08:07:32Z</time>
      </trkpt>
      <trkpt lat="42.0901750" lon="-8.6853730">
        <ele>534.6</ele>
        <time>2018-09-29T08:07:33Z</time>
      </trkpt>
      <trkpt lat="42.0903540" lon="-8.6853330">
        <ele>533.6</ele>
        <time>2018-09-29T08:07:36Z</time>
      </trkpt>
      <trkpt lat="42.0904700" lon="-8.6853020">
        <ele>533.0</ele>
        <time>2018-09-29T08:07:38Z</time>
      </trkpt>
      <trkpt lat="42.0905490" lon="-8.6852420">
        <ele>532.4</ele>
        <time>2018-09-29T08:07:40Z</time>
      </trkpt>
      <trkpt lat="42.0906780" lon="-8.6852220">
        <ele>531.2</ele>
        <time>2018-09-29T08:07:44Z</time>
      </trkpt>
      <trkpt lat="42.0907380" lon="-8.6852980">
        <ele>529.4</ele>
        <time>2018-09-29T08:07:46Z</time>
      </trkpt>
      <trkpt lat="42.0907680" lon="-8.6853430">
        <ele>529.0</ele>
        <time>2018-09-29T08:07:47Z</time>
      </trkpt>
      <trkpt lat="42.0908310" lon="-8.6854530">
        <ele>528.4</ele>
        <time>2018-09-29T08:07:49Z</time>
      </trkpt>
      <trkpt lat="42.0909960" lon="-8.6858220">
        <ele>527.4</ele>
        <time>2018-09-29T08:07:54Z</time>
      </trkpt>
      <trkpt lat="42.0911760" lon="-8.6861170">
        <ele>527.6</ele>
        <time>2018-09-29T08:07:58Z</time>
      </trkpt>
      <trkpt lat="42.0912370" lon="-8.6861790">
        <ele>526.2</ele>
        <time>2018-09-29T08:07:59Z</time>
      </trkpt>
      <trkpt lat="42.0913850" lon="-8.6862820">
        <ele>525.8</ele>
        <time>2018-09-29T08:08:01Z</time>
      </trkpt>
      <trkpt lat="42.0915510" lon="-8.6863830">
        <ele>525.4</ele>
        <time>2018-09-29T08:08:03Z</time>
      </trkpt>
      <trkpt lat="42.0917330" lon="-8.6864780">
        <ele>525.2</ele>
        <time>2018-09-29T08:08:05Z</time>
      </trkpt>
      <trkpt lat="42.0918240" lon="-8.6865370">
        <ele>524.8</ele>
        <time>2018-09-29T08:08:06Z</time>
      </trkpt>
      <trkpt lat="42.0920700" lon="-8.6868010">
        <ele>524.0</ele>
        <time>2018-09-29T08:08:09Z</time>
      </trkpt>
      <trkpt lat="42.0921520" lon="-8.6868930">
        <ele>523.4</ele>
        <time>2018-09-29T08:08:10Z</time>
      </trkpt>
      <trkpt lat="42.0922440" lon="-8.6869690">
        <ele>522.8</ele>
        <time>2018-09-29T08:08:11Z</time>
      </trkpt>
      <trkpt lat="42.0924300" lon="-8.6871480">
        <ele>521.4</ele>
        <time>2018-09-29T08:08:13Z</time>
      </trkpt>
      <trkpt lat="42.0925970" lon="-8.6874010">
        <ele>519.6</ele>
        <time>2018-09-29T08:08:15Z</time>
      </trkpt>
      <trkpt lat="42.0926990" lon="-8.6875030">
        <ele>518.6</ele>
        <time>2018-09-29T08:08:16Z</time>
      </trkpt>
      <trkpt lat="42.0928070" lon="-8.6875860">
        <ele>517.4</ele>
        <time>2018-09-29T08:08:17Z</time>
      </trkpt>
      <trkpt lat="42.0929160" lon="-8.6876600">
        <ele>516.6</ele>
        <time>2018-09-29T08:08:18Z</time>
      </trkpt>
      <trkpt lat="42.0930200" lon="-8.6877360">
        <ele>515.6</ele>
        <time>2018-09-29T08:08:19Z</time>
      </trkpt>
      <trkpt lat="42.0931160" lon="-8.6878230">
        <ele>514.6</ele>
        <time>2018-09-29T08:08:20Z</time>
      </trkpt>
      <trkpt lat="42.0932050" lon="-8.6879180">
        <ele>513.6</ele>
        <time>2018-09-29T08:08:21Z</time>
      </trkpt>
      <trkpt lat="42.0932930" lon="-8.6880130">
        <ele>512.6</ele>
        <time>2018-09-29T08:08:22Z</time>
      </trkpt>
      <trkpt lat="42.0933780" lon="-8.6881080">
        <ele>511.4</ele>
        <time>2018-09-29T08:08:23Z</time>
      </trkpt>
      <trkpt lat="42.0934620" lon="-8.6881980">
        <ele>510.0</ele>
        <time>2018-09-29T08:08:24Z</time>
      </trkpt>
      <trkpt lat="42.0936350" lon="-8.6883690">
        <ele>508.4</ele>
        <time>2018-09-29T08:08:26Z</time>
      </trkpt>
      <trkpt lat="42.0937280" lon="-8.6884390">
        <ele>508.0</ele>
        <time>2018-09-29T08:08:27Z</time>
      </trkpt>
      <trkpt lat="42.0939180" lon="-8.6885220">
        <ele>507.2</ele>
        <time>2018-09-29T08:08:29Z</time>
      </trkpt>
      <trkpt lat="42.0941910" lon="-8.6884470">
        <ele>506.2</ele>
        <time>2018-09-29T08:08:32Z</time>
      </trkpt>
      <trkpt lat="42.0942780" lon="-8.6883790">
        <ele>505.6</ele>
        <time>2018-09-29T08:08:33Z</time>
      </trkpt>
      <trkpt lat="42.0943690" lon="-8.6883090">
        <ele>504.8</ele>
        <time>2018-09-29T08:08:34Z</time>
      </trkpt>
      <trkpt lat="42.0944670" lon="-8.6882480">
        <ele>504.0</ele>
        <time>2018-09-29T08:08:35Z</time>
      </trkpt>
      <trkpt lat="42.0945700" lon="-8.6882030">
        <ele>503.6</ele>
        <time>2018-09-29T08:08:36Z</time>
      </trkpt>
      <trkpt lat="42.0947820" lon="-8.6881460">
        <ele>502.2</ele>
        <time>2018-09-29T08:08:38Z</time>
      </trkpt>
      <trkpt lat="42.0949640" lon="-8.6880740">
        <ele>500.8</ele>
        <time>2018-09-29T08:08:40Z</time>
      </trkpt>
      <trkpt lat="42.0951260" lon="-8.6880300">
        <ele>499.2</ele>
        <time>2018-09-29T08:08:42Z</time>
      </trkpt>
      <trkpt lat="42.0952720" lon="-8.6880870">
        <ele>497.6</ele>
        <time>2018-09-29T08:08:44Z</time>
      </trkpt>
      <trkpt lat="42.0953650" lon="-8.6882530">
        <ele>495.6</ele>
        <time>2018-09-29T08:08:46Z</time>
      </trkpt>
      <trkpt lat="42.0954170" lon="-8.6884540">
        <ele>494.2</ele>
        <time>2018-09-29T08:08:48Z</time>
      </trkpt>
      <trkpt lat="42.0954680" lon="-8.6886580">
        <ele>492.4</ele>
        <time>2018-09-29T08:08:50Z</time>
      </trkpt>
      <trkpt lat="42.0955910" lon="-8.6890620">
        <ele>491.8</ele>
        <time>2018-09-29T08:08:56Z</time>
      </trkpt>
      <trkpt lat="42.0955420" lon="-8.6889950">
        <ele>491.6</ele>
        <time>2018-09-29T08:09:00Z</time>
      </trkpt>
      <trkpt lat="42.0955290" lon="-8.6889510">
        <ele>491.6</ele>
        <time>2018-09-29T08:09:01Z</time>
      </trkpt>
      <trkpt lat="42.0954990" lon="-8.6888500">
        <ele>491.6</ele>
        <time>2018-09-29T08:09:03Z</time>
      </trkpt>
      <trkpt lat="42.0954160" lon="-8.6885970">
        <ele>491.6</ele>
        <time>2018-09-29T08:09:07Z</time>
      </trkpt>
      <trkpt lat="42.0953480" lon="-8.6883200">
        <ele>491.4</ele>
        <time>2018-09-29T08:09:11Z</time>
      </trkpt>
      <trkpt lat="42.0952960" lon="-8.6880700">
        <ele>491.2</ele>
        <time>2018-09-29T08:09:15Z</time>
      </trkpt>
      <trkpt lat="42.0953210" lon="-8.6878520">
        <ele>491.0</ele>
        <time>2018-09-29T08:09:19Z</time>
      </trkpt>
      <trkpt lat="42.0954250" lon="-8.6875770">
        <ele>490.8</ele>
        <time>2018-09-29T08:09:26Z</time>
      </trkpt>
      <trkpt lat="42.0956030" lon="-8.6875560">
        <ele>490.6</ele>
        <time>2018-09-29T08:09:30Z</time>
      </trkpt>
      <trkpt lat="42.0958670" lon="-8.6874940">
        <ele>489.6</ele>
        <time>2018-09-29T08:09:35Z</time>
      </trkpt>
      <trkpt lat="42.0959240" lon="-8.6874830">
        <ele>489.2</ele>
        <time>2018-09-29T08:09:36Z</time>
      </trkpt>
      <trkpt lat="42.0960400" lon="-8.6874700">
        <ele>488.4</ele>
        <time>2018-09-29T08:09:38Z</time>
      </trkpt>
      <trkpt lat="42.0962830" lon="-8.6875340">
        <ele>486.8</ele>
        <time>2018-09-29T08:09:42Z</time>
      </trkpt>
      <trkpt lat="42.0963810" lon="-8.6876630">
        <ele>486.2</ele>
        <time>2018-09-29T08:09:44Z</time>
      </trkpt>
      <trkpt lat="42.0964240" lon="-8.6877330">
        <ele>485.8</ele>
        <time>2018-09-29T08:09:45Z</time>
      </trkpt>
      <trkpt lat="42.0965240" lon="-8.6878440">
        <ele>484.6</ele>
        <time>2018-09-29T08:09:47Z</time>
      </trkpt>
      <trkpt lat="42.0967180" lon="-8.6878310">
        <ele>483.2</ele>
        <time>2018-09-29T08:09:50Z</time>
      </trkpt>
      <trkpt lat="42.0968990" lon="-8.6877020">
        <ele>482.2</ele>
        <time>2018-09-29T08:09:53Z</time>
      </trkpt>
      <trkpt lat="42.0970890" lon="-8.6876030">
        <ele>480.8</ele>
        <time>2018-09-29T08:09:56Z</time>
      </trkpt>
      <trkpt lat="42.0972350" lon="-8.6876020">
        <ele>480.2</ele>
        <time>2018-09-29T08:09:58Z</time>
      </trkpt>
      <trkpt lat="42.0973750" lon="-8.6876100">
        <ele>479.4</ele>
        <time>2018-09-29T08:10:00Z</time>
      </trkpt>
      <trkpt lat="42.0975100" lon="-8.6875490">
        <ele>478.4</ele>
        <time>2018-09-29T08:10:02Z</time>
      </trkpt>
      <trkpt lat="42.0976190" lon="-8.6874550">
        <ele>476.8</ele>
        <time>2018-09-29T08:10:04Z</time>
      </trkpt>
      <trkpt lat="42.0976730" lon="-8.6874100">
        <ele>476.0</ele>
        <time>2018-09-29T08:10:05Z</time>
      </trkpt>
      <trkpt lat="42.0977230" lon="-8.6873620">
        <ele>474.4</ele>
        <time>2018-09-29T08:10:06Z</time>
      </trkpt>
      <trkpt lat="42.0977760" lon="-8.6873070">
        <ele>473.6</ele>
        <time>2018-09-29T08:10:07Z</time>
      </trkpt>
      <trkpt lat="42.0978300" lon="-8.6872490">
        <ele>473.0</ele>
        <time>2018-09-29T08:10:08Z</time>
      </trkpt>
      <trkpt lat="42.0979290" lon="-8.6871120">
        <ele>471.8</ele>
        <time>2018-09-29T08:10:10Z</time>
      </trkpt>
      <trkpt lat="42.0980050" lon="-8.6869660">
        <ele>470.4</ele>
        <time>2018-09-29T08:10:12Z</time>
      </trkpt>
      <trkpt lat="42.0980940" lon="-8.6867480">
        <ele>468.6</ele>
        <time>2018-09-29T08:10:15Z</time>
      </trkpt>
      <trkpt lat="42.0981420" lon="-8.6866110">
        <ele>466.6</ele>
        <time>2018-09-29T08:10:17Z</time>
      </trkpt>
      <trkpt lat="42.0981920" lon="-8.6864760">
        <ele>464.8</ele>
        <time>2018-09-29T08:10:19Z</time>
      </trkpt>
      <trkpt lat="42.0982360" lon="-8.6864180">
        <ele>463.8</ele>
        <time>2018-09-29T08:10:20Z</time>
      </trkpt>
      <trkpt lat="42.0982910" lon="-8.6863700">
        <ele>462.4</ele>
        <time>2018-09-29T08:10:21Z</time>
      </trkpt>
      <trkpt lat="42.0983540" lon="-8.6863270">
        <ele>461.4</ele>
        <time>2018-09-29T08:10:22Z</time>
      </trkpt>
      <trkpt lat="42.0984980" lon="-8.6862660">
        <ele>459.8</ele>
        <time>2018-09-29T08:10:24Z</time>
      </trkpt>
      <trkpt lat="42.0985740" lon="-8.6862440">
        <ele>459.0</ele>
        <time>2018-09-29T08:10:25Z</time>
      </trkpt>
      <trkpt lat="42.0986490" lon="-8.6862220">
        <ele>458.4</ele>
        <time>2018-09-29T08:10:26Z</time>
      </trkpt>
      <trkpt lat="42.0987210" lon="-8.6861890">
        <ele>457.4</ele>
        <time>2018-09-29T08:10:27Z</time>
      </trkpt>
      <trkpt lat="42.0987890" lon="-8.6861470">
        <ele>456.8</ele>
        <time>2018-09-29T08:10:28Z</time>
      </trkpt>
      <trkpt lat="42.0989220" lon="-8.6860680">
        <ele>455.6</ele>
        <time>2018-09-29T08:10:30Z</time>
      </trkpt>
      <trkpt lat="42.0989900" lon="-8.6860350">
        <ele>454.6</ele>
        <time>2018-09-29T08:10:31Z</time>
      </trkpt>
      <trkpt lat="42.0991290" lon="-8.6859720">
        <ele>453.4</ele>
        <time>2018-09-29T08:10:33Z</time>
      </trkpt>
      <trkpt lat="42.0992010" lon="-8.6859460">
        <ele>452.6</ele>
        <time>2018-09-29T08:10:34Z</time>
      </trkpt>
      <trkpt lat="42.0992730" lon="-8.6859300">
        <ele>451.8</ele>
        <time>2018-09-29T08:10:35Z</time>
      </trkpt>
      <trkpt lat="42.0994120" lon="-8.6859280">
        <ele>450.8</ele>
        <time>2018-09-29T08:10:37Z</time>
      </trkpt>
      <trkpt lat="42.0995940" lon="-8.6860160">
        <ele>448.8</ele>
        <time>2018-09-29T08:10:40Z</time>
      </trkpt>
      <trkpt lat="42.0997440" lon="-8.6860920">
        <ele>447.4</ele>
        <time>2018-09-29T08:10:43Z</time>
      </trkpt>
      <trkpt lat="42.0998600" lon="-8.6861070">
        <ele>446.4</ele>
        <time>2018-09-29T08:10:45Z</time>
      </trkpt>
      <trkpt lat="42.0999720" lon="-8.6860840">
        <ele>445.2</ele>
        <time>2018-09-29T08:10:47Z</time>
      </trkpt>
      <trkpt lat="42.1000760" lon="-8.6860230">
        <ele>444.0</ele>
        <time>2018-09-29T08:10:49Z</time>
      </trkpt>
      <trkpt lat="42.1001380" lon="-8.6858950">
        <ele>442.6</ele>
        <time>2018-09-29T08:10:51Z</time>
      </trkpt>
      <trkpt lat="42.1001470" lon="-8.6857330">
        <ele>441.0</ele>
        <time>2018-09-29T08:10:53Z</time>
      </trkpt>
      <trkpt lat="42.1001520" lon="-8.6856540">
        <ele>440.2</ele>
        <time>2018-09-29T08:10:54Z</time>
      </trkpt>
      <trkpt lat="42.1001630" lon="-8.6855830">
        <ele>439.4</ele>
        <time>2018-09-29T08:10:55Z</time>
      </trkpt>
      <trkpt lat="42.1001660" lon="-8.6855200">
        <ele>438.6</ele>
        <time>2018-09-29T08:10:56Z</time>
      </trkpt>
      <trkpt lat="42.1001660" lon="-8.6854550">
        <ele>437.8</ele>
        <time>2018-09-29T08:10:57Z</time>
      </trkpt>
      <trkpt lat="42.1001700" lon="-8.6853840">
        <ele>437.0</ele>
        <time>2018-09-29T08:10:58Z</time>
      </trkpt>
      <trkpt lat="42.1001820" lon="-8.6853100">
        <ele>436.0</ele>
        <time>2018-09-29T08:10:59Z</time>
      </trkpt>
      <trkpt lat="42.1002410" lon="-8.6851740">
        <ele>434.4</ele>
        <time>2018-09-29T08:11:01Z</time>
      </trkpt>
      <trkpt lat="42.1003460" lon="-8.6850660">
        <ele>432.4</ele>
        <time>2018-09-29T08:11:03Z</time>
      </trkpt>
      <trkpt lat="42.1004640" lon="-8.6850670">
        <ele>430.8</ele>
        <time>2018-09-29T08:11:05Z</time>
      </trkpt>
      <trkpt lat="42.1005590" lon="-8.6851760">
        <ele>429.6</ele>
        <time>2018-09-29T08:11:07Z</time>
      </trkpt>
      <trkpt lat="42.1006290" lon="-8.6853310">
        <ele>427.6</ele>
        <time>2018-09-29T08:11:09Z</time>
      </trkpt>
      <trkpt lat="42.1006860" lon="-8.6854980">
        <ele>425.8</ele>
        <time>2018-09-29T08:11:11Z</time>
      </trkpt>
      <trkpt lat="42.1007150" lon="-8.6855720">
        <ele>425.0</ele>
        <time>2018-09-29T08:11:12Z</time>
      </trkpt>
      <trkpt lat="42.1007530" lon="-8.6856360">
        <ele>424.2</ele>
        <time>2018-09-29T08:11:13Z</time>
      </trkpt>
      <trkpt lat="42.1009250" lon="-8.6857110">
        <ele>422.8</ele>
        <time>2018-09-29T08:11:16Z</time>
      </trkpt>
      <trkpt lat="42.1010950" lon="-8.6857300">
        <ele>421.4</ele>
        <time>2018-09-29T08:11:19Z</time>
      </trkpt>
      <trkpt lat="42.1011550" lon="-8.6857490">
        <ele>421.0</ele>
        <time>2018-09-29T08:11:20Z</time>
      </trkpt>
      <trkpt lat="42.1012750" lon="-8.6857780">
        <ele>420.8</ele>
        <time>2018-09-29T08:11:22Z</time>
      </trkpt>
      <trkpt lat="42.1013310" lon="-8.6857730">
        <ele>420.4</ele>
        <time>2018-09-29T08:11:23Z</time>
      </trkpt>
      <trkpt lat="42.1014310" lon="-8.6857320">
        <ele>419.6</ele>
        <time>2018-09-29T08:11:25Z</time>
      </trkpt>
      <trkpt lat="42.1014760" lon="-8.6857010">
        <ele>419.4</ele>
        <time>2018-09-29T08:11:26Z</time>
      </trkpt>
      <trkpt lat="42.1015220" lon="-8.6856730">
        <ele>419.0</ele>
        <time>2018-09-29T08:11:27Z</time>
      </trkpt>
      <trkpt lat="42.1017230" lon="-8.6855450">
        <ele>418.2</ele>
        <time>2018-09-29T08:11:31Z</time>
      </trkpt>
      <trkpt lat="42.1018320" lon="-8.6854690">
        <ele>417.6</ele>
        <time>2018-09-29T08:11:33Z</time>
      </trkpt>
      <trkpt lat="42.1019870" lon="-8.6853470">
        <ele>417.2</ele>
        <time>2018-09-29T08:11:36Z</time>
      </trkpt>
      <trkpt lat="42.1022270" lon="-8.6850820">
        <ele>416.4</ele>
        <time>2018-09-29T08:11:43Z</time>
      </trkpt>
      <trkpt lat="42.1023920" lon="-8.6852140">
        <ele>416.2</ele>
        <time>2018-09-29T08:11:50Z</time>
      </trkpt>
      <trkpt lat="42.1024900" lon="-8.6852820">
        <ele>416.4</ele>
        <time>2018-09-29T08:11:54Z</time>
      </trkpt>
      <trkpt lat="42.1026480" lon="-8.6853330">
        <ele>417.6</ele>
        <time>2018-09-29T08:12:00Z</time>
      </trkpt>
      <trkpt lat="42.1027540" lon="-8.6853070">
        <ele>418.4</ele>
        <time>2018-09-29T08:12:04Z</time>
      </trkpt>
      <trkpt lat="42.1028710" lon="-8.6853130">
        <ele>419.2</ele>
        <time>2018-09-29T08:12:08Z</time>
      </trkpt>
      <trkpt lat="42.1028960" lon="-8.6853030">
        <ele>419.4</ele>
        <time>2018-09-29T08:12:09Z</time>
      </trkpt>
      <trkpt lat="42.1029710" lon="-8.6852600">
        <ele>420.2</ele>
        <time>2018-09-29T08:12:12Z</time>
      </trkpt>
      <trkpt lat="42.1029980" lon="-8.6852460">
        <ele>420.6</ele>
        <time>2018-09-29T08:12:13Z</time>
      </trkpt>
      <trkpt lat="42.1030770" lon="-8.6852030">
        <ele>421.4</ele>
        <time>2018-09-29T08:12:16Z</time>
      </trkpt>
      <trkpt lat="42.1031080" lon="-8.6851940">
        <ele>421.6</ele>
        <time>2018-09-29T08:12:17Z</time>
      </trkpt>
      <trkpt lat="42.1032800" lon="-8.6852160">
        <ele>422.6</ele>
        <time>2018-09-29T08:12:22Z</time>
      </trkpt>
      <trkpt lat="42.1033140" lon="-8.6852320">
        <ele>422.6</ele>
        <time>2018-09-29T08:12:23Z</time>
      </trkpt>
      <trkpt lat="42.1035330" lon="-8.6854400">
        <ele>423.6</ele>
        <time>2018-09-29T08:12:30Z</time>
      </trkpt>
      <trkpt lat="42.1037010" lon="-8.6858320">
        <ele>424.6</ele>
        <time>2018-09-29T08:12:39Z</time>
      </trkpt>
      <trkpt lat="42.1039450" lon="-8.6859320">
        <ele>425.6</ele>
        <time>2018-09-29T08:12:46Z</time>
      </trkpt>
      <trkpt lat="42.1040680" lon="-8.6858070">
        <ele>426.0</ele>
        <time>2018-09-29T08:12:50Z</time>
      </trkpt>
      <trkpt lat="42.1042250" lon="-8.6856040">
        <ele>426.6</ele>
        <time>2018-09-29T08:12:56Z</time>
      </trkpt>
      <trkpt lat="42.1044180" lon="-8.6856030">
        <ele>427.6</ele>
        <time>2018-09-29T08:13:01Z</time>
      </trkpt>
      <trkpt lat="42.1045810" lon="-8.6856470">
        <ele>427.8</ele>
        <time>2018-09-29T08:13:06Z</time>
      </trkpt>
      <trkpt lat="42.1047780" lon="-8.6856700">
        <ele>428.0</ele>
        <time>2018-09-29T08:13:11Z</time>
      </trkpt>
      <trkpt lat="42.1050530" lon="-8.6857160">
        <ele>428.0</ele>
        <time>2018-09-29T08:13:16Z</time>
      </trkpt>
      <trkpt lat="42.1051120" lon="-8.6857380">
        <ele>427.8</ele>
        <time>2018-09-29T08:13:17Z</time>
      </trkpt>
      <trkpt lat="42.1052320" lon="-8.6858050">
        <ele>427.6</ele>
        <time>2018-09-29T08:13:19Z</time>
      </trkpt>
      <trkpt lat="42.1053540" lon="-8.6859040">
        <ele>427.0</ele>
        <time>2018-09-29T08:13:21Z</time>
      </trkpt>
      <trkpt lat="42.1054710" lon="-8.6860220">
        <ele>426.6</ele>
        <time>2018-09-29T08:13:23Z</time>
      </trkpt>
      <trkpt lat="42.1055880" lon="-8.6861260">
        <ele>426.0</ele>
        <time>2018-09-29T08:13:25Z</time>
      </trkpt>
      <trkpt lat="42.1057240" lon="-8.6861620">
        <ele>425.2</ele>
        <time>2018-09-29T08:13:27Z</time>
      </trkpt>
      <trkpt lat="42.1058440" lon="-8.6860980">
        <ele>423.6</ele>
        <time>2018-09-29T08:13:29Z</time>
      </trkpt>
      <trkpt lat="42.1059510" lon="-8.6860310">
        <ele>422.4</ele>
        <time>2018-09-29T08:13:31Z</time>
      </trkpt>
      <trkpt lat="42.1060980" lon="-8.6861010">
        <ele>421.2</ele>
        <time>2018-09-29T08:13:34Z</time>
      </trkpt>
      <trkpt lat="42.1062010" lon="-8.6862240">
        <ele>420.4</ele>
        <time>2018-09-29T08:13:36Z</time>
      </trkpt>
      <trkpt lat="42.1062540" lon="-8.6862760">
        <ele>420.0</ele>
        <time>2018-09-29T08:13:37Z</time>
      </trkpt>
      <trkpt lat="42.1063990" lon="-8.6864460">
        <ele>418.8</ele>
        <time>2018-09-29T08:13:40Z</time>
      </trkpt>
      <trkpt lat="42.1064800" lon="-8.6864830">
        <ele>417.8</ele>
        <time>2018-09-29T08:13:42Z</time>
      </trkpt>
      <trkpt lat="42.1065380" lon="-8.6864150">
        <ele>416.2</ele>
        <time>2018-09-29T08:13:44Z</time>
      </trkpt>
      <trkpt lat="42.1065580" lon="-8.6863080">
        <ele>415.4</ele>
        <time>2018-09-29T08:13:46Z</time>
      </trkpt>
      <trkpt lat="42.1065560" lon="-8.6862500">
        <ele>415.0</ele>
        <time>2018-09-29T08:13:47Z</time>
      </trkpt>
      <trkpt lat="42.1065570" lon="-8.6861840">
        <ele>414.6</ele>
        <time>2018-09-29T08:13:48Z</time>
      </trkpt>
      <trkpt lat="42.1065570" lon="-8.6861120">
        <ele>413.8</ele>
        <time>2018-09-29T08:13:49Z</time>
      </trkpt>
      <trkpt lat="42.1065610" lon="-8.6860410">
        <ele>413.4</ele>
        <time>2018-09-29T08:13:50Z</time>
      </trkpt>
      <trkpt lat="42.1065880" lon="-8.6859100">
        <ele>413.0</ele>
        <time>2018-09-29T08:13:52Z</time>
      </trkpt>
      <trkpt lat="42.1066250" lon="-8.6857900">
        <ele>412.8</ele>
        <time>2018-09-29T08:13:54Z</time>
      </trkpt>
      <trkpt lat="42.1067060" lon="-8.6856420">
        <ele>412.8</ele>
        <time>2018-09-29T08:13:57Z</time>
      </trkpt>
      <trkpt lat="42.1067670" lon="-8.6855580">
        <ele>412.8</ele>
        <time>2018-09-29T08:13:59Z</time>
      </trkpt>
      <trkpt lat="42.1068590" lon="-8.6854390">
        <ele>412.8</ele>
        <time>2018-09-29T08:14:02Z</time>
      </trkpt>
      <trkpt lat="42.1069890" lon="-8.6853070">
        <ele>413.4</ele>
        <time>2018-09-29T08:14:06Z</time>
      </trkpt>
      <trkpt lat="42.1071020" lon="-8.6852450">
        <ele>413.4</ele>
        <time>2018-09-29T08:14:09Z</time>
      </trkpt>
      <trkpt lat="42.1072190" lon="-8.6852200">
        <ele>413.8</ele>
        <time>2018-09-29T08:14:12Z</time>
      </trkpt>
      <trkpt lat="42.1073520" lon="-8.6852390">
        <ele>414.4</ele>
        <time>2018-09-29T08:14:16Z</time>
      </trkpt>
      <trkpt lat="42.1074520" lon="-8.6852710">
        <ele>415.0</ele>
        <time>2018-09-29T08:14:19Z</time>
      </trkpt>
      <trkpt lat="42.1076340" lon="-8.6853040">
        <ele>416.2</ele>
        <time>2018-09-29T08:14:24Z</time>
      </trkpt>
      <trkpt lat="42.1078080" lon="-8.6853720">
        <ele>417.0</ele>
        <time>2018-09-29T08:14:29Z</time>
      </trkpt>
      <trkpt lat="42.1078440" lon="-8.6853790">
        <ele>417.4</ele>
        <time>2018-09-29T08:14:30Z</time>
      </trkpt>
      <trkpt lat="42.1080050" lon="-8.6854170">
        <ele>418.4</ele>
        <time>2018-09-29T08:14:35Z</time>
      </trkpt>
      <trkpt lat="42.1081290" lon="-8.6854420">
        <ele>419.6</ele>
        <time>2018-09-29T08:14:39Z</time>
      </trkpt>
      <trkpt lat="42.1083050" lon="-8.6854560">
        <ele>420.6</ele>
        <time>2018-09-29T08:14:44Z</time>
      </trkpt>
      <trkpt lat="42.1084400" lon="-8.6856650">
        <ele>421.6</ele>
        <time>2018-09-29T08:14:51Z</time>
      </trkpt>
      <trkpt lat="42.1083760" lon="-8.6858070">
        <ele>422.8</ele>
        <time>2018-09-29T08:14:55Z</time>
      </trkpt>
      <trkpt lat="42.1083420" lon="-8.6860000">
        <ele>424.0</ele>
        <time>2018-09-29T08:14:59Z</time>
      </trkpt>
      <trkpt lat="42.1083740" lon="-8.6860790">
        <ele>424.2</ele>
        <time>2018-09-29T08:15:01Z</time>
      </trkpt>
      <trkpt lat="42.1086320" lon="-8.6860240">
        <ele>424.4</ele>
        <time>2018-09-29T08:15:08Z</time>
      </trkpt>
      <trkpt lat="42.1087130" lon="-8.6859840">
        <ele>424.2</ele>
        <time>2018-09-29T08:15:10Z</time>
      </trkpt>
      <trkpt lat="42.1088590" lon="-8.6859790">
        <ele>424.2</ele>
        <time>2018-09-29T08:15:13Z</time>
      </trkpt>
      <trkpt lat="42.1090300" lon="-8.6860420">
        <ele>424.0</ele>
        <time>2018-09-29T08:15:16Z</time>
      </trkpt>
      <trkpt lat="42.1092620" lon="-8.6861650">
        <ele>423.6</ele>
        <time>2018-09-29T08:15:20Z</time>
      </trkpt>
      <trkpt lat="42.1093700" lon="-8.6862470">
        <ele>423.2</ele>
        <time>2018-09-29T08:15:22Z</time>
      </trkpt>
      <trkpt lat="42.1094600" lon="-8.6863250">
        <ele>422.8</ele>
        <time>2018-09-29T08:15:24Z</time>
      </trkpt>
      <trkpt lat="42.1095080" lon="-8.6863640">
        <ele>422.8</ele>
        <time>2018-09-29T08:15:25Z</time>
      </trkpt>
      <trkpt lat="42.1096030" lon="-8.6864400">
        <ele>422.6</ele>
        <time>2018-09-29T08:15:27Z</time>
      </trkpt>
      <trkpt lat="42.1097550" lon="-8.6865510">
        <ele>422.2</ele>
        <time>2018-09-29T08:15:30Z</time>
      </trkpt>
      <trkpt lat="42.1101400" lon="-8.6863580">
        <ele>421.4</ele>
        <time>2018-09-29T08:15:37Z</time>
      </trkpt>
      <trkpt lat="42.1102370" lon="-8.6860380">
        <ele>421.2</ele>
        <time>2018-09-29T08:15:41Z</time>
      </trkpt>
      <trkpt lat="42.1102520" lon="-8.6859720">
        <ele>421.2</ele>
        <time>2018-09-29T08:15:42Z</time>
      </trkpt>
      <trkpt lat="42.1103050" lon="-8.6858830">
        <ele>420.4</ele>
        <time>2018-09-29T08:15:44Z</time>
      </trkpt>
      <trkpt lat="42.1104030" lon="-8.6858930">
        <ele>419.0</ele>
        <time>2018-09-29T08:15:47Z</time>
      </trkpt>
      <trkpt lat="42.1104370" lon="-8.6859060">
        <ele>418.6</ele>
        <time>2018-09-29T08:15:48Z</time>
      </trkpt>
      <trkpt lat="42.1104750" lon="-8.6859250">
        <ele>418.4</ele>
        <time>2018-09-29T08:15:49Z</time>
      </trkpt>
      <trkpt lat="42.1105470" lon="-8.6860050">
        <ele>417.2</ele>
        <time>2018-09-29T08:15:51Z</time>
      </trkpt>
      <trkpt lat="42.1106020" lon="-8.6861150">
        <ele>416.0</ele>
        <time>2018-09-29T08:15:53Z</time>
      </trkpt>
      <trkpt lat="42.1106380" lon="-8.6862250">
        <ele>415.2</ele>
        <time>2018-09-29T08:15:55Z</time>
      </trkpt>
      <trkpt lat="42.1106520" lon="-8.6862750">
        <ele>414.8</ele>
        <time>2018-09-29T08:15:56Z</time>
      </trkpt>
      <trkpt lat="42.1107210" lon="-8.6865910">
        <ele>414.6</ele>
        <time>2018-09-29T08:16:04Z</time>
      </trkpt>
      <trkpt lat="42.1107740" lon="-8.6867020">
        <ele>414.6</ele>
        <time>2018-09-29T08:16:07Z</time>
      </trkpt>
      <trkpt lat="42.1108460" lon="-8.6868130">
        <ele>415.2</ele>
        <time>2018-09-29T08:16:10Z</time>
      </trkpt>
      <trkpt lat="42.1109250" lon="-8.6869150">
        <ele>416.0</ele>
        <time>2018-09-29T08:16:13Z</time>
      </trkpt>
      <trkpt lat="42.1110350" lon="-8.6870500">
        <ele>417.4</ele>
        <time>2018-09-29T08:16:17Z</time>
      </trkpt>
      <trkpt lat="42.1111830" lon="-8.6871710">
        <ele>418.4</ele>
        <time>2018-09-29T08:16:24Z</time>
      </trkpt>
      <trkpt lat="42.1111890" lon="-8.6871750">
        <ele>418.8</ele>
        <time>2018-09-29T08:16:26Z</time>
      </trkpt>
      <trkpt lat="42.1112420" lon="-8.6872280">
        <ele>420.4</ele>
        <time>2018-09-29T08:18:37Z</time>
      </trkpt>
      <trkpt lat="42.1112630" lon="-8.6872430">
        <ele>420.4</ele>
        <time>2018-09-29T08:18:38Z</time>
      </trkpt>
      <trkpt lat="42.1113070" lon="-8.6872820">
        <ele>420.4</ele>
        <time>2018-09-29T08:18:40Z</time>
      </trkpt>
      <trkpt lat="42.1113730" lon="-8.6874030">
        <ele>421.0</ele>
        <time>2018-09-29T08:18:44Z</time>
      </trkpt>
      <trkpt lat="42.1114250" lon="-8.6875390">
        <ele>421.2</ele>
        <time>2018-09-29T08:18:48Z</time>
      </trkpt>
      <trkpt lat="42.1114320" lon="-8.6875770">
        <ele>421.4</ele>
        <time>2018-09-29T08:18:49Z</time>
      </trkpt>
      <trkpt lat="42.1114360" lon="-8.6877260">
        <ele>422.2</ele>
        <time>2018-09-29T08:18:53Z</time>
      </trkpt>
      <trkpt lat="42.1114230" lon="-8.6877680">
        <ele>422.4</ele>
        <time>2018-09-29T08:18:54Z</time>
      </trkpt>
      <trkpt lat="42.1114060" lon="-8.6878040">
        <ele>422.6</ele>
        <time>2018-09-29T08:18:55Z</time>
      </trkpt>
      <trkpt lat="42.1113570" lon="-8.6879250">
        <ele>423.4</ele>
        <time>2018-09-29T08:18:58Z</time>
      </trkpt>
      <trkpt lat="42.1113380" lon="-8.6880250">
        <ele>423.8</ele>
        <time>2018-09-29T08:19:00Z</time>
      </trkpt>
      <trkpt lat="42.1113280" lon="-8.6881710">
        <ele>424.6</ele>
        <time>2018-09-29T08:19:03Z</time>
      </trkpt>
      <trkpt lat="42.1113320" lon="-8.6882190">
        <ele>424.8</ele>
        <time>2018-09-29T08:19:04Z</time>
      </trkpt>
      <trkpt lat="42.1113700" lon="-8.6883450">
        <ele>425.2</ele>
        <time>2018-09-29T08:19:07Z</time>
      </trkpt>
      <trkpt lat="42.1114720" lon="-8.6884730">
        <ele>426.0</ele>
        <time>2018-09-29T08:19:11Z</time>
      </trkpt>
      <trkpt lat="42.1115750" lon="-8.6885200">
        <ele>427.2</ele>
        <time>2018-09-29T08:19:14Z</time>
      </trkpt>
      <trkpt lat="42.1117540" lon="-8.6885670">
        <ele>428.2</ele>
        <time>2018-09-29T08:19:19Z</time>
      </trkpt>
      <trkpt lat="42.1119070" lon="-8.6887630">
        <ele>429.4</ele>
        <time>2018-09-29T08:19:25Z</time>
      </trkpt>
      <trkpt lat="42.1119610" lon="-8.6889490">
        <ele>430.6</ele>
        <time>2018-09-29T08:19:29Z</time>
      </trkpt>
      <trkpt lat="42.1120000" lon="-8.6891320">
        <ele>431.6</ele>
        <time>2018-09-29T08:19:33Z</time>
      </trkpt>
      <trkpt lat="42.1120890" lon="-8.6893530">
        <ele>432.6</ele>
        <time>2018-09-29T08:19:39Z</time>
      </trkpt>
      <trkpt lat="42.1121670" lon="-8.6894790">
        <ele>433.8</ele>
        <time>2018-09-29T08:19:43Z</time>
      </trkpt>
      <trkpt lat="42.1122720" lon="-8.6895610">
        <ele>435.0</ele>
        <time>2018-09-29T08:19:47Z</time>
      </trkpt>
      <trkpt lat="42.1124190" lon="-8.6895730">
        <ele>436.0</ele>
        <time>2018-09-29T08:19:52Z</time>
      </trkpt>
      <trkpt lat="42.1125440" lon="-8.6895610">
        <ele>437.2</ele>
        <time>2018-09-29T08:19:56Z</time>
      </trkpt>
      <trkpt lat="42.1126520" lon="-8.6895560">
        <ele>438.2</ele>
        <time>2018-09-29T08:19:59Z</time>
      </trkpt>
      <trkpt lat="42.1128070" lon="-8.6896080">
        <ele>439.4</ele>
        <time>2018-09-29T08:20:04Z</time>
      </trkpt>
      <trkpt lat="42.1129370" lon="-8.6897360">
        <ele>440.6</ele>
        <time>2018-09-29T08:20:09Z</time>
      </trkpt>
      <trkpt lat="42.1130240" lon="-8.6899100">
        <ele>441.6</ele>
        <time>2018-09-29T08:20:14Z</time>
      </trkpt>
      <trkpt lat="42.1130920" lon="-8.6900470">
        <ele>442.8</ele>
        <time>2018-09-29T08:20:18Z</time>
      </trkpt>
      <trkpt lat="42.1131590" lon="-8.6901860">
        <ele>444.0</ele>
        <time>2018-09-29T08:20:22Z</time>
      </trkpt>
      <trkpt lat="42.1132380" lon="-8.6903650">
        <ele>445.2</ele>
        <time>2018-09-29T08:20:27Z</time>
      </trkpt>
      <trkpt lat="42.1133040" lon="-8.6905080">
        <ele>446.2</ele>
        <time>2018-09-29T08:20:31Z</time>
      </trkpt>
      <trkpt lat="42.1133720" lon="-8.6906450">
        <ele>447.4</ele>
        <time>2018-09-29T08:20:35Z</time>
      </trkpt>
      <trkpt lat="42.1134480" lon="-8.6907770">
        <ele>448.6</ele>
        <time>2018-09-29T08:20:39Z</time>
      </trkpt>
      <trkpt lat="42.1135710" lon="-8.6909040">
        <ele>449.8</ele>
        <time>2018-09-29T08:20:44Z</time>
      </trkpt>
      <trkpt lat="42.1136920" lon="-8.6909580">
        <ele>450.8</ele>
        <time>2018-09-29T08:20:48Z</time>
      </trkpt>
      <trkpt lat="42.1138520" lon="-8.6909640">
        <ele>452.0</ele>
        <time>2018-09-29T08:20:53Z</time>
      </trkpt>
      <trkpt lat="42.1139770" lon="-8.6909580">
        <ele>453.2</ele>
        <time>2018-09-29T08:20:57Z</time>
      </trkpt>
      <trkpt lat="42.1140730" lon="-8.6909470">
        <ele>454.4</ele>
        <time>2018-09-29T08:21:00Z</time>
      </trkpt>
      <trkpt lat="42.1141660" lon="-8.6909450">
        <ele>455.4</ele>
        <time>2018-09-29T08:21:03Z</time>
      </trkpt>
      <trkpt lat="42.1143460" lon="-8.6910520">
        <ele>456.6</ele>
        <time>2018-09-29T08:21:10Z</time>
      </trkpt>
      <trkpt lat="42.1144450" lon="-8.6911410">
        <ele>457.8</ele>
        <time>2018-09-29T08:21:14Z</time>
      </trkpt>
      <trkpt lat="42.1146090" lon="-8.6913580">
        <ele>458.8</ele>
        <time>2018-09-29T08:21:21Z</time>
      </trkpt>
      <trkpt lat="42.1147630" lon="-8.6915830">
        <ele>460.2</ele>
        <time>2018-09-29T08:21:28Z</time>
      </trkpt>
      <trkpt lat="42.1148790" lon="-8.6917400">
        <ele>461.2</ele>
        <time>2018-09-29T08:21:33Z</time>
      </trkpt>
      <trkpt lat="42.1149940" lon="-8.6919000">
        <ele>462.2</ele>
        <time>2018-09-29T08:21:38Z</time>
      </trkpt>
      <trkpt lat="42.1151480" lon="-8.6921230">
        <ele>463.2</ele>
        <time>2018-09-29T08:21:45Z</time>
      </trkpt>
      <trkpt lat="42.1152600" lon="-8.6923400">
        <ele>464.0</ele>
        <time>2018-09-29T08:21:51Z</time>
      </trkpt>
      <trkpt lat="42.1152890" lon="-8.6924180">
        <ele>464.4</ele>
        <time>2018-09-29T08:21:53Z</time>
      </trkpt>
      <trkpt lat="42.1153460" lon="-8.6925770">
        <ele>464.8</ele>
        <time>2018-09-29T08:21:57Z</time>
      </trkpt>
      <trkpt lat="42.1154720" lon="-8.6926990">
        <ele>464.8</ele>
        <time>2018-09-29T08:22:02Z</time>
      </trkpt>
      <trkpt lat="42.1156090" lon="-8.6927580">
        <ele>465.0</ele>
        <time>2018-09-29T08:22:07Z</time>
      </trkpt>
      <trkpt lat="42.1156850" lon="-8.6927890">
        <ele>465.0</ele>
        <time>2018-09-29T08:22:10Z</time>
      </trkpt>
      <trkpt lat="42.1158890" lon="-8.6928130">
        <ele>465.4</ele>
        <time>2018-09-29T08:22:18Z</time>
      </trkpt>
      <trkpt lat="42.1160650" lon="-8.6928740">
        <ele>466.6</ele>
        <time>2018-09-29T08:22:25Z</time>
      </trkpt>
      <trkpt lat="42.1161580" lon="-8.6928970">
        <ele>467.2</ele>
        <time>2018-09-29T08:22:29Z</time>
      </trkpt>
      <trkpt lat="42.1162440" lon="-8.6929490">
        <ele>467.6</ele>
        <time>2018-09-29T08:22:33Z</time>
      </trkpt>
      <trkpt lat="42.1163290" lon="-8.6930420">
        <ele>469.0</ele>
        <time>2018-09-29T08:22:37Z</time>
      </trkpt>
      <trkpt lat="42.1164500" lon="-8.6931500">
        <ele>470.0</ele>
        <time>2018-09-29T08:22:42Z</time>
      </trkpt>
      <trkpt lat="42.1168100" lon="-8.6933980">
        <ele>471.2</ele>
        <time>2018-09-29T08:22:57Z</time>
      </trkpt>
      <trkpt lat="42.1169330" lon="-8.6934230">
        <ele>472.2</ele>
        <time>2018-09-29T08:23:03Z</time>
      </trkpt>
      <trkpt lat="42.1170350" lon="-8.6933850">
        <ele>473.4</ele>
        <time>2018-09-29T08:23:08Z</time>
      </trkpt>
      <trkpt lat="42.1171180" lon="-8.6933420">
        <ele>474.6</ele>
        <time>2018-09-29T08:23:12Z</time>
      </trkpt>
      <trkpt lat="42.1171980" lon="-8.6933100">
        <ele>475.8</ele>
        <time>2018-09-29T08:23:16Z</time>
      </trkpt>
      <trkpt lat="42.1172840" lon="-8.6933230">
        <ele>477.0</ele>
        <time>2018-09-29T08:23:20Z</time>
      </trkpt>
      <trkpt lat="42.1174350" lon="-8.6933990">
        <ele>478.0</ele>
        <time>2018-09-29T08:23:25Z</time>
      </trkpt>
      <trkpt lat="42.1178640" lon="-8.6934300">
        <ele>479.2</ele>
        <time>2018-09-29T08:23:42Z</time>
      </trkpt>
      <trkpt lat="42.1179880" lon="-8.6933930">
        <ele>480.2</ele>
        <time>2018-09-29T08:23:47Z</time>
      </trkpt>
      <trkpt lat="42.1181540" lon="-8.6933800">
        <ele>481.2</ele>
        <time>2018-09-29T08:23:54Z</time>
      </trkpt>
      <trkpt lat="42.1182710" lon="-8.6933920">
        <ele>482.4</ele>
        <time>2018-09-29T08:23:59Z</time>
      </trkpt>
      <trkpt lat="42.1183950" lon="-8.6933730">
        <ele>483.6</ele>
        <time>2018-09-29T08:24:05Z</time>
      </trkpt>
      <trkpt lat="42.1184940" lon="-8.6933420">
        <ele>484.6</ele>
        <time>2018-09-29T08:24:10Z</time>
      </trkpt>
      <trkpt lat="42.1185490" lon="-8.6933480">
        <ele>485.6</ele>
        <time>2018-09-29T08:24:14Z</time>
      </trkpt>
      <trkpt lat="42.1186140" lon="-8.6933160">
        <ele>486.8</ele>
        <time>2018-09-29T08:24:18Z</time>
      </trkpt>
      <trkpt lat="42.1187180" lon="-8.6932950">
        <ele>487.8</ele>
        <time>2018-09-29T08:24:24Z</time>
      </trkpt>
      <trkpt lat="42.1188480" lon="-8.6932310">
        <ele>489.0</ele>
        <time>2018-09-29T08:24:32Z</time>
      </trkpt>
      <trkpt lat="42.1189450" lon="-8.6931780">
        <ele>490.0</ele>
        <time>2018-09-29T08:24:38Z</time>
      </trkpt>
      <trkpt lat="42.1190410" lon="-8.6931430">
        <ele>491.4</ele>
        <time>2018-09-29T08:24:44Z</time>
      </trkpt>
      <trkpt lat="42.1190950" lon="-8.6931290">
        <ele>492.6</ele>
        <time>2018-09-29T08:24:48Z</time>
      </trkpt>
      <trkpt lat="42.1191430" lon="-8.6930980">
        <ele>493.8</ele>
        <time>2018-09-29T08:24:52Z</time>
      </trkpt>
      <trkpt lat="42.1191830" lon="-8.6930600">
        <ele>495.0</ele>
        <time>2018-09-29T08:24:55Z</time>
      </trkpt>
      <trkpt lat="42.1192580" lon="-8.6930060">
        <ele>496.0</ele>
        <time>2018-09-29T08:25:00Z</time>
      </trkpt>
      <trkpt lat="42.1193770" lon="-8.6929170">
        <ele>497.2</ele>
        <time>2018-09-29T08:25:08Z</time>
      </trkpt>
      <trkpt lat="42.1194860" lon="-8.6928420">
        <ele>498.2</ele>
        <time>2018-09-29T08:25:15Z</time>
      </trkpt>
      <trkpt lat="42.1196420" lon="-8.6927650">
        <ele>499.4</ele>
        <time>2018-09-29T08:25:22Z</time>
      </trkpt>
      <trkpt lat="42.1197980" lon="-8.6926890">
        <ele>500.4</ele>
        <time>2018-09-29T08:25:28Z</time>
      </trkpt>
      <trkpt lat="42.1201160" lon="-8.6926400">
        <ele>501.6</ele>
        <time>2018-09-29T08:25:40Z</time>
      </trkpt>
      <trkpt lat="42.1202600" lon="-8.6925610">
        <ele>502.6</ele>
        <time>2018-09-29T08:25:46Z</time>
      </trkpt>
      <trkpt lat="42.1204000" lon="-8.6924960">
        <ele>503.4</ele>
        <time>2018-09-29T08:25:51Z</time>
      </trkpt>
      <trkpt lat="42.1205690" lon="-8.6924470">
        <ele>504.6</ele>
        <time>2018-09-29T08:25:56Z</time>
      </trkpt>
      <trkpt lat="42.1210310" lon="-8.6923740">
        <ele>505.6</ele>
        <time>2018-09-29T08:26:12Z</time>
      </trkpt>
      <trkpt lat="42.1211060" lon="-8.6924210">
        <ele>506.8</ele>
        <time>2018-09-29T08:26:16Z</time>
      </trkpt>
      <trkpt lat="42.1211700" lon="-8.6925020">
        <ele>508.0</ele>
        <time>2018-09-29T08:26:20Z</time>
      </trkpt>
      <trkpt lat="42.1212280" lon="-8.6926420">
        <ele>509.2</ele>
        <time>2018-09-29T08:26:26Z</time>
      </trkpt>
      <trkpt lat="42.1212270" lon="-8.6927330">
        <ele>510.4</ele>
        <time>2018-09-29T08:26:30Z</time>
      </trkpt>
      <trkpt lat="42.1212110" lon="-8.6928290">
        <ele>511.4</ele>
        <time>2018-09-29T08:26:34Z</time>
      </trkpt>
      <trkpt lat="42.1212020" lon="-8.6929730">
        <ele>512.2</ele>
        <time>2018-09-29T08:26:42Z</time>
      </trkpt>
      <trkpt lat="42.1212530" lon="-8.6933620">
        <ele>518.4</ele>
        <time>2018-09-29T08:27:21Z</time>
      </trkpt>
      <trkpt lat="42.1212770" lon="-8.6934990">
        <ele>518.6</ele>
        <time>2018-09-29T08:27:27Z</time>
      </trkpt>
      <trkpt lat="42.1214960" lon="-8.6935030">
        <ele>519.4</ele>
        <time>2018-09-29T08:27:37Z</time>
      </trkpt>
      <trkpt lat="42.1216840" lon="-8.6933720">
        <ele>519.8</ele>
        <time>2018-09-29T08:27:44Z</time>
      </trkpt>
      <trkpt lat="42.1217710" lon="-8.6932560">
        <ele>519.8</ele>
        <time>2018-09-29T08:27:47Z</time>
      </trkpt>
      <trkpt lat="42.1218390" lon="-8.6931660">
        <ele>519.8</ele>
        <time>2018-09-29T08:27:49Z</time>
      </trkpt>
      <trkpt lat="42.1219860" lon="-8.6930190">
        <ele>519.8</ele>
        <time>2018-09-29T08:27:53Z</time>
      </trkpt>
      <trkpt lat="42.1220120" lon="-8.6929880">
        <ele>519.8</ele>
        <time>2018-09-29T08:27:54Z</time>
      </trkpt>
      <trkpt lat="42.1221590" lon="-8.6928650">
        <ele>519.4</ele>
        <time>2018-09-29T08:28:01Z</time>
      </trkpt>
      <trkpt lat="42.1222250" lon="-8.6927590">
        <ele>519.4</ele>
        <time>2018-09-29T08:28:05Z</time>
      </trkpt>
      <trkpt lat="42.1224060" lon="-8.6925060">
        <ele>520.4</ele>
        <time>2018-09-29T08:28:15Z</time>
      </trkpt>
      <trkpt lat="42.1224190" lon="-8.6924930">
        <ele>520.4</ele>
        <time>2018-09-29T08:28:16Z</time>
      </trkpt>
      <trkpt lat="42.1224560" lon="-8.6924430">
        <ele>520.6</ele>
        <time>2018-09-29T08:28:19Z</time>
      </trkpt>
      <trkpt lat="42.1225080" lon="-8.6924170">
        <ele>520.8</ele>
        <time>2018-09-29T08:28:22Z</time>
      </trkpt>
      <trkpt lat="42.1225730" lon="-8.6924050">
        <ele>521.2</ele>
        <time>2018-09-29T08:28:25Z</time>
      </trkpt>
      <trkpt lat="42.1225920" lon="-8.6924080">
        <ele>521.6</ele>
        <time>2018-09-29T08:28:26Z</time>
      </trkpt>
      <trkpt lat="42.1227400" lon="-8.6924740">
        <ele>522.6</ele>
        <time>2018-09-29T08:28:33Z</time>
      </trkpt>
      <trkpt lat="42.1229270" lon="-8.6926240">
        <ele>522.6</ele>
        <time>2018-09-29T08:28:39Z</time>
      </trkpt>
      <trkpt lat="42.1230710" lon="-8.6927390">
        <ele>522.4</ele>
        <time>2018-09-29T08:28:43Z</time>
      </trkpt>
      <trkpt lat="42.1232780" lon="-8.6929030">
        <ele>521.4</ele>
        <time>2018-09-29T08:28:50Z</time>
      </trkpt>
      <trkpt lat="42.1233190" lon="-8.6929300">
        <ele>521.2</ele>
        <time>2018-09-29T08:28:51Z</time>
      </trkpt>
      <trkpt lat="42.1234010" lon="-8.6929890">
        <ele>520.8</ele>
        <time>2018-09-29T08:28:53Z</time>
      </trkpt>
      <trkpt lat="42.1234670" lon="-8.6930640">
        <ele>520.2</ele>
        <time>2018-09-29T08:28:55Z</time>
      </trkpt>
      <trkpt lat="42.1235440" lon="-8.6931820">
        <ele>519.2</ele>
        <time>2018-09-29T08:28:58Z</time>
      </trkpt>
      <trkpt lat="42.1235630" lon="-8.6932130">
        <ele>519.0</ele>
        <time>2018-09-29T08:28:59Z</time>
      </trkpt>
      <trkpt lat="42.1235980" lon="-8.6932570">
        <ele>518.6</ele>
        <time>2018-09-29T08:29:01Z</time>
      </trkpt>
      <trkpt lat="42.1236600" lon="-8.6933420">
        <ele>518.6</ele>
        <time>2018-09-29T08:29:04Z</time>
      </trkpt>
      <trkpt lat="42.1237220" lon="-8.6934600">
        <ele>518.6</ele>
        <time>2018-09-29T08:29:07Z</time>
      </trkpt>
      <trkpt lat="42.1240530" lon="-8.6940720">
        <ele>518.6</ele>
        <time>2018-09-29T08:29:20Z</time>
      </trkpt>
      <trkpt lat="42.1240950" lon="-8.6941480">
        <ele>518.6</ele>
        <time>2018-09-29T08:29:22Z</time>
      </trkpt>
      <trkpt lat="42.1242140" lon="-8.6943490">
        <ele>518.6</ele>
        <time>2018-09-29T08:29:28Z</time>
      </trkpt>
      <trkpt lat="42.1242880" lon="-8.6944560">
        <ele>519.2</ele>
        <time>2018-09-29T08:29:32Z</time>
      </trkpt>
      <trkpt lat="42.1245780" lon="-8.6945190">
        <ele>519.6</ele>
        <time>2018-09-29T08:29:40Z</time>
      </trkpt>
      <trkpt lat="42.1246210" lon="-8.6945050">
        <ele>519.6</ele>
        <time>2018-09-29T08:29:41Z</time>
      </trkpt>
      <trkpt lat="42.1248200" lon="-8.6943430">
        <ele>518.4</ele>
        <time>2018-09-29T08:29:46Z</time>
      </trkpt>
      <trkpt lat="42.1248380" lon="-8.6943140">
        <ele>517.8</ele>
        <time>2018-09-29T08:29:47Z</time>
      </trkpt>
      <trkpt lat="42.1248550" lon="-8.6942800">
        <ele>517.2</ele>
        <time>2018-09-29T08:29:48Z</time>
      </trkpt>
      <trkpt lat="42.1248660" lon="-8.6942470">
        <ele>516.2</ele>
        <time>2018-09-29T08:29:49Z</time>
      </trkpt>
      <trkpt lat="42.1248880" lon="-8.6941710">
        <ele>514.8</ele>
        <time>2018-09-29T08:29:51Z</time>
      </trkpt>
      <trkpt lat="42.1249080" lon="-8.6940800">
        <ele>513.6</ele>
        <time>2018-09-29T08:29:53Z</time>
      </trkpt>
      <trkpt lat="42.1249430" lon="-8.6940020">
        <ele>512.4</ele>
        <time>2018-09-29T08:29:55Z</time>
      </trkpt>
      <trkpt lat="42.1250080" lon="-8.6939020">
        <ele>511.2</ele>
        <time>2018-09-29T08:29:58Z</time>
      </trkpt>
      <trkpt lat="42.1250750" lon="-8.6938500">
        <ele>510.0</ele>
        <time>2018-09-29T08:30:00Z</time>
      </trkpt>
      <trkpt lat="42.1251030" lon="-8.6938200">
        <ele>508.4</ele>
        <time>2018-09-29T08:30:01Z</time>
      </trkpt>
      <trkpt lat="42.1251710" lon="-8.6937510">
        <ele>507.2</ele>
        <time>2018-09-29T08:30:03Z</time>
      </trkpt>
      <trkpt lat="42.1252090" lon="-8.6937170">
        <ele>506.6</ele>
        <time>2018-09-29T08:30:04Z</time>
      </trkpt>
      <trkpt lat="42.1252520" lon="-8.6936870">
        <ele>505.8</ele>
        <time>2018-09-29T08:30:05Z</time>
      </trkpt>
      <trkpt lat="42.1253270" lon="-8.6936260">
        <ele>504.8</ele>
        <time>2018-09-29T08:30:07Z</time>
      </trkpt>
      <trkpt lat="42.1254140" lon="-8.6935580">
        <ele>503.2</ele>
        <time>2018-09-29T08:30:10Z</time>
      </trkpt>
      <trkpt lat="42.1255010" lon="-8.6935080">
        <ele>502.0</ele>
        <time>2018-09-29T08:30:13Z</time>
      </trkpt>
      <trkpt lat="42.1259450" lon="-8.6932380">
        <ele>501.4</ele>
        <time>2018-09-29T08:30:26Z</time>
      </trkpt>
      <trkpt lat="42.1261190" lon="-8.6931290">
        <ele>501.2</ele>
        <time>2018-09-29T08:30:32Z</time>
      </trkpt>
      <trkpt lat="42.1263370" lon="-8.6931040">
        <ele>501.8</ele>
        <time>2018-09-29T08:30:39Z</time>
      </trkpt>
      <trkpt lat="42.1266750" lon="-8.6930490">
        <ele>502.8</ele>
        <time>2018-09-29T08:30:51Z</time>
      </trkpt>
      <trkpt lat="42.1267020" lon="-8.6930390">
        <ele>502.8</ele>
        <time>2018-09-29T08:30:52Z</time>
      </trkpt>
      <trkpt lat="42.1268920" lon="-8.6929760">
        <ele>503.0</ele>
        <time>2018-09-29T08:30:59Z</time>
      </trkpt>
      <trkpt lat="42.1270300" lon="-8.6929630">
        <ele>503.6</ele>
        <time>2018-09-29T08:31:04Z</time>
      </trkpt>
      <trkpt lat="42.1271280" lon="-8.6929740">
        <ele>504.2</ele>
        <time>2018-09-29T08:31:07Z</time>
      </trkpt>
      <trkpt lat="42.1272190" lon="-8.6929870">
        <ele>505.4</ele>
        <time>2018-09-29T08:31:10Z</time>
      </trkpt>
      <trkpt lat="42.1272870" lon="-8.6929780">
        <ele>505.8</ele>
        <time>2018-09-29T08:31:13Z</time>
      </trkpt>
      <trkpt lat="42.1273510" lon="-8.6928630">
        <ele>506.4</ele>
        <time>2018-09-29T08:31:18Z</time>
      </trkpt>
      <trkpt lat="42.1274320" lon="-8.6927190">
        <ele>507.4</ele>
        <time>2018-09-29T08:31:23Z</time>
      </trkpt>
      <trkpt lat="42.1275500" lon="-8.6924890">
        <ele>508.4</ele>
        <time>2018-09-29T08:31:30Z</time>
      </trkpt>
      <trkpt lat="42.1277240" lon="-8.6919330">
        <ele>508.6</ele>
        <time>2018-09-29T08:31:41Z</time>
      </trkpt>
      <trkpt lat="42.1278200" lon="-8.6917050">
        <ele>508.2</ele>
        <time>2018-09-29T08:31:45Z</time>
      </trkpt>
      <trkpt lat="42.1278910" lon="-8.6915860">
        <ele>508.2</ele>
        <time>2018-09-29T08:31:48Z</time>
      </trkpt>
      <trkpt lat="42.1279560" lon="-8.6915160">
        <ele>507.8</ele>
        <time>2018-09-29T08:31:51Z</time>
      </trkpt>
      <trkpt lat="42.1280330" lon="-8.6914480">
        <ele>507.6</ele>
        <time>2018-09-29T08:31:56Z</time>
      </trkpt>
      <trkpt lat="42.1280590" lon="-8.6914310">
        <ele>507.6</ele>
        <time>2018-09-29T08:31:58Z</time>
      </trkpt>
      <trkpt lat="42.1281020" lon="-8.6914140">
        <ele>507.6</ele>
        <time>2018-09-29T08:32:01Z</time>
      </trkpt>
      <trkpt lat="42.1281120" lon="-8.6914120">
        <ele>507.8</ele>
        <time>2018-09-29T08:32:02Z</time>
      </trkpt>
      <trkpt lat="42.1282580" lon="-8.6913940">
        <ele>508.6</ele>
        <time>2018-09-29T08:32:12Z</time>
      </trkpt>
      <trkpt lat="42.1283380" lon="-8.6913700">
        <ele>509.4</ele>
        <time>2018-09-29T08:32:16Z</time>
      </trkpt>
      <trkpt lat="42.1284670" lon="-8.6913420">
        <ele>510.2</ele>
        <time>2018-09-29T08:32:23Z</time>
      </trkpt>
      <trkpt lat="42.1284880" lon="-8.6913390">
        <ele>510.4</ele>
        <time>2018-09-29T08:32:24Z</time>
      </trkpt>
      <trkpt lat="42.1286380" lon="-8.6912960">
        <ele>511.6</ele>
        <time>2018-09-29T08:32:31Z</time>
      </trkpt>
      <trkpt lat="42.1287160" lon="-8.6912720">
        <ele>512.2</ele>
        <time>2018-09-29T08:32:35Z</time>
      </trkpt>
      <trkpt lat="42.1287520" lon="-8.6912630">
        <ele>512.4</ele>
        <time>2018-09-29T08:32:37Z</time>
      </trkpt>
      <trkpt lat="42.1288160" lon="-8.6912520">
        <ele>513.0</ele>
        <time>2018-09-29T08:32:41Z</time>
      </trkpt>
      <trkpt lat="42.1289160" lon="-8.6912730">
        <ele>513.6</ele>
        <time>2018-09-29T08:32:47Z</time>
      </trkpt>
      <trkpt lat="42.1289360" lon="-8.6912740">
        <ele>513.8</ele>
        <time>2018-09-29T08:32:48Z</time>
      </trkpt>
      <trkpt lat="42.1290030" lon="-8.6912640">
        <ele>514.8</ele>
        <time>2018-09-29T08:32:52Z</time>
      </trkpt>
      <trkpt lat="42.1290790" lon="-8.6912430">
        <ele>516.0</ele>
        <time>2018-09-29T08:32:57Z</time>
      </trkpt>
      <trkpt lat="42.1291590" lon="-8.6912470">
        <ele>516.6</ele>
        <time>2018-09-29T08:33:02Z</time>
      </trkpt>
      <trkpt lat="42.1291970" lon="-8.6912460">
        <ele>517.2</ele>
        <time>2018-09-29T08:33:04Z</time>
      </trkpt>
      <trkpt lat="42.1292960" lon="-8.6912520">
        <ele>518.4</ele>
        <time>2018-09-29T08:33:09Z</time>
      </trkpt>
      <trkpt lat="42.1293850" lon="-8.6913060">
        <ele>519.2</ele>
        <time>2018-09-29T08:33:15Z</time>
      </trkpt>
      <trkpt lat="42.1294730" lon="-8.6913460">
        <ele>520.4</ele>
        <time>2018-09-29T08:33:21Z</time>
      </trkpt>
      <trkpt lat="42.1295580" lon="-8.6913760">
        <ele>521.4</ele>
        <time>2018-09-29T08:33:27Z</time>
      </trkpt>
      <trkpt lat="42.1296510" lon="-8.6914530">
        <ele>522.6</ele>
        <time>2018-09-29T08:33:33Z</time>
      </trkpt>
      <trkpt lat="42.1297240" lon="-8.6916030">
        <ele>523.6</ele>
        <time>2018-09-29T08:33:40Z</time>
      </trkpt>
      <trkpt lat="42.1298020" lon="-8.6917010">
        <ele>524.6</ele>
        <time>2018-09-29T08:33:47Z</time>
      </trkpt>
      <trkpt lat="42.1298830" lon="-8.6917480">
        <ele>525.8</ele>
        <time>2018-09-29T08:33:53Z</time>
      </trkpt>
      <trkpt lat="42.1299260" lon="-8.6918260">
        <ele>526.8</ele>
        <time>2018-09-29T08:33:58Z</time>
      </trkpt>
      <trkpt lat="42.1299470" lon="-8.6918970">
        <ele>528.0</ele>
        <time>2018-09-29T08:34:02Z</time>
      </trkpt>
      <trkpt lat="42.1299670" lon="-8.6919470">
        <ele>528.6</ele>
        <time>2018-09-29T08:34:05Z</time>
      </trkpt>
      <trkpt lat="42.1299950" lon="-8.6920210">
        <ele>529.2</ele>
        <time>2018-09-29T08:34:09Z</time>
      </trkpt>
      <trkpt lat="42.1300150" lon="-8.6920920">
        <ele>530.0</ele>
        <time>2018-09-29T08:34:13Z</time>
      </trkpt>
      <trkpt lat="42.1300120" lon="-8.6921820">
        <ele>530.6</ele>
        <time>2018-09-29T08:34:17Z</time>
      </trkpt>
      <trkpt lat="42.1300000" lon="-8.6922170">
        <ele>531.2</ele>
        <time>2018-09-29T08:34:19Z</time>
      </trkpt>
      <trkpt lat="42.1299950" lon="-8.6923310">
        <ele>532.2</ele>
        <time>2018-09-29T08:34:25Z</time>
      </trkpt>
      <trkpt lat="42.1299900" lon="-8.6924800">
        <ele>533.2</ele>
        <time>2018-09-29T08:34:31Z</time>
      </trkpt>
      <trkpt lat="42.1299780" lon="-8.6926260">
        <ele>534.4</ele>
        <time>2018-09-29T08:34:37Z</time>
      </trkpt>
      <trkpt lat="42.1299780" lon="-8.6927410">
        <ele>535.4</ele>
        <time>2018-09-29T08:34:42Z</time>
      </trkpt>
      <trkpt lat="42.1300070" lon="-8.6928720">
        <ele>536.6</ele>
        <time>2018-09-29T08:34:47Z</time>
      </trkpt>
      <trkpt lat="42.1300410" lon="-8.6929740">
        <ele>537.6</ele>
        <time>2018-09-29T08:34:51Z</time>
      </trkpt>
      <trkpt lat="42.1300770" lon="-8.6930760">
        <ele>538.6</ele>
        <time>2018-09-29T08:34:55Z</time>
      </trkpt>
      <trkpt lat="42.1301510" lon="-8.6932050">
        <ele>539.8</ele>
        <time>2018-09-29T08:35:01Z</time>
      </trkpt>
      <trkpt lat="42.1302250" lon="-8.6933100">
        <ele>540.8</ele>
        <time>2018-09-29T08:35:06Z</time>
      </trkpt>
      <trkpt lat="42.1302600" lon="-8.6933890">
        <ele>541.8</ele>
        <time>2018-09-29T08:35:09Z</time>
      </trkpt>
      <trkpt lat="42.1303370" lon="-8.6935620">
        <ele>543.0</ele>
        <time>2018-09-29T08:35:16Z</time>
      </trkpt>
      <trkpt lat="42.1303920" lon="-8.6937450">
        <ele>544.2</ele>
        <time>2018-09-29T08:35:23Z</time>
      </trkpt>
      <trkpt lat="42.1304320" lon="-8.6938660">
        <ele>545.4</ele>
        <time>2018-09-29T08:35:27Z</time>
      </trkpt>
      <trkpt lat="42.1304860" lon="-8.6939540">
        <ele>546.4</ele>
        <time>2018-09-29T08:35:31Z</time>
      </trkpt>
      <trkpt lat="42.1305440" lon="-8.6940050">
        <ele>547.4</ele>
        <time>2018-09-29T08:35:35Z</time>
      </trkpt>
      <trkpt lat="42.1306190" lon="-8.6940800">
        <ele>548.6</ele>
        <time>2018-09-29T08:35:41Z</time>
      </trkpt>
      <trkpt lat="42.1306790" lon="-8.6941330">
        <ele>549.6</ele>
        <time>2018-09-29T08:35:45Z</time>
      </trkpt>
      <trkpt lat="42.1307270" lon="-8.6941780">
        <ele>550.6</ele>
        <time>2018-09-29T08:35:48Z</time>
      </trkpt>
      <trkpt lat="42.1307730" lon="-8.6942450">
        <ele>551.8</ele>
        <time>2018-09-29T08:35:52Z</time>
      </trkpt>
      <trkpt lat="42.1308260" lon="-8.6943110">
        <ele>553.0</ele>
        <time>2018-09-29T08:35:56Z</time>
      </trkpt>
      <trkpt lat="42.1308700" lon="-8.6943790">
        <ele>554.0</ele>
        <time>2018-09-29T08:36:00Z</time>
      </trkpt>
      <trkpt lat="42.1309100" lon="-8.6944310">
        <ele>555.0</ele>
        <time>2018-09-29T08:36:04Z</time>
      </trkpt>
      <trkpt lat="42.1309520" lon="-8.6944770">
        <ele>556.2</ele>
        <time>2018-09-29T08:36:08Z</time>
      </trkpt>
      <trkpt lat="42.1310040" lon="-8.6945370">
        <ele>557.2</ele>
        <time>2018-09-29T08:36:13Z</time>
      </trkpt>
      <trkpt lat="42.1310370" lon="-8.6945900">
        <ele>558.2</ele>
        <time>2018-09-29T08:36:16Z</time>
      </trkpt>
      <trkpt lat="42.1310780" lon="-8.6946800">
        <ele>559.4</ele>
        <time>2018-09-29T08:36:21Z</time>
      </trkpt>
      <trkpt lat="42.1311370" lon="-8.6947870">
        <ele>560.4</ele>
        <time>2018-09-29T08:36:27Z</time>
      </trkpt>
      <trkpt lat="42.1311770" lon="-8.6948490">
        <ele>561.6</ele>
        <time>2018-09-29T08:36:31Z</time>
      </trkpt>
      <trkpt lat="42.1312340" lon="-8.6948870">
        <ele>562.8</ele>
        <time>2018-09-29T08:36:36Z</time>
      </trkpt>
      <trkpt lat="42.1313110" lon="-8.6948700">
        <ele>564.0</ele>
        <time>2018-09-29T08:36:43Z</time>
      </trkpt>
      <trkpt lat="42.1313300" lon="-8.6948650">
        <ele>564.2</ele>
        <time>2018-09-29T08:36:45Z</time>
      </trkpt>
      <trkpt lat="42.1313780" lon="-8.6948300">
        <ele>564.8</ele>
        <time>2018-09-29T08:36:49Z</time>
      </trkpt>
      <trkpt lat="42.1313940" lon="-8.6948190">
        <ele>565.0</ele>
        <time>2018-09-29T08:36:50Z</time>
      </trkpt>
      <trkpt lat="42.1315450" lon="-8.6947800">
        <ele>565.0</ele>
        <time>2018-09-29T08:36:56Z</time>
      </trkpt>
      <trkpt lat="42.1316680" lon="-8.6948130">
        <ele>565.0</ele>
        <time>2018-09-29T08:36:59Z</time>
      </trkpt>
      <trkpt lat="42.1317640" lon="-8.6948580">
        <ele>564.8</ele>
        <time>2018-09-29T08:37:01Z</time>
      </trkpt>
      <trkpt lat="42.1319540" lon="-8.6949500">
        <ele>563.2</ele>
        <time>2018-09-29T08:37:05Z</time>
      </trkpt>
      <trkpt lat="42.1320710" lon="-8.6949760">
        <ele>562.0</ele>
        <time>2018-09-29T08:37:08Z</time>
      </trkpt>
      <trkpt lat="42.1321440" lon="-8.6949900">
        <ele>561.0</ele>
        <time>2018-09-29T08:37:10Z</time>
      </trkpt>
      <trkpt lat="42.1322320" lon="-8.6949750">
        <ele>560.0</ele>
        <time>2018-09-29T08:37:12Z</time>
      </trkpt>
      <trkpt lat="42.1322680" lon="-8.6949610">
        <ele>559.6</ele>
        <time>2018-09-29T08:37:13Z</time>
      </trkpt>
      <trkpt lat="42.1323550" lon="-8.6948750">
        <ele>557.8</ele>
        <time>2018-09-29T08:37:16Z</time>
      </trkpt>
      <trkpt lat="42.1324140" lon="-8.6947790">
        <ele>556.8</ele>
        <time>2018-09-29T08:37:18Z</time>
      </trkpt>
      <trkpt lat="42.1324510" lon="-8.6947280">
        <ele>556.6</ele>
        <time>2018-09-29T08:37:19Z</time>
      </trkpt>
      <trkpt lat="42.1325200" lon="-8.6946270">
        <ele>555.6</ele>
        <time>2018-09-29T08:37:21Z</time>
      </trkpt>
      <trkpt lat="42.1325520" lon="-8.6945780">
        <ele>554.6</ele>
        <time>2018-09-29T08:37:22Z</time>
      </trkpt>
      <trkpt lat="42.1326450" lon="-8.6944500">
        <ele>553.2</ele>
        <time>2018-09-29T08:37:25Z</time>
      </trkpt>
      <trkpt lat="42.1327140" lon="-8.6943720">
        <ele>552.0</ele>
        <time>2018-09-29T08:37:27Z</time>
      </trkpt>
      <trkpt lat="42.1327540" lon="-8.6943360">
        <ele>551.4</ele>
        <time>2018-09-29T08:37:28Z</time>
      </trkpt>
      <trkpt lat="42.1328040" lon="-8.6942990">
        <ele>550.6</ele>
        <time>2018-09-29T08:37:29Z</time>
      </trkpt>
      <trkpt lat="42.1328530" lon="-8.6942650">
        <ele>549.8</ele>
        <time>2018-09-29T08:37:30Z</time>
      </trkpt>
      <trkpt lat="42.1329010" lon="-8.6942380">
        <ele>548.8</ele>
        <time>2018-09-29T08:37:31Z</time>
      </trkpt>
      <trkpt lat="42.1330040" lon="-8.6941870">
        <ele>547.8</ele>
        <time>2018-09-29T08:37:33Z</time>
      </trkpt>
      <trkpt lat="42.1330490" lon="-8.6941590">
        <ele>547.0</ele>
        <time>2018-09-29T08:37:34Z</time>
      </trkpt>
      <trkpt lat="42.1330920" lon="-8.6941240">
        <ele>546.0</ele>
        <time>2018-09-29T08:37:35Z</time>
      </trkpt>
      <trkpt lat="42.1331660" lon="-8.6940450">
        <ele>544.8</ele>
        <time>2018-09-29T08:37:37Z</time>
      </trkpt>
      <trkpt lat="42.1332410" lon="-8.6939620">
        <ele>543.4</ele>
        <time>2018-09-29T08:37:39Z</time>
      </trkpt>
      <trkpt lat="42.1333090" lon="-8.6938680">
        <ele>541.8</ele>
        <time>2018-09-29T08:37:41Z</time>
      </trkpt>
      <trkpt lat="42.1333600" lon="-8.6937680">
        <ele>540.6</ele>
        <time>2018-09-29T08:37:43Z</time>
      </trkpt>
      <trkpt lat="42.1334300" lon="-8.6935730">
        <ele>539.4</ele>
        <time>2018-09-29T08:37:47Z</time>
      </trkpt>
      <trkpt lat="42.1335060" lon="-8.6933880">
        <ele>538.0</ele>
        <time>2018-09-29T08:37:51Z</time>
      </trkpt>
      <trkpt lat="42.1335890" lon="-8.6932150">
        <ele>536.8</ele>
        <time>2018-09-29T08:37:54Z</time>
      </trkpt>
      <trkpt lat="42.1336310" lon="-8.6931120">
        <ele>535.2</ele>
        <time>2018-09-29T08:37:56Z</time>
      </trkpt>
      <trkpt lat="42.1337020" lon="-8.6929810">
        <ele>533.8</ele>
        <time>2018-09-29T08:37:58Z</time>
      </trkpt>
      <trkpt lat="42.1337670" lon="-8.6928540">
        <ele>532.4</ele>
        <time>2018-09-29T08:38:00Z</time>
      </trkpt>
      <trkpt lat="42.1338410" lon="-8.6927150">
        <ele>531.0</ele>
        <time>2018-09-29T08:38:03Z</time>
      </trkpt>
      <trkpt lat="42.1338880" lon="-8.6926210">
        <ele>529.6</ele>
        <time>2018-09-29T08:38:06Z</time>
      </trkpt>
      <trkpt lat="42.1339200" lon="-8.6925630">
        <ele>528.4</ele>
        <time>2018-09-29T08:38:08Z</time>
      </trkpt>
      <trkpt lat="42.1339560" lon="-8.6924950">
        <ele>527.2</ele>
        <time>2018-09-29T08:38:10Z</time>
      </trkpt>
      <trkpt lat="42.1339960" lon="-8.6923900">
        <ele>526.0</ele>
        <time>2018-09-29T08:38:13Z</time>
      </trkpt>
      <trkpt lat="42.1340320" lon="-8.6922860">
        <ele>525.0</ele>
        <time>2018-09-29T08:38:17Z</time>
      </trkpt>
      <trkpt lat="42.1340610" lon="-8.6922150">
        <ele>523.8</ele>
        <time>2018-09-29T08:38:20Z</time>
      </trkpt>
      <trkpt lat="42.1340960" lon="-8.6921530">
        <ele>522.8</ele>
        <time>2018-09-29T08:38:23Z</time>
      </trkpt>
      <trkpt lat="42.1340860" lon="-8.6921690">
        <ele>521.6</ele>
        <time>2018-09-29T08:38:26Z</time>
      </trkpt>
      <trkpt lat="42.1340490" lon="-8.6922290">
        <ele>521.4</ele>
        <time>2018-09-29T08:38:27Z</time>
      </trkpt>
      <trkpt lat="42.1340120" lon="-8.6922890">
        <ele>520.2</ele>
        <time>2018-09-29T08:38:31Z</time>
      </trkpt>
      <trkpt lat="42.1339740" lon="-8.6923490">
        <ele>520.2</ele>
        <time>2018-09-29T08:38:32Z</time>
      </trkpt>
      <trkpt lat="42.1339370" lon="-8.6924090">
        <ele>527.2</ele>
        <time>2018-09-29T08:40:10Z</time>
      </trkpt>
      <trkpt lat="42.1339000" lon="-8.6924690">
        <ele>527.6</ele>
        <time>2018-09-29T08:40:11Z</time>
      </trkpt>
      <trkpt lat="42.1338510" lon="-8.6925780">
        <ele>527.6</ele>
        <time>2018-09-29T08:40:14Z</time>
      </trkpt>
      <trkpt lat="42.1338270" lon="-8.6926360">
        <ele>528.2</ele>
        <time>2018-09-29T08:40:16Z</time>
      </trkpt>
      <trkpt lat="42.1335290" lon="-8.6935010">
        <ele>533.2</ele>
        <time>2018-09-29T08:40:51Z</time>
      </trkpt>
      <trkpt lat="42.1335150" lon="-8.6935620">
        <ele>534.2</ele>
        <time>2018-09-29T08:40:55Z</time>
      </trkpt>
      <trkpt lat="42.1335450" lon="-8.6935940">
        <ele>535.2</ele>
        <time>2018-09-29T08:40:59Z</time>
      </trkpt>
      <trkpt lat="42.1335550" lon="-8.6935920">
        <ele>535.4</ele>
        <time>2018-09-29T08:41:00Z</time>
      </trkpt>
      <trkpt lat="42.1336180" lon="-8.6935710">
        <ele>536.4</ele>
        <time>2018-09-29T08:41:06Z</time>
      </trkpt>
      <trkpt lat="42.1337320" lon="-8.6935000">
        <ele>537.6</ele>
        <time>2018-09-29T08:41:15Z</time>
      </trkpt>
      <trkpt lat="42.1338000" lon="-8.6934480">
        <ele>538.6</ele>
        <time>2018-09-29T08:41:21Z</time>
      </trkpt>
      <trkpt lat="42.1338660" lon="-8.6934070">
        <ele>539.6</ele>
        <time>2018-09-29T08:41:26Z</time>
      </trkpt>
      <trkpt lat="42.1339610" lon="-8.6933020">
        <ele>540.6</ele>
        <time>2018-09-29T08:41:33Z</time>
      </trkpt>
      <trkpt lat="42.1341060" lon="-8.6931360">
        <ele>541.8</ele>
        <time>2018-09-29T08:41:40Z</time>
      </trkpt>
      <trkpt lat="42.1344010" lon="-8.6928960">
        <ele>542.6</ele>
        <time>2018-09-29T08:41:53Z</time>
      </trkpt>
      <trkpt lat="42.1344760" lon="-8.6928420">
        <ele>542.8</ele>
        <time>2018-09-29T08:41:56Z</time>
      </trkpt>
      <trkpt lat="42.1346990" lon="-8.6926820">
        <ele>544.0</ele>
        <time>2018-09-29T08:42:06Z</time>
      </trkpt>
      <trkpt lat="42.1348160" lon="-8.6925960">
        <ele>545.0</ele>
        <time>2018-09-29T08:42:12Z</time>
      </trkpt>
      <trkpt lat="42.1349330" lon="-8.6925220">
        <ele>546.2</ele>
        <time>2018-09-29T08:42:17Z</time>
      </trkpt>
      <trkpt lat="42.1350310" lon="-8.6924850">
        <ele>547.4</ele>
        <time>2018-09-29T08:42:21Z</time>
      </trkpt>
      <trkpt lat="42.1351900" lon="-8.6924260">
        <ele>548.4</ele>
        <time>2018-09-29T08:42:28Z</time>
      </trkpt>
      <trkpt lat="42.1354110" lon="-8.6923410">
        <ele>549.4</ele>
        <time>2018-09-29T08:42:35Z</time>
      </trkpt>
      <trkpt lat="42.1356680" lon="-8.6922480">
        <ele>549.8</ele>
        <time>2018-09-29T08:42:42Z</time>
      </trkpt>
      <trkpt lat="42.1359810" lon="-8.6921270">
        <ele>550.6</ele>
        <time>2018-09-29T08:42:51Z</time>
      </trkpt>
      <trkpt lat="42.1362260" lon="-8.6920460">
        <ele>551.6</ele>
        <time>2018-09-29T08:42:58Z</time>
      </trkpt>
      <trkpt lat="42.1365740" lon="-8.6918770">
        <ele>552.4</ele>
        <time>2018-09-29T08:43:08Z</time>
      </trkpt>
      <trkpt lat="42.1365980" lon="-8.6918470">
        <ele>552.4</ele>
        <time>2018-09-29T08:43:09Z</time>
      </trkpt>
      <trkpt lat="42.1366720" lon="-8.6917210">
        <ele>552.8</ele>
        <time>2018-09-29T08:43:14Z</time>
      </trkpt>
      <trkpt lat="42.1366890" lon="-8.6916800">
        <ele>553.0</ele>
        <time>2018-09-29T08:43:17Z</time>
      </trkpt>
      <trkpt lat="42.1368230" lon="-8.6915550">
        <ele>554.4</ele>
        <time>2018-09-29T08:43:29Z</time>
      </trkpt>
      <trkpt lat="42.1369300" lon="-8.6915440">
        <ele>555.4</ele>
        <time>2018-09-29T08:43:36Z</time>
      </trkpt>
      <trkpt lat="42.1370150" lon="-8.6915520">
        <ele>556.6</ele>
        <time>2018-09-29T08:43:40Z</time>
      </trkpt>
      <trkpt lat="42.1371600" lon="-8.6915700">
        <ele>557.8</ele>
        <time>2018-09-29T08:43:47Z</time>
      </trkpt>
      <trkpt lat="42.1373390" lon="-8.6916240">
        <ele>559.2</ele>
        <time>2018-09-29T08:43:55Z</time>
      </trkpt>
      <trkpt lat="42.1378260" lon="-8.6914940">
        <ele>559.8</ele>
        <time>2018-09-29T08:44:10Z</time>
      </trkpt>
      <trkpt lat="42.1379180" lon="-8.6914340">
        <ele>559.6</ele>
        <time>2018-09-29T08:44:12Z</time>
      </trkpt>
      <trkpt lat="42.1380540" lon="-8.6913080">
        <ele>559.4</ele>
        <time>2018-09-29T08:44:15Z</time>
      </trkpt>
      <trkpt lat="42.1381030" lon="-8.6912700">
        <ele>559.2</ele>
        <time>2018-09-29T08:44:16Z</time>
      </trkpt>
      <trkpt lat="42.1382640" lon="-8.6911680">
        <ele>558.6</ele>
        <time>2018-09-29T08:44:19Z</time>
      </trkpt>
      <trkpt lat="42.1384430" lon="-8.6910970">
        <ele>558.0</ele>
        <time>2018-09-29T08:44:22Z</time>
      </trkpt>
      <trkpt lat="42.1386060" lon="-8.6910010">
        <ele>557.0</ele>
        <time>2018-09-29T08:44:25Z</time>
      </trkpt>
      <trkpt lat="42.1387260" lon="-8.6909220">
        <ele>555.8</ele>
        <time>2018-09-29T08:44:28Z</time>
      </trkpt>
      <trkpt lat="42.1387850" lon="-8.6908850">
        <ele>554.8</ele>
        <time>2018-09-29T08:44:30Z</time>
      </trkpt>
      <trkpt lat="42.1388440" lon="-8.6908650">
        <ele>553.6</ele>
        <time>2018-09-29T08:44:32Z</time>
      </trkpt>
      <trkpt lat="42.1388920" lon="-8.6908630">
        <ele>552.6</ele>
        <time>2018-09-29T08:44:34Z</time>
      </trkpt>
      <trkpt lat="42.1389120" lon="-8.6908800">
        <ele>552.2</ele>
        <time>2018-09-29T08:44:35Z</time>
      </trkpt>
      <trkpt lat="42.1389500" lon="-8.6909270">
        <ele>551.4</ele>
        <time>2018-09-29T08:44:37Z</time>
      </trkpt>
      <trkpt lat="42.1390270" lon="-8.6910210">
        <ele>550.8</ele>
        <time>2018-09-29T08:44:41Z</time>
      </trkpt>
      <trkpt lat="42.1390990" lon="-8.6910710">
        <ele>550.2</ele>
        <time>2018-09-29T08:44:44Z</time>
      </trkpt>
      <trkpt lat="42.1391800" lon="-8.6911510">
        <ele>549.8</ele>
        <time>2018-09-29T08:44:47Z</time>
      </trkpt>
      <trkpt lat="42.1393480" lon="-8.6913750">
        <ele>549.2</ele>
        <time>2018-09-29T08:44:52Z</time>
      </trkpt>
      <trkpt lat="42.1395370" lon="-8.6916310">
        <ele>548.0</ele>
        <time>2018-09-29T08:44:57Z</time>
      </trkpt>
      <trkpt lat="42.1396550" lon="-8.6918090">
        <ele>547.0</ele>
        <time>2018-09-29T08:45:00Z</time>
      </trkpt>
      <trkpt lat="42.1397340" lon="-8.6919300">
        <ele>545.6</ele>
        <time>2018-09-29T08:45:02Z</time>
      </trkpt>
      <trkpt lat="42.1398610" lon="-8.6921200">
        <ele>544.6</ele>
        <time>2018-09-29T08:45:05Z</time>
      </trkpt>
      <trkpt lat="42.1399410" lon="-8.6922690">
        <ele>543.6</ele>
        <time>2018-09-29T08:45:07Z</time>
      </trkpt>
      <trkpt lat="42.1399790" lon="-8.6923480">
        <ele>543.4</ele>
        <time>2018-09-29T08:45:08Z</time>
      </trkpt>
      <trkpt lat="42.1400910" lon="-8.6925980">
        <ele>542.0</ele>
        <time>2018-09-29T08:45:11Z</time>
      </trkpt>
      <trkpt lat="42.1402120" lon="-8.6928760">
        <ele>541.0</ele>
        <time>2018-09-29T08:45:14Z</time>
      </trkpt>
      <trkpt lat="42.1402970" lon="-8.6930680">
        <ele>540.2</ele>
        <time>2018-09-29T08:45:16Z</time>
      </trkpt>
      <trkpt lat="42.1403410" lon="-8.6931600">
        <ele>539.6</ele>
        <time>2018-09-29T08:45:17Z</time>
      </trkpt>
      <trkpt lat="42.1404680" lon="-8.6934120">
        <ele>537.8</ele>
        <time>2018-09-29T08:45:20Z</time>
      </trkpt>
      <trkpt lat="42.1405560" lon="-8.6935610">
        <ele>536.2</ele>
        <time>2018-09-29T08:45:22Z</time>
      </trkpt>
      <trkpt lat="42.1406060" lon="-8.6936210">
        <ele>534.0</ele>
        <time>2018-09-29T08:45:23Z</time>
      </trkpt>
      <trkpt lat="42.1407240" lon="-8.6937170">
        <ele>532.2</ele>
        <time>2018-09-29T08:45:25Z</time>
      </trkpt>
      <trkpt lat="42.1408610" lon="-8.6937890">
        <ele>530.6</ele>
        <time>2018-09-29T08:45:27Z</time>
      </trkpt>
      <trkpt lat="42.1410010" lon="-8.6938500">
        <ele>529.4</ele>
        <time>2018-09-29T08:45:29Z</time>
      </trkpt>
      <trkpt lat="42.1411400" lon="-8.6939150">
        <ele>528.2</ele>
        <time>2018-09-29T08:45:31Z</time>
      </trkpt>
      <trkpt lat="42.1412760" lon="-8.6940050">
        <ele>527.0</ele>
        <time>2018-09-29T08:45:33Z</time>
      </trkpt>
      <trkpt lat="42.1413410" lon="-8.6940500">
        <ele>526.0</ele>
        <time>2018-09-29T08:45:34Z</time>
      </trkpt>
      <trkpt lat="42.1414500" lon="-8.6941250">
        <ele>523.6</ele>
        <time>2018-09-29T08:45:36Z</time>
      </trkpt>
      <trkpt lat="42.1414950" lon="-8.6941370">
        <ele>522.4</ele>
        <time>2018-09-29T08:45:37Z</time>
      </trkpt>
      <trkpt lat="42.1415400" lon="-8.6941280">
        <ele>521.0</ele>
        <time>2018-09-29T08:45:38Z</time>
      </trkpt>
      <trkpt lat="42.1415840" lon="-8.6941090">
        <ele>519.6</ele>
        <time>2018-09-29T08:45:39Z</time>
      </trkpt>
      <trkpt lat="42.1416220" lon="-8.6940880">
        <ele>518.8</ele>
        <time>2018-09-29T08:45:40Z</time>
      </trkpt>
      <trkpt lat="42.1416530" lon="-8.6940760">
        <ele>517.8</ele>
        <time>2018-09-29T08:45:41Z</time>
      </trkpt>
      <trkpt lat="42.1416830" lon="-8.6940780">
        <ele>516.8</ele>
        <time>2018-09-29T08:45:42Z</time>
      </trkpt>
      <trkpt lat="42.1417070" lon="-8.6940920">
        <ele>515.8</ele>
        <time>2018-09-29T08:45:43Z</time>
      </trkpt>
      <trkpt lat="42.1417400" lon="-8.6941510">
        <ele>514.4</ele>
        <time>2018-09-29T08:45:45Z</time>
      </trkpt>
      <trkpt lat="42.1417720" lon="-8.6942350">
        <ele>512.8</ele>
        <time>2018-09-29T08:45:47Z</time>
      </trkpt>
      <trkpt lat="42.1417920" lon="-8.6942840">
        <ele>512.2</ele>
        <time>2018-09-29T08:45:48Z</time>
      </trkpt>
      <trkpt lat="42.1418270" lon="-8.6943810">
        <ele>511.8</ele>
        <time>2018-09-29T08:45:50Z</time>
      </trkpt>
      <trkpt lat="42.1419160" lon="-8.6946370">
        <ele>511.4</ele>
        <time>2018-09-29T08:45:56Z</time>
      </trkpt>
      <trkpt lat="42.1419830" lon="-8.6948260">
        <ele>511.4</ele>
        <time>2018-09-29T08:46:00Z</time>
      </trkpt>
      <trkpt lat="42.1420390" lon="-8.6950210">
        <ele>511.8</ele>
        <time>2018-09-29T08:46:04Z</time>
      </trkpt>
      <trkpt lat="42.1421070" lon="-8.6952220">
        <ele>512.6</ele>
        <time>2018-09-29T08:46:08Z</time>
      </trkpt>
      <trkpt lat="42.1421280" lon="-8.6952710">
        <ele>512.8</ele>
        <time>2018-09-29T08:46:09Z</time>
      </trkpt>
      <trkpt lat="42.1422190" lon="-8.6954600">
        <ele>513.4</ele>
        <time>2018-09-29T08:46:13Z</time>
      </trkpt>
      <trkpt lat="42.1422830" lon="-8.6955910">
        <ele>513.8</ele>
        <time>2018-09-29T08:46:16Z</time>
      </trkpt>
      <trkpt lat="42.1423420" lon="-8.6957150">
        <ele>514.2</ele>
        <time>2018-09-29T08:46:19Z</time>
      </trkpt>
      <trkpt lat="42.1424210" lon="-8.6958710">
        <ele>514.8</ele>
        <time>2018-09-29T08:46:23Z</time>
      </trkpt>
      <trkpt lat="42.1424410" lon="-8.6959050">
        <ele>515.0</ele>
        <time>2018-09-29T08:46:24Z</time>
      </trkpt>
      <trkpt lat="42.1425600" lon="-8.6961340">
        <ele>516.0</ele>
        <time>2018-09-29T08:46:30Z</time>
      </trkpt>
      <trkpt lat="42.1425790" lon="-8.6961730">
        <ele>516.4</ele>
        <time>2018-09-29T08:46:31Z</time>
      </trkpt>
      <trkpt lat="42.1426720" lon="-8.6963530">
        <ele>517.6</ele>
        <time>2018-09-29T08:46:36Z</time>
      </trkpt>
      <trkpt lat="42.1428110" lon="-8.6966700">
        <ele>518.6</ele>
        <time>2018-09-29T08:46:44Z</time>
      </trkpt>
      <trkpt lat="42.1429250" lon="-8.6969350">
        <ele>519.2</ele>
        <time>2018-09-29T08:46:50Z</time>
      </trkpt>
      <trkpt lat="42.1430150" lon="-8.6971180">
        <ele>519.6</ele>
        <time>2018-09-29T08:46:54Z</time>
      </trkpt>
      <trkpt lat="42.1432160" lon="-8.6975470">
        <ele>520.2</ele>
        <time>2018-09-29T08:47:03Z</time>
      </trkpt>
      <trkpt lat="42.1433050" lon="-8.6977350">
        <ele>520.8</ele>
        <time>2018-09-29T08:47:07Z</time>
      </trkpt>
      <trkpt lat="42.1433280" lon="-8.6977810">
        <ele>521.0</ele>
        <time>2018-09-29T08:47:08Z</time>
      </trkpt>
      <trkpt lat="42.1434070" lon="-8.6979780">
        <ele>521.4</ele>
        <time>2018-09-29T08:47:12Z</time>
      </trkpt>
      <trkpt lat="42.1434940" lon="-8.6981660">
        <ele>522.0</ele>
        <time>2018-09-29T08:47:16Z</time>
      </trkpt>
      <trkpt lat="42.1435450" lon="-8.6982530">
        <ele>522.4</ele>
        <time>2018-09-29T08:47:18Z</time>
      </trkpt>
      <trkpt lat="42.1436750" lon="-8.6985380">
        <ele>523.0</ele>
        <time>2018-09-29T08:47:24Z</time>
      </trkpt>
      <trkpt lat="42.1436950" lon="-8.6985910">
        <ele>523.2</ele>
        <time>2018-09-29T08:47:25Z</time>
      </trkpt>
      <trkpt lat="42.1437430" lon="-8.6988270">
        <ele>523.6</ele>
        <time>2018-09-29T08:47:29Z</time>
      </trkpt>
      <trkpt lat="42.1437300" lon="-8.6990770">
        <ele>523.6</ele>
        <time>2018-09-29T08:47:33Z</time>
      </trkpt>
      <trkpt lat="42.1437190" lon="-8.6991370">
        <ele>523.6</ele>
        <time>2018-09-29T08:47:34Z</time>
      </trkpt>
      <trkpt lat="42.1436490" lon="-8.6993830">
        <ele>523.6</ele>
        <time>2018-09-29T08:47:38Z</time>
      </trkpt>
      <trkpt lat="42.1435950" lon="-8.6995770">
        <ele>523.2</ele>
        <time>2018-09-29T08:47:41Z</time>
      </trkpt>
      <trkpt lat="42.1435800" lon="-8.6998460">
        <ele>523.0</ele>
        <time>2018-09-29T08:47:45Z</time>
      </trkpt>
      <trkpt lat="42.1436880" lon="-8.7003390">
        <ele>522.4</ele>
        <time>2018-09-29T08:47:53Z</time>
      </trkpt>
      <trkpt lat="42.1437370" lon="-8.7004420">
        <ele>522.2</ele>
        <time>2018-09-29T08:47:55Z</time>
      </trkpt>
      <trkpt lat="42.1438730" lon="-8.7007000">
        <ele>522.2</ele>
        <time>2018-09-29T08:48:00Z</time>
      </trkpt>
      <trkpt lat="42.1439880" lon="-8.7008900">
        <ele>522.2</ele>
        <time>2018-09-29T08:48:04Z</time>
      </trkpt>
      <trkpt lat="42.1440440" lon="-8.7010720">
        <ele>522.2</ele>
        <time>2018-09-29T08:48:07Z</time>
      </trkpt>
      <trkpt lat="42.1440640" lon="-8.7011300">
        <ele>522.2</ele>
        <time>2018-09-29T08:48:08Z</time>
      </trkpt>
      <trkpt lat="42.1440820" lon="-8.7011890">
        <ele>522.0</ele>
        <time>2018-09-29T08:48:09Z</time>
      </trkpt>
      <trkpt lat="42.1441170" lon="-8.7015280">
        <ele>521.6</ele>
        <time>2018-09-29T08:48:14Z</time>
      </trkpt>
      <trkpt lat="42.1441140" lon="-8.7016030">
        <ele>520.4</ele>
        <time>2018-09-29T08:48:15Z</time>
      </trkpt>
      <trkpt lat="42.1441130" lon="-8.7016800">
        <ele>520.2</ele>
        <time>2018-09-29T08:48:16Z</time>
      </trkpt>
      <trkpt lat="42.1441050" lon="-8.7018420">
        <ele>519.6</ele>
        <time>2018-09-29T08:48:18Z</time>
      </trkpt>
      <trkpt lat="42.1441050" lon="-8.7021860">
        <ele>518.6</ele>
        <time>2018-09-29T08:48:22Z</time>
      </trkpt>
      <trkpt lat="42.1441160" lon="-8.7026350">
        <ele>517.2</ele>
        <time>2018-09-29T08:48:27Z</time>
      </trkpt>
      <trkpt lat="42.1441130" lon="-8.7027290">
        <ele>516.8</ele>
        <time>2018-09-29T08:48:28Z</time>
      </trkpt>
      <trkpt lat="42.1440850" lon="-8.7030000">
        <ele>515.8</ele>
        <time>2018-09-29T08:48:31Z</time>
      </trkpt>
      <trkpt lat="42.1440850" lon="-8.7030920">
        <ele>515.8</ele>
        <time>2018-09-29T08:48:32Z</time>
      </trkpt>
      <trkpt lat="42.1440910" lon="-8.7032780">
        <ele>515.4</ele>
        <time>2018-09-29T08:48:34Z</time>
      </trkpt>
      <trkpt lat="42.1441000" lon="-8.7033730">
        <ele>514.8</ele>
        <time>2018-09-29T08:48:35Z</time>
      </trkpt>
      <trkpt lat="42.1441120" lon="-8.7037480">
        <ele>513.8</ele>
        <time>2018-09-29T08:48:39Z</time>
      </trkpt>
      <trkpt lat="42.1441090" lon="-8.7039210">
        <ele>512.6</ele>
        <time>2018-09-29T08:48:41Z</time>
      </trkpt>
      <trkpt lat="42.1441040" lon="-8.7042240">
        <ele>511.6</ele>
        <time>2018-09-29T08:48:45Z</time>
      </trkpt>
      <trkpt lat="42.1440880" lon="-8.7045020">
        <ele>510.8</ele>
        <time>2018-09-29T08:48:49Z</time>
      </trkpt>
      <trkpt lat="42.1440900" lon="-8.7048730">
        <ele>510.8</ele>
        <time>2018-09-29T08:48:55Z</time>
      </trkpt>
      <trkpt lat="42.1441220" lon="-8.7051670">
        <ele>511.0</ele>
        <time>2018-09-29T08:49:00Z</time>
      </trkpt>
      <trkpt lat="42.1441440" lon="-8.7055540">
        <ele>511.2</ele>
        <time>2018-09-29T08:49:06Z</time>
      </trkpt>
      <trkpt lat="42.1441540" lon="-8.7058400">
        <ele>511.2</ele>
        <time>2018-09-29T08:49:10Z</time>
      </trkpt>
      <trkpt lat="42.1441680" lon="-8.7063010">
        <ele>510.6</ele>
        <time>2018-09-29T08:49:16Z</time>
      </trkpt>
      <trkpt lat="42.1442070" lon="-8.7069510">
        <ele>509.6</ele>
        <time>2018-09-29T08:49:24Z</time>
      </trkpt>
      <trkpt lat="42.1442090" lon="-8.7072870">
        <ele>508.2</ele>
        <time>2018-09-29T08:49:28Z</time>
      </trkpt>
      <trkpt lat="42.1441830" lon="-8.7075360">
        <ele>507.6</ele>
        <time>2018-09-29T08:49:31Z</time>
      </trkpt>
      <trkpt lat="42.1441770" lon="-8.7077060">
        <ele>507.4</ele>
        <time>2018-09-29T08:49:33Z</time>
      </trkpt>
      <trkpt lat="42.1441520" lon="-8.7079490">
        <ele>507.0</ele>
        <time>2018-09-29T08:49:36Z</time>
      </trkpt>
      <trkpt lat="42.1441230" lon="-8.7081040">
        <ele>506.6</ele>
        <time>2018-09-29T08:49:38Z</time>
      </trkpt>
      <trkpt lat="42.1441020" lon="-8.7082580">
        <ele>506.2</ele>
        <time>2018-09-29T08:49:40Z</time>
      </trkpt>
      <trkpt lat="42.1439930" lon="-8.7087120">
        <ele>505.2</ele>
        <time>2018-09-29T08:49:46Z</time>
      </trkpt>
      <trkpt lat="42.1439650" lon="-8.7087880">
        <ele>504.8</ele>
        <time>2018-09-29T08:49:47Z</time>
      </trkpt>
      <trkpt lat="42.1438880" lon="-8.7089240">
        <ele>504.0</ele>
        <time>2018-09-29T08:49:49Z</time>
      </trkpt>
      <trkpt lat="42.1437530" lon="-8.7091190">
        <ele>503.0</ele>
        <time>2018-09-29T08:49:52Z</time>
      </trkpt>
      <trkpt lat="42.1436050" lon="-8.7093030">
        <ele>501.8</ele>
        <time>2018-09-29T08:49:55Z</time>
      </trkpt>
      <trkpt lat="42.1435040" lon="-8.7094330">
        <ele>500.4</ele>
        <time>2018-09-29T08:49:57Z</time>
      </trkpt>
      <trkpt lat="42.1433920" lon="-8.7095530">
        <ele>499.2</ele>
        <time>2018-09-29T08:49:59Z</time>
      </trkpt>
      <trkpt lat="42.1432140" lon="-8.7097010">
        <ele>497.4</ele>
        <time>2018-09-29T08:50:02Z</time>
      </trkpt>
      <trkpt lat="42.1430920" lon="-8.7097670">
        <ele>496.4</ele>
        <time>2018-09-29T08:50:04Z</time>
      </trkpt>
      <trkpt lat="42.1430360" lon="-8.7098040">
        <ele>496.0</ele>
        <time>2018-09-29T08:50:05Z</time>
      </trkpt>
      <trkpt lat="42.1428910" lon="-8.7099490">
        <ele>495.4</ele>
        <time>2018-09-29T08:50:08Z</time>
      </trkpt>
      <trkpt lat="42.1428050" lon="-8.7100740">
        <ele>495.0</ele>
        <time>2018-09-29T08:50:10Z</time>
      </trkpt>
      <trkpt lat="42.1427120" lon="-8.7101910">
        <ele>494.6</ele>
        <time>2018-09-29T08:50:12Z</time>
      </trkpt>
      <trkpt lat="42.1426110" lon="-8.7102850">
        <ele>494.4</ele>
        <time>2018-09-29T08:50:14Z</time>
      </trkpt>
      <trkpt lat="42.1425620" lon="-8.7103290">
        <ele>494.2</ele>
        <time>2018-09-29T08:50:15Z</time>
      </trkpt>
      <trkpt lat="42.1423720" lon="-8.7104670">
        <ele>494.0</ele>
        <time>2018-09-29T08:50:19Z</time>
      </trkpt>
      <trkpt lat="42.1423230" lon="-8.7104910">
        <ele>493.8</ele>
        <time>2018-09-29T08:50:20Z</time>
      </trkpt>
      <trkpt lat="42.1422240" lon="-8.7105300">
        <ele>493.8</ele>
        <time>2018-09-29T08:50:22Z</time>
      </trkpt>
      <trkpt lat="42.1420900" lon="-8.7105790">
        <ele>493.4</ele>
        <time>2018-09-29T08:50:25Z</time>
      </trkpt>
      <trkpt lat="42.1420500" lon="-8.7106010">
        <ele>493.4</ele>
        <time>2018-09-29T08:50:26Z</time>
      </trkpt>
      <trkpt lat="42.1418930" lon="-8.7106540">
        <ele>493.0</ele>
        <time>2018-09-29T08:50:31Z</time>
      </trkpt>
      <trkpt lat="42.1418620" lon="-8.7106290">
        <ele>493.0</ele>
        <time>2018-09-29T08:50:34Z</time>
      </trkpt>
      <trkpt lat="42.1418540" lon="-8.7106450">
        <ele>493.2</ele>
        <time>2018-09-29T08:51:58Z</time>
      </trkpt>
      <trkpt lat="42.1417290" lon="-8.7107280">
        <ele>493.0</ele>
        <time>2018-09-29T08:52:03Z</time>
      </trkpt>
      <trkpt lat="42.1411480" lon="-8.7107920">
        <ele>494.0</ele>
        <time>2018-09-29T08:52:19Z</time>
      </trkpt>
      <trkpt lat="42.1410520" lon="-8.7107920">
        <ele>494.2</ele>
        <time>2018-09-29T08:52:21Z</time>
      </trkpt>
      <trkpt lat="42.1408180" lon="-8.7107610">
        <ele>494.6</ele>
        <time>2018-09-29T08:52:26Z</time>
      </trkpt>
      <trkpt lat="42.1402850" lon="-8.7107880">
        <ele>494.6</ele>
        <time>2018-09-29T08:52:37Z</time>
      </trkpt>
      <trkpt lat="42.1397290" lon="-8.7105850">
        <ele>494.0</ele>
        <time>2018-09-29T08:52:48Z</time>
      </trkpt>
      <trkpt lat="42.1394400" lon="-8.7104810">
        <ele>493.4</ele>
        <time>2018-09-29T08:52:53Z</time>
      </trkpt>
      <trkpt lat="42.1390060" lon="-8.7103240">
        <ele>492.8</ele>
        <time>2018-09-29T08:53:01Z</time>
      </trkpt>
      <trkpt lat="42.1384470" lon="-8.7101930">
        <ele>493.2</ele>
        <time>2018-09-29T08:53:13Z</time>
      </trkpt>
      <trkpt lat="42.1382700" lon="-8.7101220">
        <ele>494.0</ele>
        <time>2018-09-29T08:53:17Z</time>
      </trkpt>
      <trkpt lat="42.1381390" lon="-8.7100550">
        <ele>494.6</ele>
        <time>2018-09-29T08:53:20Z</time>
      </trkpt>
      <trkpt lat="42.1379750" lon="-8.7099450">
        <ele>495.2</ele>
        <time>2018-09-29T08:53:24Z</time>
      </trkpt>
      <trkpt lat="42.1376600" lon="-8.7097480">
        <ele>496.2</ele>
        <time>2018-09-29T08:53:32Z</time>
      </trkpt>
      <trkpt lat="42.1373760" lon="-8.7096000">
        <ele>496.8</ele>
        <time>2018-09-29T08:53:39Z</time>
      </trkpt>
      <trkpt lat="42.1371520" lon="-8.7096160">
        <ele>497.4</ele>
        <time>2018-09-29T08:53:44Z</time>
      </trkpt>
      <trkpt lat="42.1367570" lon="-8.7097710">
        <ele>497.8</ele>
        <time>2018-09-29T08:53:53Z</time>
      </trkpt>
      <trkpt lat="42.1365450" lon="-8.7096770">
        <ele>498.0</ele>
        <time>2018-09-29T08:54:00Z</time>
      </trkpt>
      <trkpt lat="42.1364050" lon="-8.7094960">
        <ele>498.4</ele>
        <time>2018-09-29T08:54:07Z</time>
      </trkpt>
      <trkpt lat="42.1363030" lon="-8.7093580">
        <ele>499.6</ele>
        <time>2018-09-29T08:54:12Z</time>
      </trkpt>
      <trkpt lat="42.1362230" lon="-8.7092530">
        <ele>500.8</ele>
        <time>2018-09-29T08:54:16Z</time>
      </trkpt>
      <trkpt lat="42.1361240" lon="-8.7091280">
        <ele>502.0</ele>
        <time>2018-09-29T08:54:21Z</time>
      </trkpt>
      <trkpt lat="42.1360430" lon="-8.7090320">
        <ele>503.2</ele>
        <time>2018-09-29T08:54:25Z</time>
      </trkpt>
      <trkpt lat="42.1359400" lon="-8.7089090">
        <ele>504.2</ele>
        <time>2018-09-29T08:54:30Z</time>
      </trkpt>
      <trkpt lat="42.1358990" lon="-8.7088600">
        <ele>505.4</ele>
        <time>2018-09-29T08:54:32Z</time>
      </trkpt>
      <trkpt lat="42.1358150" lon="-8.7087610">
        <ele>506.6</ele>
        <time>2018-09-29T08:54:36Z</time>
      </trkpt>
      <trkpt lat="42.1357510" lon="-8.7086950">
        <ele>507.8</ele>
        <time>2018-09-29T08:54:39Z</time>
      </trkpt>
      <trkpt lat="42.1356840" lon="-8.7086270">
        <ele>508.8</ele>
        <time>2018-09-29T08:54:42Z</time>
      </trkpt>
      <trkpt lat="42.1355910" lon="-8.7085140">
        <ele>510.2</ele>
        <time>2018-09-29T08:54:46Z</time>
      </trkpt>
      <trkpt lat="42.1354740" lon="-8.7083610">
        <ele>511.4</ele>
        <time>2018-09-29T08:54:51Z</time>
      </trkpt>
      <trkpt lat="42.1352090" lon="-8.7080270">
        <ele>512.4</ele>
        <time>2018-09-29T08:55:02Z</time>
      </trkpt>
      <trkpt lat="42.1350060" lon="-8.7077830">
        <ele>513.6</ele>
        <time>2018-09-29T08:55:11Z</time>
      </trkpt>
      <trkpt lat="42.1348250" lon="-8.7075500">
        <ele>514.6</ele>
        <time>2018-09-29T08:55:20Z</time>
      </trkpt>
      <trkpt lat="42.1347430" lon="-8.7074020">
        <ele>515.6</ele>
        <time>2018-09-29T08:55:25Z</time>
      </trkpt>
      <trkpt lat="42.1346770" lon="-8.7072850">
        <ele>516.6</ele>
        <time>2018-09-29T08:55:29Z</time>
      </trkpt>
      <trkpt lat="42.1345870" lon="-8.7071420">
        <ele>517.8</ele>
        <time>2018-09-29T08:55:34Z</time>
      </trkpt>
      <trkpt lat="42.1344670" lon="-8.7069880">
        <ele>518.8</ele>
        <time>2018-09-29T08:55:40Z</time>
      </trkpt>
      <trkpt lat="42.1343840" lon="-8.7068900">
        <ele>520.0</ele>
        <time>2018-09-29T08:55:44Z</time>
      </trkpt>
      <trkpt lat="42.1342500" lon="-8.7067520">
        <ele>521.2</ele>
        <time>2018-09-29T08:55:50Z</time>
      </trkpt>
      <trkpt lat="42.1341290" lon="-8.7066510">
        <ele>522.4</ele>
        <time>2018-09-29T08:55:55Z</time>
      </trkpt>
      <trkpt lat="42.1339370" lon="-8.7064820">
        <ele>523.4</ele>
        <time>2018-09-29T08:56:03Z</time>
      </trkpt>
      <trkpt lat="42.1338110" lon="-8.7063450">
        <ele>524.4</ele>
        <time>2018-09-29T08:56:10Z</time>
      </trkpt>
      <trkpt lat="42.1337910" lon="-8.7063000">
        <ele>525.0</ele>
        <time>2018-09-29T08:56:13Z</time>
      </trkpt>
      <trkpt lat="42.1337450" lon="-8.7062300">
        <ele>525.8</ele>
        <time>2018-09-29T08:56:17Z</time>
      </trkpt>
      <trkpt lat="42.1336640" lon="-8.7060990">
        <ele>527.0</ele>
        <time>2018-09-29T08:56:24Z</time>
      </trkpt>
      <trkpt lat="42.1335890" lon="-8.7059340">
        <ele>528.2</ele>
        <time>2018-09-29T08:56:31Z</time>
      </trkpt>
      <trkpt lat="42.1335390" lon="-8.7058410">
        <ele>529.4</ele>
        <time>2018-09-29T08:56:35Z</time>
      </trkpt>
      <trkpt lat="42.1334850" lon="-8.7057560">
        <ele>530.6</ele>
        <time>2018-09-29T08:56:39Z</time>
      </trkpt>
      <trkpt lat="42.1334310" lon="-8.7056750">
        <ele>531.8</ele>
        <time>2018-09-29T08:56:43Z</time>
      </trkpt>
      <trkpt lat="42.1333800" lon="-8.7055980">
        <ele>532.8</ele>
        <time>2018-09-29T08:56:47Z</time>
      </trkpt>
      <trkpt lat="42.1333670" lon="-8.7055800">
        <ele>533.0</ele>
        <time>2018-09-29T08:56:48Z</time>
      </trkpt>
      <trkpt lat="42.1333250" lon="-8.7055330">
        <ele>534.4</ele>
        <time>2018-09-29T08:56:51Z</time>
      </trkpt>
      <trkpt lat="42.1332960" lon="-8.7055020">
        <ele>535.0</ele>
        <time>2018-09-29T08:56:53Z</time>
      </trkpt>
      <trkpt lat="42.1332860" lon="-8.7054810">
        <ele>535.4</ele>
        <time>2018-09-29T08:56:54Z</time>
      </trkpt>
      <trkpt lat="42.1332500" lon="-8.7054220">
        <ele>536.4</ele>
        <time>2018-09-29T08:56:57Z</time>
      </trkpt>
      <trkpt lat="42.1332080" lon="-8.7053350">
        <ele>537.6</ele>
        <time>2018-09-29T08:57:01Z</time>
      </trkpt>
      <trkpt lat="42.1331650" lon="-8.7052380">
        <ele>538.6</ele>
        <time>2018-09-29T08:57:05Z</time>
      </trkpt>
      <trkpt lat="42.1331270" lon="-8.7051330">
        <ele>539.8</ele>
        <time>2018-09-29T08:57:09Z</time>
      </trkpt>
      <trkpt lat="42.1330660" lon="-8.7049840">
        <ele>540.8</ele>
        <time>2018-09-29T08:57:15Z</time>
      </trkpt>
      <trkpt lat="42.1329820" lon="-8.7048320">
        <ele>542.0</ele>
        <time>2018-09-29T08:57:22Z</time>
      </trkpt>
      <trkpt lat="42.1329480" lon="-8.7047320">
        <ele>543.4</ele>
        <time>2018-09-29T08:57:26Z</time>
      </trkpt>
      <trkpt lat="42.1329190" lon="-8.7045990">
        <ele>544.6</ele>
        <time>2018-09-29T08:57:31Z</time>
      </trkpt>
      <trkpt lat="42.1329030" lon="-8.7044550">
        <ele>546.0</ele>
        <time>2018-09-29T08:57:36Z</time>
      </trkpt>
      <trkpt lat="42.1328360" lon="-8.7043100">
        <ele>547.2</ele>
        <time>2018-09-29T08:57:42Z</time>
      </trkpt>
      <trkpt lat="42.1327790" lon="-8.7041350">
        <ele>548.2</ele>
        <time>2018-09-29T08:57:49Z</time>
      </trkpt>
      <trkpt lat="42.1327550" lon="-8.7040400">
        <ele>549.2</ele>
        <time>2018-09-29T08:57:53Z</time>
      </trkpt>
      <trkpt lat="42.1327080" lon="-8.7038930">
        <ele>550.4</ele>
        <time>2018-09-29T08:57:58Z</time>
      </trkpt>
      <trkpt lat="42.1326180" lon="-8.7035370">
        <ele>550.6</ele>
        <time>2018-09-29T08:58:05Z</time>
      </trkpt>
      <trkpt lat="42.1325970" lon="-8.7032210">
        <ele>550.2</ele>
        <time>2018-09-29T08:58:09Z</time>
      </trkpt>
      <trkpt lat="42.1326010" lon="-8.7029450">
        <ele>549.6</ele>
        <time>2018-09-29T08:58:12Z</time>
      </trkpt>
      <trkpt lat="42.1325950" lon="-8.7028580">
        <ele>549.2</ele>
        <time>2018-09-29T08:58:13Z</time>
      </trkpt>
      <trkpt lat="42.1325750" lon="-8.7026310">
        <ele>548.2</ele>
        <time>2018-09-29T08:58:16Z</time>
      </trkpt>
      <trkpt lat="42.1325620" lon="-8.7024930">
        <ele>547.0</ele>
        <time>2018-09-29T08:58:18Z</time>
      </trkpt>
      <trkpt lat="42.1325510" lon="-8.7023180">
        <ele>546.0</ele>
        <time>2018-09-29T08:58:21Z</time>
      </trkpt>
      <trkpt lat="42.1325410" lon="-8.7021410">
        <ele>545.8</ele>
        <time>2018-09-29T08:58:25Z</time>
      </trkpt>
      <trkpt lat="42.1325290" lon="-8.7020700">
        <ele>545.8</ele>
        <time>2018-09-29T08:58:27Z</time>
      </trkpt>
      <trkpt lat="42.1324610" lon="-8.7015920">
        <ele>546.2</ele>
        <time>2018-09-29T08:58:37Z</time>
      </trkpt>
      <trkpt lat="42.1323140" lon="-8.7013910">
        <ele>546.2</ele>
        <time>2018-09-29T08:58:41Z</time>
      </trkpt>
      <trkpt lat="42.1322730" lon="-8.7013420">
        <ele>546.2</ele>
        <time>2018-09-29T08:58:42Z</time>
      </trkpt>
      <trkpt lat="42.1318740" lon="-8.7012930">
        <ele>545.2</ele>
        <time>2018-09-29T08:58:49Z</time>
      </trkpt>
      <trkpt lat="42.1318100" lon="-8.7013230">
        <ele>544.8</ele>
        <time>2018-09-29T08:58:50Z</time>
      </trkpt>
      <trkpt lat="42.1314570" lon="-8.7013880">
        <ele>543.6</ele>
        <time>2018-09-29T08:58:55Z</time>
      </trkpt>
      <trkpt lat="42.1312150" lon="-8.7014370">
        <ele>542.2</ele>
        <time>2018-09-29T08:58:58Z</time>
      </trkpt>
      <trkpt lat="42.1309510" lon="-8.7015050">
        <ele>540.8</ele>
        <time>2018-09-29T08:59:01Z</time>
      </trkpt>
      <trkpt lat="42.1306880" lon="-8.7015850">
        <ele>539.4</ele>
        <time>2018-09-29T08:59:04Z</time>
      </trkpt>
      <trkpt lat="42.1304430" lon="-8.7016530">
        <ele>538.4</ele>
        <time>2018-09-29T08:59:07Z</time>
      </trkpt>
      <trkpt lat="42.1302950" lon="-8.7017010">
        <ele>537.0</ele>
        <time>2018-09-29T08:59:09Z</time>
      </trkpt>
      <trkpt lat="42.1302300" lon="-8.7017250">
        <ele>535.4</ele>
        <time>2018-09-29T08:59:10Z</time>
      </trkpt>
      <trkpt lat="42.1300590" lon="-8.7017790">
        <ele>534.2</ele>
        <time>2018-09-29T08:59:13Z</time>
      </trkpt>
      <trkpt lat="42.1296680" lon="-8.7018400">
        <ele>534.0</ele>
        <time>2018-09-29T08:59:24Z</time>
      </trkpt>
      <trkpt lat="42.1296240" lon="-8.7018480">
        <ele>534.0</ele>
        <time>2018-09-29T08:59:26Z</time>
      </trkpt>
      <trkpt lat="42.1295570" lon="-8.7018830">
        <ele>534.4</ele>
        <time>2018-09-29T08:59:29Z</time>
      </trkpt>
      <trkpt lat="42.1295070" lon="-8.7018980">
        <ele>534.8</ele>
        <time>2018-09-29T08:59:31Z</time>
      </trkpt>
      <trkpt lat="42.1294550" lon="-8.7019110">
        <ele>535.2</ele>
        <time>2018-09-29T08:59:33Z</time>
      </trkpt>
      <trkpt lat="42.1294250" lon="-8.7019150">
        <ele>535.6</ele>
        <time>2018-09-29T08:59:34Z</time>
      </trkpt>
      <trkpt lat="42.1293390" lon="-8.7019160">
        <ele>536.6</ele>
        <time>2018-09-29T08:59:37Z</time>
      </trkpt>
      <trkpt lat="42.1292090" lon="-8.7019320">
        <ele>537.8</ele>
        <time>2018-09-29T08:59:41Z</time>
      </trkpt>
      <trkpt lat="42.1290740" lon="-8.7019490">
        <ele>538.6</ele>
        <time>2018-09-29T08:59:45Z</time>
      </trkpt>
      <trkpt lat="42.1290030" lon="-8.7019490">
        <ele>538.8</ele>
        <time>2018-09-29T08:59:47Z</time>
      </trkpt>
      <trkpt lat="42.1287990" lon="-8.7019510">
        <ele>539.8</ele>
        <time>2018-09-29T08:59:53Z</time>
      </trkpt>
      <trkpt lat="42.1287380" lon="-8.7019580">
        <ele>539.8</ele>
        <time>2018-09-29T08:59:55Z</time>
      </trkpt>
      <trkpt lat="42.1283950" lon="-8.7020590">
        <ele>541.0</ele>
        <time>2018-09-29T09:00:07Z</time>
      </trkpt>
      <trkpt lat="42.1282070" lon="-8.7020400">
        <ele>542.2</ele>
        <time>2018-09-29T09:00:14Z</time>
      </trkpt>
      <trkpt lat="42.1280650" lon="-8.7020770">
        <ele>543.2</ele>
        <time>2018-09-29T09:00:18Z</time>
      </trkpt>
      <trkpt lat="42.1280240" lon="-8.7020990">
        <ele>543.4</ele>
        <time>2018-09-29T09:00:19Z</time>
      </trkpt>
      <trkpt lat="42.1277360" lon="-8.7022130">
        <ele>543.6</ele>
        <time>2018-09-29T09:00:25Z</time>
      </trkpt>
      <trkpt lat="42.1274850" lon="-8.7021590">
        <ele>543.0</ele>
        <time>2018-09-29T09:00:30Z</time>
      </trkpt>
      <trkpt lat="42.1274110" lon="-8.7021100">
        <ele>542.6</ele>
        <time>2018-09-29T09:00:32Z</time>
      </trkpt>
      <trkpt lat="42.1272850" lon="-8.7019900">
        <ele>542.2</ele>
        <time>2018-09-29T09:00:36Z</time>
      </trkpt>
      <trkpt lat="42.1271240" lon="-8.7017400">
        <ele>542.4</ele>
        <time>2018-09-29T09:00:42Z</time>
      </trkpt>
      <trkpt lat="42.1269360" lon="-8.7015200">
        <ele>543.0</ele>
        <time>2018-09-29T09:00:48Z</time>
      </trkpt>
      <trkpt lat="42.1264660" lon="-8.7011410">
        <ele>543.8</ele>
        <time>2018-09-29T09:01:01Z</time>
      </trkpt>
      <trkpt lat="42.1262060" lon="-8.7009340">
        <ele>544.2</ele>
        <time>2018-09-29T09:01:09Z</time>
      </trkpt>
      <trkpt lat="42.1257820" lon="-8.7004250">
        <ele>545.2</ele>
        <time>2018-09-29T09:01:23Z</time>
      </trkpt>
      <trkpt lat="42.1255320" lon="-8.7002710">
        <ele>545.4</ele>
        <time>2018-09-29T09:01:30Z</time>
      </trkpt>
      <trkpt lat="42.1253820" lon="-8.7001960">
        <ele>545.4</ele>
        <time>2018-09-29T09:01:34Z</time>
      </trkpt>
      <trkpt lat="42.1253430" lon="-8.7001790">
        <ele>545.4</ele>
        <time>2018-09-29T09:01:35Z</time>
      </trkpt>
      <trkpt lat="42.1252210" lon="-8.7001500">
        <ele>545.2</ele>
        <time>2018-09-29T09:01:38Z</time>
      </trkpt>
      <trkpt lat="42.1251000" lon="-8.7000940">
        <ele>545.0</ele>
        <time>2018-09-29T09:01:41Z</time>
      </trkpt>
      <trkpt lat="42.1249790" lon="-8.7000760">
        <ele>544.4</ele>
        <time>2018-09-29T09:01:44Z</time>
      </trkpt>
      <trkpt lat="42.1249440" lon="-8.7000790">
        <ele>544.0</ele>
        <time>2018-09-29T09:01:45Z</time>
      </trkpt>
      <trkpt lat="42.1248670" lon="-8.7001100">
        <ele>542.6</ele>
        <time>2018-09-29T09:01:48Z</time>
      </trkpt>
      <trkpt lat="42.1248340" lon="-8.7001120">
        <ele>541.8</ele>
        <time>2018-09-29T09:01:50Z</time>
      </trkpt>
      <trkpt lat="42.1248220" lon="-8.7001060">
        <ele>541.6</ele>
        <time>2018-09-29T09:01:51Z</time>
      </trkpt>
      <trkpt lat="42.1248070" lon="-8.7001040">
        <ele>540.6</ele>
        <time>2018-09-29T09:01:54Z</time>
      </trkpt>
      <trkpt lat="42.1247350" lon="-8.7001580">
        <ele>538.6</ele>
        <time>2018-09-29T09:06:08Z</time>
      </trkpt>
      <trkpt lat="42.1247110" lon="-8.7001690">
        <ele>538.8</ele>
        <time>2018-09-29T09:06:09Z</time>
      </trkpt>
      <trkpt lat="42.1244380" lon="-8.7002050">
        <ele>537.6</ele>
        <time>2018-09-29T09:06:19Z</time>
      </trkpt>
      <trkpt lat="42.1243380" lon="-8.7001090">
        <ele>536.6</ele>
        <time>2018-09-29T09:06:24Z</time>
      </trkpt>
      <trkpt lat="42.1242160" lon="-8.6998430">
        <ele>537.0</ele>
        <time>2018-09-29T09:06:35Z</time>
      </trkpt>
      <trkpt lat="42.1241360" lon="-8.6996270">
        <ele>537.2</ele>
        <time>2018-09-29T09:06:40Z</time>
      </trkpt>
      <trkpt lat="42.1240630" lon="-8.6994800">
        <ele>537.0</ele>
        <time>2018-09-29T09:06:43Z</time>
      </trkpt>
      <trkpt lat="42.1240190" lon="-8.6993040">
        <ele>535.8</ele>
        <time>2018-09-29T09:06:47Z</time>
      </trkpt>
      <trkpt lat="42.1240100" lon="-8.6992790">
        <ele>535.4</ele>
        <time>2018-09-29T09:06:48Z</time>
      </trkpt>
      <trkpt lat="42.1239950" lon="-8.6992580">
        <ele>535.0</ele>
        <time>2018-09-29T09:06:49Z</time>
      </trkpt>
      <trkpt lat="42.1239780" lon="-8.6992410">
        <ele>534.4</ele>
        <time>2018-09-29T09:06:50Z</time>
      </trkpt>
      <trkpt lat="42.1239410" lon="-8.6992390">
        <ele>533.8</ele>
        <time>2018-09-29T09:06:52Z</time>
      </trkpt>
      <trkpt lat="42.1239120" lon="-8.6992520">
        <ele>533.4</ele>
        <time>2018-09-29T09:06:54Z</time>
      </trkpt>
      <trkpt lat="42.1239020" lon="-8.6992550">
        <ele>532.8</ele>
        <time>2018-09-29T09:06:56Z</time>
      </trkpt>
      <trkpt lat="42.1238570" lon="-8.6992950">
        <ele>530.8</ele>
        <time>2018-09-29T09:07:05Z</time>
      </trkpt>
      <trkpt lat="42.1238170" lon="-8.6993840">
        <ele>530.6</ele>
        <time>2018-09-29T09:07:08Z</time>
      </trkpt>
      <trkpt lat="42.1237780" lon="-8.6995320">
        <ele>529.6</ele>
        <time>2018-09-29T09:07:13Z</time>
      </trkpt>
      <trkpt lat="42.1237500" lon="-8.6996280">
        <ele>528.2</ele>
        <time>2018-09-29T09:07:16Z</time>
      </trkpt>
      <trkpt lat="42.1236870" lon="-8.6996890">
        <ele>527.0</ele>
        <time>2018-09-29T09:07:19Z</time>
      </trkpt>
      <trkpt lat="42.1236170" lon="-8.6996530">
        <ele>525.4</ele>
        <time>2018-09-29T09:07:22Z</time>
      </trkpt>
      <trkpt lat="42.1235900" lon="-8.6995940">
        <ele>524.2</ele>
        <time>2018-09-29T09:07:24Z</time>
      </trkpt>
      <trkpt lat="42.1235560" lon="-8.6994840">
        <ele>522.8</ele>
        <time>2018-09-29T09:07:27Z</time>
      </trkpt>
      <trkpt lat="42.1235130" lon="-8.6994120">
        <ele>521.8</ele>
        <time>2018-09-29T09:07:29Z</time>
      </trkpt>
      <trkpt lat="42.1234080" lon="-8.6993380">
        <ele>520.6</ele>
        <time>2018-09-29T09:07:32Z</time>
      </trkpt>
      <trkpt lat="42.1232130" lon="-8.6993840">
        <ele>519.2</ele>
        <time>2018-09-29T09:07:37Z</time>
      </trkpt>
      <trkpt lat="42.1231640" lon="-8.6994400">
        <ele>517.2</ele>
        <time>2018-09-29T09:07:39Z</time>
      </trkpt>
      <trkpt lat="42.1231400" lon="-8.6995110">
        <ele>515.8</ele>
        <time>2018-09-29T09:07:41Z</time>
      </trkpt>
      <trkpt lat="42.1231310" lon="-8.6995690">
        <ele>514.6</ele>
        <time>2018-09-29T09:07:43Z</time>
      </trkpt>
      <trkpt lat="42.1231370" lon="-8.6996380">
        <ele>513.4</ele>
        <time>2018-09-29T09:07:45Z</time>
      </trkpt>
      <trkpt lat="42.1231340" lon="-8.6997020">
        <ele>512.4</ele>
        <time>2018-09-29T09:07:47Z</time>
      </trkpt>
      <trkpt lat="42.1231300" lon="-8.6997640">
        <ele>511.0</ele>
        <time>2018-09-29T09:07:49Z</time>
      </trkpt>
      <trkpt lat="42.1231310" lon="-8.6997970">
        <ele>510.6</ele>
        <time>2018-09-29T09:07:50Z</time>
      </trkpt>
      <trkpt lat="42.1231290" lon="-8.6998530">
        <ele>509.6</ele>
        <time>2018-09-29T09:07:52Z</time>
      </trkpt>
      <trkpt lat="42.1231260" lon="-8.6999130">
        <ele>508.2</ele>
        <time>2018-09-29T09:07:54Z</time>
      </trkpt>
      <trkpt lat="42.1231260" lon="-8.6999630">
        <ele>507.2</ele>
        <time>2018-09-29T09:07:56Z</time>
      </trkpt>
      <trkpt lat="42.1231270" lon="-8.7000280">
        <ele>505.8</ele>
        <time>2018-09-29T09:07:59Z</time>
      </trkpt>
      <trkpt lat="42.1231240" lon="-8.7001040">
        <ele>504.4</ele>
        <time>2018-09-29T09:08:01Z</time>
      </trkpt>
      <trkpt lat="42.1231250" lon="-8.7002720">
        <ele>503.2</ele>
        <time>2018-09-29T09:08:05Z</time>
      </trkpt>
      <trkpt lat="42.1231510" lon="-8.7004090">
        <ele>501.8</ele>
        <time>2018-09-29T09:08:09Z</time>
      </trkpt>
      <trkpt lat="42.1231680" lon="-8.7004590">
        <ele>500.6</ele>
        <time>2018-09-29T09:08:11Z</time>
      </trkpt>
      <trkpt lat="42.1232040" lon="-8.7005180">
        <ele>498.8</ele>
        <time>2018-09-29T09:08:14Z</time>
      </trkpt>
      <trkpt lat="42.1232360" lon="-8.7005630">
        <ele>498.0</ele>
        <time>2018-09-29T09:08:16Z</time>
      </trkpt>
      <trkpt lat="42.1232410" lon="-8.7005900">
        <ele>497.8</ele>
        <time>2018-09-29T09:08:17Z</time>
      </trkpt>
      <trkpt lat="42.1232380" lon="-8.7006740">
        <ele>497.2</ele>
        <time>2018-09-29T09:08:20Z</time>
      </trkpt>
      <trkpt lat="42.1232370" lon="-8.7007130">
        <ele>496.8</ele>
        <time>2018-09-29T09:08:21Z</time>
      </trkpt>
      <trkpt lat="42.1232320" lon="-8.7008170">
        <ele>495.6</ele>
        <time>2018-09-29T09:08:24Z</time>
      </trkpt>
      <trkpt lat="42.1232090" lon="-8.7009170">
        <ele>494.4</ele>
        <time>2018-09-29T09:08:27Z</time>
      </trkpt>
      <trkpt lat="42.1232010" lon="-8.7010090">
        <ele>493.2</ele>
        <time>2018-09-29T09:08:29Z</time>
      </trkpt>
      <trkpt lat="42.1232040" lon="-8.7011140">
        <ele>492.2</ele>
        <time>2018-09-29T09:08:31Z</time>
      </trkpt>
      <trkpt lat="42.1232110" lon="-8.7012150">
        <ele>491.2</ele>
        <time>2018-09-29T09:08:33Z</time>
      </trkpt>
      <trkpt lat="42.1232120" lon="-8.7013120">
        <ele>490.2</ele>
        <time>2018-09-29T09:08:35Z</time>
      </trkpt>
      <trkpt lat="42.1232010" lon="-8.7014420">
        <ele>488.8</ele>
        <time>2018-09-29T09:08:38Z</time>
      </trkpt>
      <trkpt lat="42.1231610" lon="-8.7015800">
        <ele>487.8</ele>
        <time>2018-09-29T09:08:41Z</time>
      </trkpt>
      <trkpt lat="42.1231180" lon="-8.7016800">
        <ele>486.6</ele>
        <time>2018-09-29T09:08:43Z</time>
      </trkpt>
      <trkpt lat="42.1230650" lon="-8.7017740">
        <ele>485.6</ele>
        <time>2018-09-29T09:08:45Z</time>
      </trkpt>
      <trkpt lat="42.1229730" lon="-8.7019210">
        <ele>484.4</ele>
        <time>2018-09-29T09:08:48Z</time>
      </trkpt>
      <trkpt lat="42.1228620" lon="-8.7020630">
        <ele>483.0</ele>
        <time>2018-09-29T09:08:51Z</time>
      </trkpt>
      <trkpt lat="42.1227780" lon="-8.7021390">
        <ele>481.8</ele>
        <time>2018-09-29T09:08:53Z</time>
      </trkpt>
      <trkpt lat="42.1226940" lon="-8.7022000">
        <ele>480.8</ele>
        <time>2018-09-29T09:08:55Z</time>
      </trkpt>
      <trkpt lat="42.1226520" lon="-8.7022210">
        <ele>479.8</ele>
        <time>2018-09-29T09:08:56Z</time>
      </trkpt>
      <trkpt lat="42.1226060" lon="-8.7022450">
        <ele>479.2</ele>
        <time>2018-09-29T09:08:57Z</time>
      </trkpt>
      <trkpt lat="42.1224880" lon="-8.7023120">
        <ele>478.0</ele>
        <time>2018-09-29T09:09:00Z</time>
      </trkpt>
      <trkpt lat="42.1224420" lon="-8.7023390">
        <ele>477.0</ele>
        <time>2018-09-29T09:09:02Z</time>
      </trkpt>
      <trkpt lat="42.1223990" lon="-8.7023530">
        <ele>475.4</ele>
        <time>2018-09-29T09:09:04Z</time>
      </trkpt>
      <trkpt lat="42.1223470" lon="-8.7023660">
        <ele>474.4</ele>
        <time>2018-09-29T09:09:06Z</time>
      </trkpt>
      <trkpt lat="42.1222720" lon="-8.7023800">
        <ele>473.0</ele>
        <time>2018-09-29T09:09:09Z</time>
      </trkpt>
      <trkpt lat="42.1220800" lon="-8.7024330">
        <ele>471.8</ele>
        <time>2018-09-29T09:09:15Z</time>
      </trkpt>
      <trkpt lat="42.1219380" lon="-8.7024860">
        <ele>471.0</ele>
        <time>2018-09-29T09:09:18Z</time>
      </trkpt>
      <trkpt lat="42.1218420" lon="-8.7025560">
        <ele>470.6</ele>
        <time>2018-09-29T09:09:20Z</time>
      </trkpt>
      <trkpt lat="42.1218000" lon="-8.7025960">
        <ele>470.4</ele>
        <time>2018-09-29T09:09:21Z</time>
      </trkpt>
      <trkpt lat="42.1217600" lon="-8.7026340">
        <ele>469.4</ele>
        <time>2018-09-29T09:09:22Z</time>
      </trkpt>
      <trkpt lat="42.1216740" lon="-8.7027090">
        <ele>468.4</ele>
        <time>2018-09-29T09:09:24Z</time>
      </trkpt>
      <trkpt lat="42.1215780" lon="-8.7027870">
        <ele>467.8</ele>
        <time>2018-09-29T09:09:26Z</time>
      </trkpt>
      <trkpt lat="42.1214870" lon="-8.7028590">
        <ele>467.2</ele>
        <time>2018-09-29T09:09:28Z</time>
      </trkpt>
      <trkpt lat="42.1213910" lon="-8.7029010">
        <ele>466.4</ele>
        <time>2018-09-29T09:09:31Z</time>
      </trkpt>
      <trkpt lat="42.1213630" lon="-8.7028940">
        <ele>466.0</ele>
        <time>2018-09-29T09:09:32Z</time>
      </trkpt>
      <trkpt lat="42.1213370" lon="-8.7028840">
        <ele>465.4</ele>
        <time>2018-09-29T09:09:33Z</time>
      </trkpt>
      <trkpt lat="42.1212820" lon="-8.7028760">
        <ele>464.8</ele>
        <time>2018-09-29T09:09:35Z</time>
      </trkpt>
      <trkpt lat="42.1212130" lon="-8.7028840">
        <ele>464.2</ele>
        <time>2018-09-29T09:09:37Z</time>
      </trkpt>
      <trkpt lat="42.1211730" lon="-8.7028950">
        <ele>463.8</ele>
        <time>2018-09-29T09:09:38Z</time>
      </trkpt>
      <trkpt lat="42.1209990" lon="-8.7030260">
        <ele>462.6</ele>
        <time>2018-09-29T09:09:43Z</time>
      </trkpt>
      <trkpt lat="42.1209780" lon="-8.7030590">
        <ele>462.2</ele>
        <time>2018-09-29T09:09:44Z</time>
      </trkpt>
      <trkpt lat="42.1209620" lon="-8.7030860">
        <ele>461.6</ele>
        <time>2018-09-29T09:09:45Z</time>
      </trkpt>
      <trkpt lat="42.1209170" lon="-8.7031830">
        <ele>460.0</ele>
        <time>2018-09-29T09:09:48Z</time>
      </trkpt>
      <trkpt lat="42.1208970" lon="-8.7032480">
        <ele>458.8</ele>
        <time>2018-09-29T09:09:50Z</time>
      </trkpt>
      <trkpt lat="42.1208470" lon="-8.7033570">
        <ele>457.8</ele>
        <time>2018-09-29T09:09:53Z</time>
      </trkpt>
      <trkpt lat="42.1207750" lon="-8.7034710">
        <ele>456.2</ele>
        <time>2018-09-29T09:09:56Z</time>
      </trkpt>
      <trkpt lat="42.1206900" lon="-8.7035670">
        <ele>455.0</ele>
        <time>2018-09-29T09:09:59Z</time>
      </trkpt>
      <trkpt lat="42.1206490" lon="-8.7036980">
        <ele>453.4</ele>
        <time>2018-09-29T09:10:02Z</time>
      </trkpt>
      <trkpt lat="42.1206570" lon="-8.7037380">
        <ele>452.6</ele>
        <time>2018-09-29T09:10:03Z</time>
      </trkpt>
      <trkpt lat="42.1206720" lon="-8.7037700">
        <ele>452.2</ele>
        <time>2018-09-29T09:10:04Z</time>
      </trkpt>
      <trkpt lat="42.1207480" lon="-8.7038260">
        <ele>450.8</ele>
        <time>2018-09-29T09:10:07Z</time>
      </trkpt>
      <trkpt lat="42.1208180" lon="-8.7038920">
        <ele>449.4</ele>
        <time>2018-09-29T09:10:10Z</time>
      </trkpt>
      <trkpt lat="42.1208230" lon="-8.7040070">
        <ele>448.4</ele>
        <time>2018-09-29T09:10:13Z</time>
      </trkpt>
      <trkpt lat="42.1207870" lon="-8.7040760">
        <ele>447.2</ele>
        <time>2018-09-29T09:10:15Z</time>
      </trkpt>
      <trkpt lat="42.1207610" lon="-8.7041310">
        <ele>446.2</ele>
        <time>2018-09-29T09:10:17Z</time>
      </trkpt>
      <trkpt lat="42.1207600" lon="-8.7041810">
        <ele>445.6</ele>
        <time>2018-09-29T09:10:19Z</time>
      </trkpt>
      <trkpt lat="42.1207640" lon="-8.7042000">
        <ele>445.0</ele>
        <time>2018-09-29T09:10:20Z</time>
      </trkpt>
      <trkpt lat="42.1207670" lon="-8.7042090">
        <ele>444.2</ele>
        <time>2018-09-29T09:10:22Z</time>
      </trkpt>
      <trkpt lat="42.1208180" lon="-8.7042430">
        <ele>441.6</ele>
        <time>2018-09-29T09:10:32Z</time>
      </trkpt>
      <trkpt lat="42.1208510" lon="-8.7042650">
        <ele>441.8</ele>
        <time>2018-09-29T09:10:33Z</time>
      </trkpt>
      <trkpt lat="42.1210390" lon="-8.7044400">
        <ele>440.6</ele>
        <time>2018-09-29T09:10:42Z</time>
      </trkpt>
      <trkpt lat="42.1210650" lon="-8.7045620">
        <ele>439.6</ele>
        <time>2018-09-29T09:10:46Z</time>
      </trkpt>
      <trkpt lat="42.1210230" lon="-8.7047040">
        <ele>438.2</ele>
        <time>2018-09-29T09:10:51Z</time>
      </trkpt>
      <trkpt lat="42.1209930" lon="-8.7047810">
        <ele>437.0</ele>
        <time>2018-09-29T09:10:54Z</time>
      </trkpt>
      <trkpt lat="42.1209740" lon="-8.7048490">
        <ele>435.8</ele>
        <time>2018-09-29T09:10:57Z</time>
      </trkpt>
      <trkpt lat="42.1209560" lon="-8.7049130">
        <ele>434.8</ele>
        <time>2018-09-29T09:11:00Z</time>
      </trkpt>
      <trkpt lat="42.1209350" lon="-8.7049500">
        <ele>434.0</ele>
        <time>2018-09-29T09:11:02Z</time>
      </trkpt>
      <trkpt lat="42.1208970" lon="-8.7049500">
        <ele>433.2</ele>
        <time>2018-09-29T09:11:04Z</time>
      </trkpt>
      <trkpt lat="42.1208360" lon="-8.7049140">
        <ele>432.0</ele>
        <time>2018-09-29T09:11:07Z</time>
      </trkpt>
      <trkpt lat="42.1208080" lon="-8.7048970">
        <ele>431.6</ele>
        <time>2018-09-29T09:11:08Z</time>
      </trkpt>
      <trkpt lat="42.1207530" lon="-8.7048410">
        <ele>431.0</ele>
        <time>2018-09-29T09:11:10Z</time>
      </trkpt>
      <trkpt lat="42.1206900" lon="-8.7047530">
        <ele>430.4</ele>
        <time>2018-09-29T09:11:13Z</time>
      </trkpt>
      <trkpt lat="42.1206440" lon="-8.7046940">
        <ele>430.0</ele>
        <time>2018-09-29T09:11:15Z</time>
      </trkpt>
      <trkpt lat="42.1205390" lon="-8.7045370">
        <ele>429.4</ele>
        <time>2018-09-29T09:11:20Z</time>
      </trkpt>
      <trkpt lat="42.1204210" lon="-8.7044610">
        <ele>429.2</ele>
        <time>2018-09-29T09:11:24Z</time>
      </trkpt>
      <trkpt lat="42.1201720" lon="-8.7045480">
        <ele>429.0</ele>
        <time>2018-09-29T09:11:32Z</time>
      </trkpt>
      <trkpt lat="42.1199700" lon="-8.7046290">
        <ele>428.0</ele>
        <time>2018-09-29T09:11:38Z</time>
      </trkpt>
      <trkpt lat="42.1198770" lon="-8.7046380">
        <ele>426.8</ele>
        <time>2018-09-29T09:11:40Z</time>
      </trkpt>
      <trkpt lat="42.1197870" lon="-8.7046480">
        <ele>425.8</ele>
        <time>2018-09-29T09:11:42Z</time>
      </trkpt>
      <trkpt lat="42.1197010" lon="-8.7046600">
        <ele>425.0</ele>
        <time>2018-09-29T09:11:44Z</time>
      </trkpt>
      <trkpt lat="42.1196630" lon="-8.7046640">
        <ele>424.4</ele>
        <time>2018-09-29T09:11:45Z</time>
      </trkpt>
      <trkpt lat="42.1195900" lon="-8.7046640">
        <ele>423.4</ele>
        <time>2018-09-29T09:11:47Z</time>
      </trkpt>
      <trkpt lat="42.1195190" lon="-8.7046600">
        <ele>422.2</ele>
        <time>2018-09-29T09:11:49Z</time>
      </trkpt>
      <trkpt lat="42.1194520" lon="-8.7046560">
        <ele>420.8</ele>
        <time>2018-09-29T09:11:51Z</time>
      </trkpt>
      <trkpt lat="42.1193780" lon="-8.7046870">
        <ele>419.0</ele>
        <time>2018-09-29T09:11:53Z</time>
      </trkpt>
      <trkpt lat="42.1192940" lon="-8.7047580">
        <ele>418.0</ele>
        <time>2018-09-29T09:11:55Z</time>
      </trkpt>
      <trkpt lat="42.1191470" lon="-8.7048320">
        <ele>416.8</ele>
        <time>2018-09-29T09:11:58Z</time>
      </trkpt>
      <trkpt lat="42.1190320" lon="-8.7046810">
        <ele>416.0</ele>
        <time>2018-09-29T09:12:01Z</time>
      </trkpt>
      <trkpt lat="42.1189980" lon="-8.7046210">
        <ele>415.8</ele>
        <time>2018-09-29T09:12:02Z</time>
      </trkpt>
      <trkpt lat="42.1189590" lon="-8.7045720">
        <ele>415.4</ele>
        <time>2018-09-29T09:12:03Z</time>
      </trkpt>
      <trkpt lat="42.1188320" lon="-8.7044860">
        <ele>413.8</ele>
        <time>2018-09-29T09:12:06Z</time>
      </trkpt>
      <trkpt lat="42.1186730" lon="-8.7044870">
        <ele>413.0</ele>
        <time>2018-09-29T09:12:09Z</time>
      </trkpt>
      <trkpt lat="42.1186140" lon="-8.7045060">
        <ele>413.0</ele>
        <time>2018-09-29T09:12:10Z</time>
      </trkpt>
      <trkpt lat="42.1184850" lon="-8.7045620">
        <ele>412.8</ele>
        <time>2018-09-29T09:12:12Z</time>
      </trkpt>
      <trkpt lat="42.1181100" lon="-8.7048680">
        <ele>412.0</ele>
        <time>2018-09-29T09:12:18Z</time>
      </trkpt>
      <trkpt lat="42.1179990" lon="-8.7049660">
        <ele>411.2</ele>
        <time>2018-09-29T09:12:20Z</time>
      </trkpt>
      <trkpt lat="42.1179380" lon="-8.7050070">
        <ele>410.8</ele>
        <time>2018-09-29T09:12:21Z</time>
      </trkpt>
      <trkpt lat="42.1176600" lon="-8.7050040">
        <ele>409.8</ele>
        <time>2018-09-29T09:12:25Z</time>
      </trkpt>
      <trkpt lat="42.1175270" lon="-8.7049170">
        <ele>409.0</ele>
        <time>2018-09-29T09:12:27Z</time>
      </trkpt>
      <trkpt lat="42.1174650" lon="-8.7048690">
        <ele>408.6</ele>
        <time>2018-09-29T09:12:28Z</time>
      </trkpt>
      <trkpt lat="42.1173540" lon="-8.7047960">
        <ele>407.2</ele>
        <time>2018-09-29T09:12:30Z</time>
      </trkpt>
      <trkpt lat="42.1172640" lon="-8.7047540">
        <ele>406.0</ele>
        <time>2018-09-29T09:12:32Z</time>
      </trkpt>
      <trkpt lat="42.1171210" lon="-8.7047050">
        <ele>405.2</ele>
        <time>2018-09-29T09:12:35Z</time>
      </trkpt>
      <trkpt lat="42.1170700" lon="-8.7047040">
        <ele>404.8</ele>
        <time>2018-09-29T09:12:36Z</time>
      </trkpt>
      <trkpt lat="42.1169610" lon="-8.7047540">
        <ele>403.4</ele>
        <time>2018-09-29T09:12:38Z</time>
      </trkpt>
      <trkpt lat="42.1168000" lon="-8.7048500">
        <ele>402.6</ele>
        <time>2018-09-29T09:12:41Z</time>
      </trkpt>
      <trkpt lat="42.1167550" lon="-8.7048860">
        <ele>402.0</ele>
        <time>2018-09-29T09:12:42Z</time>
      </trkpt>
      <trkpt lat="42.1166740" lon="-8.7049590">
        <ele>400.8</ele>
        <time>2018-09-29T09:12:44Z</time>
      </trkpt>
      <trkpt lat="42.1166330" lon="-8.7049990">
        <ele>399.2</ele>
        <time>2018-09-29T09:12:45Z</time>
      </trkpt>
      <trkpt lat="42.1165310" lon="-8.7050920">
        <ele>397.2</ele>
        <time>2018-09-29T09:12:47Z</time>
      </trkpt>
      <trkpt lat="42.1164830" lon="-8.7051460">
        <ele>396.4</ele>
        <time>2018-09-29T09:12:48Z</time>
      </trkpt>
      <trkpt lat="42.1164370" lon="-8.7052010">
        <ele>395.6</ele>
        <time>2018-09-29T09:12:49Z</time>
      </trkpt>
      <trkpt lat="42.1163920" lon="-8.7052490">
        <ele>394.8</ele>
        <time>2018-09-29T09:12:50Z</time>
      </trkpt>
      <trkpt lat="42.1163480" lon="-8.7052900">
        <ele>394.0</ele>
        <time>2018-09-29T09:12:51Z</time>
      </trkpt>
      <trkpt lat="42.1162520" lon="-8.7053530">
        <ele>392.2</ele>
        <time>2018-09-29T09:12:53Z</time>
      </trkpt>
      <trkpt lat="42.1161960" lon="-8.7053650">
        <ele>391.0</ele>
        <time>2018-09-29T09:12:54Z</time>
      </trkpt>
      <trkpt lat="42.1161450" lon="-8.7053740">
        <ele>389.8</ele>
        <time>2018-09-29T09:12:55Z</time>
      </trkpt>
      <trkpt lat="42.1161000" lon="-8.7053890">
        <ele>388.6</ele>
        <time>2018-09-29T09:12:56Z</time>
      </trkpt>
      <trkpt lat="42.1160580" lon="-8.7054080">
        <ele>387.4</ele>
        <time>2018-09-29T09:12:57Z</time>
      </trkpt>
      <trkpt lat="42.1160150" lon="-8.7054300">
        <ele>386.2</ele>
        <time>2018-09-29T09:12:58Z</time>
      </trkpt>
      <trkpt lat="42.1159660" lon="-8.7054600">
        <ele>385.2</ele>
        <time>2018-09-29T09:12:59Z</time>
      </trkpt>
      <trkpt lat="42.1159100" lon="-8.7055060">
        <ele>384.0</ele>
        <time>2018-09-29T09:13:00Z</time>
      </trkpt>
      <trkpt lat="42.1158460" lon="-8.7055700">
        <ele>382.6</ele>
        <time>2018-09-29T09:13:01Z</time>
      </trkpt>
      <trkpt lat="42.1157120" lon="-8.7057380">
        <ele>380.8</ele>
        <time>2018-09-29T09:13:03Z</time>
      </trkpt>
      <trkpt lat="42.1155790" lon="-8.7058590">
        <ele>379.8</ele>
        <time>2018-09-29T09:13:05Z</time>
      </trkpt>
      <trkpt lat="42.1154590" lon="-8.7058740">
        <ele>378.4</ele>
        <time>2018-09-29T09:13:07Z</time>
      </trkpt>
      <trkpt lat="42.1154060" lon="-8.7058670">
        <ele>377.2</ele>
        <time>2018-09-29T09:13:08Z</time>
      </trkpt>
      <trkpt lat="42.1153560" lon="-8.7058650">
        <ele>376.0</ele>
        <time>2018-09-29T09:13:09Z</time>
      </trkpt>
      <trkpt lat="42.1152480" lon="-8.7058640">
        <ele>375.0</ele>
        <time>2018-09-29T09:13:11Z</time>
      </trkpt>
      <trkpt lat="42.1151860" lon="-8.7058800">
        <ele>374.8</ele>
        <time>2018-09-29T09:13:12Z</time>
      </trkpt>
      <trkpt lat="42.1150620" lon="-8.7059980">
        <ele>374.2</ele>
        <time>2018-09-29T09:13:14Z</time>
      </trkpt>
      <trkpt lat="42.1150310" lon="-8.7061020">
        <ele>374.0</ele>
        <time>2018-09-29T09:13:15Z</time>
      </trkpt>
      <trkpt lat="42.1149960" lon="-8.7065410">
        <ele>372.8</ele>
        <time>2018-09-29T09:13:19Z</time>
      </trkpt>
      <trkpt lat="42.1149250" lon="-8.7067080">
        <ele>371.6</ele>
        <time>2018-09-29T09:13:21Z</time>
      </trkpt>
      <trkpt lat="42.1148740" lon="-8.7068560">
        <ele>370.6</ele>
        <time>2018-09-29T09:13:23Z</time>
      </trkpt>
      <trkpt lat="42.1147730" lon="-8.7072120">
        <ele>370.4</ele>
        <time>2018-09-29T09:13:30Z</time>
      </trkpt>
      <trkpt lat="42.1147570" lon="-8.7073560">
        <ele>370.6</ele>
        <time>2018-09-29T09:13:33Z</time>
      </trkpt>
      <trkpt lat="42.1147420" lon="-8.7074470">
        <ele>371.2</ele>
        <time>2018-09-29T09:13:35Z</time>
      </trkpt>
      <trkpt lat="42.1147090" lon="-8.7075710">
        <ele>371.8</ele>
        <time>2018-09-29T09:13:38Z</time>
      </trkpt>
      <trkpt lat="42.1146820" lon="-8.7075870">
        <ele>372.0</ele>
        <time>2018-09-29T09:13:39Z</time>
      </trkpt>
      <trkpt lat="42.1146090" lon="-8.7075530">
        <ele>372.4</ele>
        <time>2018-09-29T09:13:42Z</time>
      </trkpt>
      <trkpt lat="42.1144850" lon="-8.7074560">
        <ele>372.8</ele>
        <time>2018-09-29T09:13:47Z</time>
      </trkpt>
      <trkpt lat="42.1144310" lon="-8.7074160">
        <ele>373.0</ele>
        <time>2018-09-29T09:13:49Z</time>
      </trkpt>
      <trkpt lat="42.1143600" lon="-8.7073620">
        <ele>373.6</ele>
        <time>2018-09-29T09:13:52Z</time>
      </trkpt>
      <trkpt lat="42.1143160" lon="-8.7073290">
        <ele>374.4</ele>
        <time>2018-09-29T09:13:54Z</time>
      </trkpt>
      <trkpt lat="42.1142390" lon="-8.7072840">
        <ele>375.0</ele>
        <time>2018-09-29T09:13:58Z</time>
      </trkpt>
      <trkpt lat="42.1142040" lon="-8.7072610">
        <ele>375.4</ele>
        <time>2018-09-29T09:14:00Z</time>
      </trkpt>
      <trkpt lat="42.1141390" lon="-8.7072200">
        <ele>376.6</ele>
        <time>2018-09-29T09:14:04Z</time>
      </trkpt>
      <trkpt lat="42.1140740" lon="-8.7071890">
        <ele>377.6</ele>
        <time>2018-09-29T09:14:08Z</time>
      </trkpt>
      <trkpt lat="42.1140550" lon="-8.7071850">
        <ele>377.8</ele>
        <time>2018-09-29T09:14:09Z</time>
      </trkpt>
      <trkpt lat="42.1139630" lon="-8.7071480">
        <ele>379.0</ele>
        <time>2018-09-29T09:14:13Z</time>
      </trkpt>
      <trkpt lat="42.1138860" lon="-8.7071180">
        <ele>380.2</ele>
        <time>2018-09-29T09:14:16Z</time>
      </trkpt>
      <trkpt lat="42.1137870" lon="-8.7070740">
        <ele>381.4</ele>
        <time>2018-09-29T09:14:20Z</time>
      </trkpt>
      <trkpt lat="42.1136270" lon="-8.7069710">
        <ele>382.6</ele>
        <time>2018-09-29T09:14:27Z</time>
      </trkpt>
      <trkpt lat="42.1135340" lon="-8.7068530">
        <ele>383.6</ele>
        <time>2018-09-29T09:14:33Z</time>
      </trkpt>
      <trkpt lat="42.1134530" lon="-8.7067320">
        <ele>384.8</ele>
        <time>2018-09-29T09:14:39Z</time>
      </trkpt>
      <trkpt lat="42.1133920" lon="-8.7066360">
        <ele>386.0</ele>
        <time>2018-09-29T09:14:44Z</time>
      </trkpt>
      <trkpt lat="42.1133460" lon="-8.7065680">
        <ele>387.0</ele>
        <time>2018-09-29T09:14:48Z</time>
      </trkpt>
      <trkpt lat="42.1132820" lon="-8.7064950">
        <ele>388.2</ele>
        <time>2018-09-29T09:14:52Z</time>
      </trkpt>
      <trkpt lat="42.1131930" lon="-8.7064430">
        <ele>389.6</ele>
        <time>2018-09-29T09:14:56Z</time>
      </trkpt>
      <trkpt lat="42.1131190" lon="-8.7064100">
        <ele>390.8</ele>
        <time>2018-09-29T09:14:59Z</time>
      </trkpt>
      <trkpt lat="42.1130070" lon="-8.7063590">
        <ele>392.2</ele>
        <time>2018-09-29T09:15:03Z</time>
      </trkpt>
      <trkpt lat="42.1128290" lon="-8.7062680">
        <ele>393.4</ele>
        <time>2018-09-29T09:15:11Z</time>
      </trkpt>
      <trkpt lat="42.1126480" lon="-8.7062550">
        <ele>394.6</ele>
        <time>2018-09-29T09:15:18Z</time>
      </trkpt>
      <trkpt lat="42.1124960" lon="-8.7064210">
        <ele>395.6</ele>
        <time>2018-09-29T09:15:27Z</time>
      </trkpt>
      <trkpt lat="42.1124310" lon="-8.7065270">
        <ele>396.6</ele>
        <time>2018-09-29T09:15:32Z</time>
      </trkpt>
      <trkpt lat="42.1123460" lon="-8.7066150">
        <ele>398.2</ele>
        <time>2018-09-29T09:15:37Z</time>
      </trkpt>
      <trkpt lat="42.1122440" lon="-8.7066360">
        <ele>399.4</ele>
        <time>2018-09-29T09:15:42Z</time>
      </trkpt>
      <trkpt lat="42.1121560" lon="-8.7066180">
        <ele>400.6</ele>
        <time>2018-09-29T09:15:46Z</time>
      </trkpt>
      <trkpt lat="42.1120660" lon="-8.7066020">
        <ele>401.8</ele>
        <time>2018-09-29T09:15:50Z</time>
      </trkpt>
      <trkpt lat="42.1119790" lon="-8.7065660">
        <ele>403.0</ele>
        <time>2018-09-29T09:15:54Z</time>
      </trkpt>
      <trkpt lat="42.1119010" lon="-8.7065350">
        <ele>404.4</ele>
        <time>2018-09-29T09:15:58Z</time>
      </trkpt>
      <trkpt lat="42.1117890" lon="-8.7065040">
        <ele>405.4</ele>
        <time>2018-09-29T09:16:03Z</time>
      </trkpt>
      <trkpt lat="42.1116720" lon="-8.7065040">
        <ele>406.6</ele>
        <time>2018-09-29T09:16:08Z</time>
      </trkpt>
      <trkpt lat="42.1116260" lon="-8.7065310">
        <ele>407.8</ele>
        <time>2018-09-29T09:16:11Z</time>
      </trkpt>
      <trkpt lat="42.1115850" lon="-8.7066610">
        <ele>408.8</ele>
        <time>2018-09-29T09:16:16Z</time>
      </trkpt>
      <trkpt lat="42.1115460" lon="-8.7068940">
        <ele>409.8</ele>
        <time>2018-09-29T09:16:21Z</time>
      </trkpt>
      <trkpt lat="42.1114960" lon="-8.7071010">
        <ele>410.0</ele>
        <time>2018-09-29T09:16:25Z</time>
      </trkpt>
      <trkpt lat="42.1114520" lon="-8.7074800">
        <ele>409.8</ele>
        <time>2018-09-29T09:16:31Z</time>
      </trkpt>
      <trkpt lat="42.1114630" lon="-8.7076680">
        <ele>409.4</ele>
        <time>2018-09-29T09:16:35Z</time>
      </trkpt>
      <trkpt lat="42.1114880" lon="-8.7077220">
        <ele>409.0</ele>
        <time>2018-09-29T09:16:37Z</time>
      </trkpt>
      <trkpt lat="42.1114850" lon="-8.7077410">
        <ele>408.6</ele>
        <time>2018-09-29T09:16:38Z</time>
      </trkpt>
      <trkpt lat="42.1114660" lon="-8.7077200">
        <ele>408.2</ele>
        <time>2018-09-29T09:16:40Z</time>
      </trkpt>
      <trkpt lat="42.1114470" lon="-8.7076820">
        <ele>407.6</ele>
        <time>2018-09-29T09:16:42Z</time>
      </trkpt>
      <trkpt lat="42.1114330" lon="-8.7076700">
        <ele>407.4</ele>
        <time>2018-09-29T09:16:43Z</time>
      </trkpt>
      <trkpt lat="42.1114080" lon="-8.7076670">
        <ele>407.4</ele>
        <time>2018-09-29T09:16:45Z</time>
      </trkpt>
      <trkpt lat="42.1113970" lon="-8.7076670">
        <ele>407.4</ele>
        <time>2018-09-29T09:16:47Z</time>
      </trkpt>
      <trkpt lat="42.1113880" lon="-8.7076800">
        <ele>407.4</ele>
        <time>2018-09-29T09:16:49Z</time>
      </trkpt>
      <trkpt lat="42.1113710" lon="-8.7077290">
        <ele>407.2</ele>
        <time>2018-09-29T09:16:51Z</time>
      </trkpt>
      <trkpt lat="42.1113430" lon="-8.7077730">
        <ele>407.2</ele>
        <time>2018-09-29T09:16:53Z</time>
      </trkpt>
      <trkpt lat="42.1113090" lon="-8.7078090">
        <ele>407.2</ele>
        <time>2018-09-29T09:16:55Z</time>
      </trkpt>
      <trkpt lat="42.1112350" lon="-8.7078740">
        <ele>407.0</ele>
        <time>2018-09-29T09:16:59Z</time>
      </trkpt>
      <trkpt lat="42.1112180" lon="-8.7078930">
        <ele>406.8</ele>
        <time>2018-09-29T09:17:00Z</time>
      </trkpt>
      <trkpt lat="42.1111840" lon="-8.7079310">
        <ele>406.6</ele>
        <time>2018-09-29T09:17:02Z</time>
      </trkpt>
      <trkpt lat="42.1110930" lon="-8.7080920">
        <ele>406.2</ele>
        <time>2018-09-29T09:17:07Z</time>
      </trkpt>
      <trkpt lat="42.1110760" lon="-8.7081330">
        <ele>406.0</ele>
        <time>2018-09-29T09:17:08Z</time>
      </trkpt>
      <trkpt lat="42.1110610" lon="-8.7081700">
        <ele>406.0</ele>
        <time>2018-09-29T09:17:09Z</time>
      </trkpt>
      <trkpt lat="42.1110080" lon="-8.7083160">
        <ele>406.0</ele>
        <time>2018-09-29T09:17:13Z</time>
      </trkpt>
      <trkpt lat="42.1109900" lon="-8.7083400">
        <ele>405.8</ele>
        <time>2018-09-29T09:17:14Z</time>
      </trkpt>
      <trkpt lat="42.1109410" lon="-8.7083610">
        <ele>405.4</ele>
        <time>2018-09-29T09:17:16Z</time>
      </trkpt>
      <trkpt lat="42.1108010" lon="-8.7082690">
        <ele>404.8</ele>
        <time>2018-09-29T09:17:21Z</time>
      </trkpt>
      <trkpt lat="42.1106100" lon="-8.7081430">
        <ele>403.8</ele>
        <time>2018-09-29T09:17:28Z</time>
      </trkpt>
      <trkpt lat="42.1104920" lon="-8.7081560">
        <ele>403.6</ele>
        <time>2018-09-29T09:17:32Z</time>
      </trkpt>
      <trkpt lat="42.1104290" lon="-8.7081730">
        <ele>403.8</ele>
        <time>2018-09-29T09:17:34Z</time>
      </trkpt>
      <trkpt lat="42.1103460" lon="-8.7082120">
        <ele>403.6</ele>
        <time>2018-09-29T09:17:37Z</time>
      </trkpt>
      <trkpt lat="42.1101920" lon="-8.7084820">
        <ele>404.0</ele>
        <time>2018-09-29T09:17:45Z</time>
      </trkpt>
      <trkpt lat="42.1101390" lon="-8.7086770">
        <ele>404.2</ele>
        <time>2018-09-29T09:17:49Z</time>
      </trkpt>
      <trkpt lat="42.1099290" lon="-8.7089220">
        <ele>404.2</ele>
        <time>2018-09-29T09:17:56Z</time>
      </trkpt>
      <trkpt lat="42.1097140" lon="-8.7089700">
        <ele>404.4</ele>
        <time>2018-09-29T09:18:01Z</time>
      </trkpt>
      <trkpt lat="42.1091770" lon="-8.7088000">
        <ele>404.8</ele>
        <time>2018-09-29T09:18:15Z</time>
      </trkpt>
      <trkpt lat="42.1091380" lon="-8.7087920">
        <ele>405.0</ele>
        <time>2018-09-29T09:18:16Z</time>
      </trkpt>
      <trkpt lat="42.1089530" lon="-8.7087680">
        <ele>405.6</ele>
        <time>2018-09-29T09:18:21Z</time>
      </trkpt>
      <trkpt lat="42.1088160" lon="-8.7087650">
        <ele>406.2</ele>
        <time>2018-09-29T09:18:25Z</time>
      </trkpt>
      <trkpt lat="42.1086240" lon="-8.7087950">
        <ele>407.4</ele>
        <time>2018-09-29T09:18:31Z</time>
      </trkpt>
      <trkpt lat="42.1084200" lon="-8.7088420">
        <ele>408.6</ele>
        <time>2018-09-29T09:18:38Z</time>
      </trkpt>
      <trkpt lat="42.1082780" lon="-8.7088820">
        <ele>409.6</ele>
        <time>2018-09-29T09:18:44Z</time>
      </trkpt>
      <trkpt lat="42.1081840" lon="-8.7089030">
        <ele>410.6</ele>
        <time>2018-09-29T09:18:48Z</time>
      </trkpt>
      <trkpt lat="42.1080880" lon="-8.7089330">
        <ele>412.0</ele>
        <time>2018-09-29T09:18:52Z</time>
      </trkpt>
      <trkpt lat="42.1079890" lon="-8.7089590">
        <ele>413.0</ele>
        <time>2018-09-29T09:18:56Z</time>
      </trkpt>
      <trkpt lat="42.1079300" lon="-8.7089660">
        <ele>414.2</ele>
        <time>2018-09-29T09:18:59Z</time>
      </trkpt>
      <trkpt lat="42.1078560" lon="-8.7089800">
        <ele>415.4</ele>
        <time>2018-09-29T09:19:04Z</time>
      </trkpt>
      <trkpt lat="42.1078320" lon="-8.7089630">
        <ele>416.0</ele>
        <time>2018-09-29T09:19:06Z</time>
      </trkpt>
      <trkpt lat="42.1078040" lon="-8.7089210">
        <ele>416.8</ele>
        <time>2018-09-29T09:19:09Z</time>
      </trkpt>
      <trkpt lat="42.1077230" lon="-8.7087520">
        <ele>417.8</ele>
        <time>2018-09-29T09:19:17Z</time>
      </trkpt>
      <trkpt lat="42.1076950" lon="-8.7086170">
        <ele>419.2</ele>
        <time>2018-09-29T09:19:23Z</time>
      </trkpt>
      <trkpt lat="42.1076770" lon="-8.7085180">
        <ele>420.4</ele>
        <time>2018-09-29T09:19:27Z</time>
      </trkpt>
      <trkpt lat="42.1076650" lon="-8.7084410">
        <ele>421.6</ele>
        <time>2018-09-29T09:19:30Z</time>
      </trkpt>
      <trkpt lat="42.1076520" lon="-8.7083690">
        <ele>422.8</ele>
        <time>2018-09-29T09:19:33Z</time>
      </trkpt>
      <trkpt lat="42.1076240" lon="-8.7082220">
        <ele>423.8</ele>
        <time>2018-09-29T09:19:39Z</time>
      </trkpt>
      <trkpt lat="42.1076120" lon="-8.7081030">
        <ele>425.0</ele>
        <time>2018-09-29T09:19:44Z</time>
      </trkpt>
      <trkpt lat="42.1076000" lon="-8.7080030">
        <ele>426.2</ele>
        <time>2018-09-29T09:19:48Z</time>
      </trkpt>
      <trkpt lat="42.1075600" lon="-8.7078770">
        <ele>427.2</ele>
        <time>2018-09-29T09:19:54Z</time>
      </trkpt>
      <trkpt lat="42.1074820" lon="-8.7077790">
        <ele>428.4</ele>
        <time>2018-09-29T09:20:00Z</time>
      </trkpt>
      <trkpt lat="42.1073710" lon="-8.7076880">
        <ele>429.4</ele>
        <time>2018-09-29T09:20:06Z</time>
      </trkpt>
      <trkpt lat="42.1072630" lon="-8.7075950">
        <ele>430.4</ele>
        <time>2018-09-29T09:20:11Z</time>
      </trkpt>
      <trkpt lat="42.1070630" lon="-8.7074130">
        <ele>431.4</ele>
        <time>2018-09-29T09:20:20Z</time>
      </trkpt>
      <trkpt lat="42.1069090" lon="-8.7072540">
        <ele>432.6</ele>
        <time>2018-09-29T09:20:28Z</time>
      </trkpt>
      <trkpt lat="42.1067450" lon="-8.7070520">
        <ele>433.8</ele>
        <time>2018-09-29T09:20:36Z</time>
      </trkpt>
      <trkpt lat="42.1065620" lon="-8.7069080">
        <ele>434.8</ele>
        <time>2018-09-29T09:20:43Z</time>
      </trkpt>
      <trkpt lat="42.1064110" lon="-8.7067800">
        <ele>436.0</ele>
        <time>2018-09-29T09:20:51Z</time>
      </trkpt>
      <trkpt lat="42.1061430" lon="-8.7065250">
        <ele>436.8</ele>
        <time>2018-09-29T09:21:01Z</time>
      </trkpt>
      <trkpt lat="42.1061140" lon="-8.7064820">
        <ele>437.0</ele>
        <time>2018-09-29T09:21:03Z</time>
      </trkpt>
      <trkpt lat="42.1058770" lon="-8.7061670">
        <ele>438.0</ele>
        <time>2018-09-29T09:21:14Z</time>
      </trkpt>
      <trkpt lat="42.1054320" lon="-8.7057490">
        <ele>438.4</ele>
        <time>2018-09-29T09:21:25Z</time>
      </trkpt>
      <trkpt lat="42.1050490" lon="-8.7053960">
        <ele>438.8</ele>
        <time>2018-09-29T09:21:35Z</time>
      </trkpt>
      <trkpt lat="42.1047920" lon="-8.7051580">
        <ele>439.4</ele>
        <time>2018-09-29T09:21:42Z</time>
      </trkpt>
      <trkpt lat="42.1045720" lon="-8.7048590">
        <ele>440.0</ele>
        <time>2018-09-29T09:21:50Z</time>
      </trkpt>
      <trkpt lat="42.1043040" lon="-8.7045110">
        <ele>441.0</ele>
        <time>2018-09-29T09:22:01Z</time>
      </trkpt>
      <trkpt lat="42.1041060" lon="-8.7039810">
        <ele>441.8</ele>
        <time>2018-09-29T09:22:13Z</time>
      </trkpt>
      <trkpt lat="42.1040640" lon="-8.7032750">
        <ele>442.2</ele>
        <time>2018-09-29T09:22:26Z</time>
      </trkpt>
      <trkpt lat="42.1040660" lon="-8.7032340">
        <ele>442.2</ele>
        <time>2018-09-29T09:22:27Z</time>
      </trkpt>
      <trkpt lat="42.1040550" lon="-8.7032060">
        <ele>442.2</ele>
        <time>2018-09-29T09:22:28Z</time>
      </trkpt>
      <trkpt lat="42.1038520" lon="-8.7029350">
        <ele>442.4</ele>
        <time>2018-09-29T09:22:37Z</time>
      </trkpt>
      <trkpt lat="42.1038610" lon="-8.7028050">
        <ele>442.4</ele>
        <time>2018-09-29T09:22:39Z</time>
      </trkpt>
      <trkpt lat="42.1039090" lon="-8.7024710">
        <ele>441.4</ele>
        <time>2018-09-29T09:22:44Z</time>
      </trkpt>
      <trkpt lat="42.1039280" lon="-8.7024030">
        <ele>441.2</ele>
        <time>2018-09-29T09:22:45Z</time>
      </trkpt>
      <trkpt lat="42.1039820" lon="-8.7021860">
        <ele>440.4</ele>
        <time>2018-09-29T09:22:48Z</time>
      </trkpt>
      <trkpt lat="42.1040060" lon="-8.7020420">
        <ele>440.0</ele>
        <time>2018-09-29T09:22:50Z</time>
      </trkpt>
      <trkpt lat="42.1040260" lon="-8.7018530">
        <ele>438.8</ele>
        <time>2018-09-29T09:22:53Z</time>
      </trkpt>
      <trkpt lat="42.1040540" lon="-8.7017430">
        <ele>438.0</ele>
        <time>2018-09-29T09:22:55Z</time>
      </trkpt>
      <trkpt lat="42.1040750" lon="-8.7016920">
        <ele>437.4</ele>
        <time>2018-09-29T09:22:56Z</time>
      </trkpt>
      <trkpt lat="42.1041100" lon="-8.7015920">
        <ele>436.2</ele>
        <time>2018-09-29T09:22:58Z</time>
      </trkpt>
      <trkpt lat="42.1041180" lon="-8.7015390">
        <ele>435.0</ele>
        <time>2018-09-29T09:22:59Z</time>
      </trkpt>
      <trkpt lat="42.1041090" lon="-8.7013650">
        <ele>434.0</ele>
        <time>2018-09-29T09:23:02Z</time>
      </trkpt>
      <trkpt lat="42.1041270" lon="-8.7011650">
        <ele>432.8</ele>
        <time>2018-09-29T09:23:05Z</time>
      </trkpt>
      <trkpt lat="42.1041620" lon="-8.7009580">
        <ele>431.4</ele>
        <time>2018-09-29T09:23:08Z</time>
      </trkpt>
      <trkpt lat="42.1041750" lon="-8.7008950">
        <ele>431.0</ele>
        <time>2018-09-29T09:23:09Z</time>
      </trkpt>
      <trkpt lat="42.1042160" lon="-8.7007460">
        <ele>430.2</ele>
        <time>2018-09-29T09:23:12Z</time>
      </trkpt>
      <trkpt lat="42.1043730" lon="-8.7003420">
        <ele>429.2</ele>
        <time>2018-09-29T09:23:20Z</time>
      </trkpt>
      <trkpt lat="42.1044010" lon="-8.7002850">
        <ele>429.0</ele>
        <time>2018-09-29T09:23:21Z</time>
      </trkpt>
      <trkpt lat="42.1045180" lon="-8.7001200">
        <ele>428.6</ele>
        <time>2018-09-29T09:23:24Z</time>
      </trkpt>
      <trkpt lat="42.1047400" lon="-8.6999560">
        <ele>428.2</ele>
        <time>2018-09-29T09:23:28Z</time>
      </trkpt>
      <trkpt lat="42.1047710" lon="-8.6998390">
        <ele>428.0</ele>
        <time>2018-09-29T09:23:30Z</time>
      </trkpt>
      <trkpt lat="42.1046600" lon="-8.6996690">
        <ele>426.8</ele>
        <time>2018-09-29T09:23:33Z</time>
      </trkpt>
      <trkpt lat="42.1045300" lon="-8.6995080">
        <ele>426.2</ele>
        <time>2018-09-29T09:23:36Z</time>
      </trkpt>
      <trkpt lat="42.1044440" lon="-8.6994180">
        <ele>425.8</ele>
        <time>2018-09-29T09:23:38Z</time>
      </trkpt>
      <trkpt lat="42.1043620" lon="-8.6993430">
        <ele>425.2</ele>
        <time>2018-09-29T09:23:40Z</time>
      </trkpt>
      <trkpt lat="42.1041780" lon="-8.6992660">
        <ele>425.0</ele>
        <time>2018-09-29T09:23:44Z</time>
      </trkpt>
      <trkpt lat="42.1040080" lon="-8.6991850">
        <ele>424.8</ele>
        <time>2018-09-29T09:23:48Z</time>
      </trkpt>
      <trkpt lat="42.1037620" lon="-8.6989990">
        <ele>425.0</ele>
        <time>2018-09-29T09:23:54Z</time>
      </trkpt>
      <trkpt lat="42.1036430" lon="-8.6988220">
        <ele>425.0</ele>
        <time>2018-09-29T09:23:57Z</time>
      </trkpt>
      <trkpt lat="42.1036080" lon="-8.6987560">
        <ele>425.0</ele>
        <time>2018-09-29T09:23:58Z</time>
      </trkpt>
      <trkpt lat="42.1035400" lon="-8.6986430">
        <ele>425.0</ele>
        <time>2018-09-29T09:24:00Z</time>
      </trkpt>
      <trkpt lat="42.1035070" lon="-8.6986120">
        <ele>424.6</ele>
        <time>2018-09-29T09:24:01Z</time>
      </trkpt>
      <trkpt lat="42.1034700" lon="-8.6985760">
        <ele>424.0</ele>
        <time>2018-09-29T09:24:03Z</time>
      </trkpt>
      <trkpt lat="42.1034800" lon="-8.6985460">
        <ele>423.2</ele>
        <time>2018-09-29T09:24:05Z</time>
      </trkpt>
      <trkpt lat="42.1034960" lon="-8.6985510">
        <ele>421.8</ele>
        <time>2018-09-29T09:24:06Z</time>
      </trkpt>
      <trkpt lat="42.1035300" lon="-8.6985880">
        <ele>420.4</ele>
        <time>2018-09-29T09:24:08Z</time>
      </trkpt>
      <trkpt lat="42.1036330" lon="-8.6987320">
        <ele>419.6</ele>
        <time>2018-09-29T09:24:14Z</time>
      </trkpt>
      <trkpt lat="42.1036840" lon="-8.6988090">
        <ele>419.6</ele>
        <time>2018-09-29T09:24:17Z</time>
      </trkpt>
      <trkpt lat="42.1037280" lon="-8.6988840">
        <ele>419.8</ele>
        <time>2018-09-29T09:24:20Z</time>
      </trkpt>
      <trkpt lat="42.1037770" lon="-8.6989470">
        <ele>420.6</ele>
        <time>2018-09-29T09:24:23Z</time>
      </trkpt>
      <trkpt lat="42.1037910" lon="-8.6989860">
        <ele>421.4</ele>
        <time>2018-09-29T09:24:25Z</time>
      </trkpt>
      <trkpt lat="42.1037700" lon="-8.6990050">
        <ele>422.6</ele>
        <time>2018-09-29T09:24:28Z</time>
      </trkpt>
      <trkpt lat="42.1037700" lon="-8.6990040">
        <ele>422.8</ele>
        <time>2018-09-29T09:24:29Z</time>
      </trkpt>
      <trkpt lat="42.1037530" lon="-8.6989770">
        <ele>423.4</ele>
        <time>2018-09-29T09:25:29Z</time>
      </trkpt>
      <trkpt lat="42.1037380" lon="-8.6989530">
        <ele>423.4</ele>
        <time>2018-09-29T09:25:30Z</time>
      </trkpt>
      <trkpt lat="42.1036100" lon="-8.6987210">
        <ele>423.4</ele>
        <time>2018-09-29T09:25:35Z</time>
      </trkpt>
      <trkpt lat="42.1035770" lon="-8.6986650">
        <ele>423.4</ele>
        <time>2018-09-29T09:25:36Z</time>
      </trkpt>
      <trkpt lat="42.1034330" lon="-8.6985710">
        <ele>423.2</ele>
        <time>2018-09-29T09:25:39Z</time>
      </trkpt>
      <trkpt lat="42.1033180" lon="-8.6985840">
        <ele>422.6</ele>
        <time>2018-09-29T09:25:41Z</time>
      </trkpt>
      <trkpt lat="42.1032060" lon="-8.6986180">
        <ele>421.8</ele>
        <time>2018-09-29T09:25:43Z</time>
      </trkpt>
      <trkpt lat="42.1031470" lon="-8.6986470">
        <ele>421.2</ele>
        <time>2018-09-29T09:25:44Z</time>
      </trkpt>
      <trkpt lat="42.1030260" lon="-8.6987080">
        <ele>419.8</ele>
        <time>2018-09-29T09:25:46Z</time>
      </trkpt>
      <trkpt lat="42.1029610" lon="-8.6987180">
        <ele>418.4</ele>
        <time>2018-09-29T09:25:47Z</time>
      </trkpt>
      <trkpt lat="42.1028310" lon="-8.6986450">
        <ele>416.6</ele>
        <time>2018-09-29T09:25:49Z</time>
      </trkpt>
      <trkpt lat="42.1026950" lon="-8.6986000">
        <ele>415.6</ele>
        <time>2018-09-29T09:25:51Z</time>
      </trkpt>
      <trkpt lat="42.1025650" lon="-8.6986170">
        <ele>413.8</ele>
        <time>2018-09-29T09:25:53Z</time>
      </trkpt>
      <trkpt lat="42.1024530" lon="-8.6986240">
        <ele>412.0</ele>
        <time>2018-09-29T09:25:55Z</time>
      </trkpt>
      <trkpt lat="42.1023710" lon="-8.6986200">
        <ele>411.2</ele>
        <time>2018-09-29T09:25:57Z</time>
      </trkpt>
      <trkpt lat="42.1023380" lon="-8.6986170">
        <ele>411.0</ele>
        <time>2018-09-29T09:25:58Z</time>
      </trkpt>
      <trkpt lat="42.1022790" lon="-8.6986120">
        <ele>411.0</ele>
        <time>2018-09-29T09:26:00Z</time>
      </trkpt>
      <trkpt lat="42.1021750" lon="-8.6986090">
        <ele>410.8</ele>
        <time>2018-09-29T09:26:04Z</time>
      </trkpt>
      <trkpt lat="42.1021320" lon="-8.6986340">
        <ele>411.0</ele>
        <time>2018-09-29T09:26:06Z</time>
      </trkpt>
      <trkpt lat="42.1021080" lon="-8.6987250">
        <ele>411.8</ele>
        <time>2018-09-29T09:26:09Z</time>
      </trkpt>
      <trkpt lat="42.1021060" lon="-8.6987600">
        <ele>412.2</ele>
        <time>2018-09-29T09:26:10Z</time>
      </trkpt>
      <trkpt lat="42.1020960" lon="-8.6988290">
        <ele>413.0</ele>
        <time>2018-09-29T09:26:12Z</time>
      </trkpt>
      <trkpt lat="42.1020890" lon="-8.6988640">
        <ele>413.4</ele>
        <time>2018-09-29T09:26:13Z</time>
      </trkpt>
      <trkpt lat="42.1020610" lon="-8.6989330">
        <ele>414.2</ele>
        <time>2018-09-29T09:26:15Z</time>
      </trkpt>
      <trkpt lat="42.1020450" lon="-8.6989660">
        <ele>414.4</ele>
        <time>2018-09-29T09:26:16Z</time>
      </trkpt>
      <trkpt lat="42.1020100" lon="-8.6990230">
        <ele>415.0</ele>
        <time>2018-09-29T09:26:18Z</time>
      </trkpt>
      <trkpt lat="42.1019700" lon="-8.6990790">
        <ele>415.8</ele>
        <time>2018-09-29T09:26:20Z</time>
      </trkpt>
      <trkpt lat="42.1019010" lon="-8.6991640">
        <ele>416.4</ele>
        <time>2018-09-29T09:26:23Z</time>
      </trkpt>
      <trkpt lat="42.1018580" lon="-8.6992310">
        <ele>416.8</ele>
        <time>2018-09-29T09:26:25Z</time>
      </trkpt>
      <trkpt lat="42.1017850" lon="-8.6993880">
        <ele>417.4</ele>
        <time>2018-09-29T09:26:29Z</time>
      </trkpt>
      <trkpt lat="42.1017460" lon="-8.6994760">
        <ele>417.8</ele>
        <time>2018-09-29T09:26:31Z</time>
      </trkpt>
      <trkpt lat="42.1015740" lon="-8.6998790">
        <ele>418.6</ele>
        <time>2018-09-29T09:26:40Z</time>
      </trkpt>
      <trkpt lat="42.1014800" lon="-8.6999930">
        <ele>418.8</ele>
        <time>2018-09-29T09:26:43Z</time>
      </trkpt>
      <trkpt lat="42.1014070" lon="-8.7000530">
        <ele>419.0</ele>
        <time>2018-09-29T09:26:45Z</time>
      </trkpt>
      <trkpt lat="42.1008970" lon="-8.7002660">
        <ele>419.8</ele>
        <time>2018-09-29T09:26:57Z</time>
      </trkpt>
      <trkpt lat="42.1005000" lon="-8.7003610">
        <ele>420.2</ele>
        <time>2018-09-29T09:27:07Z</time>
      </trkpt>
      <trkpt lat="42.1003480" lon="-8.7004070">
        <ele>421.2</ele>
        <time>2018-09-29T09:27:11Z</time>
      </trkpt>
      <trkpt lat="42.1001960" lon="-8.7004430">
        <ele>422.2</ele>
        <time>2018-09-29T09:27:15Z</time>
      </trkpt>
      <trkpt lat="42.0999910" lon="-8.7004180">
        <ele>423.4</ele>
        <time>2018-09-29T09:27:20Z</time>
      </trkpt>
      <trkpt lat="42.0996920" lon="-8.7003110">
        <ele>423.8</ele>
        <time>2018-09-29T09:27:28Z</time>
      </trkpt>
      <trkpt lat="42.0995340" lon="-8.7003170">
        <ele>424.4</ele>
        <time>2018-09-29T09:27:32Z</time>
      </trkpt>
      <trkpt lat="42.0993800" lon="-8.7003270">
        <ele>425.6</ele>
        <time>2018-09-29T09:27:37Z</time>
      </trkpt>
      <trkpt lat="42.0993040" lon="-8.7003210">
        <ele>426.6</ele>
        <time>2018-09-29T09:27:42Z</time>
      </trkpt>
      <trkpt lat="42.0992610" lon="-8.7003200">
        <ele>427.0</ele>
        <time>2018-09-29T09:27:45Z</time>
      </trkpt>
      <trkpt lat="42.0992040" lon="-8.7003280">
        <ele>427.2</ele>
        <time>2018-09-29T09:27:49Z</time>
      </trkpt>
      <trkpt lat="42.0991240" lon="-8.7003230">
        <ele>427.6</ele>
        <time>2018-09-29T09:27:54Z</time>
      </trkpt>
      <trkpt lat="42.0989240" lon="-8.7002900">
        <ele>428.0</ele>
        <time>2018-09-29T09:28:02Z</time>
      </trkpt>
      <trkpt lat="42.0989030" lon="-8.7002850">
        <ele>428.2</ele>
        <time>2018-09-29T09:28:03Z</time>
      </trkpt>
      <trkpt lat="42.0989160" lon="-8.7002580">
        <ele>428.6</ele>
        <time>2018-09-29T09:28:06Z</time>
      </trkpt>
      <trkpt lat="42.0989390" lon="-8.7002620">
        <ele>428.8</ele>
        <time>2018-09-29T09:28:07Z</time>
      </trkpt>
      <trkpt lat="42.0991390" lon="-8.7003150">
        <ele>429.0</ele>
        <time>2018-09-29T09:28:13Z</time>
      </trkpt>
      <trkpt lat="42.0993180" lon="-8.7003270">
        <ele>429.0</ele>
        <time>2018-09-29T09:28:17Z</time>
      </trkpt>
      <trkpt lat="42.0994190" lon="-8.7003230">
        <ele>429.0</ele>
        <time>2018-09-29T09:28:19Z</time>
      </trkpt>
      <trkpt lat="42.0995840" lon="-8.7003170">
        <ele>428.6</ele>
        <time>2018-09-29T09:28:22Z</time>
      </trkpt>
      <trkpt lat="42.0997530" lon="-8.7003080">
        <ele>428.0</ele>
        <time>2018-09-29T09:28:25Z</time>
      </trkpt>
      <trkpt lat="42.0998440" lon="-8.7003490">
        <ele>427.8</ele>
        <time>2018-09-29T09:28:27Z</time>
      </trkpt>
      <trkpt lat="42.0998340" lon="-8.7005570">
        <ele>426.6</ele>
        <time>2018-09-29T09:28:31Z</time>
      </trkpt>
      <trkpt lat="42.0997710" lon="-8.7008010">
        <ele>425.2</ele>
        <time>2018-09-29T09:28:34Z</time>
      </trkpt>
      <trkpt lat="42.0996550" lon="-8.7009920">
        <ele>424.0</ele>
        <time>2018-09-29T09:28:37Z</time>
      </trkpt>
      <trkpt lat="42.0995960" lon="-8.7010400">
        <ele>423.2</ele>
        <time>2018-09-29T09:28:39Z</time>
      </trkpt>
      <trkpt lat="42.0995740" lon="-8.7010530">
        <ele>422.8</ele>
        <time>2018-09-29T09:28:40Z</time>
      </trkpt>
      <trkpt lat="42.0995270" lon="-8.7010760">
        <ele>421.4</ele>
        <time>2018-09-29T09:28:42Z</time>
      </trkpt>
      <trkpt lat="42.0994370" lon="-8.7011150">
        <ele>420.0</ele>
        <time>2018-09-29T09:28:45Z</time>
      </trkpt>
      <trkpt lat="42.0993490" lon="-8.7011420">
        <ele>419.8</ele>
        <time>2018-09-29T09:28:48Z</time>
      </trkpt>
      <trkpt lat="42.0988030" lon="-8.7010820">
        <ele>419.6</ele>
        <time>2018-09-29T09:29:01Z</time>
      </trkpt>
      <trkpt lat="42.0984060" lon="-8.7009250">
        <ele>419.2</ele>
        <time>2018-09-29T09:29:09Z</time>
      </trkpt>
      <trkpt lat="42.0982380" lon="-8.7008240">
        <ele>419.0</ele>
        <time>2018-09-29T09:29:12Z</time>
      </trkpt>
      <trkpt lat="42.0981840" lon="-8.7007840">
        <ele>419.0</ele>
        <time>2018-09-29T09:29:13Z</time>
      </trkpt>
      <trkpt lat="42.0979510" lon="-8.7006370">
        <ele>418.4</ele>
        <time>2018-09-29T09:29:17Z</time>
      </trkpt>
      <trkpt lat="42.0978940" lon="-8.7006130">
        <ele>418.0</ele>
        <time>2018-09-29T09:29:18Z</time>
      </trkpt>
      <trkpt lat="42.0976730" lon="-8.7004800">
        <ele>416.6</ele>
        <time>2018-09-29T09:29:22Z</time>
      </trkpt>
      <trkpt lat="42.0975150" lon="-8.7003670">
        <ele>415.4</ele>
        <time>2018-09-29T09:29:25Z</time>
      </trkpt>
      <trkpt lat="42.0974190" lon="-8.7002820">
        <ele>415.2</ele>
        <time>2018-09-29T09:29:27Z</time>
      </trkpt>
      <trkpt lat="42.0972950" lon="-8.7001120">
        <ele>414.8</ele>
        <time>2018-09-29T09:29:30Z</time>
      </trkpt>
      <trkpt lat="42.0972520" lon="-8.7000490">
        <ele>414.4</ele>
        <time>2018-09-29T09:29:31Z</time>
      </trkpt>
      <trkpt lat="42.0971740" lon="-8.6999310">
        <ele>414.0</ele>
        <time>2018-09-29T09:29:33Z</time>
      </trkpt>
      <trkpt lat="42.0969560" lon="-8.6998300">
        <ele>413.4</ele>
        <time>2018-09-29T09:29:38Z</time>
      </trkpt>
      <trkpt lat="42.0968750" lon="-8.6998510">
        <ele>412.8</ele>
        <time>2018-09-29T09:29:40Z</time>
      </trkpt>
      <trkpt lat="42.0967230" lon="-8.6998620">
        <ele>412.4</ele>
        <time>2018-09-29T09:29:44Z</time>
      </trkpt>
      <trkpt lat="42.0965910" lon="-8.6998540">
        <ele>412.6</ele>
        <time>2018-09-29T09:29:48Z</time>
      </trkpt>
      <trkpt lat="42.0964920" lon="-8.6997920">
        <ele>413.2</ele>
        <time>2018-09-29T09:29:51Z</time>
      </trkpt>
      <trkpt lat="42.0964030" lon="-8.6996860">
        <ele>413.6</ele>
        <time>2018-09-29T09:29:54Z</time>
      </trkpt>
      <trkpt lat="42.0960230" lon="-8.6992610">
        <ele>413.8</ele>
        <time>2018-09-29T09:30:03Z</time>
      </trkpt>
      <trkpt lat="42.0958040" lon="-8.6990740">
        <ele>412.4</ele>
        <time>2018-09-29T09:30:07Z</time>
      </trkpt>
      <trkpt lat="42.0957110" lon="-8.6990090">
        <ele>412.0</ele>
        <time>2018-09-29T09:30:09Z</time>
      </trkpt>
      <trkpt lat="42.0956300" lon="-8.6989680">
        <ele>411.2</ele>
        <time>2018-09-29T09:30:11Z</time>
      </trkpt>
      <trkpt lat="42.0953530" lon="-8.6988810">
        <ele>410.8</ele>
        <time>2018-09-29T09:30:19Z</time>
      </trkpt>
      <trkpt lat="42.0952320" lon="-8.6988310">
        <ele>411.4</ele>
        <time>2018-09-29T09:30:23Z</time>
      </trkpt>
      <trkpt lat="42.0951740" lon="-8.6988000">
        <ele>412.4</ele>
        <time>2018-09-29T09:30:25Z</time>
      </trkpt>
      <trkpt lat="42.0950850" lon="-8.6987510">
        <ele>413.0</ele>
        <time>2018-09-29T09:30:28Z</time>
      </trkpt>
      <trkpt lat="42.0950260" lon="-8.6987260">
        <ele>413.6</ele>
        <time>2018-09-29T09:30:30Z</time>
      </trkpt>
      <trkpt lat="42.0949210" lon="-8.6986530">
        <ele>414.6</ele>
        <time>2018-09-29T09:30:34Z</time>
      </trkpt>
      <trkpt lat="42.0947490" lon="-8.6985380">
        <ele>415.6</ele>
        <time>2018-09-29T09:30:40Z</time>
      </trkpt>
      <trkpt lat="42.0946000" lon="-8.6985890">
        <ele>416.8</ele>
        <time>2018-09-29T09:30:45Z</time>
      </trkpt>
      <trkpt lat="42.0944310" lon="-8.6987180">
        <ele>417.4</ele>
        <time>2018-09-29T09:30:53Z</time>
      </trkpt>
      <trkpt lat="42.0943660" lon="-8.6987660">
        <ele>418.0</ele>
        <time>2018-09-29T09:30:56Z</time>
      </trkpt>
      <trkpt lat="42.0942670" lon="-8.6988180">
        <ele>419.2</ele>
        <time>2018-09-29T09:31:00Z</time>
      </trkpt>
      <trkpt lat="42.0941180" lon="-8.6988690">
        <ele>420.2</ele>
        <time>2018-09-29T09:31:05Z</time>
      </trkpt>
      <trkpt lat="42.0939040" lon="-8.6988560">
        <ele>421.2</ele>
        <time>2018-09-29T09:31:12Z</time>
      </trkpt>
      <trkpt lat="42.0936390" lon="-8.6987380">
        <ele>422.2</ele>
        <time>2018-09-29T09:31:23Z</time>
      </trkpt>
      <trkpt lat="42.0935630" lon="-8.6987310">
        <ele>423.2</ele>
        <time>2018-09-29T09:31:26Z</time>
      </trkpt>
      <trkpt lat="42.0934620" lon="-8.6986990">
        <ele>424.4</ele>
        <time>2018-09-29T09:31:30Z</time>
      </trkpt>
      <trkpt lat="42.0933070" lon="-8.6986400">
        <ele>425.6</ele>
        <time>2018-09-29T09:31:36Z</time>
      </trkpt>
      <trkpt lat="42.0929820" lon="-8.6988140">
        <ele>426.8</ele>
        <time>2018-09-29T09:31:49Z</time>
      </trkpt>
      <trkpt lat="42.0928890" lon="-8.6988010">
        <ele>427.4</ele>
        <time>2018-09-29T09:31:53Z</time>
      </trkpt>
      <trkpt lat="42.0928490" lon="-8.6987680">
        <ele>427.8</ele>
        <time>2018-09-29T09:31:55Z</time>
      </trkpt>
      <trkpt lat="42.0927580" lon="-8.6987070">
        <ele>428.8</ele>
        <time>2018-09-29T09:31:59Z</time>
      </trkpt>
      <trkpt lat="42.0926360" lon="-8.6986390">
        <ele>430.0</ele>
        <time>2018-09-29T09:32:05Z</time>
      </trkpt>
      <trkpt lat="42.0925240" lon="-8.6985960">
        <ele>431.0</ele>
        <time>2018-09-29T09:32:10Z</time>
      </trkpt>
      <trkpt lat="42.0921990" lon="-8.6984490">
        <ele>432.0</ele>
        <time>2018-09-29T09:32:22Z</time>
      </trkpt>
      <trkpt lat="42.0919200" lon="-8.6984500">
        <ele>431.0</ele>
        <time>2018-09-29T09:32:27Z</time>
      </trkpt>
      <trkpt lat="42.0917200" lon="-8.6983800">
        <ele>429.8</ele>
        <time>2018-09-29T09:32:31Z</time>
      </trkpt>
      <trkpt lat="42.0916730" lon="-8.6983560">
        <ele>428.6</ele>
        <time>2018-09-29T09:32:32Z</time>
      </trkpt>
      <trkpt lat="42.0916300" lon="-8.6983270">
        <ele>428.0</ele>
        <time>2018-09-29T09:32:33Z</time>
      </trkpt>
      <trkpt lat="42.0915950" lon="-8.6982910">
        <ele>427.6</ele>
        <time>2018-09-29T09:32:34Z</time>
      </trkpt>
      <trkpt lat="42.0915220" lon="-8.6982280">
        <ele>427.0</ele>
        <time>2018-09-29T09:32:36Z</time>
      </trkpt>
      <trkpt lat="42.0914140" lon="-8.6982080">
        <ele>426.6</ele>
        <time>2018-09-29T09:32:39Z</time>
      </trkpt>
      <trkpt lat="42.0913880" lon="-8.6982280">
        <ele>426.4</ele>
        <time>2018-09-29T09:32:40Z</time>
      </trkpt>
      <trkpt lat="42.0913550" lon="-8.6984000">
        <ele>426.0</ele>
        <time>2018-09-29T09:32:44Z</time>
      </trkpt>
      <trkpt lat="42.0913730" lon="-8.6985000">
        <ele>425.8</ele>
        <time>2018-09-29T09:32:46Z</time>
      </trkpt>
      <trkpt lat="42.0914040" lon="-8.6985900">
        <ele>425.8</ele>
        <time>2018-09-29T09:32:48Z</time>
      </trkpt>
      <trkpt lat="42.0914340" lon="-8.6986800">
        <ele>425.6</ele>
        <time>2018-09-29T09:32:50Z</time>
      </trkpt>
      <trkpt lat="42.0914820" lon="-8.6988500">
        <ele>425.6</ele>
        <time>2018-09-29T09:32:53Z</time>
      </trkpt>
      <trkpt lat="42.0915360" lon="-8.6990520">
        <ele>425.6</ele>
        <time>2018-09-29T09:32:56Z</time>
      </trkpt>
      <trkpt lat="42.0915960" lon="-8.6991800">
        <ele>425.4</ele>
        <time>2018-09-29T09:32:58Z</time>
      </trkpt>
      <trkpt lat="42.0918680" lon="-8.6994290">
        <ele>424.2</ele>
        <time>2018-09-29T09:33:04Z</time>
      </trkpt>
      <trkpt lat="42.0919930" lon="-8.6995860">
        <ele>423.0</ele>
        <time>2018-09-29T09:33:07Z</time>
      </trkpt>
      <trkpt lat="42.0919990" lon="-8.6997400">
        <ele>421.6</ele>
        <time>2018-09-29T09:33:10Z</time>
      </trkpt>
      <trkpt lat="42.0919430" lon="-8.6998310">
        <ele>420.8</ele>
        <time>2018-09-29T09:33:12Z</time>
      </trkpt>
      <trkpt lat="42.0919080" lon="-8.6998900">
        <ele>420.4</ele>
        <time>2018-09-29T09:33:13Z</time>
      </trkpt>
      <trkpt lat="42.0918760" lon="-8.6999580">
        <ele>420.2</ele>
        <time>2018-09-29T09:33:14Z</time>
      </trkpt>
      <trkpt lat="42.0918530" lon="-8.7001130">
        <ele>419.2</ele>
        <time>2018-09-29T09:33:16Z</time>
      </trkpt>
      <trkpt lat="42.0918710" lon="-8.7002710">
        <ele>417.6</ele>
        <time>2018-09-29T09:33:18Z</time>
      </trkpt>
      <trkpt lat="42.0918750" lon="-8.7003510">
        <ele>417.0</ele>
        <time>2018-09-29T09:33:19Z</time>
      </trkpt>
      <trkpt lat="42.0918820" lon="-8.7005140">
        <ele>416.2</ele>
        <time>2018-09-29T09:33:21Z</time>
      </trkpt>
      <trkpt lat="42.0919260" lon="-8.7006500">
        <ele>414.8</ele>
        <time>2018-09-29T09:33:23Z</time>
      </trkpt>
      <trkpt lat="42.0920610" lon="-8.7007540">
        <ele>413.8</ele>
        <time>2018-09-29T09:33:26Z</time>
      </trkpt>
      <trkpt lat="42.0922440" lon="-8.7008720">
        <ele>412.8</ele>
        <time>2018-09-29T09:33:30Z</time>
      </trkpt>
      <trkpt lat="42.0923270" lon="-8.7009850">
        <ele>412.4</ele>
        <time>2018-09-29T09:33:32Z</time>
      </trkpt>
      <trkpt lat="42.0924080" lon="-8.7011250">
        <ele>412.2</ele>
        <time>2018-09-29T09:33:34Z</time>
      </trkpt>
      <trkpt lat="42.0924830" lon="-8.7012730">
        <ele>412.2</ele>
        <time>2018-09-29T09:33:36Z</time>
      </trkpt>
      <trkpt lat="42.0925860" lon="-8.7015040">
        <ele>411.6</ele>
        <time>2018-09-29T09:33:39Z</time>
      </trkpt>
      <trkpt lat="42.0926280" lon="-8.7016590">
        <ele>410.2</ele>
        <time>2018-09-29T09:33:41Z</time>
      </trkpt>
      <trkpt lat="42.0926730" lon="-8.7019760">
        <ele>409.2</ele>
        <time>2018-09-29T09:33:45Z</time>
      </trkpt>
      <trkpt lat="42.0927390" lon="-8.7023490">
        <ele>408.2</ele>
        <time>2018-09-29T09:33:50Z</time>
      </trkpt>
      <trkpt lat="42.0927610" lon="-8.7024190">
        <ele>408.0</ele>
        <time>2018-09-29T09:33:51Z</time>
      </trkpt>
      <trkpt lat="42.0927820" lon="-8.7024800">
        <ele>408.0</ele>
        <time>2018-09-29T09:33:52Z</time>
      </trkpt>
      <trkpt lat="42.0929040" lon="-8.7027720">
        <ele>407.8</ele>
        <time>2018-09-29T09:33:57Z</time>
      </trkpt>
      <trkpt lat="42.0930640" lon="-8.7030200">
        <ele>407.6</ele>
        <time>2018-09-29T09:34:01Z</time>
      </trkpt>
      <trkpt lat="42.0933590" lon="-8.7035340">
        <ele>407.2</ele>
        <time>2018-09-29T09:34:09Z</time>
      </trkpt>
      <trkpt lat="42.0934870" lon="-8.7038410">
        <ele>407.0</ele>
        <time>2018-09-29T09:34:15Z</time>
      </trkpt>
      <trkpt lat="42.0935380" lon="-8.7039950">
        <ele>407.0</ele>
        <time>2018-09-29T09:34:18Z</time>
      </trkpt>
      <trkpt lat="42.0935670" lon="-8.7041640">
        <ele>407.2</ele>
        <time>2018-09-29T09:34:21Z</time>
      </trkpt>
      <trkpt lat="42.0935640" lon="-8.7043570">
        <ele>408.4</ele>
        <time>2018-09-29T09:34:25Z</time>
      </trkpt>
      <trkpt lat="42.0935390" lon="-8.7044980">
        <ele>409.0</ele>
        <time>2018-09-29T09:34:28Z</time>
      </trkpt>
      <trkpt lat="42.0934960" lon="-8.7047180">
        <ele>409.8</ele>
        <time>2018-09-29T09:34:33Z</time>
      </trkpt>
      <trkpt lat="42.0934870" lon="-8.7047660">
        <ele>410.0</ele>
        <time>2018-09-29T09:34:34Z</time>
      </trkpt>
      <trkpt lat="42.0934300" lon="-8.7050270">
        <ele>411.0</ele>
        <time>2018-09-29T09:34:39Z</time>
      </trkpt>
      <trkpt lat="42.0932900" lon="-8.7055100">
        <ele>411.4</ele>
        <time>2018-09-29T09:34:47Z</time>
      </trkpt>
      <trkpt lat="42.0932820" lon="-8.7055770">
        <ele>411.4</ele>
        <time>2018-09-29T09:34:48Z</time>
      </trkpt>
      <trkpt lat="42.0932620" lon="-8.7058230">
        <ele>410.6</ele>
        <time>2018-09-29T09:34:52Z</time>
      </trkpt>
      <trkpt lat="42.0932690" lon="-8.7058910">
        <ele>410.4</ele>
        <time>2018-09-29T09:34:53Z</time>
      </trkpt>
      <trkpt lat="42.0932810" lon="-8.7060230">
        <ele>409.8</ele>
        <time>2018-09-29T09:34:55Z</time>
      </trkpt>
      <trkpt lat="42.0933070" lon="-8.7062170">
        <ele>408.8</ele>
        <time>2018-09-29T09:34:58Z</time>
      </trkpt>
      <trkpt lat="42.0933210" lon="-8.7064170">
        <ele>407.2</ele>
        <time>2018-09-29T09:35:02Z</time>
      </trkpt>
      <trkpt lat="42.0933190" lon="-8.7065360">
        <ele>405.6</ele>
        <time>2018-09-29T09:35:05Z</time>
      </trkpt>
      <trkpt lat="42.0933140" lon="-8.7065950">
        <ele>404.4</ele>
        <time>2018-09-29T09:35:07Z</time>
      </trkpt>
      <trkpt lat="42.0933100" lon="-8.7066520">
        <ele>403.2</ele>
        <time>2018-09-29T09:35:09Z</time>
      </trkpt>
      <trkpt lat="42.0933400" lon="-8.7067500">
        <ele>402.2</ele>
        <time>2018-09-29T09:35:12Z</time>
      </trkpt>
      <trkpt lat="42.0934040" lon="-8.7068580">
        <ele>400.8</ele>
        <time>2018-09-29T09:35:16Z</time>
      </trkpt>
      <trkpt lat="42.0935010" lon="-8.7071100">
        <ele>400.4</ele>
        <time>2018-09-29T09:35:22Z</time>
      </trkpt>
      <trkpt lat="42.0935580" lon="-8.7071980">
        <ele>400.2</ele>
        <time>2018-09-29T09:35:24Z</time>
      </trkpt>
      <trkpt lat="42.0938500" lon="-8.7074490">
        <ele>399.8</ele>
        <time>2018-09-29T09:35:31Z</time>
      </trkpt>
      <trkpt lat="42.0939560" lon="-8.7074950">
        <ele>399.4</ele>
        <time>2018-09-29T09:35:33Z</time>
      </trkpt>
      <trkpt lat="42.0941460" lon="-8.7076580">
        <ele>399.2</ele>
        <time>2018-09-29T09:35:37Z</time>
      </trkpt>
      <trkpt lat="42.0941900" lon="-8.7077020">
        <ele>399.0</ele>
        <time>2018-09-29T09:35:38Z</time>
      </trkpt>
      <trkpt lat="42.0942360" lon="-8.7077420">
        <ele>398.4</ele>
        <time>2018-09-29T09:35:39Z</time>
      </trkpt>
      <trkpt lat="42.0943680" lon="-8.7078660">
        <ele>397.6</ele>
        <time>2018-09-29T09:35:42Z</time>
      </trkpt>
      <trkpt lat="42.0944570" lon="-8.7079600">
        <ele>397.2</ele>
        <time>2018-09-29T09:35:44Z</time>
      </trkpt>
      <trkpt lat="42.0945480" lon="-8.7080800">
        <ele>396.4</ele>
        <time>2018-09-29T09:35:46Z</time>
      </trkpt>
      <trkpt lat="42.0946000" lon="-8.7081430">
        <ele>396.0</ele>
        <time>2018-09-29T09:35:47Z</time>
      </trkpt>
      <trkpt lat="42.0948250" lon="-8.7083750">
        <ele>394.6</ele>
        <time>2018-09-29T09:35:51Z</time>
      </trkpt>
      <trkpt lat="42.0948740" lon="-8.7084300">
        <ele>394.2</ele>
        <time>2018-09-29T09:35:52Z</time>
      </trkpt>
      <trkpt lat="42.0949200" lon="-8.7084840">
        <ele>393.6</ele>
        <time>2018-09-29T09:35:53Z</time>
      </trkpt>
      <trkpt lat="42.0949680" lon="-8.7085360">
        <ele>392.6</ele>
        <time>2018-09-29T09:35:54Z</time>
      </trkpt>
      <trkpt lat="42.0950190" lon="-8.7085940">
        <ele>391.0</ele>
        <time>2018-09-29T09:35:55Z</time>
      </trkpt>
      <trkpt lat="42.0951620" lon="-8.7087790">
        <ele>389.6</ele>
        <time>2018-09-29T09:35:58Z</time>
      </trkpt>
      <trkpt lat="42.0952980" lon="-8.7089940">
        <ele>388.4</ele>
        <time>2018-09-29T09:36:01Z</time>
      </trkpt>
      <trkpt lat="42.0953760" lon="-8.7091500">
        <ele>386.6</ele>
        <time>2018-09-29T09:36:03Z</time>
      </trkpt>
      <trkpt lat="42.0955160" lon="-8.7094100">
        <ele>385.4</ele>
        <time>2018-09-29T09:36:06Z</time>
      </trkpt>
      <trkpt lat="42.0955740" lon="-8.7094960">
        <ele>385.0</ele>
        <time>2018-09-29T09:36:07Z</time>
      </trkpt>
      <trkpt lat="42.0957030" lon="-8.7096570">
        <ele>384.2</ele>
        <time>2018-09-29T09:36:09Z</time>
      </trkpt>
      <trkpt lat="42.0958370" lon="-8.7098220">
        <ele>383.2</ele>
        <time>2018-09-29T09:36:11Z</time>
      </trkpt>
      <trkpt lat="42.0959640" lon="-8.7099940">
        <ele>381.8</ele>
        <time>2018-09-29T09:36:13Z</time>
      </trkpt>
      <trkpt lat="42.0960800" lon="-8.7101700">
        <ele>380.2</ele>
        <time>2018-09-29T09:36:15Z</time>
      </trkpt>
      <trkpt lat="42.0961950" lon="-8.7103410">
        <ele>378.8</ele>
        <time>2018-09-29T09:36:17Z</time>
      </trkpt>
      <trkpt lat="42.0963100" lon="-8.7104860">
        <ele>377.6</ele>
        <time>2018-09-29T09:36:19Z</time>
      </trkpt>
      <trkpt lat="42.0963700" lon="-8.7105450">
        <ele>376.8</ele>
        <time>2018-09-29T09:36:20Z</time>
      </trkpt>
      <trkpt lat="42.0964260" lon="-8.7105990">
        <ele>376.4</ele>
        <time>2018-09-29T09:36:21Z</time>
      </trkpt>
      <trkpt lat="42.0965760" lon="-8.7107390">
        <ele>375.4</ele>
        <time>2018-09-29T09:36:24Z</time>
      </trkpt>
      <trkpt lat="42.0967940" lon="-8.7109860">
        <ele>374.4</ele>
        <time>2018-09-29T09:36:29Z</time>
      </trkpt>
      <trkpt lat="42.0970590" lon="-8.7113290">
        <ele>374.2</ele>
        <time>2018-09-29T09:36:36Z</time>
      </trkpt>
      <trkpt lat="42.0971920" lon="-8.7115210">
        <ele>374.4</ele>
        <time>2018-09-29T09:36:40Z</time>
      </trkpt>
      <trkpt lat="42.0973030" lon="-8.7117360">
        <ele>374.6</ele>
        <time>2018-09-29T09:36:44Z</time>
      </trkpt>
      <trkpt lat="42.0974830" lon="-8.7119850">
        <ele>375.0</ele>
        <time>2018-09-29T09:36:50Z</time>
      </trkpt>
      <trkpt lat="42.0978620" lon="-8.7125360">
        <ele>375.4</ele>
        <time>2018-09-29T09:37:01Z</time>
      </trkpt>
      <trkpt lat="42.0980540" lon="-8.7128210">
        <ele>374.8</ele>
        <time>2018-09-29T09:37:06Z</time>
      </trkpt>
      <trkpt lat="42.0981270" lon="-8.7129330">
        <ele>374.0</ele>
        <time>2018-09-29T09:37:08Z</time>
      </trkpt>
      <trkpt lat="42.0982030" lon="-8.7130410">
        <ele>373.6</ele>
        <time>2018-09-29T09:37:10Z</time>
      </trkpt>
      <trkpt lat="42.0982370" lon="-8.7130930">
        <ele>373.2</ele>
        <time>2018-09-29T09:37:11Z</time>
      </trkpt>
      <trkpt lat="42.0983310" lon="-8.7132800">
        <ele>372.2</ele>
        <time>2018-09-29T09:37:14Z</time>
      </trkpt>
      <trkpt lat="42.0983870" lon="-8.7134060">
        <ele>371.6</ele>
        <time>2018-09-29T09:37:16Z</time>
      </trkpt>
      <trkpt lat="42.0984350" lon="-8.7135010">
        <ele>370.6</ele>
        <time>2018-09-29T09:37:18Z</time>
      </trkpt>
      <trkpt lat="42.0984730" lon="-8.7135800">
        <ele>369.4</ele>
        <time>2018-09-29T09:37:20Z</time>
      </trkpt>
      <trkpt lat="42.0984760" lon="-8.7136170">
        <ele>368.8</ele>
        <time>2018-09-29T09:37:21Z</time>
      </trkpt>
      <trkpt lat="42.0984700" lon="-8.7136510">
        <ele>368.0</ele>
        <time>2018-09-29T09:37:22Z</time>
      </trkpt>
      <trkpt lat="42.0984500" lon="-8.7136680">
        <ele>366.6</ele>
        <time>2018-09-29T09:37:24Z</time>
      </trkpt>
      <trkpt lat="42.0984340" lon="-8.7136720">
        <ele>366.0</ele>
        <time>2018-09-29T09:37:25Z</time>
      </trkpt>
      <trkpt lat="42.0984200" lon="-8.7136700">
        <ele>365.4</ele>
        <time>2018-09-29T09:37:26Z</time>
      </trkpt>
      <trkpt lat="42.0983520" lon="-8.7136710">
        <ele>364.4</ele>
        <time>2018-09-29T09:37:31Z</time>
      </trkpt>
      <trkpt lat="42.0983470" lon="-8.7136720">
        <ele>364.2</ele>
        <time>2018-09-29T09:37:32Z</time>
      </trkpt>
      <trkpt lat="42.0983690" lon="-8.7136990">
        <ele>363.4</ele>
        <time>2018-09-29T09:38:43Z</time>
      </trkpt>
      <trkpt lat="42.0982920" lon="-8.7139330">
        <ele>362.8</ele>
        <time>2018-09-29T09:38:52Z</time>
      </trkpt>
      <trkpt lat="42.0982770" lon="-8.7139700">
        <ele>362.4</ele>
        <time>2018-09-29T09:38:53Z</time>
      </trkpt>
      <trkpt lat="42.0982570" lon="-8.7140400">
        <ele>362.0</ele>
        <time>2018-09-29T09:38:55Z</time>
      </trkpt>
      <trkpt lat="42.0982400" lon="-8.7141140">
        <ele>361.8</ele>
        <time>2018-09-29T09:38:57Z</time>
      </trkpt>
      <trkpt lat="42.0982060" lon="-8.7142750">
        <ele>360.4</ele>
        <time>2018-09-29T09:39:01Z</time>
      </trkpt>
      <trkpt lat="42.0981830" lon="-8.7143910">
        <ele>359.4</ele>
        <time>2018-09-29T09:39:04Z</time>
      </trkpt>
      <trkpt lat="42.0981690" lon="-8.7144670">
        <ele>358.4</ele>
        <time>2018-09-29T09:39:06Z</time>
      </trkpt>
      <trkpt lat="42.0981490" lon="-8.7145390">
        <ele>357.2</ele>
        <time>2018-09-29T09:39:08Z</time>
      </trkpt>
      <trkpt lat="42.0981360" lon="-8.7146260">
        <ele>355.8</ele>
        <time>2018-09-29T09:39:11Z</time>
      </trkpt>
      <trkpt lat="42.0981260" lon="-8.7146730">
        <ele>354.8</ele>
        <time>2018-09-29T09:39:13Z</time>
      </trkpt>
      <trkpt lat="42.0981140" lon="-8.7147100">
        <ele>354.0</ele>
        <time>2018-09-29T09:39:15Z</time>
      </trkpt>
      <trkpt lat="42.0981090" lon="-8.7147230">
        <ele>353.6</ele>
        <time>2018-09-29T09:39:16Z</time>
      </trkpt>
      <trkpt lat="42.0981030" lon="-8.7147460">
        <ele>352.4</ele>
        <time>2018-09-29T09:39:18Z</time>
      </trkpt>
      <trkpt lat="42.0980910" lon="-8.7147880">
        <ele>351.4</ele>
        <time>2018-09-29T09:39:22Z</time>
      </trkpt>
      <trkpt lat="42.0980660" lon="-8.7148090">
        <ele>350.8</ele>
        <time>2018-09-29T09:39:25Z</time>
      </trkpt>
      <trkpt lat="42.0979510" lon="-8.7148400">
        <ele>350.4</ele>
        <time>2018-09-29T09:39:31Z</time>
      </trkpt>
      <trkpt lat="42.0978970" lon="-8.7148410">
        <ele>350.2</ele>
        <time>2018-09-29T09:39:33Z</time>
      </trkpt>
      <trkpt lat="42.0977640" lon="-8.7148440">
        <ele>349.2</ele>
        <time>2018-09-29T09:39:38Z</time>
      </trkpt>
      <trkpt lat="42.0976240" lon="-8.7148830">
        <ele>348.6</ele>
        <time>2018-09-29T09:39:42Z</time>
      </trkpt>
      <trkpt lat="42.0974240" lon="-8.7148180">
        <ele>348.4</ele>
        <time>2018-09-29T09:39:47Z</time>
      </trkpt>
      <trkpt lat="42.0973760" lon="-8.7148090">
        <ele>348.2</ele>
        <time>2018-09-29T09:39:48Z</time>
      </trkpt>
      <trkpt lat="42.0973330" lon="-8.7148140">
        <ele>348.0</ele>
        <time>2018-09-29T09:39:49Z</time>
      </trkpt>
      <trkpt lat="42.0972240" lon="-8.7148930">
        <ele>347.2</ele>
        <time>2018-09-29T09:39:52Z</time>
      </trkpt>
      <trkpt lat="42.0971930" lon="-8.7149220">
        <ele>346.8</ele>
        <time>2018-09-29T09:39:53Z</time>
      </trkpt>
      <trkpt lat="42.0971500" lon="-8.7149520">
        <ele>345.4</ele>
        <time>2018-09-29T09:39:55Z</time>
      </trkpt>
      <trkpt lat="42.0971090" lon="-8.7149560">
        <ele>344.8</ele>
        <time>2018-09-29T09:39:57Z</time>
      </trkpt>
      <trkpt lat="42.0970900" lon="-8.7149520">
        <ele>344.4</ele>
        <time>2018-09-29T09:39:58Z</time>
      </trkpt>
      <trkpt lat="42.0969850" lon="-8.7149430">
        <ele>343.2</ele>
        <time>2018-09-29T09:40:02Z</time>
      </trkpt>
      <trkpt lat="42.0967820" lon="-8.7149220">
        <ele>342.2</ele>
        <time>2018-09-29T09:40:07Z</time>
      </trkpt>
      <trkpt lat="42.0966370" lon="-8.7148920">
        <ele>340.8</ele>
        <time>2018-09-29T09:40:10Z</time>
      </trkpt>
      <trkpt lat="42.0965320" lon="-8.7148610">
        <ele>339.2</ele>
        <time>2018-09-29T09:40:12Z</time>
      </trkpt>
      <trkpt lat="42.0964810" lon="-8.7148400">
        <ele>338.2</ele>
        <time>2018-09-29T09:40:13Z</time>
      </trkpt>
      <trkpt lat="42.0963850" lon="-8.7147910">
        <ele>336.8</ele>
        <time>2018-09-29T09:40:15Z</time>
      </trkpt>
      <trkpt lat="42.0963080" lon="-8.7147510">
        <ele>335.2</ele>
        <time>2018-09-29T09:40:17Z</time>
      </trkpt>
      <trkpt lat="42.0962500" lon="-8.7147160">
        <ele>333.6</ele>
        <time>2018-09-29T09:40:19Z</time>
      </trkpt>
      <trkpt lat="42.0961570" lon="-8.7146590">
        <ele>332.2</ele>
        <time>2018-09-29T09:40:22Z</time>
      </trkpt>
      <trkpt lat="42.0960690" lon="-8.7145900">
        <ele>330.6</ele>
        <time>2018-09-29T09:40:25Z</time>
      </trkpt>
      <trkpt lat="42.0959780" lon="-8.7145190">
        <ele>329.0</ele>
        <time>2018-09-29T09:40:28Z</time>
      </trkpt>
      <trkpt lat="42.0959230" lon="-8.7144740">
        <ele>327.8</ele>
        <time>2018-09-29T09:40:30Z</time>
      </trkpt>
      <trkpt lat="42.0958780" lon="-8.7144580">
        <ele>327.0</ele>
        <time>2018-09-29T09:40:32Z</time>
      </trkpt>
      <trkpt lat="42.0958530" lon="-8.7144570">
        <ele>326.8</ele>
        <time>2018-09-29T09:40:33Z</time>
      </trkpt>
      <trkpt lat="42.0957770" lon="-8.7144760">
        <ele>325.2</ele>
        <time>2018-09-29T09:40:36Z</time>
      </trkpt>
      <trkpt lat="42.0957420" lon="-8.7145630">
        <ele>324.2</ele>
        <time>2018-09-29T09:40:39Z</time>
      </trkpt>
      <trkpt lat="42.0957350" lon="-8.7146700">
        <ele>323.0</ele>
        <time>2018-09-29T09:40:42Z</time>
      </trkpt>
      <trkpt lat="42.0957400" lon="-8.7147380">
        <ele>321.6</ele>
        <time>2018-09-29T09:40:44Z</time>
      </trkpt>
      <trkpt lat="42.0957590" lon="-8.7147880">
        <ele>320.8</ele>
        <time>2018-09-29T09:40:46Z</time>
      </trkpt>
      <trkpt lat="42.0957660" lon="-8.7148110">
        <ele>320.4</ele>
        <time>2018-09-29T09:40:47Z</time>
      </trkpt>
      <trkpt lat="42.0957900" lon="-8.7148580">
        <ele>319.4</ele>
        <time>2018-09-29T09:40:49Z</time>
      </trkpt>
      <trkpt lat="42.0958110" lon="-8.7149370">
        <ele>318.2</ele>
        <time>2018-09-29T09:40:52Z</time>
      </trkpt>
      <trkpt lat="42.0958380" lon="-8.7150390">
        <ele>317.0</ele>
        <time>2018-09-29T09:40:55Z</time>
      </trkpt>
      <trkpt lat="42.0958410" lon="-8.7151340">
        <ele>315.8</ele>
        <time>2018-09-29T09:40:57Z</time>
      </trkpt>
      <trkpt lat="42.0958550" lon="-8.7152410">
        <ele>314.8</ele>
        <time>2018-09-29T09:40:59Z</time>
      </trkpt>
      <trkpt lat="42.0959030" lon="-8.7153320">
        <ele>313.6</ele>
        <time>2018-09-29T09:41:03Z</time>
      </trkpt>
      <trkpt lat="42.0960190" lon="-8.7155060">
        <ele>312.8</ele>
        <time>2018-09-29T09:41:12Z</time>
      </trkpt>
      <trkpt lat="42.0960840" lon="-8.7156340">
        <ele>312.8</ele>
        <time>2018-09-29T09:41:16Z</time>
      </trkpt>
      <trkpt lat="42.0961300" lon="-8.7157290">
        <ele>313.0</ele>
        <time>2018-09-29T09:41:20Z</time>
      </trkpt>
      <trkpt lat="42.0961350" lon="-8.7157660">
        <ele>313.0</ele>
        <time>2018-09-29T09:41:21Z</time>
      </trkpt>
      <trkpt lat="42.0961640" lon="-8.7158640">
        <ele>313.2</ele>
        <time>2018-09-29T09:41:24Z</time>
      </trkpt>
      <trkpt lat="42.0962070" lon="-8.7159550">
        <ele>313.8</ele>
        <time>2018-09-29T09:41:27Z</time>
      </trkpt>
      <trkpt lat="42.0962370" lon="-8.7160150">
        <ele>314.2</ele>
        <time>2018-09-29T09:41:29Z</time>
      </trkpt>
      <trkpt lat="42.0962660" lon="-8.7160870">
        <ele>314.8</ele>
        <time>2018-09-29T09:41:31Z</time>
      </trkpt>
      <trkpt lat="42.0963460" lon="-8.7162720">
        <ele>315.6</ele>
        <time>2018-09-29T09:41:36Z</time>
      </trkpt>
      <trkpt lat="42.0963580" lon="-8.7163120">
        <ele>315.8</ele>
        <time>2018-09-29T09:41:37Z</time>
      </trkpt>
      <trkpt lat="42.0964050" lon="-8.7164520">
        <ele>316.2</ele>
        <time>2018-09-29T09:41:41Z</time>
      </trkpt>
      <trkpt lat="42.0965080" lon="-8.7166170">
        <ele>316.8</ele>
        <time>2018-09-29T09:41:47Z</time>
      </trkpt>
      <trkpt lat="42.0965080" lon="-8.7166520">
        <ele>317.0</ele>
        <time>2018-09-29T09:41:48Z</time>
      </trkpt>
      <trkpt lat="42.0964760" lon="-8.7168630">
        <ele>318.0</ele>
        <time>2018-09-29T09:41:56Z</time>
      </trkpt>
      <trkpt lat="42.0964250" lon="-8.7171030">
        <ele>319.2</ele>
        <time>2018-09-29T09:42:05Z</time>
      </trkpt>
      <trkpt lat="42.0964260" lon="-8.7171960">
        <ele>320.2</ele>
        <time>2018-09-29T09:42:09Z</time>
      </trkpt>
      <trkpt lat="42.0964110" lon="-8.7173950">
        <ele>321.6</ele>
        <time>2018-09-29T09:42:15Z</time>
      </trkpt>
      <trkpt lat="42.0964620" lon="-8.7177040">
        <ele>322.8</ele>
        <time>2018-09-29T09:42:23Z</time>
      </trkpt>
      <trkpt lat="42.0966560" lon="-8.7183880">
        <ele>323.8</ele>
        <time>2018-09-29T09:42:40Z</time>
      </trkpt>
      <trkpt lat="42.0966670" lon="-8.7184230">
        <ele>324.0</ele>
        <time>2018-09-29T09:42:41Z</time>
      </trkpt>
      <trkpt lat="42.0968030" lon="-8.7187580">
        <ele>325.2</ele>
        <time>2018-09-29T09:42:52Z</time>
      </trkpt>
      <trkpt lat="42.0968120" lon="-8.7187880">
        <ele>325.4</ele>
        <time>2018-09-29T09:42:53Z</time>
      </trkpt>
      <trkpt lat="42.0967920" lon="-8.7189970">
        <ele>326.2</ele>
        <time>2018-09-29T09:42:59Z</time>
      </trkpt>
      <trkpt lat="42.0967900" lon="-8.7192180">
        <ele>327.4</ele>
        <time>2018-09-29T09:43:05Z</time>
      </trkpt>
      <trkpt lat="42.0967640" lon="-8.7193940">
        <ele>328.4</ele>
        <time>2018-09-29T09:43:10Z</time>
      </trkpt>
      <trkpt lat="42.0966990" lon="-8.7195150">
        <ele>329.8</ele>
        <time>2018-09-29T09:43:15Z</time>
      </trkpt>
      <trkpt lat="42.0966400" lon="-8.7195910">
        <ele>330.2</ele>
        <time>2018-09-29T09:43:19Z</time>
      </trkpt>
      <trkpt lat="42.0965850" lon="-8.7196140">
        <ele>330.8</ele>
        <time>2018-09-29T09:43:22Z</time>
      </trkpt>
      <trkpt lat="42.0965660" lon="-8.7196260">
        <ele>331.2</ele>
        <time>2018-09-29T09:43:23Z</time>
      </trkpt>
      <trkpt lat="42.0965170" lon="-8.7196780">
        <ele>332.2</ele>
        <time>2018-09-29T09:43:26Z</time>
      </trkpt>
      <trkpt lat="42.0964590" lon="-8.7197490">
        <ele>333.6</ele>
        <time>2018-09-29T09:43:30Z</time>
      </trkpt>
      <trkpt lat="42.0964290" lon="-8.7197890">
        <ele>334.8</ele>
        <time>2018-09-29T09:43:33Z</time>
      </trkpt>
      <trkpt lat="42.0964110" lon="-8.7198140">
        <ele>335.4</ele>
        <time>2018-09-29T09:43:35Z</time>
      </trkpt>
      <trkpt lat="42.0963870" lon="-8.7198290">
        <ele>335.8</ele>
        <time>2018-09-29T09:43:37Z</time>
      </trkpt>
      <trkpt lat="42.0963660" lon="-8.7198700">
        <ele>336.2</ele>
        <time>2018-09-29T09:43:40Z</time>
      </trkpt>
      <trkpt lat="42.0963110" lon="-8.7200950">
        <ele>336.2</ele>
        <time>2018-09-29T09:43:45Z</time>
      </trkpt>
      <trkpt lat="42.0960850" lon="-8.7203510">
        <ele>334.6</ele>
        <time>2018-09-29T09:43:52Z</time>
      </trkpt>
      <trkpt lat="42.0960830" lon="-8.7205330">
        <ele>333.4</ele>
        <time>2018-09-29T09:43:55Z</time>
      </trkpt>
      <trkpt lat="42.0960970" lon="-8.7206010">
        <ele>333.2</ele>
        <time>2018-09-29T09:43:56Z</time>
      </trkpt>
      <trkpt lat="42.0961400" lon="-8.7208000">
        <ele>332.8</ele>
        <time>2018-09-29T09:43:59Z</time>
      </trkpt>
      <trkpt lat="42.0961550" lon="-8.7208600">
        <ele>332.6</ele>
        <time>2018-09-29T09:44:00Z</time>
      </trkpt>
      <trkpt lat="42.0961720" lon="-8.7209130">
        <ele>332.4</ele>
        <time>2018-09-29T09:44:01Z</time>
      </trkpt>
      <trkpt lat="42.0962030" lon="-8.7210490">
        <ele>331.2</ele>
        <time>2018-09-29T09:44:04Z</time>
      </trkpt>
      <trkpt lat="42.0962140" lon="-8.7211360">
        <ele>330.8</ele>
        <time>2018-09-29T09:44:06Z</time>
      </trkpt>
      <trkpt lat="42.0962010" lon="-8.7212100">
        <ele>330.0</ele>
        <time>2018-09-29T09:44:08Z</time>
      </trkpt>
      <trkpt lat="42.0961860" lon="-8.7212620">
        <ele>328.6</ele>
        <time>2018-09-29T09:44:12Z</time>
      </trkpt>
      <trkpt lat="42.0961950" lon="-8.7211760">
        <ele>326.0</ele>
        <time>2018-09-29T09:44:23Z</time>
      </trkpt>
      <trkpt lat="42.0961990" lon="-8.7211490">
        <ele>326.0</ele>
        <time>2018-09-29T09:44:24Z</time>
      </trkpt>
      <trkpt lat="42.0962010" lon="-8.7210560">
        <ele>326.0</ele>
        <time>2018-09-29T09:44:28Z</time>
      </trkpt>
      <trkpt lat="42.0961850" lon="-8.7209760">
        <ele>326.4</ele>
        <time>2018-09-29T09:44:32Z</time>
      </trkpt>
      <trkpt lat="42.0961620" lon="-8.7208910">
        <ele>327.2</ele>
        <time>2018-09-29T09:44:36Z</time>
      </trkpt>
      <trkpt lat="42.0961420" lon="-8.7208170">
        <ele>328.6</ele>
        <time>2018-09-29T09:44:40Z</time>
      </trkpt>
      <trkpt lat="42.0961370" lon="-8.7207880">
        <ele>328.8</ele>
        <time>2018-09-29T09:44:42Z</time>
      </trkpt>
      <trkpt lat="42.0960850" lon="-8.7207790">
        <ele>329.4</ele>
        <time>2018-09-29T09:44:46Z</time>
      </trkpt>
      <trkpt lat="42.0960400" lon="-8.7207800">
        <ele>329.6</ele>
        <time>2018-09-29T09:44:49Z</time>
      </trkpt>
      <trkpt lat="42.0959810" lon="-8.7207670">
        <ele>329.8</ele>
        <time>2018-09-29T09:44:53Z</time>
      </trkpt>
      <trkpt lat="42.0959230" lon="-8.7207510">
        <ele>330.8</ele>
        <time>2018-09-29T09:44:57Z</time>
      </trkpt>
      <trkpt lat="42.0958850" lon="-8.7207350">
        <ele>331.8</ele>
        <time>2018-09-29T09:45:00Z</time>
      </trkpt>
      <trkpt lat="42.0958310" lon="-8.7207130">
        <ele>333.2</ele>
        <time>2018-09-29T09:45:04Z</time>
      </trkpt>
      <trkpt lat="42.0957960" lon="-8.7207030">
        <ele>334.2</ele>
        <time>2018-09-29T09:45:07Z</time>
      </trkpt>
      <trkpt lat="42.0957390" lon="-8.7206850">
        <ele>335.6</ele>
        <time>2018-09-29T09:45:11Z</time>
      </trkpt>
      <trkpt lat="42.0956190" lon="-8.7206730">
        <ele>336.6</ele>
        <time>2018-09-29T09:45:18Z</time>
      </trkpt>
      <trkpt lat="42.0954890" lon="-8.7207840">
        <ele>337.6</ele>
        <time>2018-09-29T09:45:26Z</time>
      </trkpt>
      <trkpt lat="42.0953790" lon="-8.7209410">
        <ele>338.8</ele>
        <time>2018-09-29T09:45:33Z</time>
      </trkpt>
      <trkpt lat="42.0952820" lon="-8.7210360">
        <ele>339.8</ele>
        <time>2018-09-29T09:45:38Z</time>
      </trkpt>
      <trkpt lat="42.0951010" lon="-8.7213840">
        <ele>340.6</ele>
        <time>2018-09-29T09:45:47Z</time>
      </trkpt>
      <trkpt lat="42.0949470" lon="-8.7216320">
        <ele>340.6</ele>
        <time>2018-09-29T09:45:52Z</time>
      </trkpt>
      <trkpt lat="42.0948690" lon="-8.7217750">
        <ele>339.8</ele>
        <time>2018-09-29T09:45:55Z</time>
      </trkpt>
      <trkpt lat="42.0948090" lon="-8.7219010">
        <ele>339.2</ele>
        <time>2018-09-29T09:45:58Z</time>
      </trkpt>
      <trkpt lat="42.0947640" lon="-8.7219870">
        <ele>339.0</ele>
        <time>2018-09-29T09:46:00Z</time>
      </trkpt>
      <trkpt lat="42.0946270" lon="-8.7221650">
        <ele>338.8</ele>
        <time>2018-09-29T09:46:04Z</time>
      </trkpt>
      <trkpt lat="42.0944520" lon="-8.7223710">
        <ele>338.6</ele>
        <time>2018-09-29T09:46:08Z</time>
      </trkpt>
      <trkpt lat="42.0943970" lon="-8.7224170">
        <ele>338.6</ele>
        <time>2018-09-29T09:46:09Z</time>
      </trkpt>
      <trkpt lat="42.0943330" lon="-8.7224590">
        <ele>338.6</ele>
        <time>2018-09-29T09:46:10Z</time>
      </trkpt>
      <trkpt lat="42.0942070" lon="-8.7225370">
        <ele>338.0</ele>
        <time>2018-09-29T09:46:12Z</time>
      </trkpt>
      <trkpt lat="42.0941470" lon="-8.7225720">
        <ele>337.6</ele>
        <time>2018-09-29T09:46:13Z</time>
      </trkpt>
      <trkpt lat="42.0940270" lon="-8.7226350">
        <ele>336.8</ele>
        <time>2018-09-29T09:46:15Z</time>
      </trkpt>
      <trkpt lat="42.0939620" lon="-8.7226640">
        <ele>336.2</ele>
        <time>2018-09-29T09:46:16Z</time>
      </trkpt>
      <trkpt lat="42.0937040" lon="-8.7228130">
        <ele>334.8</ele>
        <time>2018-09-29T09:46:21Z</time>
      </trkpt>
      <trkpt lat="42.0936040" lon="-8.7228670">
        <ele>334.4</ele>
        <time>2018-09-29T09:46:23Z</time>
      </trkpt>
      <trkpt lat="42.0934680" lon="-8.7229280">
        <ele>334.0</ele>
        <time>2018-09-29T09:46:26Z</time>
      </trkpt>
      <trkpt lat="42.0933790" lon="-8.7229580">
        <ele>333.8</ele>
        <time>2018-09-29T09:46:28Z</time>
      </trkpt>
      <trkpt lat="42.0932890" lon="-8.7229850">
        <ele>333.8</ele>
        <time>2018-09-29T09:46:30Z</time>
      </trkpt>
      <trkpt lat="42.0930290" lon="-8.7229820">
        <ele>333.6</ele>
        <time>2018-09-29T09:46:35Z</time>
      </trkpt>
      <trkpt lat="42.0929060" lon="-8.7229500">
        <ele>333.4</ele>
        <time>2018-09-29T09:46:38Z</time>
      </trkpt>
      <trkpt lat="42.0928610" lon="-8.7229210">
        <ele>333.4</ele>
        <time>2018-09-29T09:46:40Z</time>
      </trkpt>
      <trkpt lat="42.0927850" lon="-8.7228590">
        <ele>333.2</ele>
        <time>2018-09-29T09:46:45Z</time>
      </trkpt>
      <trkpt lat="42.0927540" lon="-8.7228320">
        <ele>333.4</ele>
        <time>2018-09-29T09:46:47Z</time>
      </trkpt>
      <trkpt lat="42.0927000" lon="-8.7227960">
        <ele>333.8</ele>
        <time>2018-09-29T09:46:50Z</time>
      </trkpt>
      <trkpt lat="42.0926590" lon="-8.7227590">
        <ele>334.6</ele>
        <time>2018-09-29T09:46:53Z</time>
      </trkpt>
      <trkpt lat="42.0926460" lon="-8.7227430">
        <ele>335.2</ele>
        <time>2018-09-29T09:46:54Z</time>
      </trkpt>
      <trkpt lat="42.0926120" lon="-8.7227110">
        <ele>336.2</ele>
        <time>2018-09-29T09:46:57Z</time>
      </trkpt>
      <trkpt lat="42.0925730" lon="-8.7226800">
        <ele>337.0</ele>
        <time>2018-09-29T09:47:00Z</time>
      </trkpt>
      <trkpt lat="42.0925560" lon="-8.7226660">
        <ele>337.4</ele>
        <time>2018-09-29T09:47:01Z</time>
      </trkpt>
      <trkpt lat="42.0925020" lon="-8.7226260">
        <ele>338.6</ele>
        <time>2018-09-29T09:47:04Z</time>
      </trkpt>
      <trkpt lat="42.0924120" lon="-8.7226060">
        <ele>339.8</ele>
        <time>2018-09-29T09:47:08Z</time>
      </trkpt>
      <trkpt lat="42.0923080" lon="-8.7225640">
        <ele>341.4</ele>
        <time>2018-09-29T09:47:14Z</time>
      </trkpt>
      <trkpt lat="42.0922150" lon="-8.7224750">
        <ele>342.4</ele>
        <time>2018-09-29T09:47:20Z</time>
      </trkpt>
      <trkpt lat="42.0921430" lon="-8.7224020">
        <ele>343.4</ele>
        <time>2018-09-29T09:47:25Z</time>
      </trkpt>
      <trkpt lat="42.0920960" lon="-8.7223580">
        <ele>344.6</ele>
        <time>2018-09-29T09:47:28Z</time>
      </trkpt>
      <trkpt lat="42.0920270" lon="-8.7223070">
        <ele>345.6</ele>
        <time>2018-09-29T09:47:32Z</time>
      </trkpt>
      <trkpt lat="42.0919220" lon="-8.7221750">
        <ele>346.8</ele>
        <time>2018-09-29T09:47:40Z</time>
      </trkpt>
      <trkpt lat="42.0918410" lon="-8.7220880">
        <ele>347.8</ele>
        <time>2018-09-29T09:47:46Z</time>
      </trkpt>
      <trkpt lat="42.0918140" lon="-8.7220540">
        <ele>349.0</ele>
        <time>2018-09-29T09:47:49Z</time>
      </trkpt>
      <trkpt lat="42.0917750" lon="-8.7220330">
        <ele>350.0</ele>
        <time>2018-09-29T09:47:52Z</time>
      </trkpt>
      <trkpt lat="42.0917600" lon="-8.7220220">
        <ele>350.4</ele>
        <time>2018-09-29T09:47:53Z</time>
      </trkpt>
      <trkpt lat="42.0917100" lon="-8.7219880">
        <ele>351.4</ele>
        <time>2018-09-29T09:47:56Z</time>
      </trkpt>
      <trkpt lat="42.0916490" lon="-8.7219740">
        <ele>352.6</ele>
        <time>2018-09-29T09:47:59Z</time>
      </trkpt>
      <trkpt lat="42.0915540" lon="-8.7219540">
        <ele>352.8</ele>
        <time>2018-09-29T09:48:02Z</time>
      </trkpt>
      <trkpt lat="42.0912880" lon="-8.7217140">
        <ele>352.6</ele>
        <time>2018-09-29T09:48:11Z</time>
      </trkpt>
      <trkpt lat="42.0911600" lon="-8.7215380">
        <ele>352.2</ele>
        <time>2018-09-29T09:48:20Z</time>
      </trkpt>
      <trkpt lat="42.0911010" lon="-8.7214420">
        <ele>353.4</ele>
        <time>2018-09-29T09:48:25Z</time>
      </trkpt>
      <trkpt lat="42.0910530" lon="-8.7213680">
        <ele>354.6</ele>
        <time>2018-09-29T09:48:30Z</time>
      </trkpt>
      <trkpt lat="42.0909810" lon="-8.7212640">
        <ele>355.6</ele>
        <time>2018-09-29T09:48:37Z</time>
      </trkpt>
      <trkpt lat="42.0909340" lon="-8.7212080">
        <ele>356.6</ele>
        <time>2018-09-29T09:48:42Z</time>
      </trkpt>
      <trkpt lat="42.0908780" lon="-8.7211630">
        <ele>357.8</ele>
        <time>2018-09-29T09:48:47Z</time>
      </trkpt>
      <trkpt lat="42.0908400" lon="-8.7211350">
        <ele>359.0</ele>
        <time>2018-09-29T09:48:50Z</time>
      </trkpt>
      <trkpt lat="42.0908020" lon="-8.7211200">
        <ele>360.2</ele>
        <time>2018-09-29T09:48:53Z</time>
      </trkpt>
      <trkpt lat="42.0907880" lon="-8.7211150">
        <ele>360.4</ele>
        <time>2018-09-29T09:48:54Z</time>
      </trkpt>
      <trkpt lat="42.0907520" lon="-8.7211070">
        <ele>361.6</ele>
        <time>2018-09-29T09:48:57Z</time>
      </trkpt>
      <trkpt lat="42.0907030" lon="-8.7210960">
        <ele>362.6</ele>
        <time>2018-09-29T09:49:00Z</time>
      </trkpt>
      <trkpt lat="42.0906130" lon="-8.7210720">
        <ele>363.6</ele>
        <time>2018-09-29T09:49:06Z</time>
      </trkpt>
      <trkpt lat="42.0905210" lon="-8.7210570">
        <ele>364.6</ele>
        <time>2018-09-29T09:49:12Z</time>
      </trkpt>
      <trkpt lat="42.0904220" lon="-8.7209940">
        <ele>365.8</ele>
        <time>2018-09-29T09:49:18Z</time>
      </trkpt>
      <trkpt lat="42.0903500" lon="-8.7208990">
        <ele>366.4</ele>
        <time>2018-09-29T09:49:23Z</time>
      </trkpt>
      <trkpt lat="42.0902990" lon="-8.7208100">
        <ele>366.8</ele>
        <time>2018-09-29T09:49:28Z</time>
      </trkpt>
      <trkpt lat="42.0902900" lon="-8.7207940">
        <ele>366.8</ele>
        <time>2018-09-29T09:49:29Z</time>
      </trkpt>
      <trkpt lat="42.0902130" lon="-8.7207090">
        <ele>368.0</ele>
        <time>2018-09-29T09:49:35Z</time>
      </trkpt>
      <trkpt lat="42.0901700" lon="-8.7206420">
        <ele>369.0</ele>
        <time>2018-09-29T09:49:39Z</time>
      </trkpt>
      <trkpt lat="42.0900890" lon="-8.7205520">
        <ele>370.2</ele>
        <time>2018-09-29T09:49:45Z</time>
      </trkpt>
      <trkpt lat="42.0900040" lon="-8.7204560">
        <ele>371.4</ele>
        <time>2018-09-29T09:49:50Z</time>
      </trkpt>
      <trkpt lat="42.0896770" lon="-8.7201870">
        <ele>371.6</ele>
        <time>2018-09-29T09:49:58Z</time>
      </trkpt>
      <trkpt lat="42.0895340" lon="-8.7201990">
        <ele>370.4</ele>
        <time>2018-09-29T09:50:03Z</time>
      </trkpt>
      <trkpt lat="42.0895210" lon="-8.7202230">
        <ele>370.0</ele>
        <time>2018-09-29T09:50:04Z</time>
      </trkpt>
      <trkpt lat="42.0894670" lon="-8.7203340">
        <ele>369.6</ele>
        <time>2018-09-29T09:50:07Z</time>
      </trkpt>
      <trkpt lat="42.0893960" lon="-8.7205280">
        <ele>369.2</ele>
        <time>2018-09-29T09:50:10Z</time>
      </trkpt>
      <trkpt lat="42.0893700" lon="-8.7206000">
        <ele>369.0</ele>
        <time>2018-09-29T09:50:11Z</time>
      </trkpt>
      <trkpt lat="42.0893180" lon="-8.7207370">
        <ele>369.0</ele>
        <time>2018-09-29T09:50:13Z</time>
      </trkpt>
      <trkpt lat="42.0892200" lon="-8.7209490">
        <ele>368.4</ele>
        <time>2018-09-29T09:50:16Z</time>
      </trkpt>
      <trkpt lat="42.0892110" lon="-8.7210150">
        <ele>367.8</ele>
        <time>2018-09-29T09:50:17Z</time>
      </trkpt>
      <trkpt lat="42.0892150" lon="-8.7211800">
        <ele>366.6</ele>
        <time>2018-09-29T09:50:20Z</time>
      </trkpt>
      <trkpt lat="42.0892000" lon="-8.7213760">
        <ele>366.2</ele>
        <time>2018-09-29T09:50:23Z</time>
      </trkpt>
      <trkpt lat="42.0891090" lon="-8.7215200">
        <ele>366.0</ele>
        <time>2018-09-29T09:50:26Z</time>
      </trkpt>
      <trkpt lat="42.0890370" lon="-8.7215720">
        <ele>365.8</ele>
        <time>2018-09-29T09:50:28Z</time>
      </trkpt>
      <trkpt lat="42.0889720" lon="-8.7216190">
        <ele>365.4</ele>
        <time>2018-09-29T09:50:30Z</time>
      </trkpt>
      <trkpt lat="42.0888620" lon="-8.7217490">
        <ele>365.4</ele>
        <time>2018-09-29T09:50:34Z</time>
      </trkpt>
      <trkpt lat="42.0887390" lon="-8.7219710">
        <ele>365.4</ele>
        <time>2018-09-29T09:50:40Z</time>
      </trkpt>
      <trkpt lat="42.0886620" lon="-8.7220740">
        <ele>365.8</ele>
        <time>2018-09-29T09:50:43Z</time>
      </trkpt>
      <trkpt lat="42.0885780" lon="-8.7221650">
        <ele>366.6</ele>
        <time>2018-09-29T09:50:46Z</time>
      </trkpt>
      <trkpt lat="42.0885050" lon="-8.7222540">
        <ele>367.4</ele>
        <time>2018-09-29T09:50:49Z</time>
      </trkpt>
      <trkpt lat="42.0884790" lon="-8.7222880">
        <ele>367.8</ele>
        <time>2018-09-29T09:50:50Z</time>
      </trkpt>
      <trkpt lat="42.0883890" lon="-8.7224200">
        <ele>368.2</ele>
        <time>2018-09-29T09:50:54Z</time>
      </trkpt>
      <trkpt lat="42.0883110" lon="-8.7225540">
        <ele>368.8</ele>
        <time>2018-09-29T09:50:58Z</time>
      </trkpt>
      <trkpt lat="42.0881200" lon="-8.7228290">
        <ele>369.6</ele>
        <time>2018-09-29T09:51:05Z</time>
      </trkpt>
      <trkpt lat="42.0879900" lon="-8.7229370">
        <ele>369.6</ele>
        <time>2018-09-29T09:51:08Z</time>
      </trkpt>
      <trkpt lat="42.0878950" lon="-8.7229930">
        <ele>369.6</ele>
        <time>2018-09-29T09:51:10Z</time>
      </trkpt>
      <trkpt lat="42.0876310" lon="-8.7230430">
        <ele>368.6</ele>
        <time>2018-09-29T09:51:15Z</time>
      </trkpt>
      <trkpt lat="42.0874300" lon="-8.7230570">
        <ele>367.8</ele>
        <time>2018-09-29T09:51:19Z</time>
      </trkpt>
      <trkpt lat="42.0873740" lon="-8.7230480">
        <ele>367.6</ele>
        <time>2018-09-29T09:51:20Z</time>
      </trkpt>
      <trkpt lat="42.0871770" lon="-8.7230140">
        <ele>366.4</ele>
        <time>2018-09-29T09:51:23Z</time>
      </trkpt>
      <trkpt lat="42.0869790" lon="-8.7230720">
        <ele>365.2</ele>
        <time>2018-09-29T09:51:26Z</time>
      </trkpt>
      <trkpt lat="42.0869160" lon="-8.7230800">
        <ele>365.0</ele>
        <time>2018-09-29T09:51:27Z</time>
      </trkpt>
      <trkpt lat="42.0867990" lon="-8.7230420">
        <ele>363.8</ele>
        <time>2018-09-29T09:51:29Z</time>
      </trkpt>
      <trkpt lat="42.0866940" lon="-8.7229580">
        <ele>362.0</ele>
        <time>2018-09-29T09:51:31Z</time>
      </trkpt>
      <trkpt lat="42.0865920" lon="-8.7228850">
        <ele>361.2</ele>
        <time>2018-09-29T09:51:33Z</time>
      </trkpt>
      <trkpt lat="42.0865360" lon="-8.7228560">
        <ele>360.8</ele>
        <time>2018-09-29T09:51:34Z</time>
      </trkpt>
      <trkpt lat="42.0862970" lon="-8.7228280">
        <ele>359.8</ele>
        <time>2018-09-29T09:51:38Z</time>
      </trkpt>
      <trkpt lat="42.0861880" lon="-8.7228130">
        <ele>359.2</ele>
        <time>2018-09-29T09:51:40Z</time>
      </trkpt>
      <trkpt lat="42.0861250" lon="-8.7227970">
        <ele>359.0</ele>
        <time>2018-09-29T09:51:41Z</time>
      </trkpt>
      <trkpt lat="42.0860560" lon="-8.7227730">
        <ele>358.4</ele>
        <time>2018-09-29T09:51:42Z</time>
      </trkpt>
      <trkpt lat="42.0859840" lon="-8.7227540">
        <ele>357.8</ele>
        <time>2018-09-29T09:51:43Z</time>
      </trkpt>
      <trkpt lat="42.0859060" lon="-8.7227480">
        <ele>357.2</ele>
        <time>2018-09-29T09:51:44Z</time>
      </trkpt>
      <trkpt lat="42.0857540" lon="-8.7227750">
        <ele>355.6</ele>
        <time>2018-09-29T09:51:46Z</time>
      </trkpt>
      <trkpt lat="42.0856120" lon="-8.7228290">
        <ele>353.2</ele>
        <time>2018-09-29T09:51:48Z</time>
      </trkpt>
      <trkpt lat="42.0854680" lon="-8.7228760">
        <ele>352.2</ele>
        <time>2018-09-29T09:51:50Z</time>
      </trkpt>
      <trkpt lat="42.0853240" lon="-8.7228940">
        <ele>350.6</ele>
        <time>2018-09-29T09:51:52Z</time>
      </trkpt>
      <trkpt lat="42.0851850" lon="-8.7229200">
        <ele>349.4</ele>
        <time>2018-09-29T09:51:54Z</time>
      </trkpt>
      <trkpt lat="42.0851290" lon="-8.7229570">
        <ele>349.2</ele>
        <time>2018-09-29T09:51:55Z</time>
      </trkpt>
      <trkpt lat="42.0850930" lon="-8.7230280">
        <ele>349.0</ele>
        <time>2018-09-29T09:51:56Z</time>
      </trkpt>
      <trkpt lat="42.0851010" lon="-8.7231850">
        <ele>348.4</ele>
        <time>2018-09-29T09:51:58Z</time>
      </trkpt>
      <trkpt lat="42.0851130" lon="-8.7232650">
        <ele>348.2</ele>
        <time>2018-09-29T09:51:59Z</time>
      </trkpt>
      <trkpt lat="42.0851200" lon="-8.7233430">
        <ele>347.4</ele>
        <time>2018-09-29T09:52:00Z</time>
      </trkpt>
      <trkpt lat="42.0851230" lon="-8.7234240">
        <ele>346.6</ele>
        <time>2018-09-29T09:52:01Z</time>
      </trkpt>
      <trkpt lat="42.0851140" lon="-8.7235830">
        <ele>345.6</ele>
        <time>2018-09-29T09:52:03Z</time>
      </trkpt>
      <trkpt lat="42.0850720" lon="-8.7237850">
        <ele>344.8</ele>
        <time>2018-09-29T09:52:06Z</time>
      </trkpt>
      <trkpt lat="42.0850160" lon="-8.7238970">
        <ele>344.2</ele>
        <time>2018-09-29T09:52:08Z</time>
      </trkpt>
      <trkpt lat="42.0848810" lon="-8.7239800">
        <ele>342.8</ele>
        <time>2018-09-29T09:52:11Z</time>
      </trkpt>
      <trkpt lat="42.0848210" lon="-8.7239770">
        <ele>341.8</ele>
        <time>2018-09-29T09:52:13Z</time>
      </trkpt>
      <trkpt lat="42.0848090" lon="-8.7239740">
        <ele>341.2</ele>
        <time>2018-09-29T09:52:14Z</time>
      </trkpt>
      <trkpt lat="42.0847870" lon="-8.7239730">
        <ele>339.6</ele>
        <time>2018-09-29T09:52:16Z</time>
      </trkpt>
      <trkpt lat="42.0847510" lon="-8.7239530">
        <ele>338.6</ele>
        <time>2018-09-29T09:52:18Z</time>
      </trkpt>
      <trkpt lat="42.0846720" lon="-8.7239220">
        <ele>337.4</ele>
        <time>2018-09-29T09:52:21Z</time>
      </trkpt>
      <trkpt lat="42.0843000" lon="-8.7237110">
        <ele>336.4</ele>
        <time>2018-09-29T09:52:30Z</time>
      </trkpt>
      <trkpt lat="42.0842010" lon="-8.7236330">
        <ele>336.2</ele>
        <time>2018-09-29T09:52:32Z</time>
      </trkpt>
      <trkpt lat="42.0839690" lon="-8.7233970">
        <ele>335.2</ele>
        <time>2018-09-29T09:52:37Z</time>
      </trkpt>
      <trkpt lat="42.0838050" lon="-8.7232420">
        <ele>334.2</ele>
        <time>2018-09-29T09:52:41Z</time>
      </trkpt>
      <trkpt lat="42.0837680" lon="-8.7232250">
        <ele>334.2</ele>
        <time>2018-09-29T09:52:42Z</time>
      </trkpt>
      <trkpt lat="42.0836530" lon="-8.7232860">
        <ele>334.0</ele>
        <time>2018-09-29T09:52:45Z</time>
      </trkpt>
      <trkpt lat="42.0836270" lon="-8.7233400">
        <ele>334.0</ele>
        <time>2018-09-29T09:52:46Z</time>
      </trkpt>
      <trkpt lat="42.0836150" lon="-8.7235170">
        <ele>333.8</ele>
        <time>2018-09-29T09:52:49Z</time>
      </trkpt>
      <trkpt lat="42.0836220" lon="-8.7236490">
        <ele>333.8</ele>
        <time>2018-09-29T09:52:51Z</time>
      </trkpt>
      <trkpt lat="42.0835850" lon="-8.7240080">
        <ele>333.0</ele>
        <time>2018-09-29T09:52:56Z</time>
      </trkpt>
      <trkpt lat="42.0835790" lon="-8.7242420">
        <ele>332.8</ele>
        <time>2018-09-29T09:52:59Z</time>
      </trkpt>
      <trkpt lat="42.0835970" lon="-8.7244710">
        <ele>332.0</ele>
        <time>2018-09-29T09:53:02Z</time>
      </trkpt>
      <trkpt lat="42.0836070" lon="-8.7245410">
        <ele>331.8</ele>
        <time>2018-09-29T09:53:03Z</time>
      </trkpt>
      <trkpt lat="42.0836420" lon="-8.7248010">
        <ele>331.6</ele>
        <time>2018-09-29T09:53:07Z</time>
      </trkpt>
      <trkpt lat="42.0835540" lon="-8.7249870">
        <ele>331.6</ele>
        <time>2018-09-29T09:53:12Z</time>
      </trkpt>
      <trkpt lat="42.0835270" lon="-8.7250080">
        <ele>331.6</ele>
        <time>2018-09-29T09:53:13Z</time>
      </trkpt>
      <trkpt lat="42.0834570" lon="-8.7250750">
        <ele>332.0</ele>
        <time>2018-09-29T09:53:16Z</time>
      </trkpt>
      <trkpt lat="42.0833920" lon="-8.7251580">
        <ele>332.6</ele>
        <time>2018-09-29T09:53:19Z</time>
      </trkpt>
      <trkpt lat="42.0833480" lon="-8.7252030">
        <ele>333.0</ele>
        <time>2018-09-29T09:53:21Z</time>
      </trkpt>
      <trkpt lat="42.0832580" lon="-8.7253200">
        <ele>333.6</ele>
        <time>2018-09-29T09:53:25Z</time>
      </trkpt>
      <trkpt lat="42.0832010" lon="-8.7254280">
        <ele>334.2</ele>
        <time>2018-09-29T09:53:28Z</time>
      </trkpt>
      <trkpt lat="42.0831910" lon="-8.7255060">
        <ele>334.8</ele>
        <time>2018-09-29T09:53:30Z</time>
      </trkpt>
      <trkpt lat="42.0832300" lon="-8.7256130">
        <ele>335.2</ele>
        <time>2018-09-29T09:53:33Z</time>
      </trkpt>
      <trkpt lat="42.0832470" lon="-8.7256420">
        <ele>335.6</ele>
        <time>2018-09-29T09:53:34Z</time>
      </trkpt>
      <trkpt lat="42.0832750" lon="-8.7257560">
        <ele>336.0</ele>
        <time>2018-09-29T09:53:37Z</time>
      </trkpt>
      <trkpt lat="42.0832520" lon="-8.7258670">
        <ele>336.2</ele>
        <time>2018-09-29T09:53:39Z</time>
      </trkpt>
      <trkpt lat="42.0830430" lon="-8.7265940">
        <ele>336.0</ele>
        <time>2018-09-29T09:53:50Z</time>
      </trkpt>
      <trkpt lat="42.0830340" lon="-8.7266580">
        <ele>336.0</ele>
        <time>2018-09-29T09:53:51Z</time>
      </trkpt>
      <trkpt lat="42.0829960" lon="-8.7269550">
        <ele>336.0</ele>
        <time>2018-09-29T09:53:56Z</time>
      </trkpt>
      <trkpt lat="42.0829480" lon="-8.7271850">
        <ele>336.0</ele>
        <time>2018-09-29T09:54:00Z</time>
      </trkpt>
      <trkpt lat="42.0829270" lon="-8.7272410">
        <ele>336.0</ele>
        <time>2018-09-29T09:54:01Z</time>
      </trkpt>
      <trkpt lat="42.0827740" lon="-8.7273500">
        <ele>336.0</ele>
        <time>2018-09-29T09:54:05Z</time>
      </trkpt>
      <trkpt lat="42.0827440" lon="-8.7273520">
        <ele>336.0</ele>
        <time>2018-09-29T09:54:06Z</time>
      </trkpt>
      <trkpt lat="42.0826810" lon="-8.7273590">
        <ele>335.6</ele>
        <time>2018-09-29T09:54:09Z</time>
      </trkpt>
      <trkpt lat="42.0825880" lon="-8.7273560">
        <ele>335.0</ele>
        <time>2018-09-29T09:54:12Z</time>
      </trkpt>
      <trkpt lat="42.0825160" lon="-8.7273800">
        <ele>334.2</ele>
        <time>2018-09-29T09:54:14Z</time>
      </trkpt>
      <trkpt lat="42.0824840" lon="-8.7274080">
        <ele>333.8</ele>
        <time>2018-09-29T09:54:15Z</time>
      </trkpt>
      <trkpt lat="42.0823840" lon="-8.7275820">
        <ele>333.0</ele>
        <time>2018-09-29T09:54:19Z</time>
      </trkpt>
      <trkpt lat="42.0823190" lon="-8.7276870">
        <ele>332.6</ele>
        <time>2018-09-29T09:54:21Z</time>
      </trkpt>
      <trkpt lat="42.0822100" lon="-8.7278340">
        <ele>332.0</ele>
        <time>2018-09-29T09:54:24Z</time>
      </trkpt>
      <trkpt lat="42.0821690" lon="-8.7278880">
        <ele>331.8</ele>
        <time>2018-09-29T09:54:25Z</time>
      </trkpt>
      <trkpt lat="42.0821480" lon="-8.7279440">
        <ele>331.6</ele>
        <time>2018-09-29T09:54:26Z</time>
      </trkpt>
      <trkpt lat="42.0820940" lon="-8.7282220">
        <ele>330.6</ele>
        <time>2018-09-29T09:54:30Z</time>
      </trkpt>
      <trkpt lat="42.0820890" lon="-8.7283010">
        <ele>330.4</ele>
        <time>2018-09-29T09:54:31Z</time>
      </trkpt>
      <trkpt lat="42.0820250" lon="-8.7288340">
        <ele>329.4</ele>
        <time>2018-09-29T09:54:37Z</time>
      </trkpt>
      <trkpt lat="42.0819980" lon="-8.7289270">
        <ele>329.2</ele>
        <time>2018-09-29T09:54:38Z</time>
      </trkpt>
      <trkpt lat="42.0818840" lon="-8.7291750">
        <ele>328.0</ele>
        <time>2018-09-29T09:54:41Z</time>
      </trkpt>
      <trkpt lat="42.0817770" lon="-8.7292990">
        <ele>326.8</ele>
        <time>2018-09-29T09:54:43Z</time>
      </trkpt>
      <trkpt lat="42.0816540" lon="-8.7293850">
        <ele>325.6</ele>
        <time>2018-09-29T09:54:45Z</time>
      </trkpt>
      <trkpt lat="42.0815100" lon="-8.7294340">
        <ele>324.0</ele>
        <time>2018-09-29T09:54:47Z</time>
      </trkpt>
      <trkpt lat="42.0813510" lon="-8.7294460">
        <ele>322.6</ele>
        <time>2018-09-29T09:54:49Z</time>
      </trkpt>
      <trkpt lat="42.0812770" lon="-8.7294420">
        <ele>322.2</ele>
        <time>2018-09-29T09:54:50Z</time>
      </trkpt>
      <trkpt lat="42.0812040" lon="-8.7294330">
        <ele>321.6</ele>
        <time>2018-09-29T09:54:51Z</time>
      </trkpt>
      <trkpt lat="42.0810560" lon="-8.7293950">
        <ele>320.4</ele>
        <time>2018-09-29T09:54:53Z</time>
      </trkpt>
      <trkpt lat="42.0809910" lon="-8.7293650">
        <ele>320.2</ele>
        <time>2018-09-29T09:54:54Z</time>
      </trkpt>
      <trkpt lat="42.0808670" lon="-8.7293030">
        <ele>319.4</ele>
        <time>2018-09-29T09:54:56Z</time>
      </trkpt>
      <trkpt lat="42.0807530" lon="-8.7292570">
        <ele>318.8</ele>
        <time>2018-09-29T09:54:58Z</time>
      </trkpt>
      <trkpt lat="42.0806190" lon="-8.7292770">
        <ele>318.2</ele>
        <time>2018-09-29T09:55:01Z</time>
      </trkpt>
      <trkpt lat="42.0805530" lon="-8.7293910">
        <ele>318.2</ele>
        <time>2018-09-29T09:55:04Z</time>
      </trkpt>
      <trkpt lat="42.0805350" lon="-8.7294760">
        <ele>318.2</ele>
        <time>2018-09-29T09:55:06Z</time>
      </trkpt>
      <trkpt lat="42.0805340" lon="-8.7296030">
        <ele>318.2</ele>
        <time>2018-09-29T09:55:09Z</time>
      </trkpt>
      <trkpt lat="42.0805270" lon="-8.7298170">
        <ele>318.8</ele>
        <time>2018-09-29T09:55:14Z</time>
      </trkpt>
      <trkpt lat="42.0805310" lon="-8.7299290">
        <ele>319.4</ele>
        <time>2018-09-29T09:55:17Z</time>
      </trkpt>
      <trkpt lat="42.0805370" lon="-8.7300750">
        <ele>320.4</ele>
        <time>2018-09-29T09:55:21Z</time>
      </trkpt>
      <trkpt lat="42.0805390" lon="-8.7301110">
        <ele>320.6</ele>
        <time>2018-09-29T09:55:22Z</time>
      </trkpt>
      <trkpt lat="42.0805520" lon="-8.7302490">
        <ele>321.6</ele>
        <time>2018-09-29T09:55:26Z</time>
      </trkpt>
      <trkpt lat="42.0805610" lon="-8.7303310">
        <ele>322.4</ele>
        <time>2018-09-29T09:55:29Z</time>
      </trkpt>
      <trkpt lat="42.0805530" lon="-8.7304000">
        <ele>322.8</ele>
        <time>2018-09-29T09:55:31Z</time>
      </trkpt>
      <trkpt lat="42.0805140" lon="-8.7305740">
        <ele>324.0</ele>
        <time>2018-09-29T09:55:36Z</time>
      </trkpt>
      <trkpt lat="42.0805120" lon="-8.7307510">
        <ele>324.8</ele>
        <time>2018-09-29T09:55:41Z</time>
      </trkpt>
      <trkpt lat="42.0805170" lon="-8.7308280">
        <ele>325.0</ele>
        <time>2018-09-29T09:55:43Z</time>
      </trkpt>
      <trkpt lat="42.0805210" lon="-8.7311260">
        <ele>326.2</ele>
        <time>2018-09-29T09:55:51Z</time>
      </trkpt>
      <trkpt lat="42.0805360" lon="-8.7313420">
        <ele>327.2</ele>
        <time>2018-09-29T09:55:57Z</time>
      </trkpt>
      <trkpt lat="42.0805380" lon="-8.7315180">
        <ele>328.4</ele>
        <time>2018-09-29T09:56:02Z</time>
      </trkpt>
      <trkpt lat="42.0805250" lon="-8.7317320">
        <ele>329.6</ele>
        <time>2018-09-29T09:56:08Z</time>
      </trkpt>
      <trkpt lat="42.0805040" lon="-8.7319040">
        <ele>330.6</ele>
        <time>2018-09-29T09:56:13Z</time>
      </trkpt>
      <trkpt lat="42.0804830" lon="-8.7321260">
        <ele>331.6</ele>
        <time>2018-09-29T09:56:19Z</time>
      </trkpt>
      <trkpt lat="42.0805000" lon="-8.7323430">
        <ele>332.8</ele>
        <time>2018-09-29T09:56:25Z</time>
      </trkpt>
      <trkpt lat="42.0805690" lon="-8.7325720">
        <ele>333.8</ele>
        <time>2018-09-29T09:56:32Z</time>
      </trkpt>
      <trkpt lat="42.0805880" lon="-8.7327110">
        <ele>334.8</ele>
        <time>2018-09-29T09:56:36Z</time>
      </trkpt>
      <trkpt lat="42.0805710" lon="-8.7328840">
        <ele>336.0</ele>
        <time>2018-09-29T09:56:41Z</time>
      </trkpt>
      <trkpt lat="42.0804990" lon="-8.7330240">
        <ele>337.2</ele>
        <time>2018-09-29T09:56:46Z</time>
      </trkpt>
      <trkpt lat="42.0803530" lon="-8.7330790">
        <ele>338.2</ele>
        <time>2018-09-29T09:56:52Z</time>
      </trkpt>
      <trkpt lat="42.0802190" lon="-8.7330790">
        <ele>339.6</ele>
        <time>2018-09-29T09:56:57Z</time>
      </trkpt>
      <trkpt lat="42.0801190" lon="-8.7330610">
        <ele>340.8</ele>
        <time>2018-09-29T09:57:01Z</time>
      </trkpt>
      <trkpt lat="42.0799950" lon="-8.7330350">
        <ele>341.8</ele>
        <time>2018-09-29T09:57:06Z</time>
      </trkpt>
      <trkpt lat="42.0798960" lon="-8.7330090">
        <ele>342.8</ele>
        <time>2018-09-29T09:57:10Z</time>
      </trkpt>
      <trkpt lat="42.0797940" lon="-8.7329880">
        <ele>343.8</ele>
        <time>2018-09-29T09:57:14Z</time>
      </trkpt>
      <trkpt lat="42.0796660" lon="-8.7329520">
        <ele>345.0</ele>
        <time>2018-09-29T09:57:19Z</time>
      </trkpt>
      <trkpt lat="42.0795340" lon="-8.7329270">
        <ele>346.0</ele>
        <time>2018-09-29T09:57:24Z</time>
      </trkpt>
      <trkpt lat="42.0794010" lon="-8.7329070">
        <ele>347.0</ele>
        <time>2018-09-29T09:57:29Z</time>
      </trkpt>
      <trkpt lat="42.0792660" lon="-8.7328940">
        <ele>348.0</ele>
        <time>2018-09-29T09:57:34Z</time>
      </trkpt>
      <trkpt lat="42.0791350" lon="-8.7329190">
        <ele>349.0</ele>
        <time>2018-09-29T09:57:39Z</time>
      </trkpt>
      <trkpt lat="42.0789950" lon="-8.7330590">
        <ele>350.2</ele>
        <time>2018-09-29T09:57:46Z</time>
      </trkpt>
      <trkpt lat="42.0789050" lon="-8.7331770">
        <ele>351.6</ele>
        <time>2018-09-29T09:57:51Z</time>
      </trkpt>
      <trkpt lat="42.0788160" lon="-8.7333360">
        <ele>352.6</ele>
        <time>2018-09-29T09:57:57Z</time>
      </trkpt>
      <trkpt lat="42.0787510" lon="-8.7334420">
        <ele>353.8</ele>
        <time>2018-09-29T09:58:01Z</time>
      </trkpt>
      <trkpt lat="42.0786490" lon="-8.7336060">
        <ele>355.2</ele>
        <time>2018-09-29T09:58:07Z</time>
      </trkpt>
      <trkpt lat="42.0785870" lon="-8.7337180">
        <ele>356.2</ele>
        <time>2018-09-29T09:58:11Z</time>
      </trkpt>
      <trkpt lat="42.0784830" lon="-8.7338000">
        <ele>357.4</ele>
        <time>2018-09-29T09:58:18Z</time>
      </trkpt>
      <trkpt lat="42.0784410" lon="-8.7338260">
        <ele>358.6</ele>
        <time>2018-09-29T09:58:24Z</time>
      </trkpt>
      <trkpt lat="42.0783750" lon="-8.7337790">
        <ele>358.2</ele>
        <time>2018-09-29T10:00:15Z</time>
      </trkpt>
      <trkpt lat="42.0783840" lon="-8.7337470">
        <ele>358.2</ele>
        <time>2018-09-29T10:00:16Z</time>
      </trkpt>
      <trkpt lat="42.0785260" lon="-8.7333600">
        <ele>359.2</ele>
        <time>2018-09-29T10:00:30Z</time>
      </trkpt>
      <trkpt lat="42.0785370" lon="-8.7333330">
        <ele>359.4</ele>
        <time>2018-09-29T10:00:31Z</time>
      </trkpt>
      <trkpt lat="42.0786050" lon="-8.7331850">
        <ele>360.0</ele>
        <time>2018-09-29T10:00:37Z</time>
      </trkpt>
      <trkpt lat="42.0786300" lon="-8.7331370">
        <ele>360.4</ele>
        <time>2018-09-29T10:00:39Z</time>
      </trkpt>
      <trkpt lat="42.0787000" lon="-8.7329750">
        <ele>361.4</ele>
        <time>2018-09-29T10:00:46Z</time>
      </trkpt>
      <trkpt lat="42.0787390" lon="-8.7328840">
        <ele>362.0</ele>
        <time>2018-09-29T10:00:50Z</time>
      </trkpt>
      <trkpt lat="42.0787690" lon="-8.7328110">
        <ele>362.6</ele>
        <time>2018-09-29T10:00:53Z</time>
      </trkpt>
      <trkpt lat="42.0788530" lon="-8.7326100">
        <ele>363.6</ele>
        <time>2018-09-29T10:01:01Z</time>
      </trkpt>
      <trkpt lat="42.0789600" lon="-8.7323770">
        <ele>364.6</ele>
        <time>2018-09-29T10:01:10Z</time>
      </trkpt>
      <trkpt lat="42.0790430" lon="-8.7321560">
        <ele>365.8</ele>
        <time>2018-09-29T10:01:17Z</time>
      </trkpt>
      <trkpt lat="42.0791340" lon="-8.7319150">
        <ele>367.0</ele>
        <time>2018-09-29T10:01:25Z</time>
      </trkpt>
      <trkpt lat="42.0792150" lon="-8.7317210">
        <ele>368.2</ele>
        <time>2018-09-29T10:01:31Z</time>
      </trkpt>
      <trkpt lat="42.0792250" lon="-8.7315840">
        <ele>368.6</ele>
        <time>2018-09-29T10:01:36Z</time>
      </trkpt>
      <trkpt lat="42.0791880" lon="-8.7315590">
        <ele>369.0</ele>
        <time>2018-09-29T10:01:38Z</time>
      </trkpt>
      <trkpt lat="42.0790980" lon="-8.7316470">
        <ele>369.8</ele>
        <time>2018-09-29T10:01:43Z</time>
      </trkpt>
      <trkpt lat="42.0790580" lon="-8.7317120">
        <ele>370.0</ele>
        <time>2018-09-29T10:01:45Z</time>
      </trkpt>
      <trkpt lat="42.0788020" lon="-8.7320330">
        <ele>371.0</ele>
        <time>2018-09-29T10:01:56Z</time>
      </trkpt>
      <trkpt lat="42.0787720" lon="-8.7320520">
        <ele>371.2</ele>
        <time>2018-09-29T10:01:57Z</time>
      </trkpt>
      <trkpt lat="42.0786780" lon="-8.7321690">
        <ele>372.2</ele>
        <time>2018-09-29T10:02:01Z</time>
      </trkpt>
      <trkpt lat="42.0785760" lon="-8.7323510">
        <ele>373.4</ele>
        <time>2018-09-29T10:02:06Z</time>
      </trkpt>
      <trkpt lat="42.0784180" lon="-8.7326060">
        <ele>374.6</ele>
        <time>2018-09-29T10:02:13Z</time>
      </trkpt>
      <trkpt lat="42.0782080" lon="-8.7329150">
        <ele>375.6</ele>
        <time>2018-09-29T10:02:22Z</time>
      </trkpt>
      <trkpt lat="42.0779970" lon="-8.7331540">
        <ele>376.6</ele>
        <time>2018-09-29T10:02:29Z</time>
      </trkpt>
      <trkpt lat="42.0776660" lon="-8.7333830">
        <ele>377.8</ele>
        <time>2018-09-29T10:02:38Z</time>
      </trkpt>
      <trkpt lat="42.0771270" lon="-8.7334050">
        <ele>378.6</ele>
        <time>2018-09-29T10:02:49Z</time>
      </trkpt>
      <trkpt lat="42.0770100" lon="-8.7334350">
        <ele>378.6</ele>
        <time>2018-09-29T10:02:51Z</time>
      </trkpt>
      <trkpt lat="42.0768390" lon="-8.7337000">
        <ele>378.2</ele>
        <time>2018-09-29T10:02:56Z</time>
      </trkpt>
      <trkpt lat="42.0768220" lon="-8.7337620">
        <ele>378.0</ele>
        <time>2018-09-29T10:02:57Z</time>
      </trkpt>
      <trkpt lat="42.0763960" lon="-8.7340520">
        <ele>379.0</ele>
        <time>2018-09-29T10:03:12Z</time>
      </trkpt>
      <trkpt lat="42.0763150" lon="-8.7340730">
        <ele>380.4</ele>
        <time>2018-09-29T10:03:15Z</time>
      </trkpt>
      <trkpt lat="42.0761990" lon="-8.7341050">
        <ele>381.6</ele>
        <time>2018-09-29T10:03:19Z</time>
      </trkpt>
      <trkpt lat="42.0760850" lon="-8.7341120">
        <ele>382.4</ele>
        <time>2018-09-29T10:03:23Z</time>
      </trkpt>
      <trkpt lat="42.0760540" lon="-8.7341140">
        <ele>382.8</ele>
        <time>2018-09-29T10:03:24Z</time>
      </trkpt>
      <trkpt lat="42.0759060" lon="-8.7341340">
        <ele>384.0</ele>
        <time>2018-09-29T10:03:29Z</time>
      </trkpt>
      <trkpt lat="42.0757950" lon="-8.7341550">
        <ele>385.2</ele>
        <time>2018-09-29T10:03:33Z</time>
      </trkpt>
      <trkpt lat="42.0756480" lon="-8.7342490">
        <ele>386.2</ele>
        <time>2018-09-29T10:03:39Z</time>
      </trkpt>
      <trkpt lat="42.0755990" lon="-8.7342940">
        <ele>387.2</ele>
        <time>2018-09-29T10:03:41Z</time>
      </trkpt>
      <trkpt lat="42.0754570" lon="-8.7343870">
        <ele>388.4</ele>
        <time>2018-09-29T10:03:46Z</time>
      </trkpt>
      <trkpt lat="42.0751510" lon="-8.7343700">
        <ele>389.4</ele>
        <time>2018-09-29T10:03:55Z</time>
      </trkpt>
      <trkpt lat="42.0751100" lon="-8.7343430">
        <ele>389.4</ele>
        <time>2018-09-29T10:03:56Z</time>
      </trkpt>
      <trkpt lat="42.0750220" lon="-8.7342870">
        <ele>389.6</ele>
        <time>2018-09-29T10:03:58Z</time>
      </trkpt>
      <trkpt lat="42.0746020" lon="-8.7344960">
        <ele>389.4</ele>
        <time>2018-09-29T10:04:08Z</time>
      </trkpt>
      <trkpt lat="42.0744300" lon="-8.7344410">
        <ele>389.2</ele>
        <time>2018-09-29T10:04:11Z</time>
      </trkpt>
      <trkpt lat="42.0742050" lon="-8.7343400">
        <ele>388.6</ele>
        <time>2018-09-29T10:04:15Z</time>
      </trkpt>
      <trkpt lat="42.0741520" lon="-8.7343190">
        <ele>388.2</ele>
        <time>2018-09-29T10:04:16Z</time>
      </trkpt>
      <trkpt lat="42.0741000" lon="-8.7342970">
        <ele>388.0</ele>
        <time>2018-09-29T10:04:17Z</time>
      </trkpt>
      <trkpt lat="42.0739530" lon="-8.7341730">
        <ele>387.0</ele>
        <time>2018-09-29T10:04:20Z</time>
      </trkpt>
      <trkpt lat="42.0738450" lon="-8.7340790">
        <ele>386.8</ele>
        <time>2018-09-29T10:04:22Z</time>
      </trkpt>
      <trkpt lat="42.0737310" lon="-8.7339730">
        <ele>386.4</ele>
        <time>2018-09-29T10:04:24Z</time>
      </trkpt>
      <trkpt lat="42.0736710" lon="-8.7339200">
        <ele>386.2</ele>
        <time>2018-09-29T10:04:25Z</time>
      </trkpt>
      <trkpt lat="42.0736100" lon="-8.7338650">
        <ele>386.2</ele>
        <time>2018-09-29T10:04:26Z</time>
      </trkpt>
      <trkpt lat="42.0735510" lon="-8.7338060">
        <ele>386.0</ele>
        <time>2018-09-29T10:04:27Z</time>
      </trkpt>
      <trkpt lat="42.0734310" lon="-8.7336880">
        <ele>385.8</ele>
        <time>2018-09-29T10:04:29Z</time>
      </trkpt>
      <trkpt lat="42.0733760" lon="-8.7336260">
        <ele>385.6</ele>
        <time>2018-09-29T10:04:30Z</time>
      </trkpt>
      <trkpt lat="42.0732630" lon="-8.7334980">
        <ele>384.2</ele>
        <time>2018-09-29T10:04:32Z</time>
      </trkpt>
      <trkpt lat="42.0730690" lon="-8.7333400">
        <ele>383.2</ele>
        <time>2018-09-29T10:04:35Z</time>
      </trkpt>
      <trkpt lat="42.0728550" lon="-8.7332870">
        <ele>382.0</ele>
        <time>2018-09-29T10:04:38Z</time>
      </trkpt>
      <trkpt lat="42.0726460" lon="-8.7332360">
        <ele>380.6</ele>
        <time>2018-09-29T10:04:41Z</time>
      </trkpt>
      <trkpt lat="42.0724600" lon="-8.7331350">
        <ele>379.6</ele>
        <time>2018-09-29T10:04:44Z</time>
      </trkpt>
      <trkpt lat="42.0724040" lon="-8.7330890">
        <ele>379.4</ele>
        <time>2018-09-29T10:04:45Z</time>
      </trkpt>
      <trkpt lat="42.0722570" lon="-8.7329390">
        <ele>378.2</ele>
        <time>2018-09-29T10:04:48Z</time>
      </trkpt>
      <trkpt lat="42.0721760" lon="-8.7328280">
        <ele>377.8</ele>
        <time>2018-09-29T10:04:50Z</time>
      </trkpt>
      <trkpt lat="42.0719970" lon="-8.7326260">
        <ele>377.4</ele>
        <time>2018-09-29T10:04:54Z</time>
      </trkpt>
      <trkpt lat="42.0719480" lon="-8.7325930">
        <ele>377.4</ele>
        <time>2018-09-29T10:04:55Z</time>
      </trkpt>
      <trkpt lat="42.0717860" lon="-8.7324530">
        <ele>377.4</ele>
        <time>2018-09-29T10:04:59Z</time>
      </trkpt>
      <trkpt lat="42.0716620" lon="-8.7323170">
        <ele>377.4</ele>
        <time>2018-09-29T10:05:03Z</time>
      </trkpt>
      <trkpt lat="42.0715640" lon="-8.7322180">
        <ele>377.8</ele>
        <time>2018-09-29T10:05:06Z</time>
      </trkpt>
      <trkpt lat="42.0714940" lon="-8.7321600">
        <ele>378.6</ele>
        <time>2018-09-29T10:05:08Z</time>
      </trkpt>
      <trkpt lat="42.0713860" lon="-8.7320620">
        <ele>379.4</ele>
        <time>2018-09-29T10:05:11Z</time>
      </trkpt>
      <trkpt lat="42.0712780" lon="-8.7319790">
        <ele>380.4</ele>
        <time>2018-09-29T10:05:14Z</time>
      </trkpt>
      <trkpt lat="42.0712430" lon="-8.7319560">
        <ele>380.6</ele>
        <time>2018-09-29T10:05:15Z</time>
      </trkpt>
      <trkpt lat="42.0711340" lon="-8.7319140">
        <ele>381.0</ele>
        <time>2018-09-29T10:05:18Z</time>
      </trkpt>
      <trkpt lat="42.0709440" lon="-8.7318190">
        <ele>381.8</ele>
        <time>2018-09-29T10:05:24Z</time>
      </trkpt>
      <trkpt lat="42.0708030" lon="-8.7316760">
        <ele>383.0</ele>
        <time>2018-09-29T10:05:29Z</time>
      </trkpt>
      <trkpt lat="42.0706620" lon="-8.7314410">
        <ele>384.2</ele>
        <time>2018-09-29T10:05:35Z</time>
      </trkpt>
      <trkpt lat="42.0705480" lon="-8.7312960">
        <ele>384.8</ele>
        <time>2018-09-29T10:05:39Z</time>
      </trkpt>
      <trkpt lat="42.0702470" lon="-8.7310730">
        <ele>385.2</ele>
        <time>2018-09-29T10:05:46Z</time>
      </trkpt>
      <trkpt lat="42.0701570" lon="-8.7309920">
        <ele>385.2</ele>
        <time>2018-09-29T10:05:48Z</time>
      </trkpt>
      <trkpt lat="42.0698070" lon="-8.7309300">
        <ele>384.6</ele>
        <time>2018-09-29T10:05:55Z</time>
      </trkpt>
      <trkpt lat="42.0697600" lon="-8.7308930">
        <ele>384.6</ele>
        <time>2018-09-29T10:05:56Z</time>
      </trkpt>
      <trkpt lat="42.0695270" lon="-8.7307420">
        <ele>383.6</ele>
        <time>2018-09-29T10:06:01Z</time>
      </trkpt>
      <trkpt lat="42.0694020" lon="-8.7307990">
        <ele>383.4</ele>
        <time>2018-09-29T10:06:04Z</time>
      </trkpt>
      <trkpt lat="42.0693540" lon="-8.7309780">
        <ele>383.2</ele>
        <time>2018-09-29T10:06:07Z</time>
      </trkpt>
      <trkpt lat="42.0693470" lon="-8.7310420">
        <ele>383.0</ele>
        <time>2018-09-29T10:06:08Z</time>
      </trkpt>
      <trkpt lat="42.0693210" lon="-8.7312380">
        <ele>382.8</ele>
        <time>2018-09-29T10:06:11Z</time>
      </trkpt>
      <trkpt lat="42.0692360" lon="-8.7314320">
        <ele>382.6</ele>
        <time>2018-09-29T10:06:14Z</time>
      </trkpt>
      <trkpt lat="42.0690970" lon="-8.7315760">
        <ele>382.0</ele>
        <time>2018-09-29T10:06:17Z</time>
      </trkpt>
      <trkpt lat="42.0687930" lon="-8.7316450">
        <ele>380.6</ele>
        <time>2018-09-29T10:06:22Z</time>
      </trkpt>
      <trkpt lat="42.0687040" lon="-8.7317440">
        <ele>379.8</ele>
        <time>2018-09-29T10:06:24Z</time>
      </trkpt>
      <trkpt lat="42.0686360" lon="-8.7318650">
        <ele>379.4</ele>
        <time>2018-09-29T10:06:26Z</time>
      </trkpt>
      <trkpt lat="42.0685970" lon="-8.7319250">
        <ele>379.2</ele>
        <time>2018-09-29T10:06:27Z</time>
      </trkpt>
      <trkpt lat="42.0683630" lon="-8.7321450">
        <ele>378.6</ele>
        <time>2018-09-29T10:06:31Z</time>
      </trkpt>
      <trkpt lat="42.0683090" lon="-8.7322130">
        <ele>378.0</ele>
        <time>2018-09-29T10:06:32Z</time>
      </trkpt>
      <trkpt lat="42.0682240" lon="-8.7324420">
        <ele>377.2</ele>
        <time>2018-09-29T10:06:35Z</time>
      </trkpt>
      <trkpt lat="42.0682110" lon="-8.7325150">
        <ele>376.8</ele>
        <time>2018-09-29T10:06:36Z</time>
      </trkpt>
      <trkpt lat="42.0681720" lon="-8.7326420">
        <ele>376.0</ele>
        <time>2018-09-29T10:06:38Z</time>
      </trkpt>
      <trkpt lat="42.0681430" lon="-8.7327010">
        <ele>375.8</ele>
        <time>2018-09-29T10:06:39Z</time>
      </trkpt>
      <trkpt lat="42.0680760" lon="-8.7328000">
        <ele>375.4</ele>
        <time>2018-09-29T10:06:41Z</time>
      </trkpt>
      <trkpt lat="42.0679770" lon="-8.7328840">
        <ele>375.2</ele>
        <time>2018-09-29T10:06:43Z</time>
      </trkpt>
      <trkpt lat="42.0678670" lon="-8.7329790">
        <ele>375.2</ele>
        <time>2018-09-29T10:06:45Z</time>
      </trkpt>
      <trkpt lat="42.0676970" lon="-8.7331260">
        <ele>374.8</ele>
        <time>2018-09-29T10:06:48Z</time>
      </trkpt>
      <trkpt lat="42.0675570" lon="-8.7332540">
        <ele>374.4</ele>
        <time>2018-09-29T10:06:51Z</time>
      </trkpt>
      <trkpt lat="42.0674800" lon="-8.7333290">
        <ele>374.2</ele>
        <time>2018-09-29T10:06:53Z</time>
      </trkpt>
      <trkpt lat="42.0672680" lon="-8.7335290">
        <ele>374.0</ele>
        <time>2018-09-29T10:07:00Z</time>
      </trkpt>
      <trkpt lat="42.0671740" lon="-8.7335870">
        <ele>374.0</ele>
        <time>2018-09-29T10:07:03Z</time>
      </trkpt>
      <trkpt lat="42.0670740" lon="-8.7336210">
        <ele>374.2</ele>
        <time>2018-09-29T10:07:06Z</time>
      </trkpt>
      <trkpt lat="42.0669750" lon="-8.7336210">
        <ele>375.2</ele>
        <time>2018-09-29T10:07:09Z</time>
      </trkpt>
      <trkpt lat="42.0669030" lon="-8.7336110">
        <ele>375.8</ele>
        <time>2018-09-29T10:07:11Z</time>
      </trkpt>
      <trkpt lat="42.0667930" lon="-8.7335830">
        <ele>376.4</ele>
        <time>2018-09-29T10:07:14Z</time>
      </trkpt>
      <trkpt lat="42.0666940" lon="-8.7335250">
        <ele>377.0</ele>
        <time>2018-09-29T10:07:17Z</time>
      </trkpt>
      <trkpt lat="42.0666220" lon="-8.7334250">
        <ele>377.4</ele>
        <time>2018-09-29T10:07:20Z</time>
      </trkpt>
      <trkpt lat="42.0665780" lon="-8.7332180">
        <ele>378.0</ele>
        <time>2018-09-29T10:07:25Z</time>
      </trkpt>
      <trkpt lat="42.0665180" lon="-8.7329820">
        <ele>379.2</ele>
        <time>2018-09-29T10:07:31Z</time>
      </trkpt>
      <trkpt lat="42.0663910" lon="-8.7328470">
        <ele>380.4</ele>
        <time>2018-09-29T10:07:36Z</time>
      </trkpt>
      <trkpt lat="42.0662820" lon="-8.7327550">
        <ele>381.6</ele>
        <time>2018-09-29T10:07:40Z</time>
      </trkpt>
      <trkpt lat="42.0661240" lon="-8.7328070">
        <ele>382.8</ele>
        <time>2018-09-29T10:07:45Z</time>
      </trkpt>
      <trkpt lat="42.0659150" lon="-8.7330660">
        <ele>383.6</ele>
        <time>2018-09-29T10:07:53Z</time>
      </trkpt>
      <trkpt lat="42.0658940" lon="-8.7331090">
        <ele>383.8</ele>
        <time>2018-09-29T10:07:54Z</time>
      </trkpt>
      <trkpt lat="42.0656060" lon="-8.7333860">
        <ele>384.8</ele>
        <time>2018-09-29T10:08:04Z</time>
      </trkpt>
      <trkpt lat="42.0652980" lon="-8.7334120">
        <ele>386.0</ele>
        <time>2018-09-29T10:08:13Z</time>
      </trkpt>
      <trkpt lat="42.0650920" lon="-8.7334820">
        <ele>387.2</ele>
        <time>2018-09-29T10:08:19Z</time>
      </trkpt>
      <trkpt lat="42.0648880" lon="-8.7334930">
        <ele>388.4</ele>
        <time>2018-09-29T10:08:25Z</time>
      </trkpt>
      <trkpt lat="42.0647230" lon="-8.7334670">
        <ele>389.4</ele>
        <time>2018-09-29T10:08:30Z</time>
      </trkpt>
      <trkpt lat="42.0644970" lon="-8.7334210">
        <ele>390.6</ele>
        <time>2018-09-29T10:08:37Z</time>
      </trkpt>
      <trkpt lat="42.0643730" lon="-8.7334870">
        <ele>391.6</ele>
        <time>2018-09-29T10:08:41Z</time>
      </trkpt>
      <trkpt lat="42.0642260" lon="-8.7335440">
        <ele>392.6</ele>
        <time>2018-09-29T10:08:46Z</time>
      </trkpt>
      <trkpt lat="42.0641950" lon="-8.7335230">
        <ele>392.8</ele>
        <time>2018-09-29T10:08:47Z</time>
      </trkpt>
      <trkpt lat="42.0641240" lon="-8.7333950">
        <ele>393.2</ele>
        <time>2018-09-29T10:08:50Z</time>
      </trkpt>
      <trkpt lat="42.0640700" lon="-8.7332820">
        <ele>393.2</ele>
        <time>2018-09-29T10:08:52Z</time>
      </trkpt>
      <trkpt lat="42.0638770" lon="-8.7328550">
        <ele>393.2</ele>
        <time>2018-09-29T10:08:58Z</time>
      </trkpt>
      <trkpt lat="42.0636940" lon="-8.7325860">
        <ele>392.2</ele>
        <time>2018-09-29T10:09:02Z</time>
      </trkpt>
      <trkpt lat="42.0634830" lon="-8.7323680">
        <ele>391.6</ele>
        <time>2018-09-29T10:09:06Z</time>
      </trkpt>
      <trkpt lat="42.0634370" lon="-8.7321390">
        <ele>390.4</ele>
        <time>2018-09-29T10:09:09Z</time>
      </trkpt>
      <trkpt lat="42.0633700" lon="-8.7319610">
        <ele>389.4</ele>
        <time>2018-09-29T10:09:12Z</time>
      </trkpt>
      <trkpt lat="42.0631780" lon="-8.7320240">
        <ele>388.4</ele>
        <time>2018-09-29T10:09:17Z</time>
      </trkpt>
      <trkpt lat="42.0631420" lon="-8.7320660">
        <ele>388.2</ele>
        <time>2018-09-29T10:09:18Z</time>
      </trkpt>
      <trkpt lat="42.0631100" lon="-8.7321110">
        <ele>388.0</ele>
        <time>2018-09-29T10:09:19Z</time>
      </trkpt>
      <trkpt lat="42.0630060" lon="-8.7323100">
        <ele>387.8</ele>
        <time>2018-09-29T10:09:23Z</time>
      </trkpt>
      <trkpt lat="42.0629240" lon="-8.7325930">
        <ele>387.8</ele>
        <time>2018-09-29T10:09:28Z</time>
      </trkpt>
      <trkpt lat="42.0629060" lon="-8.7327080">
        <ele>388.0</ele>
        <time>2018-09-29T10:09:30Z</time>
      </trkpt>
      <trkpt lat="42.0628980" lon="-8.7329260">
        <ele>388.8</ele>
        <time>2018-09-29T10:09:34Z</time>
      </trkpt>
      <trkpt lat="42.0628890" lon="-8.7330370">
        <ele>389.2</ele>
        <time>2018-09-29T10:09:36Z</time>
      </trkpt>
      <trkpt lat="42.0627070" lon="-8.7332640">
        <ele>390.2</ele>
        <time>2018-09-29T10:09:42Z</time>
      </trkpt>
      <trkpt lat="42.0626620" lon="-8.7332850">
        <ele>390.2</ele>
        <time>2018-09-29T10:09:43Z</time>
      </trkpt>
      <trkpt lat="42.0624100" lon="-8.7334120">
        <ele>391.0</ele>
        <time>2018-09-29T10:09:49Z</time>
      </trkpt>
      <trkpt lat="42.0623250" lon="-8.7334660">
        <ele>391.2</ele>
        <time>2018-09-29T10:09:51Z</time>
      </trkpt>
      <trkpt lat="42.0620590" lon="-8.7332800">
        <ele>391.4</ele>
        <time>2018-09-29T10:09:58Z</time>
      </trkpt>
      <trkpt lat="42.0619870" lon="-8.7331810">
        <ele>391.4</ele>
        <time>2018-09-29T10:10:00Z</time>
      </trkpt>
      <trkpt lat="42.0617600" lon="-8.7332650">
        <ele>391.2</ele>
        <time>2018-09-29T10:10:07Z</time>
      </trkpt>
      <trkpt lat="42.0617310" lon="-8.7334590">
        <ele>390.2</ele>
        <time>2018-09-29T10:10:10Z</time>
      </trkpt>
      <trkpt lat="42.0617040" lon="-8.7335910">
        <ele>389.8</ele>
        <time>2018-09-29T10:10:12Z</time>
      </trkpt>
      <trkpt lat="42.0616330" lon="-8.7337750">
        <ele>389.4</ele>
        <time>2018-09-29T10:10:15Z</time>
      </trkpt>
      <trkpt lat="42.0615540" lon="-8.7338670">
        <ele>389.2</ele>
        <time>2018-09-29T10:10:17Z</time>
      </trkpt>
      <trkpt lat="42.0614560" lon="-8.7339270">
        <ele>388.8</ele>
        <time>2018-09-29T10:10:19Z</time>
      </trkpt>
      <trkpt lat="42.0614040" lon="-8.7339500">
        <ele>388.8</ele>
        <time>2018-09-29T10:10:20Z</time>
      </trkpt>
      <trkpt lat="42.0611950" lon="-8.7339400">
        <ele>388.0</ele>
        <time>2018-09-29T10:10:24Z</time>
      </trkpt>
      <trkpt lat="42.0609350" lon="-8.7337720">
        <ele>387.0</ele>
        <time>2018-09-29T10:10:30Z</time>
      </trkpt>
      <trkpt lat="42.0607830" lon="-8.7339330">
        <ele>385.8</ele>
        <time>2018-09-29T10:10:35Z</time>
      </trkpt>
      <trkpt lat="42.0607370" lon="-8.7340380">
        <ele>384.8</ele>
        <time>2018-09-29T10:10:37Z</time>
      </trkpt>
      <trkpt lat="42.0607140" lon="-8.7340890">
        <ele>384.4</ele>
        <time>2018-09-29T10:10:38Z</time>
      </trkpt>
      <trkpt lat="42.0606740" lon="-8.7341920">
        <ele>383.4</ele>
        <time>2018-09-29T10:10:40Z</time>
      </trkpt>
      <trkpt lat="42.0606220" lon="-8.7343640">
        <ele>382.2</ele>
        <time>2018-09-29T10:10:43Z</time>
      </trkpt>
      <trkpt lat="42.0606090" lon="-8.7344340">
        <ele>382.0</ele>
        <time>2018-09-29T10:10:44Z</time>
      </trkpt>
      <trkpt lat="42.0605720" lon="-8.7346510">
        <ele>381.2</ele>
        <time>2018-09-29T10:10:47Z</time>
      </trkpt>
      <trkpt lat="42.0605590" lon="-8.7347270">
        <ele>381.0</ele>
        <time>2018-09-29T10:10:48Z</time>
      </trkpt>
      <trkpt lat="42.0605340" lon="-8.7348780">
        <ele>380.6</ele>
        <time>2018-09-29T10:10:50Z</time>
      </trkpt>
      <trkpt lat="42.0604880" lon="-8.7351860">
        <ele>379.6</ele>
        <time>2018-09-29T10:10:54Z</time>
      </trkpt>
      <trkpt lat="42.0605050" lon="-8.7353850">
        <ele>378.6</ele>
        <time>2018-09-29T10:10:56Z</time>
      </trkpt>
      <trkpt lat="42.0605180" lon="-8.7354890">
        <ele>377.4</ele>
        <time>2018-09-29T10:10:57Z</time>
      </trkpt>
      <trkpt lat="42.0605430" lon="-8.7356950">
        <ele>375.2</ele>
        <time>2018-09-29T10:10:59Z</time>
      </trkpt>
      <trkpt lat="42.0605620" lon="-8.7358820">
        <ele>373.8</ele>
        <time>2018-09-29T10:11:01Z</time>
      </trkpt>
      <trkpt lat="42.0605810" lon="-8.7359730">
        <ele>373.4</ele>
        <time>2018-09-29T10:11:02Z</time>
      </trkpt>
      <trkpt lat="42.0606040" lon="-8.7360600">
        <ele>372.2</ele>
        <time>2018-09-29T10:11:03Z</time>
      </trkpt>
      <trkpt lat="42.0606320" lon="-8.7361450">
        <ele>371.0</ele>
        <time>2018-09-29T10:11:04Z</time>
      </trkpt>
      <trkpt lat="42.0606640" lon="-8.7362240">
        <ele>369.6</ele>
        <time>2018-09-29T10:11:05Z</time>
      </trkpt>
      <trkpt lat="42.0606970" lon="-8.7363030">
        <ele>368.4</ele>
        <time>2018-09-29T10:11:06Z</time>
      </trkpt>
      <trkpt lat="42.0607620" lon="-8.7364640">
        <ele>366.8</ele>
        <time>2018-09-29T10:11:08Z</time>
      </trkpt>
      <trkpt lat="42.0608190" lon="-8.7366180">
        <ele>365.2</ele>
        <time>2018-09-29T10:11:10Z</time>
      </trkpt>
      <trkpt lat="42.0608930" lon="-8.7368390">
        <ele>364.0</ele>
        <time>2018-09-29T10:11:13Z</time>
      </trkpt>
      <trkpt lat="42.0609070" lon="-8.7371030">
        <ele>363.0</ele>
        <time>2018-09-29T10:11:16Z</time>
      </trkpt>
      <trkpt lat="42.0608970" lon="-8.7372970">
        <ele>361.6</ele>
        <time>2018-09-29T10:11:18Z</time>
      </trkpt>
      <trkpt lat="42.0608780" lon="-8.7374880">
        <ele>359.6</ele>
        <time>2018-09-29T10:11:20Z</time>
      </trkpt>
      <trkpt lat="42.0608580" lon="-8.7375760">
        <ele>359.0</ele>
        <time>2018-09-29T10:11:21Z</time>
      </trkpt>
      <trkpt lat="42.0608350" lon="-8.7376580">
        <ele>358.0</ele>
        <time>2018-09-29T10:11:22Z</time>
      </trkpt>
      <trkpt lat="42.0608090" lon="-8.7377360">
        <ele>357.0</ele>
        <time>2018-09-29T10:11:23Z</time>
      </trkpt>
      <trkpt lat="42.0607760" lon="-8.7378070">
        <ele>356.2</ele>
        <time>2018-09-29T10:11:24Z</time>
      </trkpt>
      <trkpt lat="42.0607320" lon="-8.7378650">
        <ele>355.2</ele>
        <time>2018-09-29T10:11:25Z</time>
      </trkpt>
      <trkpt lat="42.0606220" lon="-8.7379620">
        <ele>353.8</ele>
        <time>2018-09-29T10:11:27Z</time>
      </trkpt>
      <trkpt lat="42.0604870" lon="-8.7380510">
        <ele>352.2</ele>
        <time>2018-09-29T10:11:29Z</time>
      </trkpt>
      <trkpt lat="42.0603510" lon="-8.7381490">
        <ele>351.0</ele>
        <time>2018-09-29T10:11:31Z</time>
      </trkpt>
      <trkpt lat="42.0602290" lon="-8.7382470">
        <ele>349.2</ele>
        <time>2018-09-29T10:11:33Z</time>
      </trkpt>
      <trkpt lat="42.0601650" lon="-8.7382970">
        <ele>348.0</ele>
        <time>2018-09-29T10:11:34Z</time>
      </trkpt>
      <trkpt lat="42.0600260" lon="-8.7383940">
        <ele>345.8</ele>
        <time>2018-09-29T10:11:36Z</time>
      </trkpt>
      <trkpt lat="42.0599580" lon="-8.7384440">
        <ele>344.6</ele>
        <time>2018-09-29T10:11:37Z</time>
      </trkpt>
      <trkpt lat="42.0598940" lon="-8.7384930">
        <ele>343.4</ele>
        <time>2018-09-29T10:11:38Z</time>
      </trkpt>
      <trkpt lat="42.0598350" lon="-8.7385440">
        <ele>342.2</ele>
        <time>2018-09-29T10:11:39Z</time>
      </trkpt>
      <trkpt lat="42.0597810" lon="-8.7386010">
        <ele>341.0</ele>
        <time>2018-09-29T10:11:40Z</time>
      </trkpt>
      <trkpt lat="42.0597320" lon="-8.7386570">
        <ele>340.0</ele>
        <time>2018-09-29T10:11:41Z</time>
      </trkpt>
      <trkpt lat="42.0596790" lon="-8.7387160">
        <ele>337.0</ele>
        <time>2018-09-29T10:11:42Z</time>
      </trkpt>
      <trkpt lat="42.0596280" lon="-8.7387710">
        <ele>335.6</ele>
        <time>2018-09-29T10:11:43Z</time>
      </trkpt>
      <trkpt lat="42.0595800" lon="-8.7388270">
        <ele>334.2</ele>
        <time>2018-09-29T10:11:44Z</time>
      </trkpt>
      <trkpt lat="42.0595380" lon="-8.7388810">
        <ele>332.4</ele>
        <time>2018-09-29T10:11:45Z</time>
      </trkpt>
      <trkpt lat="42.0595020" lon="-8.7389330">
        <ele>331.0</ele>
        <time>2018-09-29T10:11:46Z</time>
      </trkpt>
      <trkpt lat="42.0594320" lon="-8.7390470">
        <ele>329.0</ele>
        <time>2018-09-29T10:11:48Z</time>
      </trkpt>
      <trkpt lat="42.0593990" lon="-8.7391170">
        <ele>327.6</ele>
        <time>2018-09-29T10:11:49Z</time>
      </trkpt>
      <trkpt lat="42.0593760" lon="-8.7391960">
        <ele>326.8</ele>
        <time>2018-09-29T10:11:50Z</time>
      </trkpt>
      <trkpt lat="42.0593640" lon="-8.7392800">
        <ele>325.8</ele>
        <time>2018-09-29T10:11:51Z</time>
      </trkpt>
      <trkpt lat="42.0593670" lon="-8.7393710">
        <ele>324.4</ele>
        <time>2018-09-29T10:11:52Z</time>
      </trkpt>
      <trkpt lat="42.0593920" lon="-8.7394580">
        <ele>323.0</ele>
        <time>2018-09-29T10:11:53Z</time>
      </trkpt>
      <trkpt lat="42.0594180" lon="-8.7395390">
        <ele>321.6</ele>
        <time>2018-09-29T10:11:54Z</time>
      </trkpt>
      <trkpt lat="42.0594430" lon="-8.7396210">
        <ele>320.4</ele>
        <time>2018-09-29T10:11:55Z</time>
      </trkpt>
      <trkpt lat="42.0594630" lon="-8.7397040">
        <ele>319.2</ele>
        <time>2018-09-29T10:11:56Z</time>
      </trkpt>
      <trkpt lat="42.0595050" lon="-8.7398780">
        <ele>317.2</ele>
        <time>2018-09-29T10:11:58Z</time>
      </trkpt>
      <trkpt lat="42.0595340" lon="-8.7399570">
        <ele>316.0</ele>
        <time>2018-09-29T10:11:59Z</time>
      </trkpt>
      <trkpt lat="42.0595950" lon="-8.7400810">
        <ele>314.6</ele>
        <time>2018-09-29T10:12:01Z</time>
      </trkpt>
      <trkpt lat="42.0596850" lon="-8.7402420">
        <ele>313.4</ele>
        <time>2018-09-29T10:12:04Z</time>
      </trkpt>
      <trkpt lat="42.0598660" lon="-8.7404730">
        <ele>313.2</ele>
        <time>2018-09-29T10:12:09Z</time>
      </trkpt>
      <trkpt lat="42.0599830" lon="-8.7405880">
        <ele>313.2</ele>
        <time>2018-09-29T10:12:12Z</time>
      </trkpt>
      <trkpt lat="42.0601720" lon="-8.7406640">
        <ele>313.8</ele>
        <time>2018-09-29T10:12:17Z</time>
      </trkpt>
      <trkpt lat="42.0603090" lon="-8.7406930">
        <ele>314.6</ele>
        <time>2018-09-29T10:12:21Z</time>
      </trkpt>
      <trkpt lat="42.0607040" lon="-8.7408040">
        <ele>315.0</ele>
        <time>2018-09-29T10:12:31Z</time>
      </trkpt>
      <trkpt lat="42.0610170" lon="-8.7408980">
        <ele>314.4</ele>
        <time>2018-09-29T10:12:38Z</time>
      </trkpt>
      <trkpt lat="42.0613730" lon="-8.7411060">
        <ele>313.8</ele>
        <time>2018-09-29T10:12:44Z</time>
      </trkpt>
      <trkpt lat="42.0614850" lon="-8.7412340">
        <ele>313.4</ele>
        <time>2018-09-29T10:12:46Z</time>
      </trkpt>
      <trkpt lat="42.0616180" lon="-8.7414630">
        <ele>312.6</ele>
        <time>2018-09-29T10:12:49Z</time>
      </trkpt>
      <trkpt lat="42.0616520" lon="-8.7415480">
        <ele>312.4</ele>
        <time>2018-09-29T10:12:50Z</time>
      </trkpt>
      <trkpt lat="42.0617080" lon="-8.7418340">
        <ele>311.4</ele>
        <time>2018-09-29T10:12:53Z</time>
      </trkpt>
      <trkpt lat="42.0617150" lon="-8.7420300">
        <ele>310.6</ele>
        <time>2018-09-29T10:12:55Z</time>
      </trkpt>
      <trkpt lat="42.0617340" lon="-8.7422210">
        <ele>310.2</ele>
        <time>2018-09-29T10:12:57Z</time>
      </trkpt>
      <trkpt lat="42.0617530" lon="-8.7423200">
        <ele>310.0</ele>
        <time>2018-09-29T10:12:58Z</time>
      </trkpt>
      <trkpt lat="42.0618400" lon="-8.7426330">
        <ele>309.0</ele>
        <time>2018-09-29T10:13:01Z</time>
      </trkpt>
      <trkpt lat="42.0619060" lon="-8.7428480">
        <ele>307.8</ele>
        <time>2018-09-29T10:13:03Z</time>
      </trkpt>
      <trkpt lat="42.0619830" lon="-8.7430630">
        <ele>307.0</ele>
        <time>2018-09-29T10:13:05Z</time>
      </trkpt>
      <trkpt lat="42.0620320" lon="-8.7431590">
        <ele>306.6</ele>
        <time>2018-09-29T10:13:06Z</time>
      </trkpt>
      <trkpt lat="42.0622270" lon="-8.7433830">
        <ele>305.0</ele>
        <time>2018-09-29T10:13:09Z</time>
      </trkpt>
      <trkpt lat="42.0623030" lon="-8.7434480">
        <ele>304.2</ele>
        <time>2018-09-29T10:13:10Z</time>
      </trkpt>
      <trkpt lat="42.0623800" lon="-8.7435080">
        <ele>303.2</ele>
        <time>2018-09-29T10:13:11Z</time>
      </trkpt>
      <trkpt lat="42.0625370" lon="-8.7436210">
        <ele>301.4</ele>
        <time>2018-09-29T10:13:13Z</time>
      </trkpt>
      <trkpt lat="42.0626090" lon="-8.7436810">
        <ele>300.6</ele>
        <time>2018-09-29T10:13:14Z</time>
      </trkpt>
      <trkpt lat="42.0626620" lon="-8.7437570">
        <ele>300.0</ele>
        <time>2018-09-29T10:13:15Z</time>
      </trkpt>
      <trkpt lat="42.0628420" lon="-8.7440980">
        <ele>298.8</ele>
        <time>2018-09-29T10:13:19Z</time>
      </trkpt>
      <trkpt lat="42.0629160" lon="-8.7443240">
        <ele>298.2</ele>
        <time>2018-09-29T10:13:22Z</time>
      </trkpt>
      <trkpt lat="42.0629340" lon="-8.7443810">
        <ele>298.0</ele>
        <time>2018-09-29T10:13:23Z</time>
      </trkpt>
      <trkpt lat="42.0629480" lon="-8.7444330">
        <ele>297.8</ele>
        <time>2018-09-29T10:13:24Z</time>
      </trkpt>
      <trkpt lat="42.0629630" lon="-8.7444800">
        <ele>297.6</ele>
        <time>2018-09-29T10:13:25Z</time>
      </trkpt>
      <trkpt lat="42.0630140" lon="-8.7445860">
        <ele>296.0</ele>
        <time>2018-09-29T10:13:29Z</time>
      </trkpt>
      <trkpt lat="42.0630270" lon="-8.7445980">
        <ele>295.4</ele>
        <time>2018-09-29T10:13:30Z</time>
      </trkpt>
      <trkpt lat="42.0630430" lon="-8.7446040">
        <ele>294.8</ele>
        <time>2018-09-29T10:13:31Z</time>
      </trkpt>
      <trkpt lat="42.0630790" lon="-8.7446050">
        <ele>293.8</ele>
        <time>2018-09-29T10:13:33Z</time>
      </trkpt>
      <trkpt lat="42.0631140" lon="-8.7446050">
        <ele>293.2</ele>
        <time>2018-09-29T10:13:35Z</time>
      </trkpt>
      <trkpt lat="42.0631290" lon="-8.7446110">
        <ele>293.2</ele>
        <time>2018-09-29T10:13:36Z</time>
      </trkpt>
      <trkpt lat="42.0631060" lon="-8.7447650">
        <ele>293.0</ele>
        <time>2018-09-29T10:13:41Z</time>
      </trkpt>
      <trkpt lat="42.0631060" lon="-8.7448330">
        <ele>293.0</ele>
        <time>2018-09-29T10:13:43Z</time>
      </trkpt>
      <trkpt lat="42.0631250" lon="-8.7448850">
        <ele>293.0</ele>
        <time>2018-09-29T10:13:45Z</time>
      </trkpt>
      <trkpt lat="42.0631470" lon="-8.7449180">
        <ele>293.0</ele>
        <time>2018-09-29T10:13:47Z</time>
      </trkpt>
      <trkpt lat="42.0631730" lon="-8.7449740">
        <ele>293.0</ele>
        <time>2018-09-29T10:13:50Z</time>
      </trkpt>
      <trkpt lat="42.0631840" lon="-8.7450060">
        <ele>293.0</ele>
        <time>2018-09-29T10:13:52Z</time>
      </trkpt>
      <trkpt lat="42.0632090" lon="-8.7450700">
        <ele>293.6</ele>
        <time>2018-09-29T10:13:55Z</time>
      </trkpt>
      <trkpt lat="42.0632320" lon="-8.7451200">
        <ele>294.0</ele>
        <time>2018-09-29T10:13:57Z</time>
      </trkpt>
      <trkpt lat="42.0632650" lon="-8.7451690">
        <ele>294.6</ele>
        <time>2018-09-29T10:13:59Z</time>
      </trkpt>
      <trkpt lat="42.0632780" lon="-8.7451950">
        <ele>295.0</ele>
        <time>2018-09-29T10:14:00Z</time>
      </trkpt>
      <trkpt lat="42.0633160" lon="-8.7452750">
        <ele>295.8</ele>
        <time>2018-09-29T10:14:03Z</time>
      </trkpt>
      <trkpt lat="42.0633310" lon="-8.7453000">
        <ele>296.0</ele>
        <time>2018-09-29T10:14:04Z</time>
      </trkpt>
      <trkpt lat="42.0633810" lon="-8.7455290">
        <ele>297.2</ele>
        <time>2018-09-29T10:14:11Z</time>
      </trkpt>
      <trkpt lat="42.0633890" lon="-8.7457010">
        <ele>297.8</ele>
        <time>2018-09-29T10:14:17Z</time>
      </trkpt>
      <trkpt lat="42.0633950" lon="-8.7458070">
        <ele>298.2</ele>
        <time>2018-09-29T10:14:21Z</time>
      </trkpt>
      <trkpt lat="42.0633910" lon="-8.7459470">
        <ele>299.2</ele>
        <time>2018-09-29T10:14:26Z</time>
      </trkpt>
      <trkpt lat="42.0633940" lon="-8.7459770">
        <ele>299.6</ele>
        <time>2018-09-29T10:14:27Z</time>
      </trkpt>
      <trkpt lat="42.0634100" lon="-8.7460760">
        <ele>300.8</ele>
        <time>2018-09-29T10:14:30Z</time>
      </trkpt>
      <trkpt lat="42.0634300" lon="-8.7461690">
        <ele>301.6</ele>
        <time>2018-09-29T10:14:33Z</time>
      </trkpt>
      <trkpt lat="42.0634570" lon="-8.7462200">
        <ele>301.8</ele>
        <time>2018-09-29T10:14:35Z</time>
      </trkpt>
      <trkpt lat="42.0634700" lon="-8.7462440">
        <ele>302.0</ele>
        <time>2018-09-29T10:14:36Z</time>
      </trkpt>
      <trkpt lat="42.0635120" lon="-8.7463410">
        <ele>302.8</ele>
        <time>2018-09-29T10:14:40Z</time>
      </trkpt>
      <trkpt lat="42.0635230" lon="-8.7463650">
        <ele>303.0</ele>
        <time>2018-09-29T10:14:41Z</time>
      </trkpt>
      <trkpt lat="42.0635880" lon="-8.7465150">
        <ele>304.0</ele>
        <time>2018-09-29T10:14:47Z</time>
      </trkpt>
      <trkpt lat="42.0636280" lon="-8.7465870">
        <ele>305.2</ele>
        <time>2018-09-29T10:14:50Z</time>
      </trkpt>
      <trkpt lat="42.0636690" lon="-8.7466600">
        <ele>306.2</ele>
        <time>2018-09-29T10:14:53Z</time>
      </trkpt>
      <trkpt lat="42.0637220" lon="-8.7467480">
        <ele>307.2</ele>
        <time>2018-09-29T10:14:57Z</time>
      </trkpt>
      <trkpt lat="42.0637940" lon="-8.7468660">
        <ele>308.4</ele>
        <time>2018-09-29T10:15:02Z</time>
      </trkpt>
      <trkpt lat="42.0638700" lon="-8.7469800">
        <ele>309.4</ele>
        <time>2018-09-29T10:15:07Z</time>
      </trkpt>
      <trkpt lat="42.0639480" lon="-8.7470920">
        <ele>310.6</ele>
        <time>2018-09-29T10:15:12Z</time>
      </trkpt>
      <trkpt lat="42.0639830" lon="-8.7471320">
        <ele>311.2</ele>
        <time>2018-09-29T10:15:14Z</time>
      </trkpt>
      <trkpt lat="42.0640180" lon="-8.7471680">
        <ele>311.6</ele>
        <time>2018-09-29T10:15:16Z</time>
      </trkpt>
      <trkpt lat="42.0641080" lon="-8.7472170">
        <ele>312.6</ele>
        <time>2018-09-29T10:15:21Z</time>
      </trkpt>
      <trkpt lat="42.0641430" lon="-8.7472210">
        <ele>313.0</ele>
        <time>2018-09-29T10:15:23Z</time>
      </trkpt>
      <trkpt lat="42.0642020" lon="-8.7472280">
        <ele>313.8</ele>
        <time>2018-09-29T10:15:26Z</time>
      </trkpt>
      <trkpt lat="42.0643570" lon="-8.7472940">
        <ele>315.0</ele>
        <time>2018-09-29T10:15:33Z</time>
      </trkpt>
      <trkpt lat="42.0644530" lon="-8.7474210">
        <ele>316.0</ele>
        <time>2018-09-29T10:15:39Z</time>
      </trkpt>
      <trkpt lat="42.0644750" lon="-8.7476260">
        <ele>317.0</ele>
        <time>2018-09-29T10:15:46Z</time>
      </trkpt>
      <trkpt lat="42.0644380" lon="-8.7477590">
        <ele>318.4</ele>
        <time>2018-09-29T10:15:51Z</time>
      </trkpt>
      <trkpt lat="42.0643900" lon="-8.7478570">
        <ele>319.4</ele>
        <time>2018-09-29T10:15:56Z</time>
      </trkpt>
      <trkpt lat="42.0643220" lon="-8.7479670">
        <ele>320.4</ele>
        <time>2018-09-29T10:16:01Z</time>
      </trkpt>
      <trkpt lat="42.0642640" lon="-8.7480960">
        <ele>321.6</ele>
        <time>2018-09-29T10:16:06Z</time>
      </trkpt>
      <trkpt lat="42.0642350" lon="-8.7482420">
        <ele>322.6</ele>
        <time>2018-09-29T10:16:12Z</time>
      </trkpt>
      <trkpt lat="42.0642110" lon="-8.7483770">
        <ele>323.8</ele>
        <time>2018-09-29T10:16:17Z</time>
      </trkpt>
      <trkpt lat="42.0641920" lon="-8.7485240">
        <ele>325.0</ele>
        <time>2018-09-29T10:16:22Z</time>
      </trkpt>
      <trkpt lat="42.0642050" lon="-8.7487000">
        <ele>326.0</ele>
        <time>2018-09-29T10:16:28Z</time>
      </trkpt>
      <trkpt lat="42.0642330" lon="-8.7487810">
        <ele>327.0</ele>
        <time>2018-09-29T10:16:32Z</time>
      </trkpt>
      <trkpt lat="42.0642740" lon="-8.7488570">
        <ele>328.2</ele>
        <time>2018-09-29T10:16:35Z</time>
      </trkpt>
      <trkpt lat="42.0643330" lon="-8.7489600">
        <ele>329.4</ele>
        <time>2018-09-29T10:16:39Z</time>
      </trkpt>
      <trkpt lat="42.0643880" lon="-8.7490920">
        <ele>330.4</ele>
        <time>2018-09-29T10:16:44Z</time>
      </trkpt>
      <trkpt lat="42.0644010" lon="-8.7491170">
        <ele>330.6</ele>
        <time>2018-09-29T10:16:45Z</time>
      </trkpt>
      <trkpt lat="42.0644830" lon="-8.7492320">
        <ele>331.6</ele>
        <time>2018-09-29T10:16:50Z</time>
      </trkpt>
      <trkpt lat="42.0645700" lon="-8.7493370">
        <ele>332.6</ele>
        <time>2018-09-29T10:16:55Z</time>
      </trkpt>
      <trkpt lat="42.0646850" lon="-8.7493870">
        <ele>333.6</ele>
        <time>2018-09-29T10:17:00Z</time>
      </trkpt>
      <trkpt lat="42.0648230" lon="-8.7494320">
        <ele>334.8</ele>
        <time>2018-09-29T10:17:06Z</time>
      </trkpt>
      <trkpt lat="42.0650290" lon="-8.7495050">
        <ele>336.0</ele>
        <time>2018-09-29T10:17:15Z</time>
      </trkpt>
      <trkpt lat="42.0651470" lon="-8.7495360">
        <ele>337.0</ele>
        <time>2018-09-29T10:17:20Z</time>
      </trkpt>
      <trkpt lat="42.0652810" lon="-8.7495330">
        <ele>338.4</ele>
        <time>2018-09-29T10:17:26Z</time>
      </trkpt>
      <trkpt lat="42.0653660" lon="-8.7494890">
        <ele>339.4</ele>
        <time>2018-09-29T10:17:30Z</time>
      </trkpt>
      <trkpt lat="42.0654570" lon="-8.7494220">
        <ele>340.4</ele>
        <time>2018-09-29T10:17:34Z</time>
      </trkpt>
      <trkpt lat="42.0656530" lon="-8.7494090">
        <ele>341.6</ele>
        <time>2018-09-29T10:17:42Z</time>
      </trkpt>
      <trkpt lat="42.0660300" lon="-8.7495200">
        <ele>342.6</ele>
        <time>2018-09-29T10:17:54Z</time>
      </trkpt>
      <trkpt lat="42.0663030" lon="-8.7496600">
        <ele>343.6</ele>
        <time>2018-09-29T10:18:03Z</time>
      </trkpt>
      <trkpt lat="42.0665660" lon="-8.7497400">
        <ele>344.8</ele>
        <time>2018-09-29T10:18:12Z</time>
      </trkpt>
      <trkpt lat="42.0667920" lon="-8.7497730">
        <ele>346.0</ele>
        <time>2018-09-29T10:18:21Z</time>
      </trkpt>
      <trkpt lat="42.0668870" lon="-8.7497720">
        <ele>347.0</ele>
        <time>2018-09-29T10:18:26Z</time>
      </trkpt>
      <trkpt lat="42.0669690" lon="-8.7498380">
        <ele>348.0</ele>
        <time>2018-09-29T10:18:31Z</time>
      </trkpt>
      <trkpt lat="42.0670230" lon="-8.7499050">
        <ele>349.2</ele>
        <time>2018-09-29T10:18:35Z</time>
      </trkpt>
      <trkpt lat="42.0670840" lon="-8.7499930">
        <ele>350.6</ele>
        <time>2018-09-29T10:18:40Z</time>
      </trkpt>
      <trkpt lat="42.0671340" lon="-8.7500940">
        <ele>351.8</ele>
        <time>2018-09-29T10:18:45Z</time>
      </trkpt>
      <trkpt lat="42.0671570" lon="-8.7501840">
        <ele>353.0</ele>
        <time>2018-09-29T10:18:49Z</time>
      </trkpt>
      <trkpt lat="42.0671800" lon="-8.7502920">
        <ele>354.0</ele>
        <time>2018-09-29T10:18:53Z</time>
      </trkpt>
      <trkpt lat="42.0672080" lon="-8.7504340">
        <ele>355.2</ele>
        <time>2018-09-29T10:18:58Z</time>
      </trkpt>
      <trkpt lat="42.0672620" lon="-8.7505610">
        <ele>356.4</ele>
        <time>2018-09-29T10:19:03Z</time>
      </trkpt>
      <trkpt lat="42.0673120" lon="-8.7506570">
        <ele>357.6</ele>
        <time>2018-09-29T10:19:07Z</time>
      </trkpt>
      <trkpt lat="42.0673970" lon="-8.7508010">
        <ele>359.0</ele>
        <time>2018-09-29T10:19:13Z</time>
      </trkpt>
      <trkpt lat="42.0674710" lon="-8.7509260">
        <ele>360.0</ele>
        <time>2018-09-29T10:19:18Z</time>
      </trkpt>
      <trkpt lat="42.0675600" lon="-8.7511000">
        <ele>361.2</ele>
        <time>2018-09-29T10:19:25Z</time>
      </trkpt>
      <trkpt lat="42.0676410" lon="-8.7511980">
        <ele>362.4</ele>
        <time>2018-09-29T10:19:30Z</time>
      </trkpt>
      <trkpt lat="42.0677400" lon="-8.7512550">
        <ele>363.6</ele>
        <time>2018-09-29T10:19:35Z</time>
      </trkpt>
      <trkpt lat="42.0678560" lon="-8.7512640">
        <ele>364.8</ele>
        <time>2018-09-29T10:19:40Z</time>
      </trkpt>
      <trkpt lat="42.0679600" lon="-8.7512760">
        <ele>365.8</ele>
        <time>2018-09-29T10:19:44Z</time>
      </trkpt>
      <trkpt lat="42.0681030" lon="-8.7512950">
        <ele>367.0</ele>
        <time>2018-09-29T10:19:49Z</time>
      </trkpt>
      <trkpt lat="42.0684860" lon="-8.7513580">
        <ele>368.0</ele>
        <time>2018-09-29T10:20:01Z</time>
      </trkpt>
      <trkpt lat="42.0685900" lon="-8.7513700">
        <ele>368.2</ele>
        <time>2018-09-29T10:20:04Z</time>
      </trkpt>
      <trkpt lat="42.0688300" lon="-8.7513990">
        <ele>368.2</ele>
        <time>2018-09-29T10:20:11Z</time>
      </trkpt>
      <trkpt lat="42.0689920" lon="-8.7514090">
        <ele>368.4</ele>
        <time>2018-09-29T10:20:16Z</time>
      </trkpt>
      <trkpt lat="42.0692330" lon="-8.7515680">
        <ele>369.2</ele>
        <time>2018-09-29T10:20:25Z</time>
      </trkpt>
      <trkpt lat="42.0694260" lon="-8.7516680">
        <ele>370.4</ele>
        <time>2018-09-29T10:20:32Z</time>
      </trkpt>
      <trkpt lat="42.0695960" lon="-8.7517550">
        <ele>371.6</ele>
        <time>2018-09-29T10:20:39Z</time>
      </trkpt>
      <trkpt lat="42.0696840" lon="-8.7517960">
        <ele>372.6</ele>
        <time>2018-09-29T10:20:43Z</time>
      </trkpt>
      <trkpt lat="42.0697960" lon="-8.7518680">
        <ele>373.8</ele>
        <time>2018-09-29T10:20:48Z</time>
      </trkpt>
      <trkpt lat="42.0699110" lon="-8.7519430">
        <ele>374.8</ele>
        <time>2018-09-29T10:20:53Z</time>
      </trkpt>
      <trkpt lat="42.0700170" lon="-8.7520410">
        <ele>376.0</ele>
        <time>2018-09-29T10:20:58Z</time>
      </trkpt>
      <trkpt lat="42.0701420" lon="-8.7521650">
        <ele>377.0</ele>
        <time>2018-09-29T10:21:04Z</time>
      </trkpt>
      <trkpt lat="42.0702850" lon="-8.7522800">
        <ele>378.0</ele>
        <time>2018-09-29T10:21:11Z</time>
      </trkpt>
      <trkpt lat="42.0704130" lon="-8.7523410">
        <ele>379.4</ele>
        <time>2018-09-29T10:21:17Z</time>
      </trkpt>
      <trkpt lat="42.0704800" lon="-8.7523440">
        <ele>380.6</ele>
        <time>2018-09-29T10:21:20Z</time>
      </trkpt>
      <trkpt lat="42.0705510" lon="-8.7523320">
        <ele>382.0</ele>
        <time>2018-09-29T10:21:23Z</time>
      </trkpt>
      <trkpt lat="42.0706200" lon="-8.7523300">
        <ele>383.0</ele>
        <time>2018-09-29T10:21:26Z</time>
      </trkpt>
      <trkpt lat="42.0707100" lon="-8.7523270">
        <ele>384.2</ele>
        <time>2018-09-29T10:21:30Z</time>
      </trkpt>
      <trkpt lat="42.0707710" lon="-8.7523270">
        <ele>385.4</ele>
        <time>2018-09-29T10:21:33Z</time>
      </trkpt>
      <trkpt lat="42.0708540" lon="-8.7523570">
        <ele>386.8</ele>
        <time>2018-09-29T10:21:37Z</time>
      </trkpt>
      <trkpt lat="42.0709560" lon="-8.7524110">
        <ele>387.8</ele>
        <time>2018-09-29T10:21:42Z</time>
      </trkpt>
      <trkpt lat="42.0710660" lon="-8.7524390">
        <ele>388.8</ele>
        <time>2018-09-29T10:21:47Z</time>
      </trkpt>
      <trkpt lat="42.0712290" lon="-8.7525140">
        <ele>390.0</ele>
        <time>2018-09-29T10:21:54Z</time>
      </trkpt>
      <trkpt lat="42.0714290" lon="-8.7527310">
        <ele>391.0</ele>
        <time>2018-09-29T10:22:04Z</time>
      </trkpt>
      <trkpt lat="42.0716300" lon="-8.7528740">
        <ele>392.0</ele>
        <time>2018-09-29T10:22:12Z</time>
      </trkpt>
      <trkpt lat="42.0718410" lon="-8.7530230">
        <ele>393.0</ele>
        <time>2018-09-29T10:22:20Z</time>
      </trkpt>
      <trkpt lat="42.0720520" lon="-8.7532370">
        <ele>394.0</ele>
        <time>2018-09-29T10:22:29Z</time>
      </trkpt>
      <trkpt lat="42.0720960" lon="-8.7532940">
        <ele>394.2</ele>
        <time>2018-09-29T10:22:31Z</time>
      </trkpt>
      <trkpt lat="42.0722060" lon="-8.7535380">
        <ele>395.2</ele>
        <time>2018-09-29T10:22:38Z</time>
      </trkpt>
      <trkpt lat="42.0722680" lon="-8.7537320">
        <ele>396.2</ele>
        <time>2018-09-29T10:22:43Z</time>
      </trkpt>
      <trkpt lat="42.0723610" lon="-8.7541160">
        <ele>397.2</ele>
        <time>2018-09-29T10:22:53Z</time>
      </trkpt>
      <trkpt lat="42.0724360" lon="-8.7542830">
        <ele>398.4</ele>
        <time>2018-09-29T10:22:58Z</time>
      </trkpt>
      <trkpt lat="42.0725030" lon="-8.7543670">
        <ele>399.4</ele>
        <time>2018-09-29T10:23:01Z</time>
      </trkpt>
      <trkpt lat="42.0726310" lon="-8.7544690">
        <ele>400.6</ele>
        <time>2018-09-29T10:23:06Z</time>
      </trkpt>
      <trkpt lat="42.0728520" lon="-8.7545900">
        <ele>401.8</ele>
        <time>2018-09-29T10:23:15Z</time>
      </trkpt>
      <trkpt lat="42.0729720" lon="-8.7546890">
        <ele>403.0</ele>
        <time>2018-09-29T10:23:20Z</time>
      </trkpt>
      <trkpt lat="42.0730540" lon="-8.7548370">
        <ele>404.2</ele>
        <time>2018-09-29T10:23:25Z</time>
      </trkpt>
      <trkpt lat="42.0730760" lon="-8.7550610">
        <ele>405.4</ele>
        <time>2018-09-29T10:23:31Z</time>
      </trkpt>
      <trkpt lat="42.0730420" lon="-8.7552750">
        <ele>406.4</ele>
        <time>2018-09-29T10:23:37Z</time>
      </trkpt>
      <trkpt lat="42.0730280" lon="-8.7554210">
        <ele>407.6</ele>
        <time>2018-09-29T10:23:41Z</time>
      </trkpt>
      <trkpt lat="42.0730120" lon="-8.7556420">
        <ele>408.6</ele>
        <time>2018-09-29T10:23:47Z</time>
      </trkpt>
      <trkpt lat="42.0729830" lon="-8.7558930">
        <ele>409.6</ele>
        <time>2018-09-29T10:23:54Z</time>
      </trkpt>
      <trkpt lat="42.0729840" lon="-8.7559260">
        <ele>410.0</ele>
        <time>2018-09-29T10:23:55Z</time>
      </trkpt>
      <trkpt lat="42.0729470" lon="-8.7560950">
        <ele>410.8</ele>
        <time>2018-09-29T10:24:00Z</time>
      </trkpt>
      <trkpt lat="42.0728950" lon="-8.7562920">
        <ele>411.8</ele>
        <time>2018-09-29T10:24:06Z</time>
      </trkpt>
      <trkpt lat="42.0728440" lon="-8.7564160">
        <ele>413.0</ele>
        <time>2018-09-29T10:24:10Z</time>
      </trkpt>
      <trkpt lat="42.0727280" lon="-8.7565190">
        <ele>414.0</ele>
        <time>2018-09-29T10:24:15Z</time>
      </trkpt>
      <trkpt lat="42.0725950" lon="-8.7566830">
        <ele>415.2</ele>
        <time>2018-09-29T10:24:21Z</time>
      </trkpt>
      <trkpt lat="42.0725180" lon="-8.7569100">
        <ele>416.2</ele>
        <time>2018-09-29T10:24:27Z</time>
      </trkpt>
      <trkpt lat="42.0725050" lon="-8.7570770">
        <ele>416.8</ele>
        <time>2018-09-29T10:24:31Z</time>
      </trkpt>
      <trkpt lat="42.0725080" lon="-8.7572100">
        <ele>417.2</ele>
        <time>2018-09-29T10:24:34Z</time>
      </trkpt>
      <trkpt lat="42.0724960" lon="-8.7575060">
        <ele>418.2</ele>
        <time>2018-09-29T10:24:41Z</time>
      </trkpt>
      <trkpt lat="42.0724890" lon="-8.7577610">
        <ele>419.4</ele>
        <time>2018-09-29T10:24:47Z</time>
      </trkpt>
      <trkpt lat="42.0725420" lon="-8.7579440">
        <ele>420.2</ele>
        <time>2018-09-29T10:24:52Z</time>
      </trkpt>
      <trkpt lat="42.0726090" lon="-8.7579950">
        <ele>420.4</ele>
        <time>2018-09-29T10:24:55Z</time>
      </trkpt>
      <trkpt lat="42.0726700" lon="-8.7580550">
        <ele>420.6</ele>
        <time>2018-09-29T10:24:57Z</time>
      </trkpt>
      <trkpt lat="42.0731180" lon="-8.7584810">
        <ele>420.0</ele>
        <time>2018-09-29T10:25:08Z</time>
      </trkpt>
      <trkpt lat="42.0731950" lon="-8.7586910">
        <ele>419.4</ele>
        <time>2018-09-29T10:25:11Z</time>
      </trkpt>
      <trkpt lat="42.0732160" lon="-8.7587580">
        <ele>419.2</ele>
        <time>2018-09-29T10:25:12Z</time>
      </trkpt>
      <trkpt lat="42.0733360" lon="-8.7589850">
        <ele>418.0</ele>
        <time>2018-09-29T10:25:16Z</time>
      </trkpt>
      <trkpt lat="42.0734840" lon="-8.7592030">
        <ele>417.2</ele>
        <time>2018-09-29T10:25:20Z</time>
      </trkpt>
      <trkpt lat="42.0735390" lon="-8.7593390">
        <ele>417.0</ele>
        <time>2018-09-29T10:25:22Z</time>
      </trkpt>
      <trkpt lat="42.0736360" lon="-8.7595190">
        <ele>416.8</ele>
        <time>2018-09-29T10:25:25Z</time>
      </trkpt>
      <trkpt lat="42.0736520" lon="-8.7597540">
        <ele>416.6</ele>
        <time>2018-09-29T10:25:28Z</time>
      </trkpt>
      <trkpt lat="42.0736650" lon="-8.7599200">
        <ele>415.8</ele>
        <time>2018-09-29T10:25:30Z</time>
      </trkpt>
      <trkpt lat="42.0737100" lon="-8.7600620">
        <ele>415.4</ele>
        <time>2018-09-29T10:25:32Z</time>
      </trkpt>
      <trkpt lat="42.0737900" lon="-8.7601540">
        <ele>415.0</ele>
        <time>2018-09-29T10:25:34Z</time>
      </trkpt>
      <trkpt lat="42.0738360" lon="-8.7601990">
        <ele>414.2</ele>
        <time>2018-09-29T10:25:35Z</time>
      </trkpt>
      <trkpt lat="42.0739260" lon="-8.7603060">
        <ele>413.4</ele>
        <time>2018-09-29T10:25:37Z</time>
      </trkpt>
      <trkpt lat="42.0739990" lon="-8.7604480">
        <ele>413.0</ele>
        <time>2018-09-29T10:25:39Z</time>
      </trkpt>
      <trkpt lat="42.0740970" lon="-8.7606830">
        <ele>412.4</ele>
        <time>2018-09-29T10:25:42Z</time>
      </trkpt>
      <trkpt lat="42.0741650" lon="-8.7608300">
        <ele>412.0</ele>
        <time>2018-09-29T10:25:44Z</time>
      </trkpt>
      <trkpt lat="42.0742020" lon="-8.7608910">
        <ele>411.6</ele>
        <time>2018-09-29T10:25:45Z</time>
      </trkpt>
      <trkpt lat="42.0743230" lon="-8.7610510">
        <ele>410.8</ele>
        <time>2018-09-29T10:25:48Z</time>
      </trkpt>
      <trkpt lat="42.0745530" lon="-8.7614270">
        <ele>409.6</ele>
        <time>2018-09-29T10:25:54Z</time>
      </trkpt>
      <trkpt lat="42.0746200" lon="-8.7615940">
        <ele>409.2</ele>
        <time>2018-09-29T10:25:56Z</time>
      </trkpt>
      <trkpt lat="42.0746780" lon="-8.7617930">
        <ele>408.6</ele>
        <time>2018-09-29T10:25:58Z</time>
      </trkpt>
      <trkpt lat="42.0748430" lon="-8.7621310">
        <ele>407.8</ele>
        <time>2018-09-29T10:26:02Z</time>
      </trkpt>
      <trkpt lat="42.0748740" lon="-8.7622050">
        <ele>407.4</ele>
        <time>2018-09-29T10:26:03Z</time>
      </trkpt>
      <trkpt lat="42.0748980" lon="-8.7622790">
        <ele>406.8</ele>
        <time>2018-09-29T10:26:04Z</time>
      </trkpt>
      <trkpt lat="42.0749080" lon="-8.7623590">
        <ele>406.4</ele>
        <time>2018-09-29T10:26:05Z</time>
      </trkpt>
      <trkpt lat="42.0749020" lon="-8.7626340">
        <ele>404.8</ele>
        <time>2018-09-29T10:26:08Z</time>
      </trkpt>
      <trkpt lat="42.0748890" lon="-8.7629450">
        <ele>403.6</ele>
        <time>2018-09-29T10:26:11Z</time>
      </trkpt>
      <trkpt lat="42.0748920" lon="-8.7630550">
        <ele>402.8</ele>
        <time>2018-09-29T10:26:12Z</time>
      </trkpt>
      <trkpt lat="42.0748990" lon="-8.7631730">
        <ele>402.4</ele>
        <time>2018-09-29T10:26:13Z</time>
      </trkpt>
      <trkpt lat="42.0749050" lon="-8.7635420">
        <ele>401.0</ele>
        <time>2018-09-29T10:26:16Z</time>
      </trkpt>
      <trkpt lat="42.0748980" lon="-8.7637930">
        <ele>399.8</ele>
        <time>2018-09-29T10:26:18Z</time>
      </trkpt>
      <trkpt lat="42.0748970" lon="-8.7639180">
        <ele>398.8</ele>
        <time>2018-09-29T10:26:19Z</time>
      </trkpt>
      <trkpt lat="42.0748960" lon="-8.7641730">
        <ele>397.4</ele>
        <time>2018-09-29T10:26:21Z</time>
      </trkpt>
      <trkpt lat="42.0748840" lon="-8.7644390">
        <ele>396.0</ele>
        <time>2018-09-29T10:26:23Z</time>
      </trkpt>
      <trkpt lat="42.0748830" lon="-8.7648630">
        <ele>394.8</ele>
        <time>2018-09-29T10:26:26Z</time>
      </trkpt>
      <trkpt lat="42.0749180" lon="-8.7651400">
        <ele>394.2</ele>
        <time>2018-09-29T10:26:28Z</time>
      </trkpt>
      <trkpt lat="42.0749950" lon="-8.7653900">
        <ele>393.2</ele>
        <time>2018-09-29T10:26:30Z</time>
      </trkpt>
      <trkpt lat="42.0750990" lon="-8.7656010">
        <ele>391.6</ele>
        <time>2018-09-29T10:26:32Z</time>
      </trkpt>
      <trkpt lat="42.0751570" lon="-8.7656930">
        <ele>390.4</ele>
        <time>2018-09-29T10:26:33Z</time>
      </trkpt>
      <trkpt lat="42.0752090" lon="-8.7657870">
        <ele>389.6</ele>
        <time>2018-09-29T10:26:34Z</time>
      </trkpt>
      <trkpt lat="42.0752540" lon="-8.7658850">
        <ele>389.2</ele>
        <time>2018-09-29T10:26:35Z</time>
      </trkpt>
      <trkpt lat="42.0752930" lon="-8.7659860">
        <ele>388.2</ele>
        <time>2018-09-29T10:26:36Z</time>
      </trkpt>
      <trkpt lat="42.0753380" lon="-8.7662040">
        <ele>387.0</ele>
        <time>2018-09-29T10:26:38Z</time>
      </trkpt>
      <trkpt lat="42.0754310" lon="-8.7667150">
        <ele>385.6</ele>
        <time>2018-09-29T10:26:43Z</time>
      </trkpt>
      <trkpt lat="42.0754770" lon="-8.7668960">
        <ele>385.0</ele>
        <time>2018-09-29T10:26:45Z</time>
      </trkpt>
      <trkpt lat="42.0755040" lon="-8.7669810">
        <ele>384.2</ele>
        <time>2018-09-29T10:26:46Z</time>
      </trkpt>
      <trkpt lat="42.0755840" lon="-8.7672310">
        <ele>383.2</ele>
        <time>2018-09-29T10:26:49Z</time>
      </trkpt>
      <trkpt lat="42.0757710" lon="-8.7676760">
        <ele>382.4</ele>
        <time>2018-09-29T10:26:55Z</time>
      </trkpt>
      <trkpt lat="42.0758580" lon="-8.7678860">
        <ele>382.2</ele>
        <time>2018-09-29T10:26:58Z</time>
      </trkpt>
      <trkpt lat="42.0757150" lon="-8.7683090">
        <ele>382.0</ele>
        <time>2018-09-29T10:27:05Z</time>
      </trkpt>
      <trkpt lat="42.0756300" lon="-8.7683870">
        <ele>382.0</ele>
        <time>2018-09-29T10:27:07Z</time>
      </trkpt>
      <trkpt lat="42.0751890" lon="-8.7687780">
        <ele>381.0</ele>
        <time>2018-09-29T10:27:16Z</time>
      </trkpt>
      <trkpt lat="42.0750130" lon="-8.7688950">
        <ele>380.6</ele>
        <time>2018-09-29T10:27:19Z</time>
      </trkpt>
      <trkpt lat="42.0749040" lon="-8.7689100">
        <ele>380.0</ele>
        <time>2018-09-29T10:27:21Z</time>
      </trkpt>
      <trkpt lat="42.0746890" lon="-8.7687980">
        <ele>378.8</ele>
        <time>2018-09-29T10:27:25Z</time>
      </trkpt>
      <trkpt lat="42.0745820" lon="-8.7687130">
        <ele>377.2</ele>
        <time>2018-09-29T10:27:27Z</time>
      </trkpt>
      <trkpt lat="42.0744800" lon="-8.7686180">
        <ele>375.6</ele>
        <time>2018-09-29T10:27:29Z</time>
      </trkpt>
      <trkpt lat="42.0742760" lon="-8.7684420">
        <ele>374.6</ele>
        <time>2018-09-29T10:27:33Z</time>
      </trkpt>
      <trkpt lat="42.0742220" lon="-8.7684100">
        <ele>374.6</ele>
        <time>2018-09-29T10:27:34Z</time>
      </trkpt>
      <trkpt lat="42.0740480" lon="-8.7683490">
        <ele>374.4</ele>
        <time>2018-09-29T10:27:37Z</time>
      </trkpt>
      <trkpt lat="42.0736030" lon="-8.7682030">
        <ele>374.2</ele>
        <time>2018-09-29T10:27:44Z</time>
      </trkpt>
      <trkpt lat="42.0734770" lon="-8.7681500">
        <ele>374.2</ele>
        <time>2018-09-29T10:27:46Z</time>
      </trkpt>
      <trkpt lat="42.0731680" lon="-8.7680230">
        <ele>374.0</ele>
        <time>2018-09-29T10:27:51Z</time>
      </trkpt>
      <trkpt lat="42.0728550" lon="-8.7679540">
        <ele>373.8</ele>
        <time>2018-09-29T10:27:56Z</time>
      </trkpt>
      <trkpt lat="42.0725850" lon="-8.7677410">
        <ele>373.6</ele>
        <time>2018-09-29T10:28:01Z</time>
      </trkpt>
      <trkpt lat="42.0725340" lon="-8.7676950">
        <ele>373.6</ele>
        <time>2018-09-29T10:28:02Z</time>
      </trkpt>
      <trkpt lat="42.0724770" lon="-8.7676620">
        <ele>373.6</ele>
        <time>2018-09-29T10:28:03Z</time>
      </trkpt>
      <trkpt lat="42.0722380" lon="-8.7675770">
        <ele>373.0</ele>
        <time>2018-09-29T10:28:07Z</time>
      </trkpt>
      <trkpt lat="42.0720590" lon="-8.7674890">
        <ele>372.4</ele>
        <time>2018-09-29T10:28:10Z</time>
      </trkpt>
      <trkpt lat="42.0716000" lon="-8.7671890">
        <ele>371.2</ele>
        <time>2018-09-29T10:28:18Z</time>
      </trkpt>
      <trkpt lat="42.0712830" lon="-8.7669410">
        <ele>370.8</ele>
        <time>2018-09-29T10:28:25Z</time>
      </trkpt>
      <trkpt lat="42.0711540" lon="-8.7668890">
        <ele>371.0</ele>
        <time>2018-09-29T10:28:28Z</time>
      </trkpt>
      <trkpt lat="42.0710340" lon="-8.7668240">
        <ele>371.2</ele>
        <time>2018-09-29T10:28:31Z</time>
      </trkpt>
      <trkpt lat="42.0708810" lon="-8.7667150">
        <ele>371.4</ele>
        <time>2018-09-29T10:28:35Z</time>
      </trkpt>
      <trkpt lat="42.0708450" lon="-8.7666870">
        <ele>371.8</ele>
        <time>2018-09-29T10:28:36Z</time>
      </trkpt>
      <trkpt lat="42.0707740" lon="-8.7666400">
        <ele>371.8</ele>
        <time>2018-09-29T10:28:38Z</time>
      </trkpt>
      <trkpt lat="42.0706260" lon="-8.7666140">
        <ele>372.4</ele>
        <time>2018-09-29T10:28:42Z</time>
      </trkpt>
      <trkpt lat="42.0705910" lon="-8.7666180">
        <ele>372.6</ele>
        <time>2018-09-29T10:28:43Z</time>
      </trkpt>
      <trkpt lat="42.0704020" lon="-8.7666550">
        <ele>373.6</ele>
        <time>2018-09-29T10:28:48Z</time>
      </trkpt>
      <trkpt lat="42.0703150" lon="-8.7666580">
        <ele>374.2</ele>
        <time>2018-09-29T10:28:50Z</time>
      </trkpt>
      <trkpt lat="42.0701800" lon="-8.7666320">
        <ele>374.8</ele>
        <time>2018-09-29T10:28:53Z</time>
      </trkpt>
      <trkpt lat="42.0700910" lon="-8.7666080">
        <ele>374.8</ele>
        <time>2018-09-29T10:28:55Z</time>
      </trkpt>
      <trkpt lat="42.0699640" lon="-8.7666060">
        <ele>374.8</ele>
        <time>2018-09-29T10:28:58Z</time>
      </trkpt>
      <trkpt lat="42.0698410" lon="-8.7667800">
        <ele>374.8</ele>
        <time>2018-09-29T10:29:02Z</time>
      </trkpt>
      <trkpt lat="42.0695770" lon="-8.7673350">
        <ele>373.8</ele>
        <time>2018-09-29T10:29:10Z</time>
      </trkpt>
      <trkpt lat="42.0693980" lon="-8.7676310">
        <ele>372.6</ele>
        <time>2018-09-29T10:29:14Z</time>
      </trkpt>
      <trkpt lat="42.0693080" lon="-8.7677790">
        <ele>372.2</ele>
        <time>2018-09-29T10:29:16Z</time>
      </trkpt>
      <trkpt lat="42.0692170" lon="-8.7679320">
        <ele>371.6</ele>
        <time>2018-09-29T10:29:18Z</time>
      </trkpt>
      <trkpt lat="42.0690190" lon="-8.7682510">
        <ele>370.4</ele>
        <time>2018-09-29T10:29:22Z</time>
      </trkpt>
      <trkpt lat="42.0689150" lon="-8.7684130">
        <ele>370.2</ele>
        <time>2018-09-29T10:29:24Z</time>
      </trkpt>
      <trkpt lat="42.0688090" lon="-8.7685750">
        <ele>369.4</ele>
        <time>2018-09-29T10:29:26Z</time>
      </trkpt>
      <trkpt lat="42.0686610" lon="-8.7688270">
        <ele>368.0</ele>
        <time>2018-09-29T10:29:29Z</time>
      </trkpt>
      <trkpt lat="42.0685370" lon="-8.7690950">
        <ele>367.2</ele>
        <time>2018-09-29T10:29:32Z</time>
      </trkpt>
      <trkpt lat="42.0685040" lon="-8.7691890">
        <ele>367.0</ele>
        <time>2018-09-29T10:29:33Z</time>
      </trkpt>
      <trkpt lat="42.0683750" lon="-8.7695870">
        <ele>366.0</ele>
        <time>2018-09-29T10:29:37Z</time>
      </trkpt>
      <trkpt lat="42.0682620" lon="-8.7700330">
        <ele>365.2</ele>
        <time>2018-09-29T10:29:41Z</time>
      </trkpt>
      <trkpt lat="42.0682420" lon="-8.7701590">
        <ele>364.8</ele>
        <time>2018-09-29T10:29:42Z</time>
      </trkpt>
      <trkpt lat="42.0682110" lon="-8.7704220">
        <ele>364.0</ele>
        <time>2018-09-29T10:29:44Z</time>
      </trkpt>
      <trkpt lat="42.0682030" lon="-8.7705550">
        <ele>363.4</ele>
        <time>2018-09-29T10:29:45Z</time>
      </trkpt>
      <trkpt lat="42.0682080" lon="-8.7708240">
        <ele>362.2</ele>
        <time>2018-09-29T10:29:47Z</time>
      </trkpt>
      <trkpt lat="42.0682690" lon="-8.7711900">
        <ele>360.6</ele>
        <time>2018-09-29T10:29:50Z</time>
      </trkpt>
      <trkpt lat="42.0683040" lon="-8.7714150">
        <ele>359.0</ele>
        <time>2018-09-29T10:29:52Z</time>
      </trkpt>
      <trkpt lat="42.0683080" lon="-8.7716510">
        <ele>357.4</ele>
        <time>2018-09-29T10:29:54Z</time>
      </trkpt>
      <trkpt lat="42.0683150" lon="-8.7719230">
        <ele>356.4</ele>
        <time>2018-09-29T10:29:56Z</time>
      </trkpt>
      <trkpt lat="42.0683290" lon="-8.7722020">
        <ele>355.0</ele>
        <time>2018-09-29T10:29:58Z</time>
      </trkpt>
      <trkpt lat="42.0683630" lon="-8.7724590">
        <ele>354.0</ele>
        <time>2018-09-29T10:30:00Z</time>
      </trkpt>
      <trkpt lat="42.0683930" lon="-8.7725720">
        <ele>353.0</ele>
        <time>2018-09-29T10:30:01Z</time>
      </trkpt>
      <trkpt lat="42.0684580" lon="-8.7727780">
        <ele>351.2</ele>
        <time>2018-09-29T10:30:03Z</time>
      </trkpt>
      <trkpt lat="42.0684880" lon="-8.7728710">
        <ele>350.2</ele>
        <time>2018-09-29T10:30:04Z</time>
      </trkpt>
      <trkpt lat="42.0685160" lon="-8.7729590">
        <ele>349.2</ele>
        <time>2018-09-29T10:30:05Z</time>
      </trkpt>
      <trkpt lat="42.0686060" lon="-8.7732680">
        <ele>348.2</ele>
        <time>2018-09-29T10:30:09Z</time>
      </trkpt>
      <trkpt lat="42.0687410" lon="-8.7738050">
        <ele>347.6</ele>
        <time>2018-09-29T10:30:16Z</time>
      </trkpt>
      <trkpt lat="42.0688460" lon="-8.7741970">
        <ele>348.4</ele>
        <time>2018-09-29T10:30:21Z</time>
      </trkpt>
      <trkpt lat="42.0689170" lon="-8.7745000">
        <ele>348.6</ele>
        <time>2018-09-29T10:30:25Z</time>
      </trkpt>
      <trkpt lat="42.0689610" lon="-8.7747200">
        <ele>348.8</ele>
        <time>2018-09-29T10:30:28Z</time>
      </trkpt>
      <trkpt lat="42.0690100" lon="-8.7749400">
        <ele>349.2</ele>
        <time>2018-09-29T10:30:31Z</time>
      </trkpt>
      <trkpt lat="42.0691070" lon="-8.7757170">
        <ele>350.2</ele>
        <time>2018-09-29T10:30:41Z</time>
      </trkpt>
      <trkpt lat="42.0691100" lon="-8.7758740">
        <ele>350.2</ele>
        <time>2018-09-29T10:30:43Z</time>
      </trkpt>
      <trkpt lat="42.0691210" lon="-8.7764220">
        <ele>350.4</ele>
        <time>2018-09-29T10:30:50Z</time>
      </trkpt>
      <trkpt lat="42.0691320" lon="-8.7772210">
        <ele>351.0</ele>
        <time>2018-09-29T10:31:00Z</time>
      </trkpt>
      <trkpt lat="42.0691440" lon="-8.7779720">
        <ele>351.2</ele>
        <time>2018-09-29T10:31:09Z</time>
      </trkpt>
      <trkpt lat="42.0691450" lon="-8.7785570">
        <ele>351.4</ele>
        <time>2018-09-29T10:31:16Z</time>
      </trkpt>
      <trkpt lat="42.0691520" lon="-8.7792900">
        <ele>351.8</ele>
        <time>2018-09-29T10:31:25Z</time>
      </trkpt>
      <trkpt lat="42.0691690" lon="-8.7800580">
        <ele>352.4</ele>
        <time>2018-09-29T10:31:35Z</time>
      </trkpt>
      <trkpt lat="42.0691760" lon="-8.7802480">
        <ele>352.8</ele>
        <time>2018-09-29T10:31:38Z</time>
      </trkpt>
      <trkpt lat="42.0691890" lon="-8.7807730">
        <ele>353.6</ele>
        <time>2018-09-29T10:31:46Z</time>
      </trkpt>
      <trkpt lat="42.0691970" lon="-8.7815360">
        <ele>354.4</ele>
        <time>2018-09-29T10:31:57Z</time>
      </trkpt>
      <trkpt lat="42.0692050" lon="-8.7821950">
        <ele>354.8</ele>
        <time>2018-09-29T10:32:07Z</time>
      </trkpt>
      <trkpt lat="42.0692040" lon="-8.7825560">
        <ele>355.8</ele>
        <time>2018-09-29T10:32:13Z</time>
      </trkpt>
      <trkpt lat="42.0692100" lon="-8.7828410">
        <ele>357.0</ele>
        <time>2018-09-29T10:32:18Z</time>
      </trkpt>
      <trkpt lat="42.0692100" lon="-8.7831310">
        <ele>358.2</ele>
        <time>2018-09-29T10:32:23Z</time>
      </trkpt>
      <trkpt lat="42.0692200" lon="-8.7835200">
        <ele>359.2</ele>
        <time>2018-09-29T10:32:30Z</time>
      </trkpt>
      <trkpt lat="42.0692290" lon="-8.7839130">
        <ele>360.4</ele>
        <time>2018-09-29T10:32:37Z</time>
      </trkpt>
      <trkpt lat="42.0692570" lon="-8.7841540">
        <ele>360.8</ele>
        <time>2018-09-29T10:32:43Z</time>
      </trkpt>
      <trkpt lat="42.0691380" lon="-8.7842440">
        <ele>361.0</ele>
        <time>2018-09-29T10:32:48Z</time>
      </trkpt>
      <trkpt lat="42.0689990" lon="-8.7843110">
        <ele>361.0</ele>
        <time>2018-09-29T10:32:52Z</time>
      </trkpt>
      <trkpt lat="42.0688740" lon="-8.7843500">
        <ele>361.0</ele>
        <time>2018-09-29T10:32:55Z</time>
      </trkpt>
      <trkpt lat="42.0683760" lon="-8.7845440">
        <ele>360.8</ele>
        <time>2018-09-29T10:33:05Z</time>
      </trkpt>
      <trkpt lat="42.0681830" lon="-8.7846080">
        <ele>360.4</ele>
        <time>2018-09-29T10:33:08Z</time>
      </trkpt>
      <trkpt lat="42.0679220" lon="-8.7847140">
        <ele>360.0</ele>
        <time>2018-09-29T10:33:12Z</time>
      </trkpt>
      <trkpt lat="42.0674880" lon="-8.7849310">
        <ele>359.2</ele>
        <time>2018-09-29T10:33:19Z</time>
      </trkpt>
      <trkpt lat="42.0673530" lon="-8.7849960">
        <ele>358.6</ele>
        <time>2018-09-29T10:33:21Z</time>
      </trkpt>
      <trkpt lat="42.0671390" lon="-8.7850800">
        <ele>358.2</ele>
        <time>2018-09-29T10:33:24Z</time>
      </trkpt>
      <trkpt lat="42.0670640" lon="-8.7851010">
        <ele>358.2</ele>
        <time>2018-09-29T10:33:25Z</time>
      </trkpt>
      <trkpt lat="42.0665210" lon="-8.7850910">
        <ele>357.4</ele>
        <time>2018-09-29T10:33:32Z</time>
      </trkpt>
      <trkpt lat="42.0660170" lon="-8.7850010">
        <ele>357.2</ele>
        <time>2018-09-29T10:33:39Z</time>
      </trkpt>
      <trkpt lat="42.0659460" lon="-8.7849870">
        <ele>357.2</ele>
        <time>2018-09-29T10:33:40Z</time>
      </trkpt>
      <trkpt lat="42.0654520" lon="-8.7848890">
        <ele>357.2</ele>
        <time>2018-09-29T10:33:47Z</time>
      </trkpt>
      <trkpt lat="42.0651050" lon="-8.7848240">
        <ele>357.2</ele>
        <time>2018-09-29T10:33:52Z</time>
      </trkpt>
      <trkpt lat="42.0645660" lon="-8.7847170">
        <ele>358.0</ele>
        <time>2018-09-29T10:34:00Z</time>
      </trkpt>
      <trkpt lat="42.0643290" lon="-8.7846670">
        <ele>358.6</ele>
        <time>2018-09-29T10:34:04Z</time>
      </trkpt>
      <trkpt lat="42.0640610" lon="-8.7846110">
        <ele>359.6</ele>
        <time>2018-09-29T10:34:09Z</time>
      </trkpt>
      <trkpt lat="42.0639010" lon="-8.7845590">
        <ele>360.4</ele>
        <time>2018-09-29T10:34:12Z</time>
      </trkpt>
      <trkpt lat="42.0637890" lon="-8.7844900">
        <ele>360.8</ele>
        <time>2018-09-29T10:34:14Z</time>
      </trkpt>
      <trkpt lat="42.0635820" lon="-8.7842620">
        <ele>361.0</ele>
        <time>2018-09-29T10:34:18Z</time>
      </trkpt>
      <trkpt lat="42.0633910" lon="-8.7839950">
        <ele>361.0</ele>
        <time>2018-09-29T10:34:22Z</time>
      </trkpt>
      <trkpt lat="42.0629780" lon="-8.7834060">
        <ele>359.4</ele>
        <time>2018-09-29T10:34:30Z</time>
      </trkpt>
      <trkpt lat="42.0626950" lon="-8.7830380">
        <ele>358.4</ele>
        <time>2018-09-29T10:34:35Z</time>
      </trkpt>
      <trkpt lat="42.0625690" lon="-8.7829100">
        <ele>358.2</ele>
        <time>2018-09-29T10:34:37Z</time>
      </trkpt>
      <trkpt lat="42.0621880" lon="-8.7827680">
        <ele>357.8</ele>
        <time>2018-09-29T10:34:42Z</time>
      </trkpt>
      <trkpt lat="42.0618720" lon="-8.7827140">
        <ele>357.4</ele>
        <time>2018-09-29T10:34:46Z</time>
      </trkpt>
      <trkpt lat="42.0614770" lon="-8.7826540">
        <ele>356.4</ele>
        <time>2018-09-29T10:34:51Z</time>
      </trkpt>
      <trkpt lat="42.0611600" lon="-8.7826040">
        <ele>355.4</ele>
        <time>2018-09-29T10:34:55Z</time>
      </trkpt>
      <trkpt lat="42.0607560" lon="-8.7825460">
        <ele>354.2</ele>
        <time>2018-09-29T10:35:00Z</time>
      </trkpt>
      <trkpt lat="42.0601610" lon="-8.7824160">
        <ele>353.8</ele>
        <time>2018-09-29T10:35:07Z</time>
      </trkpt>
      <trkpt lat="42.0598890" lon="-8.7822920">
        <ele>353.2</ele>
        <time>2018-09-29T10:35:10Z</time>
      </trkpt>
      <trkpt lat="42.0596130" lon="-8.7821620">
        <ele>352.4</ele>
        <time>2018-09-29T10:35:13Z</time>
      </trkpt>
      <trkpt lat="42.0592480" lon="-8.7819840">
        <ele>351.0</ele>
        <time>2018-09-29T10:35:17Z</time>
      </trkpt>
      <trkpt lat="42.0590710" lon="-8.7819040">
        <ele>350.0</ele>
        <time>2018-09-29T10:35:19Z</time>
      </trkpt>
      <trkpt lat="42.0589010" lon="-8.7818190">
        <ele>349.0</ele>
        <time>2018-09-29T10:35:21Z</time>
      </trkpt>
      <trkpt lat="42.0586560" lon="-8.7817030">
        <ele>347.8</ele>
        <time>2018-09-29T10:35:24Z</time>
      </trkpt>
      <trkpt lat="42.0581230" lon="-8.7814700">
        <ele>347.0</ele>
        <time>2018-09-29T10:35:31Z</time>
      </trkpt>
      <trkpt lat="42.0577270" lon="-8.7813370">
        <ele>346.6</ele>
        <time>2018-09-29T10:35:36Z</time>
      </trkpt>
      <trkpt lat="42.0571520" lon="-8.7811750">
        <ele>345.6</ele>
        <time>2018-09-29T10:35:43Z</time>
      </trkpt>
      <trkpt lat="42.0568910" lon="-8.7811100">
        <ele>345.2</ele>
        <time>2018-09-29T10:35:46Z</time>
      </trkpt>
      <trkpt lat="42.0566970" lon="-8.7811050">
        <ele>344.6</ele>
        <time>2018-09-29T10:35:48Z</time>
      </trkpt>
      <trkpt lat="42.0563880" lon="-8.7811820">
        <ele>343.6</ele>
        <time>2018-09-29T10:35:51Z</time>
      </trkpt>
      <trkpt lat="42.0562840" lon="-8.7812230">
        <ele>343.4</ele>
        <time>2018-09-29T10:35:52Z</time>
      </trkpt>
      <trkpt lat="42.0559720" lon="-8.7813360">
        <ele>342.2</ele>
        <time>2018-09-29T10:35:55Z</time>
      </trkpt>
      <trkpt lat="42.0557660" lon="-8.7813780">
        <ele>340.4</ele>
        <time>2018-09-29T10:35:57Z</time>
      </trkpt>
      <trkpt lat="42.0556660" lon="-8.7813790">
        <ele>339.6</ele>
        <time>2018-09-29T10:35:58Z</time>
      </trkpt>
      <trkpt lat="42.0555700" lon="-8.7813660">
        <ele>338.8</ele>
        <time>2018-09-29T10:35:59Z</time>
      </trkpt>
      <trkpt lat="42.0553890" lon="-8.7813100">
        <ele>338.0</ele>
        <time>2018-09-29T10:36:01Z</time>
      </trkpt>
      <trkpt lat="42.0551540" lon="-8.7812420">
        <ele>336.8</ele>
        <time>2018-09-29T10:36:04Z</time>
      </trkpt>
      <trkpt lat="42.0545710" lon="-8.7812700">
        <ele>336.6</ele>
        <time>2018-09-29T10:36:13Z</time>
      </trkpt>
      <trkpt lat="42.0544330" lon="-8.7812760">
        <ele>336.6</ele>
        <time>2018-09-29T10:36:15Z</time>
      </trkpt>
      <trkpt lat="42.0538880" lon="-8.7814380">
        <ele>336.6</ele>
        <time>2018-09-29T10:36:22Z</time>
      </trkpt>
      <trkpt lat="42.0537170" lon="-8.7815460">
        <ele>336.0</ele>
        <time>2018-09-29T10:36:24Z</time>
      </trkpt>
      <trkpt lat="42.0536400" lon="-8.7816320">
        <ele>335.6</ele>
        <time>2018-09-29T10:36:25Z</time>
      </trkpt>
      <trkpt lat="42.0535040" lon="-8.7818420">
        <ele>334.6</ele>
        <time>2018-09-29T10:36:27Z</time>
      </trkpt>
      <trkpt lat="42.0533630" lon="-8.7820590">
        <ele>334.0</ele>
        <time>2018-09-29T10:36:29Z</time>
      </trkpt>
      <trkpt lat="42.0532720" lon="-8.7821310">
        <ele>333.6</ele>
        <time>2018-09-29T10:36:30Z</time>
      </trkpt>
      <trkpt lat="42.0530730" lon="-8.7821140">
        <ele>332.0</ele>
        <time>2018-09-29T10:36:32Z</time>
      </trkpt>
      <trkpt lat="42.0529960" lon="-8.7820330">
        <ele>331.0</ele>
        <time>2018-09-29T10:36:33Z</time>
      </trkpt>
      <trkpt lat="42.0529400" lon="-8.7819360">
        <ele>329.8</ele>
        <time>2018-09-29T10:36:34Z</time>
      </trkpt>
      <trkpt lat="42.0528980" lon="-8.7818350">
        <ele>328.8</ele>
        <time>2018-09-29T10:36:35Z</time>
      </trkpt>
      <trkpt lat="42.0528370" lon="-8.7816280">
        <ele>327.2</ele>
        <time>2018-09-29T10:36:37Z</time>
      </trkpt>
      <trkpt lat="42.0528120" lon="-8.7815270">
        <ele>327.0</ele>
        <time>2018-09-29T10:36:38Z</time>
      </trkpt>
      <trkpt lat="42.0525850" lon="-8.7809190">
        <ele>326.8</ele>
        <time>2018-09-29T10:36:45Z</time>
      </trkpt>
      <trkpt lat="42.0524160" lon="-8.7806550">
        <ele>327.6</ele>
        <time>2018-09-29T10:36:49Z</time>
      </trkpt>
      <trkpt lat="42.0523670" lon="-8.7805980">
        <ele>328.0</ele>
        <time>2018-09-29T10:36:50Z</time>
      </trkpt>
      <trkpt lat="42.0522550" lon="-8.7805210">
        <ele>328.4</ele>
        <time>2018-09-29T10:36:52Z</time>
      </trkpt>
      <trkpt lat="42.0520150" lon="-8.7805080">
        <ele>329.4</ele>
        <time>2018-09-29T10:36:56Z</time>
      </trkpt>
      <trkpt lat="42.0518350" lon="-8.7805350">
        <ele>329.6</ele>
        <time>2018-09-29T10:36:59Z</time>
      </trkpt>
      <trkpt lat="42.0517140" lon="-8.7805700">
        <ele>329.8</ele>
        <time>2018-09-29T10:37:01Z</time>
      </trkpt>
      <trkpt lat="42.0515820" lon="-8.7807580">
        <ele>330.0</ele>
        <time>2018-09-29T10:37:04Z</time>
      </trkpt>
      <trkpt lat="42.0515180" lon="-8.7811320">
        <ele>330.6</ele>
        <time>2018-09-29T10:37:08Z</time>
      </trkpt>
      <trkpt lat="42.0515220" lon="-8.7812290">
        <ele>330.6</ele>
        <time>2018-09-29T10:37:09Z</time>
      </trkpt>
      <trkpt lat="42.0515310" lon="-8.7813260">
        <ele>330.6</ele>
        <time>2018-09-29T10:37:10Z</time>
      </trkpt>
      <trkpt lat="42.0515410" lon="-8.7815210">
        <ele>330.6</ele>
        <time>2018-09-29T10:37:12Z</time>
      </trkpt>
      <trkpt lat="42.0512280" lon="-8.7822440">
        <ele>330.2</ele>
        <time>2018-09-29T10:37:20Z</time>
      </trkpt>
      <trkpt lat="42.0511990" lon="-8.7822620">
        <ele>330.0</ele>
        <time>2018-09-29T10:37:21Z</time>
      </trkpt>
      <trkpt lat="42.0511700" lon="-8.7822790">
        <ele>330.0</ele>
        <time>2018-09-29T10:37:22Z</time>
      </trkpt>
      <trkpt lat="42.0506420" lon="-8.7824530">
        <ele>329.8</ele>
        <time>2018-09-29T10:37:31Z</time>
      </trkpt>
      <trkpt lat="42.0504970" lon="-8.7825050">
        <ele>329.8</ele>
        <time>2018-09-29T10:37:34Z</time>
      </trkpt>
      <trkpt lat="42.0501030" lon="-8.7827990">
        <ele>331.8</ele>
        <time>2018-09-29T10:37:46Z</time>
      </trkpt>
      <trkpt lat="42.0499790" lon="-8.7828320">
        <ele>332.8</ele>
        <time>2018-09-29T10:37:49Z</time>
      </trkpt>
      <trkpt lat="42.0497900" lon="-8.7828900">
        <ele>334.2</ele>
        <time>2018-09-29T10:37:53Z</time>
      </trkpt>
      <trkpt lat="42.0492260" lon="-8.7831290">
        <ele>334.6</ele>
        <time>2018-09-29T10:38:03Z</time>
      </trkpt>
      <trkpt lat="42.0486940" lon="-8.7834610">
        <ele>334.2</ele>
        <time>2018-09-29T10:38:11Z</time>
      </trkpt>
      <trkpt lat="42.0484150" lon="-8.7838020">
        <ele>333.4</ele>
        <time>2018-09-29T10:38:15Z</time>
      </trkpt>
      <trkpt lat="42.0483570" lon="-8.7839050">
        <ele>332.8</ele>
        <time>2018-09-29T10:38:16Z</time>
      </trkpt>
      <trkpt lat="42.0482490" lon="-8.7841040">
        <ele>331.4</ele>
        <time>2018-09-29T10:38:18Z</time>
      </trkpt>
      <trkpt lat="42.0481480" lon="-8.7842900">
        <ele>330.2</ele>
        <time>2018-09-29T10:38:20Z</time>
      </trkpt>
      <trkpt lat="42.0480440" lon="-8.7844670">
        <ele>329.0</ele>
        <time>2018-09-29T10:38:22Z</time>
      </trkpt>
      <trkpt lat="42.0479880" lon="-8.7845470">
        <ele>328.4</ele>
        <time>2018-09-29T10:38:23Z</time>
      </trkpt>
      <trkpt lat="42.0478540" lon="-8.7846580">
        <ele>327.8</ele>
        <time>2018-09-29T10:38:25Z</time>
      </trkpt>
      <trkpt lat="42.0476260" lon="-8.7846880">
        <ele>327.8</ele>
        <time>2018-09-29T10:38:28Z</time>
      </trkpt>
      <trkpt lat="42.0470360" lon="-8.7846970">
        <ele>327.8</ele>
        <time>2018-09-29T10:38:36Z</time>
      </trkpt>
      <trkpt lat="42.0464720" lon="-8.7846080">
        <ele>328.0</ele>
        <time>2018-09-29T10:38:45Z</time>
      </trkpt>
      <trkpt lat="42.0461770" lon="-8.7845340">
        <ele>329.2</ele>
        <time>2018-09-29T10:38:51Z</time>
      </trkpt>
      <trkpt lat="42.0459310" lon="-8.7845860">
        <ele>329.8</ele>
        <time>2018-09-29T10:38:56Z</time>
      </trkpt>
      <trkpt lat="42.0458340" lon="-8.7846230">
        <ele>330.4</ele>
        <time>2018-09-29T10:38:58Z</time>
      </trkpt>
      <trkpt lat="42.0456450" lon="-8.7847080">
        <ele>331.8</ele>
        <time>2018-09-29T10:39:02Z</time>
      </trkpt>
      <trkpt lat="42.0455900" lon="-8.7847220">
        <ele>332.2</ele>
        <time>2018-09-29T10:39:03Z</time>
      </trkpt>
      <trkpt lat="42.0450150" lon="-8.7845930">
        <ele>332.4</ele>
        <time>2018-09-29T10:39:11Z</time>
      </trkpt>
      <trkpt lat="42.0448620" lon="-8.7845050">
        <ele>332.4</ele>
        <time>2018-09-29T10:39:13Z</time>
      </trkpt>
      <trkpt lat="42.0444900" lon="-8.7842270">
        <ele>330.8</ele>
        <time>2018-09-29T10:39:18Z</time>
      </trkpt>
      <trkpt lat="42.0443520" lon="-8.7841010">
        <ele>330.2</ele>
        <time>2018-09-29T10:39:20Z</time>
      </trkpt>
      <trkpt lat="42.0441690" lon="-8.7838520">
        <ele>329.6</ele>
        <time>2018-09-29T10:39:23Z</time>
      </trkpt>
      <trkpt lat="42.0439780" lon="-8.7835560">
        <ele>328.4</ele>
        <time>2018-09-29T10:39:26Z</time>
      </trkpt>
      <trkpt lat="42.0437750" lon="-8.7832290">
        <ele>327.6</ele>
        <time>2018-09-29T10:39:29Z</time>
      </trkpt>
      <trkpt lat="42.0437060" lon="-8.7831140">
        <ele>327.4</ele>
        <time>2018-09-29T10:39:30Z</time>
      </trkpt>
      <trkpt lat="42.0435680" lon="-8.7828810">
        <ele>326.0</ele>
        <time>2018-09-29T10:39:32Z</time>
      </trkpt>
      <trkpt lat="42.0435080" lon="-8.7827520">
        <ele>325.2</ele>
        <time>2018-09-29T10:39:33Z</time>
      </trkpt>
      <trkpt lat="42.0434630" lon="-8.7826070">
        <ele>324.6</ele>
        <time>2018-09-29T10:39:34Z</time>
      </trkpt>
      <trkpt lat="42.0434130" lon="-8.7822930">
        <ele>323.4</ele>
        <time>2018-09-29T10:39:36Z</time>
      </trkpt>
      <trkpt lat="42.0433060" lon="-8.7820070">
        <ele>322.4</ele>
        <time>2018-09-29T10:39:38Z</time>
      </trkpt>
      <trkpt lat="42.0431090" lon="-8.7818500">
        <ele>321.2</ele>
        <time>2018-09-29T10:39:40Z</time>
      </trkpt>
      <trkpt lat="42.0428870" lon="-8.7817600">
        <ele>319.6</ele>
        <time>2018-09-29T10:39:42Z</time>
      </trkpt>
      <trkpt lat="42.0426560" lon="-8.7816820">
        <ele>318.0</ele>
        <time>2018-09-29T10:39:44Z</time>
      </trkpt>
      <trkpt lat="42.0425340" lon="-8.7816620">
        <ele>317.0</ele>
        <time>2018-09-29T10:39:45Z</time>
      </trkpt>
      <trkpt lat="42.0424140" lon="-8.7816720">
        <ele>315.8</ele>
        <time>2018-09-29T10:39:46Z</time>
      </trkpt>
      <trkpt lat="42.0423010" lon="-8.7817260">
        <ele>314.8</ele>
        <time>2018-09-29T10:39:47Z</time>
      </trkpt>
      <trkpt lat="42.0421220" lon="-8.7819290">
        <ele>313.2</ele>
        <time>2018-09-29T10:39:49Z</time>
      </trkpt>
      <trkpt lat="42.0419950" lon="-8.7822070">
        <ele>311.6</ele>
        <time>2018-09-29T10:39:51Z</time>
      </trkpt>
      <trkpt lat="42.0419430" lon="-8.7823540">
        <ele>311.0</ele>
        <time>2018-09-29T10:39:52Z</time>
      </trkpt>
      <trkpt lat="42.0418830" lon="-8.7824910">
        <ele>310.4</ele>
        <time>2018-09-29T10:39:53Z</time>
      </trkpt>
      <trkpt lat="42.0417260" lon="-8.7826870">
        <ele>309.0</ele>
        <time>2018-09-29T10:39:55Z</time>
      </trkpt>
      <trkpt lat="42.0415080" lon="-8.7826850">
        <ele>307.2</ele>
        <time>2018-09-29T10:39:57Z</time>
      </trkpt>
      <trkpt lat="42.0414000" lon="-8.7827040">
        <ele>306.6</ele>
        <time>2018-09-29T10:39:58Z</time>
      </trkpt>
      <trkpt lat="42.0412990" lon="-8.7827410">
        <ele>306.0</ele>
        <time>2018-09-29T10:39:59Z</time>
      </trkpt>
      <trkpt lat="42.0411840" lon="-8.7829350">
        <ele>304.6</ele>
        <time>2018-09-29T10:40:01Z</time>
      </trkpt>
      <trkpt lat="42.0411980" lon="-8.7833360">
        <ele>303.6</ele>
        <time>2018-09-29T10:40:04Z</time>
      </trkpt>
      <trkpt lat="42.0417100" lon="-8.7837410">
        <ele>302.2</ele>
        <time>2018-09-29T10:40:10Z</time>
      </trkpt>
      <trkpt lat="42.0418100" lon="-8.7837830">
        <ele>301.8</ele>
        <time>2018-09-29T10:40:11Z</time>
      </trkpt>
      <trkpt lat="42.0419590" lon="-8.7839340">
        <ele>301.0</ele>
        <time>2018-09-29T10:40:13Z</time>
      </trkpt>
      <trkpt lat="42.0417490" lon="-8.7842110">
        <ele>299.8</ele>
        <time>2018-09-29T10:40:18Z</time>
      </trkpt>
      <trkpt lat="42.0416690" lon="-8.7842170">
        <ele>299.4</ele>
        <time>2018-09-29T10:40:19Z</time>
      </trkpt>
      <trkpt lat="42.0415020" lon="-8.7842400">
        <ele>299.0</ele>
        <time>2018-09-29T10:40:21Z</time>
      </trkpt>
      <trkpt lat="42.0412820" lon="-8.7843140">
        <ele>299.0</ele>
        <time>2018-09-29T10:40:24Z</time>
      </trkpt>
      <trkpt lat="42.0412190" lon="-8.7843540">
        <ele>299.0</ele>
        <time>2018-09-29T10:40:25Z</time>
      </trkpt>
      <trkpt lat="42.0410760" lon="-8.7845470">
        <ele>299.0</ele>
        <time>2018-09-29T10:40:28Z</time>
      </trkpt>
      <trkpt lat="42.0410160" lon="-8.7847180">
        <ele>299.2</ele>
        <time>2018-09-29T10:40:30Z</time>
      </trkpt>
      <trkpt lat="42.0407930" lon="-8.7854370">
        <ele>299.6</ele>
        <time>2018-09-29T10:40:37Z</time>
      </trkpt>
      <trkpt lat="42.0407510" lon="-8.7855190">
        <ele>299.6</ele>
        <time>2018-09-29T10:40:39Z</time>
      </trkpt>
      <trkpt lat="42.0403060" lon="-8.7854460">
        <ele>299.4</ele>
        <time>2018-09-29T10:40:46Z</time>
      </trkpt>
      <trkpt lat="42.0402270" lon="-8.7850440">
        <ele>299.2</ele>
        <time>2018-09-29T10:40:50Z</time>
      </trkpt>
      <trkpt lat="42.0401210" lon="-8.7846230">
        <ele>299.0</ele>
        <time>2018-09-29T10:40:54Z</time>
      </trkpt>
      <trkpt lat="42.0399620" lon="-8.7843430">
        <ele>298.4</ele>
        <time>2018-09-29T10:40:57Z</time>
      </trkpt>
      <trkpt lat="42.0396470" lon="-8.7841250">
        <ele>297.4</ele>
        <time>2018-09-29T10:41:01Z</time>
      </trkpt>
      <trkpt lat="42.0393420" lon="-8.7838830">
        <ele>296.0</ele>
        <time>2018-09-29T10:41:05Z</time>
      </trkpt>
      <trkpt lat="42.0392310" lon="-8.7835770">
        <ele>295.0</ele>
        <time>2018-09-29T10:41:08Z</time>
      </trkpt>
      <trkpt lat="42.0392040" lon="-8.7834710">
        <ele>294.6</ele>
        <time>2018-09-29T10:41:09Z</time>
      </trkpt>
      <trkpt lat="42.0390930" lon="-8.7831810">
        <ele>294.2</ele>
        <time>2018-09-29T10:41:12Z</time>
      </trkpt>
      <trkpt lat="42.0387530" lon="-8.7831660">
        <ele>294.0</ele>
        <time>2018-09-29T10:41:17Z</time>
      </trkpt>
      <trkpt lat="42.0386780" lon="-8.7832150">
        <ele>293.8</ele>
        <time>2018-09-29T10:41:18Z</time>
      </trkpt>
      <trkpt lat="42.0381980" lon="-8.7829900">
        <ele>293.4</ele>
        <time>2018-09-29T10:41:25Z</time>
      </trkpt>
      <trkpt lat="42.0381240" lon="-8.7828270">
        <ele>293.4</ele>
        <time>2018-09-29T10:41:27Z</time>
      </trkpt>
      <trkpt lat="42.0380940" lon="-8.7827390">
        <ele>293.2</ele>
        <time>2018-09-29T10:41:28Z</time>
      </trkpt>
      <trkpt lat="42.0378630" lon="-8.7820310">
        <ele>294.0</ele>
        <time>2018-09-29T10:41:36Z</time>
      </trkpt>
      <trkpt lat="42.0378350" lon="-8.7819480">
        <ele>294.0</ele>
        <time>2018-09-29T10:41:37Z</time>
      </trkpt>
      <trkpt lat="42.0375630" lon="-8.7812780">
        <ele>293.8</ele>
        <time>2018-09-29T10:41:45Z</time>
      </trkpt>
      <trkpt lat="42.0374660" lon="-8.7810010">
        <ele>293.2</ele>
        <time>2018-09-29T10:41:48Z</time>
      </trkpt>
      <trkpt lat="42.0374510" lon="-8.7808990">
        <ele>293.0</ele>
        <time>2018-09-29T10:41:49Z</time>
      </trkpt>
      <trkpt lat="42.0374490" lon="-8.7805700">
        <ele>292.2</ele>
        <time>2018-09-29T10:41:52Z</time>
      </trkpt>
      <trkpt lat="42.0374220" lon="-8.7804590">
        <ele>291.8</ele>
        <time>2018-09-29T10:41:53Z</time>
      </trkpt>
      <trkpt lat="42.0371560" lon="-8.7801120">
        <ele>290.8</ele>
        <time>2018-09-29T10:41:57Z</time>
      </trkpt>
      <trkpt lat="42.0368160" lon="-8.7798210">
        <ele>290.0</ele>
        <time>2018-09-29T10:42:01Z</time>
      </trkpt>
      <trkpt lat="42.0366560" lon="-8.7796640">
        <ele>288.8</ele>
        <time>2018-09-29T10:42:03Z</time>
      </trkpt>
      <trkpt lat="42.0365810" lon="-8.7795730">
        <ele>288.2</ele>
        <time>2018-09-29T10:42:04Z</time>
      </trkpt>
      <trkpt lat="42.0365190" lon="-8.7794700">
        <ele>287.6</ele>
        <time>2018-09-29T10:42:05Z</time>
      </trkpt>
      <trkpt lat="42.0364140" lon="-8.7792590">
        <ele>286.2</ele>
        <time>2018-09-29T10:42:07Z</time>
      </trkpt>
      <trkpt lat="42.0363070" lon="-8.7790610">
        <ele>285.2</ele>
        <time>2018-09-29T10:42:09Z</time>
      </trkpt>
      <trkpt lat="42.0360170" lon="-8.7787750">
        <ele>284.0</ele>
        <time>2018-09-29T10:42:13Z</time>
      </trkpt>
      <trkpt lat="42.0356270" lon="-8.7784890">
        <ele>283.4</ele>
        <time>2018-09-29T10:42:18Z</time>
      </trkpt>
      <trkpt lat="42.0355390" lon="-8.7784490">
        <ele>283.2</ele>
        <time>2018-09-29T10:42:19Z</time>
      </trkpt>
      <trkpt lat="42.0353550" lon="-8.7784430">
        <ele>282.8</ele>
        <time>2018-09-29T10:42:21Z</time>
      </trkpt>
      <trkpt lat="42.0348380" lon="-8.7785020">
        <ele>281.6</ele>
        <time>2018-09-29T10:42:27Z</time>
      </trkpt>
      <trkpt lat="42.0346190" lon="-8.7783450">
        <ele>280.0</ele>
        <time>2018-09-29T10:42:30Z</time>
      </trkpt>
      <trkpt lat="42.0345580" lon="-8.7782890">
        <ele>279.8</ele>
        <time>2018-09-29T10:42:31Z</time>
      </trkpt>
      <trkpt lat="42.0341060" lon="-8.7778400">
        <ele>279.4</ele>
        <time>2018-09-29T10:42:40Z</time>
      </trkpt>
      <trkpt lat="42.0338430" lon="-8.7775690">
        <ele>280.2</ele>
        <time>2018-09-29T10:42:46Z</time>
      </trkpt>
      <trkpt lat="42.0335790" lon="-8.7772240">
        <ele>281.0</ele>
        <time>2018-09-29T10:42:52Z</time>
      </trkpt>
      <trkpt lat="42.0332290" lon="-8.7766140">
        <ele>281.0</ele>
        <time>2018-09-29T10:43:00Z</time>
      </trkpt>
      <trkpt lat="42.0330580" lon="-8.7759120">
        <ele>280.2</ele>
        <time>2018-09-29T10:43:07Z</time>
      </trkpt>
      <trkpt lat="42.0329690" lon="-8.7751960">
        <ele>280.2</ele>
        <time>2018-09-29T10:43:16Z</time>
      </trkpt>
      <trkpt lat="42.0329480" lon="-8.7747080">
        <ele>281.4</ele>
        <time>2018-09-29T10:43:23Z</time>
      </trkpt>
      <trkpt lat="42.0329940" lon="-8.7743810">
        <ele>282.4</ele>
        <time>2018-09-29T10:43:27Z</time>
      </trkpt>
      <trkpt lat="42.0331070" lon="-8.7735770">
        <ele>282.8</ele>
        <time>2018-09-29T10:43:35Z</time>
      </trkpt>
      <trkpt lat="42.0331800" lon="-8.7730190">
        <ele>281.4</ele>
        <time>2018-09-29T10:43:40Z</time>
      </trkpt>
      <trkpt lat="42.0332360" lon="-8.7727970">
        <ele>280.2</ele>
        <time>2018-09-29T10:43:42Z</time>
      </trkpt>
      <trkpt lat="42.0332960" lon="-8.7725780">
        <ele>279.0</ele>
        <time>2018-09-29T10:43:44Z</time>
      </trkpt>
      <trkpt lat="42.0333580" lon="-8.7723630">
        <ele>277.8</ele>
        <time>2018-09-29T10:43:46Z</time>
      </trkpt>
      <trkpt lat="42.0334850" lon="-8.7719250">
        <ele>276.6</ele>
        <time>2018-09-29T10:43:50Z</time>
      </trkpt>
      <trkpt lat="42.0335800" lon="-8.7716000">
        <ele>275.4</ele>
        <time>2018-09-29T10:43:53Z</time>
      </trkpt>
      <trkpt lat="42.0337920" lon="-8.7708440">
        <ele>274.8</ele>
        <time>2018-09-29T10:44:00Z</time>
      </trkpt>
      <trkpt lat="42.0338880" lon="-8.7705350">
        <ele>274.8</ele>
        <time>2018-09-29T10:44:03Z</time>
      </trkpt>
      <trkpt lat="42.0340310" lon="-8.7701160">
        <ele>274.6</ele>
        <time>2018-09-29T10:44:07Z</time>
      </trkpt>
      <trkpt lat="42.0341850" lon="-8.7696940">
        <ele>274.6</ele>
        <time>2018-09-29T10:44:11Z</time>
      </trkpt>
      <trkpt lat="42.0344180" lon="-8.7690060">
        <ele>274.6</ele>
        <time>2018-09-29T10:44:18Z</time>
      </trkpt>
      <trkpt lat="42.0344670" lon="-8.7688130">
        <ele>274.6</ele>
        <time>2018-09-29T10:44:20Z</time>
      </trkpt>
      <trkpt lat="42.0344930" lon="-8.7680720">
        <ele>274.4</ele>
        <time>2018-09-29T10:44:27Z</time>
      </trkpt>
      <trkpt lat="42.0344980" lon="-8.7679600">
        <ele>274.4</ele>
        <time>2018-09-29T10:44:28Z</time>
      </trkpt>
      <trkpt lat="42.0344840" lon="-8.7672320">
        <ele>273.8</ele>
        <time>2018-09-29T10:44:35Z</time>
      </trkpt>
      <trkpt lat="42.0344710" lon="-8.7667390">
        <ele>273.4</ele>
        <time>2018-09-29T10:44:40Z</time>
      </trkpt>
      <trkpt lat="42.0344610" lon="-8.7663400">
        <ele>272.8</ele>
        <time>2018-09-29T10:44:44Z</time>
      </trkpt>
      <trkpt lat="42.0342090" lon="-8.7658950">
        <ele>272.4</ele>
        <time>2018-09-29T10:44:50Z</time>
      </trkpt>
      <trkpt lat="42.0337750" lon="-8.7654590">
        <ele>272.2</ele>
        <time>2018-09-29T10:45:00Z</time>
      </trkpt>
      <trkpt lat="42.0336610" lon="-8.7653510">
        <ele>272.6</ele>
        <time>2018-09-29T10:45:03Z</time>
      </trkpt>
      <trkpt lat="42.0335350" lon="-8.7651960">
        <ele>273.6</ele>
        <time>2018-09-29T10:45:07Z</time>
      </trkpt>
      <trkpt lat="42.0335000" lon="-8.7651650">
        <ele>273.8</ele>
        <time>2018-09-29T10:45:08Z</time>
      </trkpt>
      <trkpt lat="42.0334040" lon="-8.7650540">
        <ele>274.8</ele>
        <time>2018-09-29T10:45:11Z</time>
      </trkpt>
      <trkpt lat="42.0332790" lon="-8.7648880">
        <ele>275.8</ele>
        <time>2018-09-29T10:45:15Z</time>
      </trkpt>
      <trkpt lat="42.0332520" lon="-8.7648400">
        <ele>276.0</ele>
        <time>2018-09-29T10:45:16Z</time>
      </trkpt>
      <trkpt lat="42.0332050" lon="-8.7647400">
        <ele>276.6</ele>
        <time>2018-09-29T10:45:18Z</time>
      </trkpt>
      <trkpt lat="42.0331660" lon="-8.7645690">
        <ele>277.2</ele>
        <time>2018-09-29T10:45:21Z</time>
      </trkpt>
      <trkpt lat="42.0331550" lon="-8.7644360">
        <ele>277.4</ele>
        <time>2018-09-29T10:45:23Z</time>
      </trkpt>
      <trkpt lat="42.0332130" lon="-8.7640420">
        <ele>277.4</ele>
        <time>2018-09-29T10:45:28Z</time>
      </trkpt>
      <trkpt lat="42.0334720" lon="-8.7633620">
        <ele>276.6</ele>
        <time>2018-09-29T10:45:35Z</time>
      </trkpt>
      <trkpt lat="42.0335170" lon="-8.7632480">
        <ele>276.2</ele>
        <time>2018-09-29T10:45:36Z</time>
      </trkpt>
      <trkpt lat="42.0336170" lon="-8.7628710">
        <ele>275.0</ele>
        <time>2018-09-29T10:45:39Z</time>
      </trkpt>
      <trkpt lat="42.0336860" lon="-8.7626090">
        <ele>274.0</ele>
        <time>2018-09-29T10:45:41Z</time>
      </trkpt>
      <trkpt lat="42.0338140" lon="-8.7623740">
        <ele>272.6</ele>
        <time>2018-09-29T10:45:43Z</time>
      </trkpt>
      <trkpt lat="42.0339830" lon="-8.7621750">
        <ele>271.6</ele>
        <time>2018-09-29T10:45:45Z</time>
      </trkpt>
      <trkpt lat="42.0341680" lon="-8.7619790">
        <ele>270.2</ele>
        <time>2018-09-29T10:45:47Z</time>
      </trkpt>
      <trkpt lat="42.0343390" lon="-8.7617560">
        <ele>268.6</ele>
        <time>2018-09-29T10:45:49Z</time>
      </trkpt>
      <trkpt lat="42.0345060" lon="-8.7615090">
        <ele>267.2</ele>
        <time>2018-09-29T10:45:51Z</time>
      </trkpt>
      <trkpt lat="42.0346730" lon="-8.7612590">
        <ele>264.8</ele>
        <time>2018-09-29T10:45:53Z</time>
      </trkpt>
      <trkpt lat="42.0348320" lon="-8.7609970">
        <ele>263.4</ele>
        <time>2018-09-29T10:45:55Z</time>
      </trkpt>
      <trkpt lat="42.0349830" lon="-8.7607160">
        <ele>261.6</ele>
        <time>2018-09-29T10:45:57Z</time>
      </trkpt>
      <trkpt lat="42.0351470" lon="-8.7604510">
        <ele>259.8</ele>
        <time>2018-09-29T10:45:59Z</time>
      </trkpt>
      <trkpt lat="42.0353610" lon="-8.7602430">
        <ele>258.0</ele>
        <time>2018-09-29T10:46:01Z</time>
      </trkpt>
      <trkpt lat="42.0355640" lon="-8.7600020">
        <ele>256.2</ele>
        <time>2018-09-29T10:46:03Z</time>
      </trkpt>
      <trkpt lat="42.0357470" lon="-8.7597400">
        <ele>254.2</ele>
        <time>2018-09-29T10:46:05Z</time>
      </trkpt>
      <trkpt lat="42.0358430" lon="-8.7596180">
        <ele>253.2</ele>
        <time>2018-09-29T10:46:06Z</time>
      </trkpt>
      <trkpt lat="42.0359490" lon="-8.7595150">
        <ele>252.0</ele>
        <time>2018-09-29T10:46:07Z</time>
      </trkpt>
      <trkpt lat="42.0362050" lon="-8.7593860">
        <ele>250.6</ele>
        <time>2018-09-29T10:46:09Z</time>
      </trkpt>
      <trkpt lat="42.0364840" lon="-8.7593110">
        <ele>248.6</ele>
        <time>2018-09-29T10:46:11Z</time>
      </trkpt>
      <trkpt lat="42.0366210" lon="-8.7592650">
        <ele>247.6</ele>
        <time>2018-09-29T10:46:12Z</time>
      </trkpt>
      <trkpt lat="42.0367520" lon="-8.7592010">
        <ele>246.4</ele>
        <time>2018-09-29T10:46:13Z</time>
      </trkpt>
      <trkpt lat="42.0368820" lon="-8.7591230">
        <ele>245.2</ele>
        <time>2018-09-29T10:46:14Z</time>
      </trkpt>
      <trkpt lat="42.0370010" lon="-8.7590310">
        <ele>244.0</ele>
        <time>2018-09-29T10:46:15Z</time>
      </trkpt>
      <trkpt lat="42.0371140" lon="-8.7589270">
        <ele>242.8</ele>
        <time>2018-09-29T10:46:16Z</time>
      </trkpt>
      <trkpt lat="42.0372130" lon="-8.7587990">
        <ele>241.8</ele>
        <time>2018-09-29T10:46:17Z</time>
      </trkpt>
      <trkpt lat="42.0372840" lon="-8.7586460">
        <ele>240.8</ele>
        <time>2018-09-29T10:46:18Z</time>
      </trkpt>
      <trkpt lat="42.0373190" lon="-8.7584740">
        <ele>239.6</ele>
        <time>2018-09-29T10:46:19Z</time>
      </trkpt>
      <trkpt lat="42.0372960" lon="-8.7581210">
        <ele>237.6</ele>
        <time>2018-09-29T10:46:21Z</time>
      </trkpt>
      <trkpt lat="42.0372650" lon="-8.7579500">
        <ele>236.6</ele>
        <time>2018-09-29T10:46:22Z</time>
      </trkpt>
      <trkpt lat="42.0372500" lon="-8.7577820">
        <ele>235.4</ele>
        <time>2018-09-29T10:46:23Z</time>
      </trkpt>
      <trkpt lat="42.0372640" lon="-8.7576140">
        <ele>234.4</ele>
        <time>2018-09-29T10:46:24Z</time>
      </trkpt>
      <trkpt lat="42.0373140" lon="-8.7574700">
        <ele>233.4</ele>
        <time>2018-09-29T10:46:25Z</time>
      </trkpt>
      <trkpt lat="42.0373910" lon="-8.7573560">
        <ele>232.2</ele>
        <time>2018-09-29T10:46:26Z</time>
      </trkpt>
      <trkpt lat="42.0374810" lon="-8.7572580">
        <ele>230.2</ele>
        <time>2018-09-29T10:46:27Z</time>
      </trkpt>
      <trkpt lat="42.0375750" lon="-8.7571570">
        <ele>229.0</ele>
        <time>2018-09-29T10:46:28Z</time>
      </trkpt>
      <trkpt lat="42.0376700" lon="-8.7570440">
        <ele>228.0</ele>
        <time>2018-09-29T10:46:29Z</time>
      </trkpt>
      <trkpt lat="42.0378380" lon="-8.7567900">
        <ele>226.0</ele>
        <time>2018-09-29T10:46:31Z</time>
      </trkpt>
      <trkpt lat="42.0379190" lon="-8.7566590">
        <ele>224.6</ele>
        <time>2018-09-29T10:46:32Z</time>
      </trkpt>
      <trkpt lat="42.0380690" lon="-8.7563770">
        <ele>222.8</ele>
        <time>2018-09-29T10:46:34Z</time>
      </trkpt>
      <trkpt lat="42.0382270" lon="-8.7560930">
        <ele>221.2</ele>
        <time>2018-09-29T10:46:36Z</time>
      </trkpt>
      <trkpt lat="42.0384170" lon="-8.7558580">
        <ele>219.2</ele>
        <time>2018-09-29T10:46:38Z</time>
      </trkpt>
      <trkpt lat="42.0385130" lon="-8.7557410">
        <ele>218.0</ele>
        <time>2018-09-29T10:46:39Z</time>
      </trkpt>
      <trkpt lat="42.0386100" lon="-8.7556280">
        <ele>217.0</ele>
        <time>2018-09-29T10:46:40Z</time>
      </trkpt>
      <trkpt lat="42.0388160" lon="-8.7554340">
        <ele>214.8</ele>
        <time>2018-09-29T10:46:42Z</time>
      </trkpt>
      <trkpt lat="42.0389120" lon="-8.7553480">
        <ele>213.8</ele>
        <time>2018-09-29T10:46:43Z</time>
      </trkpt>
      <trkpt lat="42.0389920" lon="-8.7552410">
        <ele>213.0</ele>
        <time>2018-09-29T10:46:44Z</time>
      </trkpt>
      <trkpt lat="42.0390420" lon="-8.7551090">
        <ele>212.0</ele>
        <time>2018-09-29T10:46:45Z</time>
      </trkpt>
      <trkpt lat="42.0390450" lon="-8.7547980">
        <ele>210.2</ele>
        <time>2018-09-29T10:46:47Z</time>
      </trkpt>
      <trkpt lat="42.0390190" lon="-8.7546380">
        <ele>209.0</ele>
        <time>2018-09-29T10:46:48Z</time>
      </trkpt>
      <trkpt lat="42.0389810" lon="-8.7544820">
        <ele>208.0</ele>
        <time>2018-09-29T10:46:49Z</time>
      </trkpt>
      <trkpt lat="42.0388550" lon="-8.7541900">
        <ele>206.2</ele>
        <time>2018-09-29T10:46:51Z</time>
      </trkpt>
      <trkpt lat="42.0387740" lon="-8.7540530">
        <ele>205.4</ele>
        <time>2018-09-29T10:46:52Z</time>
      </trkpt>
      <trkpt lat="42.0386920" lon="-8.7539190">
        <ele>204.2</ele>
        <time>2018-09-29T10:46:53Z</time>
      </trkpt>
      <trkpt lat="42.0386130" lon="-8.7537780">
        <ele>203.0</ele>
        <time>2018-09-29T10:46:54Z</time>
      </trkpt>
      <trkpt lat="42.0385450" lon="-8.7536320">
        <ele>202.0</ele>
        <time>2018-09-29T10:46:55Z</time>
      </trkpt>
      <trkpt lat="42.0384490" lon="-8.7533110">
        <ele>200.2</ele>
        <time>2018-09-29T10:46:57Z</time>
      </trkpt>
      <trkpt lat="42.0383520" lon="-8.7529910">
        <ele>198.2</ele>
        <time>2018-09-29T10:46:59Z</time>
      </trkpt>
      <trkpt lat="42.0382880" lon="-8.7528410">
        <ele>197.0</ele>
        <time>2018-09-29T10:47:00Z</time>
      </trkpt>
      <trkpt lat="42.0382120" lon="-8.7527010">
        <ele>195.8</ele>
        <time>2018-09-29T10:47:01Z</time>
      </trkpt>
      <trkpt lat="42.0381240" lon="-8.7525730">
        <ele>193.8</ele>
        <time>2018-09-29T10:47:02Z</time>
      </trkpt>
      <trkpt lat="42.0379180" lon="-8.7523830">
        <ele>192.2</ele>
        <time>2018-09-29T10:47:04Z</time>
      </trkpt>
      <trkpt lat="42.0378060" lon="-8.7523350">
        <ele>191.0</ele>
        <time>2018-09-29T10:47:05Z</time>
      </trkpt>
      <trkpt lat="42.0376760" lon="-8.7523240">
        <ele>190.0</ele>
        <time>2018-09-29T10:47:06Z</time>
      </trkpt>
      <trkpt lat="42.0374210" lon="-8.7522510">
        <ele>188.2</ele>
        <time>2018-09-29T10:47:08Z</time>
      </trkpt>
      <trkpt lat="42.0373070" lon="-8.7521640">
        <ele>187.2</ele>
        <time>2018-09-29T10:47:09Z</time>
      </trkpt>
      <trkpt lat="42.0372050" lon="-8.7520560">
        <ele>186.0</ele>
        <time>2018-09-29T10:47:10Z</time>
      </trkpt>
      <trkpt lat="42.0371140" lon="-8.7519370">
        <ele>184.6</ele>
        <time>2018-09-29T10:47:11Z</time>
      </trkpt>
      <trkpt lat="42.0370300" lon="-8.7518110">
        <ele>183.6</ele>
        <time>2018-09-29T10:47:12Z</time>
      </trkpt>
      <trkpt lat="42.0369480" lon="-8.7516870">
        <ele>182.4</ele>
        <time>2018-09-29T10:47:13Z</time>
      </trkpt>
      <trkpt lat="42.0368640" lon="-8.7515660">
        <ele>181.4</ele>
        <time>2018-09-29T10:47:14Z</time>
      </trkpt>
      <trkpt lat="42.0367750" lon="-8.7514490">
        <ele>180.4</ele>
        <time>2018-09-29T10:47:15Z</time>
      </trkpt>
      <trkpt lat="42.0366030" lon="-8.7512030">
        <ele>178.6</ele>
        <time>2018-09-29T10:47:17Z</time>
      </trkpt>
      <trkpt lat="42.0365650" lon="-8.7508940">
        <ele>177.0</ele>
        <time>2018-09-29T10:47:19Z</time>
      </trkpt>
      <trkpt lat="42.0366600" lon="-8.7505760">
        <ele>175.4</ele>
        <time>2018-09-29T10:47:21Z</time>
      </trkpt>
      <trkpt lat="42.0367070" lon="-8.7504090">
        <ele>174.2</ele>
        <time>2018-09-29T10:47:22Z</time>
      </trkpt>
      <trkpt lat="42.0367290" lon="-8.7502380">
        <ele>173.0</ele>
        <time>2018-09-29T10:47:23Z</time>
      </trkpt>
      <trkpt lat="42.0367360" lon="-8.7500580">
        <ele>171.8</ele>
        <time>2018-09-29T10:47:24Z</time>
      </trkpt>
      <trkpt lat="42.0367290" lon="-8.7498810">
        <ele>170.8</ele>
        <time>2018-09-29T10:47:25Z</time>
      </trkpt>
      <trkpt lat="42.0367080" lon="-8.7497090">
        <ele>169.6</ele>
        <time>2018-09-29T10:47:26Z</time>
      </trkpt>
      <trkpt lat="42.0366270" lon="-8.7493720">
        <ele>168.2</ele>
        <time>2018-09-29T10:47:28Z</time>
      </trkpt>
      <trkpt lat="42.0365680" lon="-8.7492130">
        <ele>167.2</ele>
        <time>2018-09-29T10:47:29Z</time>
      </trkpt>
      <trkpt lat="42.0363970" lon="-8.7489410">
        <ele>165.0</ele>
        <time>2018-09-29T10:47:31Z</time>
      </trkpt>
      <trkpt lat="42.0362920" lon="-8.7488280">
        <ele>163.8</ele>
        <time>2018-09-29T10:47:32Z</time>
      </trkpt>
      <trkpt lat="42.0360640" lon="-8.7486310">
        <ele>161.8</ele>
        <time>2018-09-29T10:47:34Z</time>
      </trkpt>
      <trkpt lat="42.0359450" lon="-8.7485380">
        <ele>160.8</ele>
        <time>2018-09-29T10:47:35Z</time>
      </trkpt>
      <trkpt lat="42.0358240" lon="-8.7484460">
        <ele>160.0</ele>
        <time>2018-09-29T10:47:36Z</time>
      </trkpt>
      <trkpt lat="42.0357010" lon="-8.7483520">
        <ele>158.2</ele>
        <time>2018-09-29T10:47:37Z</time>
      </trkpt>
      <trkpt lat="42.0354720" lon="-8.7481330">
        <ele>156.4</ele>
        <time>2018-09-29T10:47:39Z</time>
      </trkpt>
      <trkpt lat="42.0353680" lon="-8.7480120">
        <ele>155.4</ele>
        <time>2018-09-29T10:47:40Z</time>
      </trkpt>
      <trkpt lat="42.0352710" lon="-8.7478790">
        <ele>154.2</ele>
        <time>2018-09-29T10:47:41Z</time>
      </trkpt>
      <trkpt lat="42.0351720" lon="-8.7477480">
        <ele>153.2</ele>
        <time>2018-09-29T10:47:42Z</time>
      </trkpt>
      <trkpt lat="42.0349630" lon="-8.7474960">
        <ele>151.2</ele>
        <time>2018-09-29T10:47:44Z</time>
      </trkpt>
      <trkpt lat="42.0348510" lon="-8.7473820">
        <ele>150.2</ele>
        <time>2018-09-29T10:47:45Z</time>
      </trkpt>
      <trkpt lat="42.0346070" lon="-8.7471970">
        <ele>148.2</ele>
        <time>2018-09-29T10:47:47Z</time>
      </trkpt>
      <trkpt lat="42.0343400" lon="-8.7470690">
        <ele>146.4</ele>
        <time>2018-09-29T10:47:49Z</time>
      </trkpt>
      <trkpt lat="42.0342050" lon="-8.7470180">
        <ele>145.2</ele>
        <time>2018-09-29T10:47:50Z</time>
      </trkpt>
      <trkpt lat="42.0339340" lon="-8.7469340">
        <ele>143.8</ele>
        <time>2018-09-29T10:47:52Z</time>
      </trkpt>
      <trkpt lat="42.0336580" lon="-8.7468860">
        <ele>142.2</ele>
        <time>2018-09-29T10:47:54Z</time>
      </trkpt>
      <trkpt lat="42.0333890" lon="-8.7468330">
        <ele>140.6</ele>
        <time>2018-09-29T10:47:56Z</time>
      </trkpt>
      <trkpt lat="42.0332630" lon="-8.7467710">
        <ele>139.8</ele>
        <time>2018-09-29T10:47:57Z</time>
      </trkpt>
      <trkpt lat="42.0331500" lon="-8.7466810">
        <ele>139.0</ele>
        <time>2018-09-29T10:47:58Z</time>
      </trkpt>
      <trkpt lat="42.0329670" lon="-8.7464480">
        <ele>137.4</ele>
        <time>2018-09-29T10:48:00Z</time>
      </trkpt>
      <trkpt lat="42.0328920" lon="-8.7463150">
        <ele>136.2</ele>
        <time>2018-09-29T10:48:01Z</time>
      </trkpt>
      <trkpt lat="42.0328150" lon="-8.7461830">
        <ele>135.2</ele>
        <time>2018-09-29T10:48:02Z</time>
      </trkpt>
      <trkpt lat="42.0326600" lon="-8.7459160">
        <ele>133.8</ele>
        <time>2018-09-29T10:48:04Z</time>
      </trkpt>
      <trkpt lat="42.0325030" lon="-8.7456360">
        <ele>132.2</ele>
        <time>2018-09-29T10:48:06Z</time>
      </trkpt>
      <trkpt lat="42.0322970" lon="-8.7454180">
        <ele>131.2</ele>
        <time>2018-09-29T10:48:08Z</time>
      </trkpt>
      <trkpt lat="42.0320560" lon="-8.7452590">
        <ele>129.2</ele>
        <time>2018-09-29T10:48:10Z</time>
      </trkpt>
      <trkpt lat="42.0319390" lon="-8.7451700">
        <ele>128.6</ele>
        <time>2018-09-29T10:48:11Z</time>
      </trkpt>
      <trkpt lat="42.0318290" lon="-8.7450620">
        <ele>127.6</ele>
        <time>2018-09-29T10:48:12Z</time>
      </trkpt>
      <trkpt lat="42.0316510" lon="-8.7447950">
        <ele>125.4</ele>
        <time>2018-09-29T10:48:14Z</time>
      </trkpt>
      <trkpt lat="42.0315770" lon="-8.7446630">
        <ele>124.2</ele>
        <time>2018-09-29T10:48:15Z</time>
      </trkpt>
      <trkpt lat="42.0315120" lon="-8.7445480">
        <ele>123.2</ele>
        <time>2018-09-29T10:48:16Z</time>
      </trkpt>
      <trkpt lat="42.0314570" lon="-8.7444470">
        <ele>122.0</ele>
        <time>2018-09-29T10:48:17Z</time>
      </trkpt>
      <trkpt lat="42.0314050" lon="-8.7443610">
        <ele>121.0</ele>
        <time>2018-09-29T10:48:18Z</time>
      </trkpt>
      <trkpt lat="42.0313630" lon="-8.7442780">
        <ele>119.8</ele>
        <time>2018-09-29T10:48:19Z</time>
      </trkpt>
      <trkpt lat="42.0313320" lon="-8.7441940">
        <ele>118.6</ele>
        <time>2018-09-29T10:48:20Z</time>
      </trkpt>
      <trkpt lat="42.0313240" lon="-8.7441020">
        <ele>117.6</ele>
        <time>2018-09-29T10:48:21Z</time>
      </trkpt>
      <trkpt lat="42.0313380" lon="-8.7440010">
        <ele>116.0</ele>
        <time>2018-09-29T10:48:22Z</time>
      </trkpt>
      <trkpt lat="42.0314360" lon="-8.7438960">
        <ele>114.6</ele>
        <time>2018-09-29T10:48:23Z</time>
      </trkpt>
      <trkpt lat="42.0315230" lon="-8.7438060">
        <ele>113.4</ele>
        <time>2018-09-29T10:48:24Z</time>
      </trkpt>
      <trkpt lat="42.0316050" lon="-8.7437060">
        <ele>112.2</ele>
        <time>2018-09-29T10:48:25Z</time>
      </trkpt>
      <trkpt lat="42.0316620" lon="-8.7436030">
        <ele>111.0</ele>
        <time>2018-09-29T10:48:26Z</time>
      </trkpt>
      <trkpt lat="42.0317220" lon="-8.7434970">
        <ele>110.0</ele>
        <time>2018-09-29T10:48:27Z</time>
      </trkpt>
      <trkpt lat="42.0318850" lon="-8.7433380">
        <ele>108.2</ele>
        <time>2018-09-29T10:48:29Z</time>
      </trkpt>
      <trkpt lat="42.0319610" lon="-8.7432480">
        <ele>107.0</ele>
        <time>2018-09-29T10:48:30Z</time>
      </trkpt>
      <trkpt lat="42.0320250" lon="-8.7431480">
        <ele>105.8</ele>
        <time>2018-09-29T10:48:31Z</time>
      </trkpt>
      <trkpt lat="42.0320820" lon="-8.7430390">
        <ele>104.4</ele>
        <time>2018-09-29T10:48:32Z</time>
      </trkpt>
      <trkpt lat="42.0321300" lon="-8.7429280">
        <ele>103.2</ele>
        <time>2018-09-29T10:48:33Z</time>
      </trkpt>
      <trkpt lat="42.0321670" lon="-8.7428230">
        <ele>101.8</ele>
        <time>2018-09-29T10:48:34Z</time>
      </trkpt>
      <trkpt lat="42.0321950" lon="-8.7427330">
        <ele>100.8</ele>
        <time>2018-09-29T10:48:35Z</time>
      </trkpt>
      <trkpt lat="42.0322260" lon="-8.7425980">
        <ele>99.2</ele>
        <time>2018-09-29T10:48:37Z</time>
      </trkpt>
      <trkpt lat="42.0321610" lon="-8.7425190">
        <ele>97.8</ele>
        <time>2018-09-29T10:48:39Z</time>
      </trkpt>
      <trkpt lat="42.0320770" lon="-8.7424860">
        <ele>96.8</ele>
        <time>2018-09-29T10:48:41Z</time>
      </trkpt>
      <trkpt lat="42.0319900" lon="-8.7424760">
        <ele>95.8</ele>
        <time>2018-09-29T10:48:43Z</time>
      </trkpt>
      <trkpt lat="42.0319150" lon="-8.7424600">
        <ele>94.2</ele>
        <time>2018-09-29T10:48:45Z</time>
      </trkpt>
      <trkpt lat="42.0318600" lon="-8.7424170">
        <ele>93.6</ele>
        <time>2018-09-29T10:48:49Z</time>
      </trkpt>
      <trkpt lat="42.0318380" lon="-8.7423830">
        <ele>92.2</ele>
        <time>2018-09-29T10:48:59Z</time>
      </trkpt>
      <trkpt lat="42.0318300" lon="-8.7423650">
        <ele>92.2</ele>
        <time>2018-09-29T10:49:00Z</time>
      </trkpt>
      <trkpt lat="42.0318510" lon="-8.7423550">
        <ele>92.4</ele>
        <time>2018-09-29T10:49:03Z</time>
      </trkpt>
    </trkseg>
  </trk>
</gpx>
